# Wetter Temperatur Luftdruck Luftfeuchtigkeit Sichtweite Windgeschwindigkeit Windrichtung Zeit
1 Clouds 16 1021 59 10000 3.1 90 09:55 08.04.2020
2 Clouds 16 1021 59 10000 3.1 90 09:36 08.04.2020
3 Clouds 16 1021 59 10000 3.1 90 09:18 08.04.2020
4 Clouds 16 1019 48 10000 2.6 110 08:42 08.04.2020
5 Clouds 15 1021 54 8000 1.5 0 08:23 08.04.2020
6 Clouds 15 1021 54 8000 1.5 0 07:44 08.04.2020
7 Clouds 14 1021 54 8000 1.5 0 07:25 08.04.2020
8 Clouds 12 1022 71 7000 1 0 06:56 08.04.2020
9 Mist 9 1021 81 7000 1.5 0 05:56 08.04.2020
10 Clouds 6 1019 93 10000 0.45 267 03:49 08.04.2020
11 Clouds 6 1019 87 8000 1 270 02:49 08.04.2020
12 Clouds 6 1019 87 8000 1 270 02:19 08.04.2020
13 Clouds 8 1019 81 9000 2.1 110 01:43 08.04.2020
14 Clouds 8 1019 81 9000 2.1 110 01:22 08.04.2020
15 Clouds 6 1019 87 10000 2.1 120 00:41 08.04.2020
16 Clear 7 1019 87 10000 2.1 120 00:21 08.04.2020
17 Clear 9 1019 70 10000 1.5 0 23:39 07.04.2020
18 Clear 9 1019 70 10000 1.5 0 23:20 07.04.2020
19 Clouds 9 1019 70 10000 1.5 0 22:57 07.04.2020
20 Clouds 9 1019 70 10000 1.5 0 22:57 07.04.2020
21 Clouds 9 1019 70 10000 1.5 0 22:39 07.04.2020
22 Clouds 9 1019 70 10000 1.5 0 22:19 07.04.2020
23 Clear 10 1020 66 10000 1.5 280 21:56 07.04.2020
24 Clear 10 1020 66 10000 1.5 280 21:56 07.04.2020
25 Clear 10 1020 66 10000 1.5 280 21:38 07.04.2020
26 Clear 10 1020 66 10000 1.5 280 21:19 07.04.2020
27 Clear 10 1020 61 10000 1.5 0 20:55 07.04.2020
28 Clear 10 1020 61 10000 1.5 0 20:37 07.04.2020
29 Clear 10 1020 61 10000 1.5 0 20:18 07.04.2020
30 Clear 13 1020 50 10000 1.5 0 19:56 07.04.2020
31 Clear 13 1020 50 10000 1.5 0 19:36 07.04.2020
32 Clear 13 1020 50 10000 1.5 0 19:18 07.04.2020
33 Clouds 14 1019 47 10000 1.5 0 18:42 07.04.2020
34 Clouds 14 1019 47 10000 1.5 0 18:21 07.04.2020
35 Clouds 14 1019 29 10000 1.5 350 17:59 07.04.2020
36 Clouds 14 1019 29 10000 1.5 350 17:40 07.04.2020
37 Clouds 14 1019 29 10000 1.5 350 17:20 07.04.2020
38 Clouds 14 1019 29 10000 1.5 350 17:20 07.04.2020
39 Clouds 15 1018 47 10000 2.6 10 16:45 07.04.2020
40 Clouds 15 1018 47 10000 2.6 10 16:26 07.04.2020
41 Clouds 17 1018 44 10000 4.1 10 15:47 07.04.2020
42 Clouds 17 1018 44 10000 4.1 10 15:27 07.04.2020
43 Clouds 18 1018 45 10000 3.1 320 14:58 07.04.2020
44 Clouds 18 1018 45 10000 3.1 320 14:39 07.04.2020
45 Clouds 18 1018 45 10000 3.1 320 14:20 07.04.2020
46 Clouds 17 1019 48 10000 2.6 70 13:43 07.04.2020
47 Clouds 16 1019 48 10000 2.6 70 13:21 07.04.2020
48 Clouds 16 1019 44 10000 4.1 90 12:59 07.04.2020
49 Clouds 16 1019 44 10000 4.1 90 12:40 07.04.2020
50 Clouds 16 1019 44 10000 4.1 90 12:21 07.04.2020
51 Clouds 16 1020 48 10000 2.6 290 11:59 07.04.2020
52 Clouds 16 1020 48 10000 2.6 290 11:41 07.04.2020
53 Clouds 16 1020 48 10000 2.6 290 11:21 07.04.2020
54 Clouds 15 1021 47 10000 1.5 0 10:55 07.04.2020
55 Clouds 15 1021 47 10000 1.5 0 10:36 07.04.2020
56 Clouds 15 1021 47 10000 1.5 0 10:18 07.04.2020
57 Clouds 14 1021 58 10000 0.5 0 09:43 07.04.2020
58 Clouds 14 1021 58 10000 0.5 0 09:18 07.04.2020
59 Clouds 13 1022 71 10000 1.5 0 08:41 07.04.2020
60 Clouds 13 1022 71 10000 1.5 0 08:23 07.04.2020
61 Clouds 11 1022 62 10000 1.5 110 07:57 07.04.2020
62 Clouds 11 1022 62 10000 1.5 110 07:38 07.04.2020
63 Clouds 11 1022 62 10000 1.5 110 07:20 07.04.2020
64 Clouds 9 1022 70 10000 0.5 0 06:42 07.04.2020
65 Clouds 9 1022 70 10000 0.5 0 06:18 07.04.2020
66 Clouds 7 1021 87 10000 2.1 100 05:29 07.04.2020
67 Clouds 6 1021 93 10000 1.5 0 04:35 07.04.2020
68 Clouds 5 1021 86 10000 1.5 330 03:24 07.04.2020
69 Clouds 6 1021 93 10000 1 0 02:47 07.04.2020
70 Clouds 5 1021 93 10000 2.1 100 01:43 07.04.2020
71 Clouds 5 1021 93 10000 2.1 100 01:23 07.04.2020
72 Clouds 6 1021 93 10000 1.5 110 00:26 07.04.2020
73 Clouds 6 1022 93 10000 3.1 320 23:44 06.04.2020
74 Clouds 6 1022 93 10000 3.1 320 23:44 06.04.2020
75 Clouds 6 1022 93 10000 3.1 320 23:23 06.04.2020
76 Clouds 6 1022 87 10000 3.6 350 22:56 06.04.2020
77 Clouds 6 1022 87 10000 3.6 350 22:37 06.04.2020
78 Clouds 6 1022 87 10000 3.6 350 22:19 06.04.2020
79 Clouds 6 1023 87 10000 3.1 330 21:56 06.04.2020
80 Clouds 6 1023 87 10000 3.1 330 21:37 06.04.2020
81 Clouds 7 1023 87 10000 3.1 330 21:18 06.04.2020
82 Clouds 7 1022 87 10000 5.1 90 20:42 06.04.2020
83 Clouds 7 1022 87 10000 5.1 90 20:23 06.04.2020
84 Clouds 7 1023 81 10000 3.1 0 19:58 06.04.2020
85 Clouds 7 1023 81 10000 3.1 0 19:39 06.04.2020
86 Clouds 7 1023 81 10000 3.1 0 19:20 06.04.2020
87 Thunderstorm 10 1022 76 10000 5.1 310 18:54 06.04.2020
88 Thunderstorm 10 1022 76 10000 5.1 310 18:36 06.04.2020
89 Thunderstorm 10 1022 76 10000 5.1 310 18:18 06.04.2020
90 Clouds 10 1021 71 10000 1 270 17:41 06.04.2020
91 Clouds 11 1021 71 10000 1 270 17:19 06.04.2020
92 Thunderstorm 12 1021 76 10000 1.5 0 16:49 06.04.2020
93 Thunderstorm 12 1021 76 10000 1.5 0 16:49 06.04.2020
94 Thunderstorm 12 1021 76 10000 1.5 0 16:31 06.04.2020
95 Thunderstorm 12 1020 81 10000 6.2 10 15:40 06.04.2020
96 Thunderstorm 12 1020 81 10000 6.2 10 15:39 06.04.2020
97 Thunderstorm 13 1023 81 10000 5.1 360 13:45 06.04.2020
98 Thunderstorm 13 1023 81 10000 5.1 360 13:45 06.04.2020
99 Rain 13 1020 71 10000 6.2 10 13:23 06.04.2020
100 Clouds 14 1022 62 10000 3.6 20 12:50 06.04.2020
101 Clouds 14 1022 62 10000 3.6 20 12:50 06.04.2020
102 Clouds 14 1022 62 10000 3.6 20 12:50 06.04.2020
103 Clouds 14 1022 62 10000 3.6 20 12:50 06.04.2020
104 Clouds 14 1022 62 10000 3.6 20 12:50 06.04.2020
105 Clouds 14 1022 62 10000 3.6 20 12:21 06.04.2020
106 Clouds 14 1022 62 10000 3.6 20 12:21 06.04.2020
107 Clouds 14 1022 54 10000 1 0 11:54 06.04.2020
108 Clouds 14 1022 54 10000 1 0 11:54 06.04.2020
109 Clouds 14 1022 54 10000 1 0 11:54 06.04.2020
110 Clouds 14 1022 54 10000 1 0 11:54 06.04.2020
111 Clouds 14 1022 54 10000 1 0 11:54 06.04.2020
112 Clouds 14 1022 54 10000 1 0 11:28 06.04.2020
113 Clouds 12 1023 66 10000 3.1 280 10:49 06.04.2020
114 Clouds 12 1023 66 10000 3.1 280 10:49 06.04.2020
115 Clouds 12 1023 66 10000 3.1 280 10:49 06.04.2020
116 Clouds 12 1023 66 10000 3.1 280 10:49 06.04.2020
117 Clouds 12 1023 66 10000 3.1 280 10:49 06.04.2020
118 Clouds 12 1023 66 10000 3.1 280 10:21 06.04.2020
119 Clouds 12 1023 66 10000 3.1 280 10:21 06.04.2020
120 Clouds 9 1023 81 10000 2.6 310 09:42 06.04.2020
121 Clouds 9 1023 81 10000 2.6 310 09:42 06.04.2020
122 Clouds 9 1023 81 10000 2.6 310 09:42 06.04.2020
123 Clouds 9 1023 81 10000 2.6 310 09:42 06.04.2020
124 Clouds 9 1023 81 10000 2.6 310 09:20 06.04.2020
125 Rain 10 1024 81 8000 2.1 180 08:51 06.04.2020
126 Rain 10 1024 87 4000 4.1 240 08:30 06.04.2020
127 Clouds 11 1023 66 10000 3.6 190 07:24 06.04.2020
128 Clouds 10 1023 71 10000 1 0 06:34 06.04.2020
129 Clouds 9 1022 76 10000 1 0 06:01 06.04.2020
130 Clouds 7 1022 81 10000 2.1 90 04:18 06.04.2020
131 Clouds 8 1022 75 10000 1.5 20 02:56 06.04.2020
132 Clouds 9 1022 70 10000 1.5 90 01:57 06.04.2020
133 Clouds 9 1022 70 10000 1.5 90 01:57 06.04.2020
134 Clouds 9 1022 76 10000 1.5 90 00:59 06.04.2020
135 Clouds 9 1022 76 10000 1.5 90 00:29 06.04.2020
136 Clouds 9 1022 76 10000 1.5 90 00:29 06.04.2020
137 Clouds 10 1023 62 10000 2.1 200 23:59 05.04.2020
138 Clouds 10 1023 62 10000 2.1 200 23:40 05.04.2020
139 Clouds 10 1023 62 10000 2.1 200 23:20 05.04.2020
140 Clouds 10 1023 62 10000 2.1 200 23:20 05.04.2020
141 Clouds 10 1023 62 10000 2.1 200 23:20 05.04.2020
142 Clouds 10 1023 66 10000 1.5 180 22:54 05.04.2020
143 Clouds 10 1023 66 10000 1.5 180 22:36 05.04.2020
144 Clouds 10 1023 66 10000 1.5 180 22:18 05.04.2020
145 Clouds 10 1023 66 10000 1 0 21:43 05.04.2020
146 Clouds 10 1023 66 10000 1 0 21:43 05.04.2020
147 Clouds 10 1023 66 10000 1 0 21:43 05.04.2020
148 Clouds 10 1023 66 10000 1 0 21:23 05.04.2020
149 Clouds 11 1023 66 10000 1.5 80 20:24 05.04.2020
150 Clouds 11 1023 66 10000 1.5 80 20:24 05.04.2020
151 Clouds 11 1023 62 10000 1 170 19:43 05.04.2020
152 Clouds 11 1023 62 10000 1 170 19:24 05.04.2020
153 Clouds 12 1023 66 10000 2.1 110 18:48 05.04.2020
154 Clouds 12 1023 66 10000 2.1 110 18:18 05.04.2020
155 Clouds 12 1023 66 10000 2.1 110 18:18 05.04.2020
156 Clouds 13 1022 54 10000 3.1 10 17:49 05.04.2020
157 Clouds 13 1022 54 10000 3.1 10 17:48 05.04.2020
158 Clouds 13 1022 54 10000 3.1 10 17:48 05.04.2020
159 Clouds 13 1022 54 10000 3.1 10 17:47 05.04.2020
160 Clouds 13 1022 54 10000 3.1 10 17:22 05.04.2020
161 Clouds 14 1022 50 10000 3.6 70 16:47 05.04.2020
162 Clouds 14 1022 50 10000 3.6 70 16:47 05.04.2020
163 Clouds 14 1022 50 10000 3.6 70 16:19 05.04.2020
164 Clouds 14 1022 50 10000 3.6 70 16:19 05.04.2020
165 Clouds 16 1022 44 10000 3.1 150 15:46 05.04.2020
166 Clouds 16 1022 44 10000 3.1 150 15:26 05.04.2020
167 Clouds 16 1022 44 10000 3.1 150 15:26 05.04.2020
168 Clouds 17 1022 41 10000 5.1 130 14:48 05.04.2020
169 Clouds 17 1022 41 10000 5.1 130 14:48 05.04.2020
170 Clouds 17 1022 41 10000 5.1 130 14:48 05.04.2020
171 Clouds 17 1022 41 10000 5.1 130 14:48 05.04.2020
172 Clouds 17 1022 44 10000 5.7 130 13:59 05.04.2020
173 Clouds 17 1022 44 10000 5.7 130 13:40 05.04.2020
174 Clouds 17 1022 44 10000 5.7 130 13:40 05.04.2020
175 Clouds 17 1022 44 10000 5.7 130 13:40 05.04.2020
176 Clouds 17 1022 44 10000 5.7 130 13:40 05.04.2020
177 Clouds 17 1022 44 10000 5.7 130 13:40 05.04.2020
178 Clouds 17 1022 48 10000 6.2 120 12:20 05.04.2020
179 Clouds 17 1023 44 10000 4.6 130 11:39 05.04.2020
180 Clouds 17 1023 44 10000 4.6 130 11:19 05.04.2020
181 Clouds 16 1024 50 10000 5.1 110 10:47 05.04.2020
182 Clouds 16 1024 50 10000 5.1 110 10:23 05.04.2020
183 Clouds 16 1024 50 10000 5.1 110 09:54 05.04.2020
184 Clouds 16 1024 50 10000 5.1 110 09:27 05.04.2020
185 Clouds 16 1024 50 10000 5.1 110 09:27 05.04.2020
186 Clouds 15 1024 58 10000 4.1 210 08:32 05.04.2020
187 Clouds 14 1024 58 10000 4.1 210 07:05 05.04.2020
188 Clouds 14 1024 58 10000 4.1 210 07:05 05.04.2020
189 Clouds 14 1024 58 10000 4.1 210 07:05 05.04.2020
190 Clouds 10 1022 71 10000 2.1 140 04:31 05.04.2020
191 Clouds 10 1021 66 10000 1.5 240 03:28 05.04.2020
192 Clouds 10 1021 66 10000 1.5 310 02:19 05.04.2020
193 Clouds 11 1021 66 10000 3.1 140 01:42 05.04.2020
194 Clouds 11 1021 66 10000 3.1 140 01:22 05.04.2020
195 Rain 11 1021 76 10000 3.1 260 00:37 05.04.2020
196 Rain 11 1021 76 10000 3.1 260 00:18 05.04.2020
197 Clouds 12 1022 58 10000 1.5 220 23:41 04.04.2020
198 Clouds 12 1022 58 10000 1.5 220 23:22 04.04.2020
199 Clouds 12 1022 54 10000 1.5 260 22:57 04.04.2020
200 Clouds 12 1022 54 10000 1.5 260 22:39 04.04.2020
201 Clouds 12 1022 54 10000 1.5 260 22:20 04.04.2020
202 Clouds 13 1022 58 10000 4.1 170 21:57 04.04.2020
203 Clouds 13 1022 58 10000 4.1 170 21:39 04.04.2020
204 Clouds 13 1022 58 10000 4.1 170 21:19 04.04.2020
205 Clouds 14 1022 50 10000 1.5 190 20:55 04.04.2020
206 Clouds 14 1022 50 10000 1.5 190 20:36 04.04.2020
207 Clouds 14 1022 50 10000 1.5 190 20:18 04.04.2020
208 Clouds 14 1021 54 10000 4.1 220 19:42 04.04.2020
209 Clouds 14 1021 54 10000 4.1 220 19:21 04.04.2020
210 Clouds 15 1021 54 10000 7.7 240 18:59 04.04.2020
211 Clouds 15 1021 54 10000 7.7 240 18:40 04.04.2020
212 Clouds 15 1021 54 10000 7.7 240 18:21 04.04.2020
213 Clouds 15 1021 54 10000 7.7 240 18:21 04.04.2020
214 Clouds 17 1020 41 10000 4.1 120 17:58 04.04.2020
215 Clouds 17 1020 41 10000 4.1 120 17:39 04.04.2020
216 Clouds 17 1020 41 10000 4.1 120 17:19 04.04.2020
217 Clouds 17 1019 41 10000 6.2 110 16:45 04.04.2020
218 Clouds 17 1019 41 10000 6.2 110 16:27 04.04.2020
219 Clouds 18 1018 39 10000 5.1 90 15:59 04.04.2020
220 Clouds 18 1018 39 10000 5.1 90 15:39 04.04.2020
221 Clouds 18 1018 39 10000 5.1 90 15:19 04.04.2020
222 Clouds 19 1018 34 10000 4.1 70 14:55 04.04.2020
223 Clouds 19 1018 34 10000 4.1 70 14:37 04.04.2020
224 Clouds 19 1018 34 10000 4.1 70 14:18 04.04.2020
225 Clouds 20 1018 29 10000 5.1 70 13:42 04.04.2020
226 Clouds 20 1018 29 10000 5.1 70 13:22 04.04.2020
227 Clouds 20 1019 32 10000 2.6 360 12:58 04.04.2020
228 Clouds 20 1019 32 10000 2.6 360 12:40 04.04.2020
229 Clouds 20 1019 32 10000 2.6 360 12:20 04.04.2020
230 Clouds 20 1020 25 10000 1.5 0 11:42 04.04.2020
231 Clouds 20 1020 25 10000 1.5 0 11:42 04.04.2020
232 Clouds 20 1020 25 10000 1.5 0 11:23 04.04.2020
233 Clouds 19 1021 29 10000 1.5 0 10:59 04.04.2020
234 Clouds 19 1021 29 10000 1.5 0 10:40 04.04.2020
235 Clouds 19 1021 29 10000 1.5 0 10:22 04.04.2020
236 Clouds 18 1022 29 10000 2.6 0 09:56 04.04.2020
237 Clouds 18 1022 29 10000 2.6 0 09:38 04.04.2020
238 Clouds 18 1022 29 10000 2.6 0 09:20 04.04.2020
239 Clouds 17 1023 42 10000 1.5 0 08:43 04.04.2020
240 Clouds 17 1023 42 10000 1.5 0 08:23 04.04.2020
241 Clouds 15 1023 38 10000 1.5 0 07:57 04.04.2020
242 Clouds 15 1023 38 10000 1.5 0 07:38 04.04.2020
243 Clouds 14 1023 43 10000 1.5 0 07:20 04.04.2020
244 Clouds 13 1023 43 10000 1.5 0 06:29 04.04.2020
245 Clouds 11 1022 57 10000 1.5 0 05:52 04.04.2020
246 Clouds 11 1022 57 10000 1.5 0 05:32 04.04.2020
247 Clouds 7 1022 81 10000 0.9 282 04:34 04.04.2020
248 Clouds 6 1021 81 10000 0.9 282 03:56 04.04.2020
249 Clouds 6 1021 81 10000 0.9 282 03:29 04.04.2020
250 Clear 6 1021 81 10000 1 0 02:45 04.04.2020
251 Clear 6 1021 81 10000 1 0 02:25 04.04.2020
252 Clear 8 1021 70 10000 2.6 280 01:27 04.04.2020
253 Clear 7 1021 75 10000 1.1 294 00:58 04.04.2020
254 Clear 7 1021 75 10000 1.1 294 00:31 04.04.2020
255 Clear 8 1022 66 10000 0.5 0 23:57 03.04.2020
256 Clear 8 1022 66 10000 0.5 0 23:38 03.04.2020
257 Clear 8 1022 66 10000 0.5 0 23:19 03.04.2020
258 Clear 8 1022 66 10000 0.5 0 23:19 03.04.2020
259 Clear 9 1022 66 10000 1.16 314 22:40 03.04.2020
260 Clear 9 1022 66 10000 1.16 314 22:19 03.04.2020
261 Clear 9 1022 66 10000 1.16 314 22:19 03.04.2020
262 Clear 10 1022 57 10000 1 0 21:57 03.04.2020
263 Clear 10 1022 57 10000 1 0 21:38 03.04.2020
264 Clear 10 1022 57 10000 1 0 21:20 03.04.2020
265 Clear 12 1022 37 10000 2.1 310 20:55 03.04.2020
266 Clear 12 1022 37 10000 2.1 310 20:36 03.04.2020
267 Clear 12 1022 37 10000 2.1 310 20:18 03.04.2020
268 Clear 12 1022 37 10000 2.1 310 20:18 03.04.2020
269 Clear 13 1022 37 10000 2.1 320 19:55 03.04.2020
270 Clear 13 1022 37 10000 2.1 320 19:36 03.04.2020
271 Clear 13 1022 37 10000 2.1 320 19:18 03.04.2020
272 Clear 15 1021 22 10000 2.6 240 18:56 03.04.2020
273 Clear 15 1021 22 10000 2.6 240 18:38 03.04.2020
274 Clear 15 1021 21 10000 2.6 240 18:20 03.04.2020
275 Clouds 16 1021 30 10000 5.1 20 17:40 03.04.2020
276 Clouds 16 1021 30 10000 5.1 20 17:19 03.04.2020
277 Clouds 17 1020 29 10000 5.1 30 16:55 03.04.2020
278 Clouds 17 1020 29 10000 5.1 30 16:36 03.04.2020
279 Clouds 17 1020 29 10000 5.1 30 16:18 03.04.2020
280 Clouds 18 1019 33 10000 4.1 10 15:41 03.04.2020
281 Clouds 18 1019 33 10000 4.1 10 15:22 03.04.2020
282 Clouds 17 1019 33 10000 4.1 10 14:58 03.04.2020
283 Clear 17 1016 14 0 0.48 351 14:40 03.04.2020
284 Clouds 19 1020 31 10000 3.1 70 14:21 03.04.2020
285 Clouds 19 1020 31 10000 3.1 70 13:46 03.04.2020
286 Clouds 19 1020 31 10000 3.1 70 13:27 03.04.2020
287 Clouds 20 1020 29 10000 1.5 0 12:57 03.04.2020
288 Clouds 20 1020 29 10000 1.5 0 12:39 03.04.2020
289 Clouds 20 1020 29 10000 1.5 0 12:18 03.04.2020
290 Clouds 20 1021 29 10000 1.5 0 11:55 03.04.2020
291 Clouds 20 1021 29 10000 1.5 0 11:55 03.04.2020
292 Clouds 20 1021 29 10000 1.5 0 11:37 03.04.2020
293 Clouds 20 1021 29 10000 1.5 0 11:18 03.04.2020
294 Clouds 18 1022 25 10000 2.6 220 10:56 03.04.2020
295 Clouds 18 1022 25 10000 2.6 220 10:37 03.04.2020
296 Clouds 18 1022 25 10000 2.6 220 10:19 03.04.2020
297 Clouds 18 1022 29 10000 1.5 0 09:55 03.04.2020
298 Clouds 18 1022 29 10000 1.5 0 09:37 03.04.2020
299 Clouds 18 1022 29 10000 1.5 0 09:37 03.04.2020
300 Clouds 18 1022 29 10000 1.5 0 09:18 03.04.2020
301 Clouds 16 1023 16 10000 1.5 0 08:43 03.04.2020
302 Clouds 16 1023 16 10000 1.5 0 08:23 03.04.2020
303 Clouds 14 1023 16 10000 1.5 0 07:51 03.04.2020
304 Clouds 14 1023 16 10000 1.5 0 07:33 03.04.2020
305 Clouds 11 1023 61 10000 1.5 0 06:57 03.04.2020
306 Clouds 11 1023 61 10000 1.5 0 06:27 03.04.2020
307 Clouds 8 1022 65 10000 1 280 05:42 03.04.2020
308 Clouds 5 1022 80 10000 1.5 0 03:52 03.04.2020
309 Clouds 5 1022 80 10000 1.5 0 03:31 03.04.2020
310 Clouds 6 1021 75 10000 1.5 0 02:30 03.04.2020
311 Clouds 7 1022 70 10000 1 0 01:24 03.04.2020
312 Clouds 7 1021 75 10000 1 120 00:43 03.04.2020
313 Clouds 7 1021 75 10000 1 120 00:23 03.04.2020
314 Clouds 6 1022 75 10000 2.1 120 23:43 02.04.2020
315 Clouds 6 1022 75 10000 2.1 120 23:24 02.04.2020
316 Clouds 7 1022 70 10000 1.5 0 22:59 02.04.2020
317 Clouds 7 1022 70 10000 1.5 0 22:41 02.04.2020
318 Clouds 7 1022 70 10000 1.5 0 22:21 02.04.2020
319 Clouds 9 1022 61 10000 1.04 298 21:57 02.04.2020
320 Clouds 9 1022 61 10000 1.04 298 21:36 02.04.2020
321 Clouds 9 1022 61 10000 1.53 295 21:18 02.04.2020
322 Clouds 8 1022 65 10000 0.5 0 20:44 02.04.2020
323 Clouds 8 1022 65 10000 0.5 0 20:23 02.04.2020
324 Clouds 11 1022 23 10000 1 0 19:55 02.04.2020
325 Clouds 11 1022 23 10000 1 0 19:37 02.04.2020
326 Clouds 11 1022 23 10000 1 0 19:18 02.04.2020
327 Clouds 11 1021 46 10000 2.6 310 18:41 02.04.2020
328 Clouds 11 1021 46 10000 2.6 310 18:21 02.04.2020
329 Clouds 13 1020 37 10000 0.5 0 17:57 02.04.2020
330 Clouds 13 1020 37 10000 0.5 0 17:39 02.04.2020
331 Clouds 13 1020 37 10000 0.5 0 17:20 02.04.2020
332 Clouds 14 1019 33 10000 2.6 40 16:56 02.04.2020
333 Clouds 14 1019 33 10000 2.6 40 16:38 02.04.2020
334 Clouds 14 1019 33 10000 2.6 40 16:20 02.04.2020
335 Clouds 17 1019 25 10000 2.1 180 15:54 02.04.2020
336 Clouds 17 1019 25 10000 2.1 180 15:36 02.04.2020
337 Clear 17 1019 25 10000 2.1 180 15:18 02.04.2020
338 Clear 17 1018 23 10000 3.1 160 14:40 02.04.2020
339 Clear 17 1018 23 10000 3.1 160 14:21 02.04.2020
340 Clear 17 1019 25 10000 3.1 0 13:58 02.04.2020
341 Clear 17 1019 25 10000 3.1 0 13:39 02.04.2020
342 Clear 17 1019 25 10000 3.1 0 13:21 02.04.2020
343 Clear 17 1019 23 10000 3.6 200 12:56 02.04.2020
344 Clear 17 1019 23 10000 3.6 200 12:38 02.04.2020
345 Clear 17 1019 23 10000 3.6 200 12:19 02.04.2020
346 Clear 17 1019 23 10000 3.6 200 12:19 02.04.2020
347 Clear 16 1020 28 10000 5.1 200 11:57 02.04.2020
348 Clear 16 1020 28 10000 5.1 200 11:38 02.04.2020
349 Clear 16 1020 28 10000 5.1 200 11:38 02.04.2020
350 Clear 16 1020 28 10000 5.1 200 11:19 02.04.2020
351 Clear 16 1020 28 10000 5.1 200 11:19 02.04.2020
352 Clear 17 1018 27 10000 4.6 210 10:55 02.04.2020
353 Clear 17 1018 27 10000 4.6 210 10:55 02.04.2020
354 Clear 17 1018 27 10000 4.6 210 10:37 02.04.2020
355 Clear 15 1022 30 10000 5.1 210 10:18 02.04.2020
356 Clear 14 1022 30 10000 5.1 210 09:43 02.04.2020
357 Clear 14 1022 30 10000 5.1 210 09:25 02.04.2020
358 Clear 14 1022 30 10000 4.6 220 08:58 02.04.2020
359 Clear 14 1022 30 10000 4.6 220 08:40 02.04.2020
360 Clear 14 1022 30 10000 4.6 220 08:22 02.04.2020
361 Clear 12 1022 29 10000 3.6 240 07:44 02.04.2020
362 Clear 11 1022 29 10000 3.6 240 07:20 02.04.2020
363 Clear 11 1022 37 10000 3.1 270 06:58 02.04.2020
364 Clear 11 1022 37 10000 3.1 270 06:21 02.04.2020
365 Clear 7 1021 60 10000 3.6 310 05:44 02.04.2020
366 Clear 3 1021 74 10000 2.6 330 03:57 02.04.2020
367 Clear 5 1020 80 10000 1.5 340 01:34 02.04.2020
368 Clear 5 1020 93 10000 1.5 310 00:46 02.04.2020
369 Clear 5 1020 93 10000 1.5 310 00:26 02.04.2020
370 Clear 4 1020 86 10000 1.5 0 23:41 01.04.2020
371 Clear 4 1020 86 10000 1.5 0 23:20 01.04.2020
372 Clear 5 1021 80 10000 2.1 250 22:59 01.04.2020
373 Clear 5 1021 80 10000 2.1 250 22:39 01.04.2020
374 Clear 7 1021 80 10000 2.1 250 22:21 01.04.2020
375 Clear 7 1021 86 10000 1.5 0 21:42 01.04.2020
376 Clouds 7 1021 86 10000 1.5 0 21:22 01.04.2020
377 Clear 7 1021 86 10000 1.5 0 21:22 01.04.2020
378 Clear 7 1021 86 10000 1.5 0 21:21 01.04.2020
379 Clear 7 1021 86 10000 1.5 0 21:21 01.04.2020
380 Clear 7 1021 86 10000 1.5 0 21:20 01.04.2020
381 Clouds 5 1021 80 10000 1.5 0 20:57 01.04.2020
382 Clouds 5 1021 80 10000 1.5 0 20:39 01.04.2020
383 Clouds 7 1021 80 10000 1.5 0 20:20 01.04.2020
384 Clouds 7 1021 80 10000 1.5 0 20:20 01.04.2020
385 Clouds 8 1021 70 10000 2.1 70 19:59 01.04.2020
386 Clouds 7 1021 70 10000 2.1 70 19:41 01.04.2020
387 -273 0 0 0 0 0 19:20 01.04.2020
388 Clouds 8 1020 75 10000 2.1 310 18:44 01.04.2020
389 Clouds 8 1020 75 10000 2.1 310 18:25 01.04.2020
390 Clouds 8 1019 30 10000 2.6 260 17:58 01.04.2020
391 Clouds 8 1019 30 10000 2.6 260 17:38 01.04.2020
392 Clouds 9 1019 30 10000 2.6 260 17:19 01.04.2020
393 Clouds 9 1019 66 10000 6.2 340 16:58 01.04.2020
394 Clouds 9 1019 66 10000 6.2 340 16:58 01.04.2020
395 Clouds 9 1019 66 10000 6.2 340 16:39 01.04.2020
396 Clouds 9 1019 66 10000 6.2 340 16:21 01.04.2020
397 Clouds 10 1019 61 10000 5.1 360 15:57 01.04.2020
398 Clouds 10 1019 61 10000 5.1 360 15:38 01.04.2020
399 Clouds 10 1019 61 10000 5.1 360 15:19 01.04.2020
400 Clouds 11 1018 66 10000 5.7 360 14:55 01.04.2020
401 Clouds 11 1018 66 10000 5.7 360 14:55 01.04.2020
402 Clouds 11 1018 66 10000 5.7 360 14:37 01.04.2020
403 Clouds 11 1018 66 10000 5.7 360 14:19 01.04.2020
404 Clouds 11 1019 66 10000 5.1 10 13:56 01.04.2020
405 Clouds 11 1019 66 10000 5.1 10 13:37 01.04.2020
406 Clouds 11 1019 66 10000 5.1 10 13:18 01.04.2020
407 Clouds 11 1020 66 10000 6.2 350 12:42 01.04.2020
408 Clouds 11 1020 66 10000 6.2 350 12:24 01.04.2020
409 Clouds 10 1020 76 10000 4.6 30 11:59 01.04.2020
410 Clouds 10 1020 76 10000 4.6 30 11:39 01.04.2020
411 Clouds 10 1020 76 10000 4.6 30 11:20 01.04.2020
412 Clouds 10 1021 71 10000 3.6 50 10:56 01.04.2020
413 Clouds 10 1021 71 10000 3.6 50 10:37 01.04.2020
414 Clouds 10 1021 71 10000 3.6 50 10:18 01.04.2020
415 Clouds 9 1022 66 10000 1.5 0 09:40 01.04.2020
416 Clouds 9 1022 66 10000 1.5 0 09:40 01.04.2020
417 Clouds 9 1022 66 10000 1.5 0 09:21 01.04.2020
418 Rain 7 1022 81 9000 3.1 150 08:59 01.04.2020
419 Rain 7 1022 81 9000 3.1 150 08:40 01.04.2020
420 Rain 7 1022 81 9000 3.1 150 08:18 01.04.2020
421 Rain 5 1021 93 9000 6.2 150 07:42 01.04.2020
422 Rain 5 1021 93 9000 6.2 150 07:19 01.04.2020
423 Mist 6 1021 87 4000 1.5 90 06:47 01.04.2020
424 Mist 6 1021 87 4000 1.5 90 06:21 01.04.2020
425 Mist 5 1021 93 5000 2.1 320 05:53 01.04.2020
426 Mist 5 1020 93 4000 1.5 290 04:29 01.04.2020
427 Mist 5 1020 93 5000 1.5 0 03:21 01.04.2020
428 Clouds 4 1019 93 7000 1.5 0 02:41 01.04.2020
429 Clouds 4 1019 100 7000 2.6 130 01:53 01.04.2020
430 Clouds 4 1019 100 7000 2.6 130 01:27 01.04.2020
431 Clouds 4 1019 100 8000 1.5 70 00:47 01.04.2020
432 Clouds 4 1019 100 8000 1.5 70 00:24 01.04.2020
433 Clouds 3 1019 100 9000 1.5 110 23:59 31.03.2020
434 Clouds 4 1019 100 9000 1.5 110 23:41 31.03.2020
435 Clouds 4 1019 100 9000 1.5 110 23:22 31.03.2020
436 Clouds 3 1020 100 9000 1.5 110 22:41 31.03.2020
437 Clouds 4 1020 100 9000 1.5 110 22:22 31.03.2020
438 Clouds 5 1020 93 9000 1.5 320 21:58 31.03.2020
439 Clouds 5 1020 93 9000 1.5 320 21:58 31.03.2020
440 Clouds 5 1020 93 9000 1.5 320 21:40 31.03.2020
441 Clouds 5 1020 93 9000 1.5 320 21:21 31.03.2020
442 Clouds 5 1020 93 9000 1.5 80 20:57 31.03.2020
443 Clouds 5 1020 93 9000 1.5 80 20:57 31.03.2020
444 Clouds 5 1020 93 9000 1.5 80 20:37 31.03.2020
445 Clouds 5 1020 93 9000 1.5 70 20:19 31.03.2020
446 Clouds 5 1020 93 9000 1.5 70 19:57 31.03.2020
447 Clouds 5 1020 93 9000 1.5 70 19:38 31.03.2020
448 Clouds 5 1020 93 9000 1.5 120 19:19 31.03.2020
449 Clouds 5 1020 93 9000 1.5 120 18:44 31.03.2020
450 Clouds 5 1020 93 9000 1.5 120 18:21 31.03.2020
451 Clouds 5 1019 93 9000 1.5 110 17:57 31.03.2020
452 Clouds 5 1019 93 9000 1.5 110 17:57 31.03.2020
453 Clouds 6 1019 93 9000 1.5 110 17:39 31.03.2020
454 Clouds 6 1019 93 9000 1.5 110 17:21 31.03.2020
455 Clouds 6 1019 93 9000 1.5 110 16:56 31.03.2020
456 Clouds 6 1019 93 9000 1.5 110 16:37 31.03.2020
457 Clouds 6 1018 93 10000 1.5 0 16:18 31.03.2020
458 Drizzle 6 1018 93 10000 1.5 70 15:56 31.03.2020
459 Drizzle 6 1018 93 10000 1.5 70 15:37 31.03.2020
460 Drizzle 6 1018 93 10000 1.5 70 15:18 31.03.2020
461 Rain 6 1018 87 10000 1.5 10 14:42 31.03.2020
462 Rain 6 1018 87 10000 1.5 10 14:23 31.03.2020
463 Rain 6 1019 86 10000 3.1 340 13:59 31.03.2020
464 Rain 6 1019 86 10000 3.1 340 13:40 31.03.2020
465 Rain 5 1019 86 10000 3.1 340 13:19 31.03.2020
466 Clouds 5 1019 86 10000 3.1 340 12:46 31.03.2020
467 Clouds 5 1019 86 10000 3.1 340 12:20 31.03.2020
468 Rain 5 1020 86 10000 3.6 350 11:58 31.03.2020
469 Rain 5 1020 86 10000 3.6 350 11:38 31.03.2020
470 Rain 5 1020 86 10000 3.6 350 11:19 31.03.2020
471 Rain 5 1020 86 8000 2.6 350 10:55 31.03.2020
472 Rain 5 1020 86 8000 2.6 350 10:37 31.03.2020
473 Rain 5 1020 86 8000 2.6 350 10:19 31.03.2020
474 Rain 5 1020 86 8000 5.1 350 09:44 31.03.2020
475 Rain 5 1020 86 8000 5.1 350 09:25 31.03.2020
476 Rain 5 1020 86 8000 3.6 340 08:59 31.03.2020
477 Rain 5 1020 86 8000 3.6 340 08:40 31.03.2020
478 Rain 5 1020 86 8000 3.6 340 08:20 31.03.2020
479 Rain 5 1020 93 8000 2.1 350 07:57 31.03.2020
480 Rain 5 1020 93 8000 2.1 350 07:38 31.03.2020
481 Rain 5 1020 93 8000 2.1 350 07:20 31.03.2020
482 Rain 6 1020 87 8000 2.1 70 06:53 31.03.2020
483 Rain 6 1020 87 8000 2.1 70 06:35 31.03.2020
484 Rain 6 1019 93 5000 1.54 60 05:41 31.03.2020
485 Rain 6 1019 87 10000 5.1 70 04:33 31.03.2020
486 Rain 6 1019 87 10000 4.1 20 02:30 31.03.2020
487 Rain 6 1019 93 10000 5.7 360 01:46 31.03.2020
488 Rain 6 1019 100 7000 2.6 310 00:53 31.03.2020
489 Rain 6 1019 100 7000 2.6 310 00:25 31.03.2020
490 Rain 6 1020 100 8000 2.6 310 23:59 30.03.2020
491 Rain 6 1020 100 8000 2.6 310 23:38 30.03.2020
492 Rain 6 1020 100 8000 2.6 310 23:19 30.03.2020
493 Rain 7 1021 93 7000 3.1 250 22:57 30.03.2020
494 Rain 7 1021 93 7000 3.1 250 22:38 30.03.2020
495 Rain 7 1021 93 7000 3.1 250 22:18 30.03.2020
496 Rain 8 1020 75 10000 3.1 250 21:57 30.03.2020
497 Rain 8 1020 75 10000 3.1 250 21:37 30.03.2020
498 Rain 8 1020 75 10000 3.1 250 21:19 30.03.2020
499 Rain 9 1020 61 10000 1.5 60 20:55 30.03.2020
500 Rain 9 1020 61 10000 1.5 60 20:36 30.03.2020
501 Rain 9 1020 61 10000 1.5 60 20:18 30.03.2020
502 Clouds 8 1021 70 10000 3.6 30 19:40 30.03.2020
503 Clouds 8 1021 70 10000 3.6 30 19:22 30.03.2020
504 Clouds 8 1021 70 10000 2.1 0 18:57 30.03.2020
505 Clouds 8 1021 70 10000 2.1 0 18:39 30.03.2020
506 Clouds 8 1021 70 10000 2.1 0 18:20 30.03.2020
507 Clouds 8 1020 75 10000 3.1 30 17:57 30.03.2020
508 Clouds 8 1020 75 10000 3.1 30 17:38 30.03.2020
509 Clouds 8 1020 75 10000 3.1 30 17:19 30.03.2020
510 Clouds 8 1021 81 10000 5.1 350 16:55 30.03.2020
511 Clouds 8 1021 81 10000 5.1 350 16:37 30.03.2020
512 Clouds 8 1021 81 10000 5.1 350 16:19 30.03.2020
513 Clouds 8 1021 81 10000 4.6 360 15:54 30.03.2020
514 Clouds 8 1021 81 10000 4.6 360 15:36 30.03.2020
515 Clouds 8 1021 81 10000 4.6 360 15:18 30.03.2020
516 Clouds 8 1022 81 10000 4.6 360 14:39 30.03.2020
517 Clouds 8 1022 81 10000 4.6 360 14:19 30.03.2020
518 Clouds 8 1022 81 10000 5.1 350 13:59 30.03.2020
519 Clouds 8 1022 81 10000 5.1 350 13:40 30.03.2020
520 Clouds 8 1022 81 10000 5.1 350 13:21 30.03.2020
521 Clouds 8 1023 81 10000 3.6 30 12:56 30.03.2020
522 Clouds 8 1023 81 10000 3.6 30 12:37 30.03.2020
523 Clouds 8 1023 81 10000 3.6 30 12:19 30.03.2020
524 Clouds 9 1023 70 10000 2.1 60 11:55 30.03.2020
525 Clouds 9 1023 70 10000 2.1 60 11:55 30.03.2020
526 Clouds 9 1023 70 10000 2.1 60 11:55 30.03.2020
527 Clouds 9 1023 70 10000 2.1 60 11:37 30.03.2020
528 Clouds 9 1023 70 10000 2.1 60 11:18 30.03.2020
529 Clouds 9 1023 76 10000 2.6 50 10:39 30.03.2020
530 Clouds 9 1023 76 10000 2.6 50 10:21 30.03.2020
531 Clouds 9 1023 76 10000 2.6 50 10:21 30.03.2020
532 Rain 8 1024 81 10000 3.1 340 09:55 30.03.2020
533 Rain 8 1024 81 10000 3.1 340 09:37 30.03.2020
534 Rain 8 1024 81 10000 3.1 340 09:18 30.03.2020
535 Rain 7 1024 87 10000 2.1 350 08:40 30.03.2020
536 Rain 7 1024 87 10000 2.1 350 08:22 30.03.2020
537 Rain 7 1024 87 10000 2.1 360 07:49 30.03.2020
538 Rain 7 1024 87 10000 2.1 360 07:26 30.03.2020
539 Rain 6 1023 87 10000 2.6 350 06:52 30.03.2020
540 Rain 6 1023 87 10000 2.6 350 06:30 30.03.2020
541 Rain 6 1022 93 10000 1.52 56 05:47 30.03.2020
542 Rain 6 1022 93 10000 1.52 56 05:18 30.03.2020
543 Rain 6 1022 87 9000 1 0 04:21 30.03.2020
544 Rain 6 1021 87 7000 1.5 150 03:19 30.03.2020
545 Rain 8 1021 87 9000 4.1 80 01:59 30.03.2020
546 Rain 8 1021 87 9000 4.1 80 01:24 30.03.2020
547 Rain 8 1021 93 10000 1 0 00:30 30.03.2020
548 Rain 9 1021 87 10000 4.1 330 23:59 29.03.2020
549 Rain 9 1021 87 10000 4.1 330 23:40 29.03.2020
550 Rain 9 1021 87 10000 4.1 330 23:21 29.03.2020
551 Rain 11 1021 66 10000 2.1 40 22:55 29.03.2020
552 Rain 11 1021 66 10000 2.1 40 22:37 29.03.2020
553 Rain 11 1021 66 10000 2.1 40 22:18 29.03.2020
554 Rain 12 1021 53 10000 3.1 100 21:39 29.03.2020
555 Rain 12 1021 53 10000 3.1 100 21:20 29.03.2020
556 Clouds 12 1020 50 10000 5.1 110 20:56 29.03.2020
557 Clouds 12 1020 50 10000 5.1 110 20:37 29.03.2020
558 Clouds 12 1020 50 10000 5.1 110 20:19 29.03.2020
559 Clouds 13 1020 54 10000 4.6 80 19:58 29.03.2020
560 Clouds 13 1020 54 10000 4.6 80 19:40 29.03.2020
561 Clouds 13 1020 54 10000 4.6 80 19:22 29.03.2020
562 Clouds 14 1018 58 10000 1.78 46 18:57 29.03.2020
563 Clouds 15 1017 44 10000 3.6 150 18:38 29.03.2020
564 Clouds 13 1019 62 10000 3.1 90 18:19 29.03.2020
565 Clouds 13 1019 62 10000 3.1 90 18:19 29.03.2020
566 Clouds 13 1019 62 10000 3.1 90 17:56 29.03.2020
567 Clouds 13 1019 62 10000 3.1 90 17:38 29.03.2020
568 Clouds 13 1019 62 10000 3.1 90 17:18 29.03.2020
569 Clouds 14 1019 47 10000 1.5 70 16:56 29.03.2020
570 Clouds 14 1019 47 10000 1.5 70 16:38 29.03.2020
571 Clouds 14 1019 47 10000 1.5 70 16:19 29.03.2020
572 Clouds 15 1019 44 10000 4.1 20 15:41 29.03.2020
573 Clouds 15 1019 44 10000 4.1 20 15:41 29.03.2020
574 Clouds 15 1019 44 10000 4.1 20 15:23 29.03.2020
575 Clouds 15 1019 38 10000 5.1 350 14:58 29.03.2020
576 Clouds 15 1019 38 10000 5.1 350 14:40 29.03.2020
577 Clouds 15 1019 38 10000 5.1 350 14:20 29.03.2020
578 Clouds 16 1019 38 10000 1 0 13:57 29.03.2020
579 Clouds 16 1019 38 10000 1 0 13:39 29.03.2020
580 Clouds 16 1019 38 10000 1 0 13:39 29.03.2020
581 Clouds 16 1019 38 10000 1 0 13:20 29.03.2020
582 Clouds 15 1019 44 10000 4.1 20 12:55 29.03.2020
583 Clouds 15 1019 44 10000 4.1 20 12:37 29.03.2020
584 Clouds 15 1019 44 10000 4.1 20 12:19 29.03.2020
585 Clouds 15 1020 47 10000 2.1 50 11:55 29.03.2020
586 Clouds 15 1020 47 10000 2.1 50 11:36 29.03.2020
587 Clouds 15 1020 47 10000 2.1 50 11:18 29.03.2020
588 Clouds 15 1020 47 10000 2.1 50 11:18 29.03.2020
589 Clouds 14 1021 54 10000 4.1 60 10:38 29.03.2020
590 Clouds 14 1021 54 10000 4.1 60 10:19 29.03.2020
591 Clouds 14 1022 50 10000 1.5 210 09:41 29.03.2020
592 Clouds 14 1022 50 10000 1.5 210 09:20 29.03.2020
593 Clouds 12 1023 58 10000 2.1 120 08:54 29.03.2020
594 Clouds 12 1023 58 10000 2.1 120 08:36 29.03.2020
595 Clouds 12 1023 58 10000 2.1 120 08:18 29.03.2020
596 Clouds 11 1023 62 10000 1 110 07:42 29.03.2020
597 Clouds 11 1023 62 10000 1 110 07:21 29.03.2020
598 Clear 7 1022 75 10000 0.5 0 05:46 29.03.2020
599 Clouds 5 1022 80 10000 1 0 04:27 29.03.2020
600 Clouds 4 1021 86 10000 1 100 03:31 29.03.2020
601 Clouds 5 1021 86 10000 1 120 01:51 29.03.2020
602 Clouds 5 1021 86 10000 1 120 01:23 29.03.2020
603 Clouds 5 1021 86 10000 0.85 16 00:56 29.03.2020
604 Clouds 5 1021 86 10000 0.85 16 00:33 29.03.2020
605 Clouds 5 1021 86 10000 0.5 320 23:56 28.03.2020
606 Clouds 5 1021 86 10000 0.5 320 23:38 28.03.2020
607 Rain 6 1021 86 10000 0.5 320 23:18 28.03.2020
608 Rain 6 1021 86 10000 1.08 31 22:39 28.03.2020
609 Rain 6 1021 86 10000 1.08 31 22:21 28.03.2020
610 Rain 8 1021 81 10000 1 180 21:55 28.03.2020
611 Rain 8 1021 81 10000 1 180 21:37 28.03.2020
612 Rain 8 1021 81 10000 1 180 21:18 28.03.2020
613 Rain 8 1022 75 10000 0.5 170 20:42 28.03.2020
614 Rain 8 1022 75 10000 0.5 170 20:23 28.03.2020
615 Clouds 8 1021 75 10000 2.1 110 19:57 28.03.2020
616 Clouds 8 1021 75 10000 2.1 110 19:39 28.03.2020
617 Clouds 8 1021 75 10000 2.1 110 19:20 28.03.2020
618 Clouds 9 1021 70 10000 0.5 0 18:58 28.03.2020
619 Clouds 9 1021 70 10000 0.5 0 18:39 28.03.2020
620 Clouds 9 1021 70 10000 0.5 0 18:19 28.03.2020
621 Clouds 9 1021 70 10000 3.1 110 17:39 28.03.2020
622 Clouds 9 1021 70 10000 3.1 110 17:20 28.03.2020
623 Clouds 10 1020 61 10000 2.6 80 16:43 28.03.2020
624 Clouds 10 1020 61 10000 2.6 80 16:20 28.03.2020
625 Clouds 10 1020 61 10000 2.6 80 16:20 28.03.2020
626 Clouds 10 1020 61 10000 2.6 80 16:20 28.03.2020
627 Clouds 11 1020 61 10000 5.1 120 15:59 28.03.2020
628 Clouds 11 1020 61 10000 5.1 120 15:39 28.03.2020
629 Clouds 11 1020 61 10000 5.1 120 15:19 28.03.2020
630 Clouds 12 1019 62 10000 6.7 120 14:55 28.03.2020
631 Clouds 12 1019 62 10000 6.7 120 14:37 28.03.2020
632 Clouds 12 1019 62 10000 6.7 120 14:18 28.03.2020
633 Clouds 14 1018 47 10000 6.7 120 13:39 28.03.2020
634 Clouds 14 1018 47 10000 6.7 120 13:21 28.03.2020
635 Clouds 15 1019 47 10000 6.7 130 12:40 28.03.2020
636 Clouds 15 1019 47 10000 6.7 130 12:22 28.03.2020
637 Clouds 15 1019 47 10000 5.1 140 11:43 28.03.2020
638 Clouds 15 1019 47 10000 5.1 140 11:23 28.03.2020
639 Rain 16 1020 47 10000 6.7 130 10:56 28.03.2020
640 Rain 16 1020 47 10000 6.7 130 10:38 28.03.2020
641 Rain 16 1020 47 10000 6.7 130 10:18 28.03.2020
642 Clouds 15 1020 44 10000 4.1 150 09:42 28.03.2020
643 Clouds 15 1020 44 10000 4.1 150 09:23 28.03.2020
644 Clouds 15 1021 41 10000 3.6 100 08:47 28.03.2020
645 Clouds 15 1021 41 10000 3.6 100 08:28 28.03.2020
646 Clouds 14 1021 23 10000 2.1 0 07:59 28.03.2020
647 Clouds 14 1021 23 10000 2.1 0 07:41 28.03.2020
648 Clouds 13 1020 40 10000 1.5 0 06:56 28.03.2020
649 Clouds 13 1020 40 10000 1.5 0 06:33 28.03.2020
650 Clear 11 1019 50 10000 1.5 330 05:41 28.03.2020
651 Clear 11 1019 50 10000 1.5 330 05:19 28.03.2020
652 Clear 8 1018 81 10000 1.5 340 04:40 28.03.2020
653 Clear 5 1017 93 10000 1.5 320 02:55 28.03.2020
654 Clouds 5 1016 93 10000 0.5 0 01:48 28.03.2020
655 Clouds 5 1016 93 10000 0.5 0 01:24 28.03.2020
656 Clouds 8 1016 87 8000 1 0 00:54 28.03.2020
657 Clouds 8 1016 87 8000 1 0 00:33 28.03.2020
658 Clouds 8 1016 87 8000 0.5 0 23:45 27.03.2020
659 Clouds 11 1013 37 10000 3.1 310 23:26 27.03.2020
660 Clouds 9 1016 81 8000 1.5 0 22:58 27.03.2020
661 Clouds 9 1016 81 8000 1.5 0 22:40 27.03.2020
662 Clouds 9 1016 81 8000 1.5 0 22:21 27.03.2020
663 Clouds 9 1016 75 10000 1.5 0 21:59 27.03.2020
664 Clouds 9 1016 75 10000 1.5 0 21:41 27.03.2020
665 Clouds 9 1016 75 10000 1.5 0 21:23 27.03.2020
666 Clouds 10 1016 75 10000 1.5 0 20:57 27.03.2020
667 Clouds 10 1016 75 10000 1.5 0 20:39 27.03.2020
668 Clouds 10 1016 75 10000 1.5 0 20:19 27.03.2020
669 Clouds 9 1016 75 10000 1.5 0 19:55 27.03.2020
670 Clouds 9 1016 75 10000 1.5 0 19:36 27.03.2020
671 Clouds 9 1016 75 10000 1.5 0 19:18 27.03.2020
672 Clouds 10 1016 75 10000 1.23 337 18:42 27.03.2020
673 Clouds 10 1016 75 10000 1.23 337 18:23 27.03.2020
674 Clouds 12 1015 61 10000 1 0 17:55 27.03.2020
675 Clouds 12 1015 61 10000 1 0 17:36 27.03.2020
676 Clouds 11 1015 61 10000 1 0 17:18 27.03.2020
677 Clouds 11 1015 70 10000 1 0 16:43 27.03.2020
678 Clouds 11 1015 70 10000 1 0 16:24 27.03.2020
679 Clouds 12 1015 50 10000 1.5 230 15:44 27.03.2020
680 Clouds 12 1015 50 10000 1.5 230 15:26 27.03.2020
681 Clouds 13 1015 50 10000 1.5 180 14:56 27.03.2020
682 Clouds 13 1015 50 10000 1.5 180 14:36 27.03.2020
683 Clouds 13 1015 50 10000 1.5 180 14:18 27.03.2020
684 Clouds 12 1015 58 10000 3.1 240 13:42 27.03.2020
685 Clouds 12 1015 58 10000 3.1 240 13:21 27.03.2020
686 Clouds 12 1016 58 10000 2.1 0 12:58 27.03.2020
687 Clouds 12 1016 58 10000 2.1 0 12:39 27.03.2020
688 Clouds 12 1016 58 10000 2.1 0 12:19 27.03.2020
689 Clouds 12 1016 58 10000 4.1 190 11:42 27.03.2020
690 Clouds 12 1016 58 10000 4.1 190 11:24 27.03.2020
691 Thunderstorm 12 1017 62 10000 1.5 0 10:55 27.03.2020
692 Thunderstorm 12 1017 62 10000 1.5 0 10:37 27.03.2020
693 Thunderstorm 12 1017 62 10000 1.5 0 10:19 27.03.2020
694 Clouds 13 1018 58 10000 4.6 100 09:57 27.03.2020
695 Clouds 13 1018 58 10000 4.6 100 09:38 27.03.2020
696 Clouds 13 1018 58 10000 4.6 100 09:19 27.03.2020
697 Haze 13 1019 66 10000 2.1 0 08:56 27.03.2020
698 Haze 13 1019 66 10000 2.1 0 08:38 27.03.2020
699 Haze 13 1019 66 10000 2.1 0 08:20 27.03.2020
700 Clouds 14 1019 47 10000 1.5 0 07:52 27.03.2020
701 Clouds 14 1019 47 10000 1.5 0 07:25 27.03.2020
702 Clouds 11 1019 66 10000 1 0 06:53 27.03.2020
703 Clouds 11 1019 66 10000 1 0 06:35 27.03.2020
704 Clouds 11 1019 66 8000 1 0 05:28 27.03.2020
705 Clouds 7 1019 87 10000 1 0 02:46 27.03.2020
706 Clouds 7 1020 87 10000 0.5 0 01:23 27.03.2020
707 Clouds 7 1020 87 8000 1.58 319 00:51 27.03.2020
708 Clouds 7 1020 87 8000 1.58 319 00:32 27.03.2020
709 Clouds 7 1021 87 8000 1 0 23:44 26.03.2020
710 Clouds 7 1021 87 8000 1 0 23:23 26.03.2020
711 Clouds 7 1021 87 8000 1 0 22:59 26.03.2020
712 Clouds 7 1021 87 8000 1 0 22:39 26.03.2020
713 Clouds 7 1021 87 8000 1 0 22:20 26.03.2020
714 Clouds 8 1022 81 10000 1 0 21:57 26.03.2020
715 Clouds 8 1022 81 10000 1 0 21:39 26.03.2020
716 Clouds 8 1022 81 10000 1 0 21:20 26.03.2020
717 Clouds 9 1022 76 10000 1.19 349 20:58 26.03.2020
718 Clouds 9 1022 76 10000 1.19 349 20:38 26.03.2020
719 Clouds 9 1022 76 10000 1.19 349 20:38 26.03.2020
720 Clouds 9 1022 76 10000 1.55 10 20:20 26.03.2020
721 Clouds 9 1022 76 10000 1.55 10 20:20 26.03.2020
722 Clouds 8 1022 81 10000 1 0 19:55 26.03.2020
723 Clouds 8 1022 81 10000 1 0 19:37 26.03.2020
724 Clouds 8 1022 81 10000 1 0 19:19 26.03.2020
725 Clouds 8 1023 81 10000 2.1 90 18:55 26.03.2020
726 Clouds 8 1023 81 10000 2.1 90 18:36 26.03.2020
727 Clouds 8 1023 81 10000 2.1 90 18:18 26.03.2020
728 Clouds 8 1022 81 10000 1 0 17:42 26.03.2020
729 Clouds 8 1022 81 10000 1 0 17:18 26.03.2020
730 Clouds 8 1022 75 10000 2.1 280 16:45 26.03.2020
731 Clouds 8 1022 75 10000 2.1 280 16:45 26.03.2020
732 Clouds 8 1022 75 10000 2.1 280 16:26 26.03.2020
733 Clouds 8 1022 81 10000 1 0 15:58 26.03.2020
734 Clouds 8 1022 81 10000 1 0 15:40 26.03.2020
735 Rain 11 1019 32 0 1.21 360 15:21 26.03.2020
736 Rain 8 1022 81 10000 6.7 110 14:57 26.03.2020
737 Rain 8 1022 81 10000 6.7 110 14:38 26.03.2020
738 Rain 8 1022 81 10000 6.7 110 14:18 26.03.2020
739 Clouds 11 1022 62 10000 5.1 130 13:43 26.03.2020
740 Clouds 11 1022 62 10000 5.1 130 13:23 26.03.2020
741 Rain 11 1021 71 10000 5.7 350 12:56 26.03.2020
742 Rain 11 1021 71 10000 5.7 350 12:37 26.03.2020
743 Rain 11 1021 71 10000 5.7 350 12:19 26.03.2020
744 Thunderstorm 11 1021 66 10000 6.7 360 11:44 26.03.2020
745 Thunderstorm 11 1021 66 10000 6.7 360 11:20 26.03.2020
746 Clouds 12 1022 66 10000 5.7 350 10:56 26.03.2020
747 Clouds 12 1022 66 10000 5.7 350 10:36 26.03.2020
748 Clouds 12 1022 66 10000 5.7 350 10:18 26.03.2020
749 Clouds 12 1022 66 10000 5.7 350 10:18 26.03.2020
750 Clouds 15 1022 51 10000 2.1 0 09:42 26.03.2020
751 Clouds 15 1022 51 10000 2.1 0 09:19 26.03.2020
752 Clouds 13 1023 54 10000 2.1 0 08:46 26.03.2020
753 Clouds 13 1023 54 10000 2.1 0 08:27 26.03.2020
754 Clouds 11 1023 66 9000 2.1 0 07:58 26.03.2020
755 Clouds 11 1023 66 9000 2.1 0 07:40 26.03.2020
756 Clouds 11 1023 66 9000 2.1 0 07:20 26.03.2020
757 Clouds 9 1023 81 9000 1 0 06:46 26.03.2020
758 Clouds 8 1023 81 8000 1 0 05:52 26.03.2020
759 Clouds 6 1022 93 10000 1.5 150 03:52 26.03.2020
760 Clouds 6 1022 93 10000 1.5 150 03:33 26.03.2020
761 Clouds 6 1021 93 10000 1.5 340 02:53 26.03.2020
762 Clouds 6 1021 93 10000 1.43 40 01:44 26.03.2020
763 Clouds 7 1020 87 10000 1 0 00:43 26.03.2020
764 Clouds 6 1020 87 10000 1 0 23:45 25.03.2020
765 Clouds 6 1020 87 10000 1 0 23:27 25.03.2020
766 Clouds 6 1021 93 10000 1 0 22:57 25.03.2020
767 Clouds 6 1021 93 10000 1 0 22:38 25.03.2020
768 Clouds 6 1021 93 10000 1 0 22:19 25.03.2020
769 Clouds 6 1021 100 10000 0.5 0 21:54 25.03.2020
770 Clouds 6 1021 100 10000 0.5 0 21:36 25.03.2020
771 Clouds 6 1021 100 10000 0.5 0 21:18 25.03.2020
772 Clouds 7 1021 93 10000 1 0 20:39 25.03.2020
773 Clouds 7 1021 93 10000 1 0 20:20 25.03.2020
774 Clouds 7 1021 93 10000 1.5 0 19:57 25.03.2020
775 Clouds 7 1021 93 10000 1.5 0 19:38 25.03.2020
776 Clouds 7 1021 93 10000 1.5 0 19:20 25.03.2020
777 Rain 7 1021 93 10000 2.1 90 18:54 25.03.2020
778 Rain 7 1021 93 10000 2.1 90 18:36 25.03.2020
779 Rain 7 1021 93 10000 2.1 90 18:18 25.03.2020
780 Rain 8 1021 87 10000 1 0 17:41 25.03.2020
781 Rain 8 1021 87 10000 1 0 17:22 25.03.2020
782 Rain 8 1021 87 10000 1 0 17:22 25.03.2020
783 Clouds 8 1020 87 10000 3.6 330 16:59 25.03.2020
784 Clouds 8 1020 87 10000 3.6 330 16:39 25.03.2020
785 Clouds 8 1020 87 10000 3.6 330 16:21 25.03.2020
786 -273 0 0 0 0 0 16:21 25.03.2020
787 Clouds 8 1020 87 10000 3.6 330 16:21 25.03.2020
788 Rain 8 1019 87 10000 3.6 350 15:43 25.03.2020
789 Rain 8 1019 87 10000 3.6 350 15:21 25.03.2020
790 Clouds 9 1019 70 10000 1 0 14:59 25.03.2020
791 Clouds 9 1019 70 10000 1 0 14:40 25.03.2020
792 Clouds 8 1019 87 10000 2.6 130 14:20 25.03.2020
793 Clouds 8 1019 87 10000 2.6 130 13:45 25.03.2020
794 Clouds 8 1019 87 10000 2.6 130 13:24 25.03.2020
795 Clouds 9 1019 76 10000 5.7 130 12:40 25.03.2020
796 Clouds 9 1019 76 10000 5.7 130 12:21 25.03.2020
797 Rain 10 1019 76 9000 5.7 120 11:59 25.03.2020
798 Rain 10 1019 76 9000 5.7 120 11:41 25.03.2020
799 Rain 10 1019 76 9000 5.7 120 11:21 25.03.2020
800 Rain 11 1019 71 10000 2.6 0 10:58 25.03.2020
801 Rain 11 1019 71 10000 2.6 0 10:40 25.03.2020
802 Rain 11 1019 71 10000 2.6 0 10:40 25.03.2020
803 Rain 11 1019 71 10000 2.6 0 10:19 25.03.2020
804 Clouds 11 1020 76 10000 4.1 30 09:56 25.03.2020
805 Clouds 11 1020 76 10000 4.1 30 09:56 25.03.2020
806 Clouds 11 1020 76 10000 4.1 30 09:38 25.03.2020
807 Clouds 11 1020 76 10000 4.1 30 09:20 25.03.2020
808 Clouds 11 1021 66 10000 1 0 08:42 25.03.2020
809 Clouds 11 1021 66 10000 1 0 08:42 25.03.2020
810 Clouds 11 1021 66 10000 1 0 08:24 25.03.2020
811 Clouds 10 1022 76 10000 2.6 60 07:57 25.03.2020
812 Clouds 10 1022 76 10000 2.6 60 07:38 25.03.2020
813 Clouds 10 1022 76 10000 2.6 60 07:18 25.03.2020
814 Clouds 9 1021 76 10000 2.6 60 06:42 25.03.2020
815 Clouds 9 1021 76 10000 2.6 60 06:23 25.03.2020
816 Clouds 7 1021 87 10000 1.5 50 05:47 25.03.2020
817 Rain 6 1020 93 8000 3.6 260 04:46 25.03.2020
818 Clouds 6 1019 100 10000 1 0 03:58 25.03.2020
819 Clouds 6 1019 100 10000 1 0 03:33 25.03.2020
820 Clouds 6 1019 93 10000 0.93 30 01:41 25.03.2020
821 Clouds 6 1019 93 10000 1.5 80 00:51 25.03.2020
822 Clouds 6 1019 93 10000 1.5 80 00:30 25.03.2020
823 Rain 7 1019 87 10000 1.5 310 23:58 24.03.2020
824 Rain 7 1019 87 10000 1.5 310 23:39 24.03.2020
825 Rain 7 1019 87 10000 1.5 310 23:19 24.03.2020
826 Rain 7 1019 87 10000 1.5 0 22:54 24.03.2020
827 Rain 7 1019 87 10000 1.5 0 22:36 24.03.2020
828 Rain 7 1019 87 10000 1.5 0 22:18 24.03.2020
829 Clouds 8 1019 81 10000 3.1 360 21:42 24.03.2020
830 Clouds 8 1019 81 10000 3.1 360 21:19 24.03.2020
831 Clouds 8 1020 87 10000 4.1 10 20:59 24.03.2020
832 Clouds 8 1020 87 10000 4.1 10 20:40 24.03.2020
833 Clouds 8 1020 87 10000 4.1 10 20:22 24.03.2020
834 Clouds 7 1019 93 10000 3.1 320 19:48 24.03.2020
835 Clouds 7 1019 93 10000 3.1 320 19:22 24.03.2020
836 Clouds 8 1019 87 10000 2.1 300 18:59 24.03.2020
837 Clouds 8 1019 87 10000 2.1 300 18:39 24.03.2020
838 Clouds 8 1019 87 10000 2.1 300 18:20 24.03.2020
839 Clouds 7 1019 93 10000 2.1 0 17:58 24.03.2020
840 Clouds 7 1019 93 10000 2.1 0 17:40 24.03.2020
841 Clouds 7 1019 93 10000 2.1 0 17:40 24.03.2020
842 Clouds 7 1019 93 10000 2.1 0 17:40 24.03.2020
843 Thunderstorm 9 1019 81 9000 1.5 290 17:22 24.03.2020
844 Thunderstorm 9 1018 81 10000 2.6 340 16:57 24.03.2020
845 Thunderstorm 9 1018 81 10000 2.6 340 16:57 24.03.2020
846 Thunderstorm 9 1018 81 10000 2.6 340 16:38 24.03.2020
847 Clouds 9 1018 87 10000 5.1 360 16:20 24.03.2020
848 Clouds 9 1017 81 10000 2.6 0 15:43 24.03.2020
849 Clouds 9 1017 81 10000 2.6 0 15:25 24.03.2020
850 Rain 11 1017 71 10000 5.1 110 14:44 24.03.2020
851 Rain 11 1017 71 10000 5.1 110 14:44 24.03.2020
852 Clouds 11 1017 71 10000 5.1 110 14:24 24.03.2020
853 Rain 9 1017 81 10000 4.1 110 13:59 24.03.2020
854 Rain 9 1017 81 10000 4.1 110 13:41 24.03.2020
855 Rain 9 1017 81 10000 4.1 110 13:41 24.03.2020
856 Rain 9 1017 81 10000 4.1 110 13:22 24.03.2020
857 Rain 9 1017 87 8000 5.7 130 12:43 24.03.2020
858 Rain 11 1016 71 10000 5.7 140 12:25 24.03.2020
859 Clouds 11 1017 71 10000 3.1 70 11:56 24.03.2020
860 Clouds 11 1017 71 10000 3.1 70 11:37 24.03.2020
861 Clouds 12 1017 71 10000 3.1 70 11:18 24.03.2020
862 Clouds 12 1018 71 10000 4.6 360 10:41 24.03.2020
863 Clouds 12 1018 71 10000 4.6 360 10:19 24.03.2020
864 Clouds 12 1018 71 10000 4.6 360 10:19 24.03.2020
865 Clouds 11 1018 71 10000 1.5 0 09:48 24.03.2020
866 Clouds 11 1018 71 10000 1.5 0 09:27 24.03.2020
867 Clouds 11 1019 66 10000 1 0 08:58 24.03.2020
868 Clouds 11 1019 66 10000 1 0 08:38 24.03.2020
869 Clouds 11 1019 66 10000 1 0 08:20 24.03.2020
870 Clouds 10 1019 76 10000 1.5 0 07:44 24.03.2020
871 Clouds 10 1019 76 10000 1.5 0 07:22 24.03.2020
872 Rain 8 1019 93 7000 1 0 06:42 24.03.2020
873 Rain 8 1019 93 7000 1 0 06:21 24.03.2020
874 Rain 7 1017 87 6000 1.79 27 04:52 24.03.2020
875 Clouds 7 1017 87 10000 1.79 27 03:43 24.03.2020
876 Clouds 7 1016 93 10000 1.79 27 02:45 24.03.2020
877 Rain 6 1017 93 10000 1.5 330 01:22 24.03.2020
878 Drizzle 6 1018 93 10000 1.5 300 00:41 24.03.2020
879 Drizzle 6 1018 93 10000 1.5 300 00:22 24.03.2020
880 Drizzle 7 1019 93 10000 2.6 320 23:38 23.03.2020
881 Drizzle 7 1019 93 10000 2.6 320 23:20 23.03.2020
882 Rain 7 1019 93 10000 2.1 340 22:45 23.03.2020
883 Rain 7 1019 93 10000 2.1 340 22:24 23.03.2020
884 Rain 7 1018 93 5000 1.54 60 21:57 23.03.2020
885 Rain 7 1019 93 10000 3.1 340 21:38 23.03.2020
886 Rain 7 1019 93 10000 3.1 340 21:20 23.03.2020
887 Rain 7 1020 93 9000 3.6 350 20:56 23.03.2020
888 Rain 7 1020 93 9000 3.6 350 20:38 23.03.2020
889 Rain 7 1020 93 9000 3.6 350 20:19 23.03.2020
890 Rain 7 1020 87 9000 2.6 0 19:42 23.03.2020
891 Rain 7 1020 87 9000 2.6 0 19:23 23.03.2020
892 Rain 7 1020 87 9000 2.1 0 18:56 23.03.2020
893 Rain 7 1020 87 9000 2.1 0 18:38 23.03.2020
894 Rain 7 1020 87 9000 2.1 0 18:19 23.03.2020
895 Rain 8 1019 93 9000 1.5 130 17:41 23.03.2020
896 -273 0 0 0 0 0 17:20 23.03.2020
897 Rain 8 1020 87 8000 2.1 0 16:56 23.03.2020
898 Rain 8 1020 87 8000 2.1 0 16:37 23.03.2020
899 Rain 8 1020 87 8000 2.1 0 16:18 23.03.2020
900 Rain 8 1019 87 8000 4.1 330 15:41 23.03.2020
901 Rain 8 1019 87 8000 4.1 330 15:19 23.03.2020
902 Rain 9 1019 81 10000 3.1 20 14:38 23.03.2020
903 Rain 9 1019 81 10000 3.1 20 14:20 23.03.2020
904 Rain 10 1017 81 9000 2.1 200 13:57 23.03.2020
905 Rain 10 1019 66 10000 6.2 120 13:39 23.03.2020
906 Rain 10 1019 66 10000 6.2 120 13:20 23.03.2020
907 Rain 11 1019 62 10000 6.2 120 12:44 23.03.2020
908 Rain 11 1019 62 10000 6.2 120 12:25 23.03.2020
909 Rain 15 1016 41 9000 6.7 190 11:58 23.03.2020
910 Rain 15 1016 41 9000 6.7 190 11:38 23.03.2020
911 Rain 14 1018 47 10000 5.7 100 11:19 23.03.2020
912 Rain 15 1019 44 10000 5.1 80 10:56 23.03.2020
913 Rain 15 1019 44 10000 5.1 80 10:37 23.03.2020
914 Rain 15 1019 44 10000 5.1 80 10:19 23.03.2020
915 Clouds 14 1020 54 10000 2.1 0 09:43 23.03.2020
916 Clouds 14 1020 54 10000 2.1 0 09:21 23.03.2020
917 Clouds 14 1021 58 10000 4.6 350 08:40 23.03.2020
918 Clouds 14 1021 58 10000 4.6 350 08:20 23.03.2020
919 Clouds 14 1021 54 10000 2.1 350 07:59 23.03.2020
920 Clouds 14 1021 54 10000 2.1 350 07:59 23.03.2020
921 Clouds 14 1021 54 10000 2.1 350 07:40 23.03.2020
922 Clouds 14 1021 54 10000 2.1 350 07:19 23.03.2020
923 Clouds 13 1021 62 10000 1 240 06:48 23.03.2020
924 Clouds 12 1021 66 10000 1 0 05:50 23.03.2020
925 Clouds 11 1021 71 10000 1.5 0 04:57 23.03.2020
926 Clouds 9 1021 81 10000 2.6 100 03:24 23.03.2020
927 Clouds 11 1020 71 10000 4.1 300 01:50 23.03.2020
928 Clouds 12 1021 66 10000 1.5 200 00:58 23.03.2020
929 Clouds 12 1021 66 10000 1.5 200 00:36 23.03.2020
930 Clouds 11 1020 66 10000 1.5 210 23:47 22.03.2020
931 Clouds 11 1020 66 10000 1.5 210 23:25 22.03.2020
932 Clouds 11 1021 62 10000 1.5 330 22:45 22.03.2020
933 Clouds 11 1021 62 10000 1.5 330 22:24 22.03.2020
934 Clouds 12 1021 62 10000 1.5 0 21:56 22.03.2020
935 Clouds 12 1021 62 10000 1.5 0 21:37 22.03.2020
936 Clouds 12 1021 62 10000 1.5 0 21:19 22.03.2020
937 Clouds 13 1021 50 10000 1.5 0 20:46 22.03.2020
938 Clouds 13 1021 50 10000 1.5 0 20:25 22.03.2020
939 Clouds 14 1021 43 10000 2.6 70 19:58 22.03.2020
940 Clouds 14 1021 43 10000 2.6 70 19:40 22.03.2020
941 Clouds 14 1021 43 10000 2.6 70 19:20 22.03.2020
942 Clouds 13 1021 58 10000 2.1 70 18:59 22.03.2020
943 Clouds 13 1021 58 10000 2.1 70 18:41 22.03.2020
944 Clouds 13 1021 58 10000 2.1 70 18:22 22.03.2020
945 Clouds 13 1021 58 10000 3.1 60 17:58 22.03.2020
946 Clouds 13 1021 58 10000 3.1 60 17:38 22.03.2020
947 Clouds 13 1021 58 10000 3.1 60 17:20 22.03.2020
948 Clouds 14 1020 58 10000 2.1 70 16:57 22.03.2020
949 Clouds 14 1020 58 10000 2.1 70 16:39 22.03.2020
950 Clouds 14 1020 58 10000 2.1 70 16:21 22.03.2020
951 Clouds 15 1020 54 10000 3.1 120 15:44 22.03.2020
952 Clouds 15 1020 54 10000 3.1 120 15:26 22.03.2020
953 Clouds 16 1019 33 10000 2.1 40 14:46 22.03.2020
954 Clouds 16 1019 33 10000 2.1 40 14:19 22.03.2020
955 Clouds 17 1020 26 10000 2.6 60 13:45 22.03.2020
956 Clouds 17 1020 26 10000 2.6 60 13:21 22.03.2020
957 Clouds 17 1020 31 10000 3.6 70 12:59 22.03.2020
958 Clouds 17 1020 31 10000 3.6 70 12:41 22.03.2020
959 Clouds 17 1020 31 10000 3.6 70 12:19 22.03.2020
960 Clouds 17 1020 38 10000 3.6 80 11:44 22.03.2020
961 Clouds 17 1020 38 10000 3.6 80 11:25 22.03.2020
962 Clouds 17 1021 36 10000 2.6 70 10:58 22.03.2020
963 Clouds 17 1021 36 10000 2.6 70 10:40 22.03.2020
964 Clouds 17 1021 36 10000 2.6 70 10:22 22.03.2020
965 Clouds 17 1022 31 10000 1.5 0 09:47 22.03.2020
966 Clouds 17 1022 31 10000 1.5 0 09:28 22.03.2020
967 Clouds 15 1023 26 10000 1 0 08:51 22.03.2020
968 Clouds 15 1023 26 10000 1 0 08:33 22.03.2020
969 Clouds 15 1023 26 10000 1 0 08:33 22.03.2020
970 Clouds 14 1023 35 10000 1.5 0 07:59 22.03.2020
971 Clouds 14 1023 35 10000 1.5 0 07:41 22.03.2020
972 Clouds 12 1023 50 10000 1 350 06:48 22.03.2020
973 Clouds 10 1023 76 10000 1.5 70 05:52 22.03.2020
974 Clear 8 1023 93 10000 0.6 213 04:39 22.03.2020
975 Mist 5 1021 100 5000 0.93 250 01:49 22.03.2020
976 Clear 6 1021 93 9000 1 140 00:50 22.03.2020
977 Clear 6 1021 93 9000 1 140 00:31 22.03.2020
978 Clear 6 1021 100 8000 0.5 40 23:46 21.03.2020
979 Clear 6 1021 100 8000 0.5 40 23:22 21.03.2020
980 Clear 6 1022 93 8000 1.5 110 22:59 21.03.2020
981 Clear 6 1022 93 8000 1.5 110 22:38 21.03.2020
982 Clear 6 1022 93 8000 1.5 110 22:20 21.03.2020
983 Clear 8 1022 87 10000 1.21 307 21:58 21.03.2020
984 Clear 8 1022 87 10000 1.21 307 21:38 21.03.2020
985 Clear 8 1022 87 10000 1.21 307 21:19 21.03.2020
986 Clear 9 1022 87 10000 1 0 20:42 21.03.2020
987 Clear 9 1022 87 10000 1 0 20:22 21.03.2020
988 Clouds 9 1022 87 9000 2.1 120 19:55 21.03.2020
989 Clouds 9 1022 87 9000 2.1 120 19:36 21.03.2020
990 Clouds 9 1022 87 9000 2.1 120 19:18 21.03.2020
991 Clouds 11 1021 71 10000 1.5 350 18:41 21.03.2020
992 Clouds 11 1021 71 10000 1.5 350 18:21 21.03.2020
993 Clouds 9 1021 76 10000 1 0 17:59 21.03.2020
994 Clouds 9 1021 76 10000 1 0 17:41 21.03.2020
995 Clouds 10 1021 76 10000 1 0 17:22 21.03.2020
996 Clouds 11 1019 62 10000 1 320 16:42 21.03.2020
997 Clouds 11 1019 62 10000 1 320 16:23 21.03.2020
998 Clouds 12 1019 54 10000 0.5 0 15:59 21.03.2020
999 Clouds 12 1019 54 10000 0.5 0 15:40 21.03.2020
1000 Clouds 12 1019 54 10000 0.5 0 15:21 21.03.2020
1001 Clouds 15 1018 47 10000 2.1 270 14:56 21.03.2020
1002 Clouds 15 1018 47 10000 2.1 270 14:38 21.03.2020
1003 Clouds 15 1018 47 10000 2.1 270 14:19 21.03.2020
1004 Clouds 15 1018 47 10000 6.2 80 13:57 21.03.2020
1005 Clouds 15 1018 47 10000 6.2 80 13:38 21.03.2020
1006 Thunderstorm 14 1018 62 10000 6.2 340 13:20 21.03.2020
1007 Thunderstorm 14 1017 66 10000 4.6 360 12:54 21.03.2020
1008 Thunderstorm 14 1017 66 10000 4.6 360 12:36 21.03.2020
1009 Clouds 14 1017 58 10000 3.6 20 12:18 21.03.2020
1010 Clouds 15 1015 58 10000 2.1 140 11:54 21.03.2020
1011 Clouds 15 1018 67 10000 1 0 11:36 21.03.2020
1012 Clouds 14 1018 67 10000 1 0 11:18 21.03.2020
1013 Thunderstorm 13 1018 71 10000 2.6 360 10:55 21.03.2020
1014 Thunderstorm 13 1018 71 10000 2.6 360 10:37 21.03.2020
1015 Clouds 14 1018 62 10000 4.1 90 10:18 21.03.2020
1016 Clouds 13 1019 71 10000 5.1 50 09:39 21.03.2020
1017 Clouds 13 1019 71 10000 5.1 50 09:21 21.03.2020
1018 Clouds 12 1019 66 10000 1.5 0 08:56 21.03.2020
1019 Clouds 12 1019 66 10000 1.5 0 08:38 21.03.2020
1020 Clouds 12 1019 66 10000 1.5 0 08:19 21.03.2020
1021 Clouds 11 1020 71 10000 0.5 0 07:39 21.03.2020
1022 Clouds 11 1020 71 10000 0.5 0 07:20 21.03.2020
1023 Clouds 10 1020 81 10000 1 0 06:44 21.03.2020
1024 Clouds 10 1020 81 10000 1 0 06:25 21.03.2020
1025 Clouds 8 1019 93 10000 1 0 05:40 21.03.2020
1026 Clouds 7 1019 93 10000 1.5 0 04:26 21.03.2020
1027 Rain 7 1018 87 10000 3.6 350 02:37 21.03.2020
1028 Clouds 8 1016 93 10000 1.74 36 01:45 21.03.2020
1029 Rain 7 1017 93 10000 1 0 01:25 21.03.2020
1030 Clouds 7 1017 93 10000 1 0 00:39 21.03.2020
1031 Clouds 7 1017 93 10000 1 0 00:21 21.03.2020
1032 Rain 7 1018 93 10000 1.5 320 23:43 20.03.2020
1033 Rain 7 1018 93 10000 1.5 320 23:22 20.03.2020
1034 Rain 7 1018 87 10000 1.5 330 22:44 20.03.2020
1035 Rain 7 1018 87 10000 1.5 330 22:25 20.03.2020
1036 Clouds 7 1019 87 10000 1 40 21:58 20.03.2020
1037 Clouds 7 1019 87 10000 1 40 21:40 20.03.2020
1038 Clouds 7 1019 87 10000 1 40 21:20 20.03.2020
1039 Rain 7 1019 93 10000 1.5 120 20:58 20.03.2020
1040 Rain 7 1019 93 10000 1.5 120 20:40 20.03.2020
1041 Rain 7 1019 93 10000 1.5 120 20:20 20.03.2020
1042 Rain 8 1019 93 10000 1 180 19:48 20.03.2020
1043 Rain 8 1019 93 10000 1 180 19:21 20.03.2020
1044 Rain 8 1019 100 10000 4.1 90 18:58 20.03.2020
1045 Rain 8 1019 100 10000 4.1 90 18:38 20.03.2020
1046 Rain 8 1019 100 10000 4.1 90 18:20 20.03.2020
1047 Rain 8 1019 100 10000 4.1 90 18:20 20.03.2020
1048 Rain 9 1017 87 8000 2.6 180 17:56 20.03.2020
1049 Rain 9 1016 87 10000 2.6 80 17:37 20.03.2020
1050 Rain 9 1019 93 5000 3.1 270 17:19 20.03.2020
1051 Rain 9 1017 81 10000 2.6 340 16:42 20.03.2020
1052 Rain 9 1017 81 10000 2.6 340 16:21 20.03.2020
1053 Rain 9 1017 87 10000 4.1 360 15:55 20.03.2020
1054 Rain 9 1017 87 10000 4.1 360 15:37 20.03.2020
1055 Rain 9 1017 87 10000 4.1 360 15:37 20.03.2020
1056 Rain 9 1017 87 10000 1.5 80 15:18 20.03.2020
1057 Rain 9 1017 87 10000 1.5 80 14:42 20.03.2020
1058 Rain 9 1017 87 10000 1.5 80 14:21 20.03.2020
1059 Rain 11 1017 87 10000 2.6 0 13:49 20.03.2020
1060 Rain 11 1017 87 10000 2.6 0 13:25 20.03.2020
1061 Thunderstorm 12 1017 81 8000 2.1 0 12:58 20.03.2020
1062 Thunderstorm 12 1017 81 8000 2.1 0 12:38 20.03.2020
1063 Clouds 12 1014 58 10000 5.1 140 12:20 20.03.2020
1064 Thunderstorm 11 1017 81 10000 3.1 70 11:39 20.03.2020
1065 Clouds 11 1017 87 10000 4.1 80 11:21 20.03.2020
1066 Rain 11 1015 76 8000 4.1 150 10:56 20.03.2020
1067 Rain 11 1018 100 10000 4.1 70 10:38 20.03.2020
1068 Rain 11 1018 100 10000 4.1 70 10:18 20.03.2020
1069 Rain 11 1018 100 10000 4.1 70 10:18 20.03.2020
1070 Thunderstorm 10 1018 100 9000 7.2 310 09:46 20.03.2020
1071 Clouds 14 1018 58 10000 5.1 30 09:21 20.03.2020
1072 Clouds 14 1019 58 10000 3.6 40 08:58 20.03.2020
1073 Clouds 14 1019 58 10000 3.6 40 08:39 20.03.2020
1074 Clouds 14 1019 58 10000 3.6 40 08:19 20.03.2020
1075 Clouds 14 1020 58 10000 4.1 360 07:41 20.03.2020
1076 Clouds 14 1020 58 10000 4.1 360 07:23 20.03.2020
1077 Clouds 14 1020 58 10000 2.6 0 06:42 20.03.2020
1078 Clouds 14 1020 58 10000 2.6 0 06:42 20.03.2020
1079 Clouds 14 1020 58 10000 2.6 0 06:22 20.03.2020
1080 Clouds 10 1019 66 10000 1.5 240 04:39 20.03.2020
1081 Thunderstorm 9 1016 71 10000 1.44 11 02:51 20.03.2020
1082 Clouds 9 1018 75 10000 1.5 120 01:50 20.03.2020
1083 Clouds 9 1018 66 10000 1.5 210 00:45 20.03.2020
1084 Clouds 9 1018 66 10000 1.5 210 00:23 20.03.2020
1085 Clouds 10 1018 66 10000 1.5 70 23:42 19.03.2020
1086 Clouds 11 1018 66 10000 1.5 70 23:23 19.03.2020
1087 Clouds 12 1019 57 10000 2.1 60 22:54 19.03.2020
1088 Clouds 12 1019 57 10000 2.1 60 22:36 19.03.2020
1089 Clouds 12 1019 57 10000 2.1 60 22:18 19.03.2020
1090 Clouds 12 1019 57 10000 2.1 90 21:39 19.03.2020
1091 Clouds 12 1019 57 10000 2.1 90 21:20 19.03.2020
1092 Clouds 13 1019 53 10000 1.5 70 20:54 19.03.2020
1093 Clouds 13 1019 53 10000 1.5 70 20:36 19.03.2020
1094 Clear 14 1016 44 10000 2.1 100 20:18 19.03.2020
1095 Clouds 14 1018 54 10000 1.5 120 19:39 19.03.2020
1096 Clouds 14 1018 54 10000 1.5 120 19:21 19.03.2020
1097 Clouds 14 1018 50 10000 3.1 130 18:59 19.03.2020
1098 Clouds 14 1018 50 10000 3.1 130 18:41 19.03.2020
1099 Clouds 14 1018 50 10000 3.1 130 18:22 19.03.2020
1100 Clouds 14 1017 47 10000 2.6 110 17:55 19.03.2020
1101 Clouds 14 1017 47 10000 2.6 110 17:37 19.03.2020
1102 Clouds 14 1017 47 10000 2.6 110 17:18 19.03.2020
1103 Clouds 15 1017 43 10000 1.5 80 16:42 19.03.2020
1104 Clouds 15 1017 43 10000 1.5 80 16:21 19.03.2020
1105 Clouds 17 1016 31 10000 2.6 80 15:44 19.03.2020
1106 Clouds 17 1016 31 10000 2.6 80 15:24 19.03.2020
1107 Clouds 19 1016 25 10000 2.6 90 14:54 19.03.2020
1108 Clouds 19 1016 25 10000 2.6 90 14:36 19.03.2020
1109 Clouds 19 1016 25 10000 2.6 90 14:18 19.03.2020
1110 Clouds 21 1013 21 10000 2.6 80 13:38 19.03.2020
1111 Clouds 21 1013 22 10000 0.51 200 13:18 19.03.2020
1112 Clouds 21 1013 22 10000 0.51 200 12:42 19.03.2020
1113 Clouds 21 1013 22 10000 0.51 200 12:24 19.03.2020
1114 Clouds 20 1013 22 10000 0.51 200 11:58 19.03.2020
1115 Clouds 19 1017 23 10000 2.6 0 11:40 19.03.2020
1116 Clouds 19 1017 23 10000 2.6 0 11:22 19.03.2020
1117 Clouds 19 1018 33 10000 1 0 10:43 19.03.2020
1118 Clouds 19 1018 33 10000 1 0 10:22 19.03.2020
1119 Clouds 18 1019 27 10000 2.1 0 09:58 19.03.2020
1120 Clouds 18 1019 27 10000 2.1 0 09:39 19.03.2020
1121 Clouds 18 1019 27 10000 2.1 0 09:19 19.03.2020
1122 Clouds 18 1020 29 10000 3.1 0 08:46 19.03.2020
1123 Clouds 18 1020 29 10000 3.1 0 08:22 19.03.2020
1124 Clouds 16 1020 31 10000 3.6 190 07:47 19.03.2020
1125 Clouds 16 1020 31 10000 3.6 190 07:29 19.03.2020
1126 Clear 15 1021 33 10000 2.6 0 06:51 19.03.2020
1127 Clear 12 1021 46 10000 2.6 340 05:53 19.03.2020
1128 Clear 11 1021 46 10000 2.6 340 05:22 19.03.2020
1129 Clear 10 1020 53 10000 2.6 330 04:41 19.03.2020
1130 Clear 6 1020 70 10000 1 0 03:36 19.03.2020
1131 Clear 7 1020 70 10000 1 0 01:27 19.03.2020
1132 Clouds 9 1020 61 10000 1.5 0 00:37 19.03.2020
1133 Clear 8 1017 65 10000 1.55 297 23:58 18.03.2020
1134 Clouds 9 1020 61 10000 1 0 23:36 18.03.2020
1135 Clouds 9 1020 61 10000 1 0 23:18 18.03.2020
1136 Clouds 10 1020 53 10000 1.5 0 22:42 18.03.2020
1137 Clouds 10 1020 53 10000 1.5 0 22:22 18.03.2020
1138 Clouds 12 1021 54 10000 1 0 21:54 18.03.2020
1139 Clouds 12 1021 54 10000 1 0 21:36 18.03.2020
1140 Clouds 12 1021 54 10000 1 0 21:18 18.03.2020
1141 Clouds 12 1021 46 10000 0.5 0 20:41 18.03.2020
1142 Clouds 12 1021 46 10000 0.5 0 20:21 18.03.2020
1143 Clouds 12 1021 44 10000 2.6 100 19:58 18.03.2020
1144 Clouds 12 1021 44 10000 2.6 100 19:40 18.03.2020
1145 Clouds 12 1021 44 10000 2.6 100 19:21 18.03.2020
1146 Clouds 13 1021 44 10000 2.6 100 19:21 18.03.2020
1147 Clouds 14 1021 37 10000 3.6 330 18:54 18.03.2020
1148 Clouds 14 1021 37 10000 3.6 330 18:36 18.03.2020
1149 Clouds 14 1021 37 10000 3.6 330 18:18 18.03.2020
1150 Clouds 15 1021 41 10000 2.6 320 17:41 18.03.2020
1151 Clouds 15 1021 41 10000 2.6 320 17:22 18.03.2020
1152 Clouds 16 1020 48 10000 2.1 60 16:59 18.03.2020
1153 Clouds 16 1020 48 10000 2.1 60 16:40 18.03.2020
1154 Clouds 16 1020 48 10000 2.1 60 16:20 18.03.2020
1155 Clouds 16 1020 48 10000 1.5 70 15:56 18.03.2020
1156 Clouds 16 1020 48 10000 1.5 70 15:37 18.03.2020
1157 Clouds 17 1020 48 10000 1.5 70 15:18 18.03.2020
1158 Clouds 18 1020 48 10000 2.1 130 14:42 18.03.2020
1159 Clouds 18 1020 48 10000 2.1 130 14:21 18.03.2020
1160 Clouds 19 1020 38 10000 2.1 130 13:40 18.03.2020
1161 Clouds 19 1020 38 10000 2.1 130 13:19 18.03.2020
1162 Clouds 19 1020 37 10000 2.1 130 13:19 18.03.2020
1163 Clouds 19 1020 27 10000 1.5 0 12:43 18.03.2020
1164 Clouds 19 1020 27 10000 1.5 0 12:21 18.03.2020
1165 Clouds 20 1017 22 10000 0.46 343 11:58 18.03.2020
1166 Clouds 20 1021 37 10000 2.1 0 11:37 18.03.2020
1167 Clouds 20 1021 40 10000 2.1 0 11:18 18.03.2020
1168 Clouds 19 1022 34 10000 3.1 100 10:55 18.03.2020
1169 Clouds 19 1022 34 10000 3.1 100 10:36 18.03.2020
1170 Clouds 19 1022 34 10000 3.1 100 10:18 18.03.2020
1171 Clouds 19 1023 33 10000 2.6 0 09:41 18.03.2020
1172 Clouds 19 1023 33 10000 2.6 0 09:22 18.03.2020
1173 Clouds 18 1024 41 10000 2.6 0 08:40 18.03.2020
1174 Clouds 18 1024 41 10000 2.6 0 08:22 18.03.2020
1175 Clouds 16 1025 41 10000 2.1 0 07:59 18.03.2020
1176 Clouds 16 1025 41 10000 2.1 0 07:37 18.03.2020
1177 Clouds 15 1025 41 10000 2.1 0 07:19 18.03.2020
1178 Clear 15 1025 44 10000 2.6 0 06:39 18.03.2020
1179 Clear 12 1025 62 10000 1.5 0 05:37 18.03.2020
1180 Clear 9 1025 66 10000 1.5 290 04:58 18.03.2020
1181 Clear 7 1025 70 10000 2.1 300 03:21 18.03.2020
1182 Clear 6 1024 81 10000 2.1 320 02:37 18.03.2020
1183 Clear 8 1024 70 10000 1 0 01:43 18.03.2020
1184 Clouds 8 1024 70 10000 1 0 00:45 18.03.2020
1185 Clouds 8 1024 70 10000 1 0 00:21 18.03.2020
1186 Clouds 10 1024 70 10000 1.5 0 23:42 17.03.2020
1187 Clouds 10 1024 70 10000 1.5 0 23:21 17.03.2020
1188 Clouds 10 1025 70 10000 2.1 120 22:46 17.03.2020
1189 Clouds 10 1025 70 10000 2.1 120 22:28 17.03.2020
1190 Clouds 11 1025 62 10000 1.5 70 21:44 17.03.2020
1191 Clouds 11 1025 62 10000 1.5 70 21:25 17.03.2020
1192 Clouds 12 1025 57 10000 1 0 20:58 17.03.2020
1193 Clouds 12 1025 57 10000 1 0 20:38 17.03.2020
1194 Clouds 12 1025 57 10000 1 0 20:19 17.03.2020
1195 Clouds 12 1025 57 10000 1 0 20:19 17.03.2020
1196 Clouds 12 1024 57 10000 1 0 19:42 17.03.2020
1197 Clouds 13 1024 57 10000 1 0 19:20 17.03.2020
1198 Clouds 13 1022 47 10000 2.1 90 18:57 17.03.2020
1199 Clouds 12 1024 57 10000 1.5 80 18:39 17.03.2020
1200 Clouds 12 1024 57 10000 1.5 80 18:21 17.03.2020
1201 Clouds 13 1023 53 10000 0.5 0 17:56 17.03.2020
1202 Clouds 13 1023 53 10000 0.5 0 17:37 17.03.2020
1203 Clouds 13 1023 53 10000 0.5 0 17:18 17.03.2020
1204 Clouds 14 1023 47 10000 3.6 230 16:41 17.03.2020
1205 Clouds 14 1023 47 10000 3.6 230 16:19 17.03.2020
1206 Clouds 15 1022 44 10000 4.1 210 15:45 17.03.2020
1207 Clouds 15 1022 44 10000 4.1 210 15:22 17.03.2020
1208 Clouds 16 1022 51 10000 4.6 330 14:44 17.03.2020
1209 Clouds 16 1022 51 10000 4.6 330 14:26 17.03.2020
1210 Clouds 18 1021 27 10000 2.6 280 13:58 17.03.2020
1211 Clouds 18 1021 27 10000 2.6 280 13:40 17.03.2020
1212 Clouds 18 1021 27 10000 2.6 280 13:21 17.03.2020
1213 Rain 17 1021 29 10000 2.6 0 12:44 17.03.2020
1214 Rain 17 1021 29 10000 2.6 0 12:24 17.03.2020
1215 Clouds 18 1022 33 10000 3.1 350 11:56 17.03.2020
1216 Clouds 18 1022 33 10000 3.1 350 11:37 17.03.2020
1217 Clouds 18 1022 33 10000 3.1 350 11:19 17.03.2020
1218 Clouds 17 1022 36 10000 3.6 80 10:54 17.03.2020
1219 Clouds 17 1022 36 10000 3.6 80 10:36 17.03.2020
1220 Clouds 17 1022 36 10000 3.6 80 10:18 17.03.2020
1221 Clouds 17 1023 46 10000 1 0 09:44 17.03.2020
1222 Clouds 17 1023 46 10000 1 0 09:20 17.03.2020
1223 Clouds 16 1024 50 10000 1.5 0 08:51 17.03.2020
1224 Clouds 16 1024 46 10000 1.5 0 08:24 17.03.2020
1225 Clouds 15 1025 53 10000 1 0 07:58 17.03.2020
1226 Clouds 15 1025 53 10000 1 0 07:39 17.03.2020
1227 Clouds 15 1025 53 10000 1 0 07:19 17.03.2020
1228 Haze 13 1025 47 7000 2.1 290 06:40 17.03.2020
1229 Haze 13 1025 47 7000 2.1 290 06:19 17.03.2020
1230 Clouds 8 1024 70 10000 1 0 04:40 17.03.2020
1231 Clouds 5 1024 75 10000 1 270 03:19 17.03.2020
1232 Clouds 5 1023 80 7000 1 0 01:49 17.03.2020
1233 Clouds 5 1023 80 7000 1 0 01:28 17.03.2020
1234 Clouds 6 1023 75 6000 1.35 303 00:48 17.03.2020
1235 Clouds 6 1023 75 6000 1 0 23:51 16.03.2020
1236 Clouds 6 1023 75 6000 1 0 23:32 16.03.2020
1237 Clouds 8 1024 65 7000 1 0 22:43 16.03.2020
1238 Clouds 8 1024 65 7000 1 0 22:25 16.03.2020
1239 Clouds 8 1024 70 7000 1.42 312 21:59 16.03.2020
1240 Clouds 8 1024 70 7000 1.42 312 21:40 16.03.2020
1241 Clouds 8 1024 70 7000 1.42 312 21:22 16.03.2020
1242 Clouds 8 1024 61 8000 1.42 312 20:56 16.03.2020
1243 Clouds 8 1024 61 8000 1.42 312 20:38 16.03.2020
1244 Clouds 8 1024 61 8000 1.89 306 20:19 16.03.2020
1245 Clouds 9 1024 57 8000 1 0 19:41 16.03.2020
1246 Clouds 9 1024 57 8000 1 0 19:21 16.03.2020
1247 Clouds 10 1024 41 8000 1 0 18:56 16.03.2020
1248 Clouds 10 1024 41 8000 1 0 18:37 16.03.2020
1249 Clouds 10 1024 41 8000 1 0 18:18 16.03.2020
1250 Clouds 11 1023 41 10000 0.5 0 17:42 16.03.2020
1251 Clouds 12 1023 41 10000 0.5 0 17:22 16.03.2020
1252 Haze 14 1020 39 8000 1.96 304 16:46 16.03.2020
1253 Haze 14 1020 39 8000 1.96 304 16:27 16.03.2020
1254 Clouds 13 1022 37 10000 1.5 310 15:56 16.03.2020
1255 Clouds 13 1022 37 10000 1.5 310 15:37 16.03.2020
1256 Clouds 13 1022 37 10000 1.5 310 15:18 16.03.2020
1257 Clouds 15 1022 33 10000 2.6 210 14:39 16.03.2020
1258 Clouds 15 1022 33 10000 2.6 210 14:19 16.03.2020
1259 Clouds 16 1022 30 10000 2.6 240 13:41 16.03.2020
1260 Clouds 16 1022 30 10000 2.6 240 13:22 16.03.2020
1261 Clouds 16 1022 30 10000 3.6 250 12:45 16.03.2020
1262 Clouds 16 1022 30 10000 3.6 250 12:26 16.03.2020
1263 Clouds 16 1022 30 10000 3.6 260 11:56 16.03.2020
1264 Clouds 16 1022 30 10000 3.6 260 11:37 16.03.2020
1265 Clouds 16 1022 30 10000 3.6 260 11:18 16.03.2020
1266 Clouds 16 1022 29 10000 1.5 0 10:40 16.03.2020
1267 Clouds 16 1022 29 10000 1.5 0 10:19 16.03.2020
1268 Clouds 15 1023 30 10000 3.1 210 09:42 16.03.2020
1269 Clouds 15 1023 30 10000 3.1 210 09:24 16.03.2020
1270 Clouds 14 1023 30 10000 3.6 200 08:53 16.03.2020
1271 Clouds 14 1021 33 10000 1.63 178 08:25 16.03.2020
1272 Clouds 13 1024 30 10000 4.6 200 07:49 16.03.2020
1273 Clouds 13 1024 30 10000 4.6 200 07:27 16.03.2020
1274 Clouds 12 1024 40 10000 1 0 06:54 16.03.2020
1275 Clouds 12 1024 40 10000 1 0 06:25 16.03.2020
1276 Haze 10 1024 43 9000 1.5 20 05:42 16.03.2020
1277 Clouds 4 1023 33 8000 1 0 02:44 16.03.2020
1278 Clouds 5 1023 38 10000 1 0 01:20 16.03.2020
1279 Clouds 5 1023 75 10000 1 270 00:39 16.03.2020
1280 Clouds 5 1023 75 10000 1 270 00:39 16.03.2020
1281 Clouds 5 1023 65 10000 1 360 23:47 15.03.2020
1282 Clouds 5 1023 65 10000 1 360 23:20 15.03.2020
1283 Clouds 5 1024 65 9000 1.5 320 22:43 15.03.2020
1284 Clouds 6 1021 75 10000 2.1 230 22:23 15.03.2020
1285 Clouds 7 1024 56 8000 0.5 0 21:58 15.03.2020
1286 Clouds 7 1024 56 8000 0.5 0 21:38 15.03.2020
1287 Clouds 7 1024 56 8000 0.5 0 21:18 15.03.2020
1288 Clouds 8 1024 52 8000 1.99 307 20:42 15.03.2020
1289 Clouds 8 1024 52 8000 2.39 311 20:21 15.03.2020
1290 Clouds 7 1025 52 8000 1.5 100 19:58 15.03.2020
1291 Clouds 7 1025 52 8000 1.5 100 19:39 15.03.2020
1292 Clouds 7 1025 52 8000 1.5 100 19:20 15.03.2020
1293 Clouds 8 1024 45 10000 1.5 0 18:56 15.03.2020
1294 Clouds 8 1024 45 10000 1.5 0 18:37 15.03.2020
1295 Clouds 8 1024 45 10000 1.5 0 18:19 15.03.2020
1296 Clouds 11 1024 31 10000 1.5 0 17:41 15.03.2020
1297 Clouds 11 1024 31 10000 1.5 0 17:21 15.03.2020
1298 Clouds 12 1024 29 10000 2.6 90 16:58 15.03.2020
1299 Clouds 12 1024 29 10000 2.6 90 16:39 15.03.2020
1300 Clouds 12 1024 29 10000 2.6 90 16:21 15.03.2020
1301 Clouds 14 1023 20 10000 1.5 60 15:46 15.03.2020
1302 Clouds 14 1023 20 10000 1.5 60 15:28 15.03.2020
1303 Clouds 14 1023 20 10000 1.5 60 14:58 15.03.2020
1304 Clouds 14 1023 20 10000 1.5 60 14:38 15.03.2020
1305 Clouds 15 1022 20 10000 1.5 80 14:19 15.03.2020
1306 Clouds 16 1022 19 10000 2.6 60 13:55 15.03.2020
1307 Clouds 16 1022 19 10000 2.6 60 13:55 15.03.2020
1308 Clouds 16 1022 19 10000 2.6 60 13:36 15.03.2020
1309 Clouds 16 1022 19 10000 2.6 60 13:18 15.03.2020
1310 Clouds 16 1022 19 10000 2.6 60 13:18 15.03.2020
1311 Clouds 16 1022 19 10000 2.1 20 12:40 15.03.2020
1312 Clouds 16 1022 19 10000 2.1 20 12:21 15.03.2020
1313 Clouds 16 1022 19 10000 2.1 20 12:21 15.03.2020
1314 Clouds 16 1023 24 10000 2.6 0 11:43 15.03.2020
1315 Clouds 16 1023 19 10000 1 0 11:24 15.03.2020
1316 Clouds 16 1023 19 10000 1 0 10:58 15.03.2020
1317 Clouds 16 1023 19 10000 1 0 10:39 15.03.2020
1318 Clouds 16 1023 19 10000 1 0 10:39 15.03.2020
1319 Clouds 16 1023 19 10000 1 0 10:21 15.03.2020
1320 Clouds 14 1024 17 10000 1.5 0 09:44 15.03.2020
1321 Clouds 14 1024 17 10000 1.5 0 09:25 15.03.2020
1322 Clouds 14 1025 22 10000 2.6 0 08:58 15.03.2020
1323 Clouds 14 1025 22 10000 2.6 0 08:40 15.03.2020
1324 Clouds 14 1025 22 10000 2.6 0 08:40 15.03.2020
1325 Clear 14 1025 22 10000 2.6 0 08:18 15.03.2020
1326 Clear 12 1025 25 10000 3.1 180 07:44 15.03.2020
1327 Clear 10 1025 31 10000 1 0 06:59 15.03.2020
1328 Clear 10 1025 31 10000 1 0 06:35 15.03.2020
1329 Clear 8 1024 39 10000 2.1 330 05:46 15.03.2020
1330 Clear 4 1023 55 10000 3.1 340 04:49 15.03.2020
1331 Clear 4 1023 55 10000 3.1 340 04:29 15.03.2020
1332 Clear 2 1023 69 10000 1 240 03:59 15.03.2020
1333 Clear 1 1022 74 10000 1.5 360 02:48 15.03.2020
1334 Clouds 2 1022 69 10000 1.5 0 01:56 15.03.2020
1335 Clouds 2 1022 64 10000 1.5 0 00:53 15.03.2020
1336 Clouds 2 1022 64 10000 1.5 0 00:28 15.03.2020
1337 Clouds 2 1022 64 9000 1.5 90 23:58 14.03.2020
1338 Clouds 2 1022 64 9000 1.5 90 23:38 14.03.2020
1339 Clouds 2 1022 64 9000 1.5 90 23:19 14.03.2020
1340 Clouds 4 1022 55 7000 2.1 340 22:46 14.03.2020
1341 Clouds 4 1022 55 7000 2.1 340 22:27 14.03.2020
1342 Clouds 5 1022 48 8000 2.6 90 21:57 14.03.2020
1343 Clouds 5 1022 48 8000 2.6 90 21:37 14.03.2020
1344 Clouds 5 1022 48 8000 2.6 90 21:19 14.03.2020
1345 Clouds 5 1022 48 8000 2.6 90 21:19 14.03.2020
1346 Clouds 5 1022 48 8000 2.6 90 21:19 14.03.2020
1347 Clouds 6 1022 45 9000 1.5 0 20:59 14.03.2020
1348 Clouds 6 1022 45 9000 1.5 0 20:41 14.03.2020
1349 Clear 6 1022 45 9000 1.5 0 20:20 14.03.2020
1350 Clear 6 1022 41 10000 1.5 0 19:59 14.03.2020
1351 Clear 6 1022 41 10000 1.5 0 19:40 14.03.2020
1352 Clear 6 1022 41 10000 1.5 0 19:20 14.03.2020
1353 Clear 9 1022 33 10000 2.1 230 18:39 14.03.2020
1354 Clear 9 1022 33 10000 2.1 230 18:19 14.03.2020
1355 Clear 10 1021 23 10000 2.1 0 17:40 14.03.2020
1356 Clear 11 1021 23 10000 2.1 0 17:21 14.03.2020
1357 Clear 11 1020 23 10000 6.2 20 16:57 14.03.2020
1358 Clear 11 1020 23 10000 6.2 20 16:38 14.03.2020
1359 Clear 12 1020 23 10000 6.2 20 16:18 14.03.2020
1360 Clouds 13 1020 20 10000 4.1 10 15:28 14.03.2020
1361 Clouds 14 1020 19 10000 7.7 10 14:59 14.03.2020
1362 Clouds 14 1020 19 10000 7.7 10 14:38 14.03.2020
1363 Clouds 14 1020 19 10000 7.7 10 14:20 14.03.2020
1364 Clouds 15 1020 19 10000 6.2 350 13:56 14.03.2020
1365 Clouds 15 1020 19 10000 6.2 350 13:38 14.03.2020
1366 Clouds 15 1020 19 10000 6.2 350 13:18 14.03.2020
1367 Clouds 16 1020 22 10000 6.2 320 12:43 14.03.2020
1368 Clouds 16 1020 22 10000 6.2 320 12:43 14.03.2020
1369 Clouds 16 1020 22 10000 6.2 320 12:24 14.03.2020
1370 Clouds 15 1020 22 10000 4.1 10 11:43 14.03.2020
1371 Clouds 15 1020 22 10000 4.1 10 11:43 14.03.2020
1372 Clouds 15 1020 22 10000 4.1 10 11:25 14.03.2020
1373 Clear 17 1021 21 10000 1 0 10:47 14.03.2020
1374 Clear 17 1021 21 10000 1 0 10:28 14.03.2020
1375 Clear 15 1022 24 10000 5.1 360 09:59 14.03.2020
1376 Clear 15 1022 24 10000 5.1 360 09:40 14.03.2020
1377 Clear 15 1022 24 10000 5.1 360 09:21 14.03.2020
1378 Clear 15 1023 26 10000 3.6 300 08:46 14.03.2020
1379 Clear 15 1023 26 10000 3.6 300 08:46 14.03.2020
1380 Clear 15 1023 26 10000 3.6 300 08:26 14.03.2020
1381 Clouds 13 1024 34 10000 1.5 0 07:40 14.03.2020
1382 Clouds 12 1024 34 10000 1.5 0 07:21 14.03.2020
1383 Clouds 11 1024 34 10000 1 0 06:55 14.03.2020
1384 Clouds 11 1024 34 10000 1 0 06:34 14.03.2020
1385 Clouds 4 1023 74 10000 1.5 270 04:56 14.03.2020
1386 Clouds 0 1022 25 10000 1 320 03:37 14.03.2020
1387 Clouds 1 1022 25 9000 1.5 0 02:53 14.03.2020
1388 Clear 1 1022 31 9000 1.5 0 01:47 14.03.2020
1389 Clear 2 1021 93 8000 1.5 0 00:34 14.03.2020
1390 Clear 3 1022 86 7000 1.5 300 23:42 13.03.2020
1391 Clouds 3 1022 86 7000 1.5 300 23:23 13.03.2020
1392 Clouds 2 1022 93 7000 1.5 0 22:45 13.03.2020
1393 Clouds 2 1022 93 7000 1.5 0 22:22 13.03.2020
1394 Clouds 6 1022 86 7000 1.5 140 21:41 13.03.2020
1395 Clouds 6 1022 86 7000 1.5 140 21:19 13.03.2020
1396 Clouds 7 1022 81 6000 1.5 0 20:43 13.03.2020
1397 Clouds 7 1022 81 6000 1.5 0 20:23 13.03.2020
1398 Clouds 7 1022 70 7000 1.5 0 19:59 13.03.2020
1399 Clouds 7 1022 70 7000 1.5 0 19:40 13.03.2020
1400 Clouds 7 1022 70 7000 1.5 0 19:22 13.03.2020
1401 Clouds 9 1022 61 8000 1.5 0 18:44 13.03.2020
1402 Clouds 9 1022 61 8000 1.5 0 18:23 13.03.2020
1403 Clouds 9 1021 29 10000 2.1 60 17:43 13.03.2020
1404 Clouds 10 1021 29 10000 2.1 60 17:21 13.03.2020
1405 Clouds 11 1021 39 10000 2.6 50 16:59 13.03.2020
1406 Clouds 11 1021 39 10000 2.6 50 16:39 13.03.2020
1407 Clouds 11 1021 39 10000 2.6 50 16:20 13.03.2020
1408 Clouds 12 1020 40 10000 2.1 60 15:46 13.03.2020
1409 Clouds 12 1020 40 10000 2.1 60 15:23 13.03.2020
1410 Clouds 13 1020 37 10000 2.1 70 14:59 13.03.2020
1411 Clouds 13 1020 37 10000 2.1 70 14:40 13.03.2020
1412 Clouds 13 1020 37 10000 2.1 70 14:21 13.03.2020
1413 Clouds 15 1020 33 10000 1.5 0 13:43 13.03.2020
1414 Clouds 15 1020 33 10000 1.5 0 13:24 13.03.2020
1415 Clouds 15 1020 28 10000 1.5 0 12:59 13.03.2020
1416 Clouds 15 1020 28 10000 1.5 0 12:38 13.03.2020
1417 Clouds 15 1020 28 10000 1.5 0 12:20 13.03.2020
1418 Clouds 14 1020 38 10000 1.5 0 11:56 13.03.2020
1419 Clouds 14 1020 38 10000 1.5 0 11:36 13.03.2020
1420 Clouds 13 1020 39 10000 1.5 0 11:18 13.03.2020
1421 Clouds 13 1021 39 10000 1.5 0 10:46 13.03.2020
1422 Clouds 13 1021 39 10000 1.5 0 10:26 13.03.2020
1423 Clouds 13 1022 46 10000 1.5 0 09:49 13.03.2020
1424 Clouds 13 1022 46 10000 1.5 0 09:30 13.03.2020
1425 Clouds 11 1022 50 10000 2.1 250 08:59 13.03.2020
1426 Clouds 11 1022 50 10000 2.1 250 08:41 13.03.2020
1427 Clear 11 1022 50 10000 2.1 250 08:22 13.03.2020
1428 Clouds 9 1022 57 6000 2.6 150 07:44 13.03.2020
1429 Clouds 9 1022 57 6000 2.6 150 07:25 13.03.2020
1430 Mist 8 1022 65 5000 1.5 150 06:46 13.03.2020
1431 Mist 8 1022 65 5000 1.5 150 06:23 13.03.2020
1432 Mist 5 1021 75 6000 0.5 0 05:46 13.03.2020
1433 Mist 2 1021 61 5000 0.16 111 04:57 13.03.2020
1434 Mist 2 1021 61 5000 0.16 111 04:26 13.03.2020
1435 Mist 1 1020 61 5000 2.6 330 02:58 13.03.2020
1436 Mist 2 1020 100 4000 1 250 01:39 13.03.2020
1437 Mist 2 1020 100 4000 1 250 01:18 13.03.2020
1438 Mist 1 1020 100 4000 1 250 00:42 13.03.2020
1439 Mist 1 1020 60 4000 1 300 00:19 13.03.2020
1440 Mist 2 1020 100 5000 0.5 320 23:39 12.03.2020
1441 Mist 2 1020 100 5000 0.5 320 23:19 12.03.2020
1442 Clear 2 1020 93 6000 0.5 80 22:47 12.03.2020
1443 Clear 2 1020 93 6000 0.5 80 22:28 12.03.2020
1444 Clear 2 1020 93 6000 0.5 80 21:57 12.03.2020
1445 Clear 2 1020 93 6000 0.5 80 21:39 12.03.2020
1446 Clear 2 1021 93 6000 1 170 21:20 12.03.2020
1447 Clear 2 1021 71 7000 1.5 90 20:42 12.03.2020
1448 Clouds 2 1021 76 7000 1.5 90 20:20 12.03.2020
1449 Clouds 3 1022 86 10000 2.6 330 19:56 12.03.2020
1450 Clouds 3 1022 86 10000 2.6 330 19:37 12.03.2020
1451 Clouds 4 1022 86 10000 2.6 330 19:18 12.03.2020
1452 Clouds 4 1021 72 10000 2.1 340 18:42 12.03.2020
1453 Clouds 4 1021 72 10000 2.1 340 18:22 12.03.2020
1454 Clouds 5 1021 80 10000 1.5 110 17:56 12.03.2020
1455 Clouds 5 1021 80 10000 1.5 110 17:37 12.03.2020
1456 Clouds 5 1021 80 10000 1.5 110 17:18 12.03.2020
1457 Clouds 6 1022 80 10000 1 100 16:41 12.03.2020
1458 Clouds 6 1022 80 10000 1 100 16:41 12.03.2020
1459 Clouds 6 1022 80 10000 1 100 16:22 12.03.2020
1460 Clouds 6 1021 68 10000 3.6 70 15:49 12.03.2020
1461 Clouds 6 1021 68 10000 3.6 70 15:28 12.03.2020
1462 Clouds 7 1020 81 10000 2.6 90 14:58 12.03.2020
1463 Clouds 6 1021 70 10000 4.6 60 14:38 12.03.2020
1464 Clouds 6 1021 70 10000 4.6 60 14:18 12.03.2020
1465 Clouds 7 1020 75 10000 3.6 60 13:40 12.03.2020
1466 Clouds 7 1020 75 10000 3.6 60 13:21 12.03.2020
1467 Rain 7 1020 80 10000 6.2 120 12:55 12.03.2020
1468 Rain 7 1020 80 10000 6.2 120 12:37 12.03.2020
1469 Rain 7 1020 80 10000 6.2 120 12:18 12.03.2020
1470 Haze 9 1017 57 3200 8.2 140 11:55 12.03.2020
1471 Haze 10 1016 57 4000 7.2 130 11:36 12.03.2020
1472 Clouds 10 1018 70 10000 6.2 120 11:18 12.03.2020
1473 Clouds 10 1018 65 10000 1 0 10:43 12.03.2020
1474 Clouds 10 1018 65 10000 1 0 10:24 12.03.2020
1475 Clouds 10 1018 61 10000 2.1 0 09:59 12.03.2020
1476 Clouds 10 1018 61 10000 2.1 0 09:40 12.03.2020
1477 Clouds 10 1018 61 10000 2.1 0 09:22 12.03.2020
1478 Rain 8 1019 75 10000 3.6 30 08:39 12.03.2020
1479 Rain 8 1019 75 10000 3.6 30 08:18 12.03.2020
1480 Rain 7 1019 80 10000 6.2 110 07:47 12.03.2020
1481 Rain 7 1019 80 10000 6.2 110 07:22 12.03.2020
1482 Clouds 8 1017 70 10000 3.6 90 06:26 12.03.2020
1483 Clouds 7 1016 65 10000 5.1 20 05:35 12.03.2020
1484 Clouds 4 1014 86 8000 1.5 320 03:44 12.03.2020
1485 Clouds 4 1011 93 6000 1 350 01:58 12.03.2020
1486 Clouds 4 1011 93 6000 1 350 01:23 12.03.2020
1487 Clouds 4 1011 93 7000 2.1 100 00:42 12.03.2020
1488 Clouds 4 1009 86 10000 1.5 260 23:58 11.03.2020
1489 Clouds 4 1011 86 8000 1.5 140 23:29 11.03.2020
1490 Clouds 4 1011 93 8000 0.5 0 22:59 11.03.2020
1491 Clouds 4 1011 93 8000 0.5 0 22:40 11.03.2020
1492 Clouds 4 1011 93 8000 0.5 0 22:21 11.03.2020
1493 Clouds 4 1012 93 8000 1.23 42 21:58 11.03.2020
1494 Clouds 4 1012 93 8000 1.23 42 21:39 11.03.2020
1495 Clouds 4 1012 93 8000 1.23 42 21:21 11.03.2020
1496 Clouds 5 1013 80 9000 0.5 0 20:56 11.03.2020
1497 Clouds 5 1013 80 9000 0.5 0 20:37 11.03.2020
1498 Clouds 5 1013 80 9000 0.5 0 20:19 11.03.2020
1499 Clouds 6 1014 80 10000 1 0 19:42 11.03.2020
1500 Clouds 6 1014 80 10000 1 0 19:24 11.03.2020
1501 Clouds 7 1014 70 10000 2.1 280 18:57 11.03.2020
1502 Clouds 7 1014 70 10000 2.1 280 18:37 11.03.2020
1503 Clouds 7 1014 70 10000 2.1 280 18:18 11.03.2020
1504 Clouds 7 1014 70 10000 3.6 350 17:55 11.03.2020
1505 Clouds 7 1014 70 10000 3.6 350 17:37 11.03.2020
1506 Clouds 7 1014 70 10000 3.6 350 17:18 11.03.2020
1507 Clouds 9 1013 66 10000 3.48 0 16:43 11.03.2020
1508 Clouds 9 1013 66 10000 3.48 0 16:19 11.03.2020
1509 Clouds 10 1013 61 10000 3.48 0 15:43 11.03.2020
1510 Clouds 10 1013 61 10000 3.48 0 15:23 11.03.2020
1511 Clouds 10 1013 61 10000 3.48 0 15:23 11.03.2020
1512 Clouds 10 1013 61 10000 2.1 50 14:46 11.03.2020
1513 Clouds 10 1013 61 10000 2.1 50 14:25 11.03.2020
1514 Clouds 10 1013 57 10000 4.2 14 13:59 11.03.2020
1515 Clouds 10 1013 57 10000 4.2 14 13:40 11.03.2020
1516 Clouds 10 1013 57 10000 4.38 31 13:22 11.03.2020
1517 Clouds 10 1014 66 10000 2.1 260 12:56 11.03.2020
1518 Clouds 10 1014 66 10000 2.1 260 12:38 11.03.2020
1519 Rain 9 1016 63 10000 5.1 20 12:18 11.03.2020
1520 Rain 9 1016 63 10000 5.1 20 11:40 11.03.2020
1521 Rain 9 1016 78 10000 5.1 20 11:20 11.03.2020
1522 Clouds 9 1016 78 10000 5.1 350 10:47 11.03.2020
1523 Clouds 9 1016 78 10000 5.1 350 10:20 11.03.2020
1524 Clouds 8 1017 65 10000 6.7 10 09:58 11.03.2020
1525 Clouds 8 1017 65 10000 6.7 10 09:38 11.03.2020
1526 Clouds 8 1017 65 10000 6.7 10 09:19 11.03.2020
1527 Clouds 6 1017 80 10000 5.1 350 08:42 11.03.2020
1528 Clouds 6 1017 80 10000 5.1 350 08:23 11.03.2020
1529 Mist 6 1017 86 9000 6.2 350 07:47 11.03.2020
1530 Mist 6 1017 86 9000 6.2 350 07:20 11.03.2020
1531 Rain 5 1017 93 4000 7.7 10 06:49 11.03.2020
1532 Rain 5 1017 86 8000 6.7 360 06:30 11.03.2020
1533 Rain 5 1016 80 10000 5.1 360 05:32 11.03.2020
1534 Clouds 5 1015 86 10000 4.1 350 02:43 11.03.2020
1535 Clouds 5 1015 93 10000 3.1 330 01:52 11.03.2020
1536 Clouds 5 1015 93 10000 3.1 330 01:23 11.03.2020
1537 Rain 5 1015 93 10000 1 0 00:32 11.03.2020
1538 Rain 5 1014 93 9000 3.99 2 23:49 10.03.2020
1539 Rain 5 1015 93 10000 2.1 100 23:26 10.03.2020
1540 Rain 5 1016 93 10000 1 310 22:55 10.03.2020
1541 Rain 5 1016 93 10000 1 310 22:37 10.03.2020
1542 Rain 5 1016 93 10000 1 310 22:18 10.03.2020
1543 Mist 5 1014 87 9000 1.5 30 21:55 10.03.2020
1544 Rain 5 1016 93 10000 2.6 290 21:37 10.03.2020
1545 Rain 5 1016 93 10000 2.6 290 21:18 10.03.2020
1546 Rain 5 1016 86 10000 3.1 320 20:42 10.03.2020
1547 Rain 5 1016 86 10000 3.1 320 20:42 10.03.2020
1548 Rain 5 1016 86 10000 3.1 320 20:19 10.03.2020
1549 Rain 5 1015 93 9000 3.1 3 19:58 10.03.2020
1550 Rain 5 1016 93 10000 2.6 350 19:40 10.03.2020
1551 Rain 5 1016 93 10000 2.6 350 19:21 10.03.2020
1552 Rain 5 1015 93 9000 3.1 3 18:55 10.03.2020
1553 Rain 5 1016 93 8000 2.1 350 18:36 10.03.2020
1554 Rain 5 1016 93 8000 2.1 350 18:18 10.03.2020
1555 Rain 6 1016 80 10000 5.7 330 17:41 10.03.2020
1556 Rain 6 1016 80 10000 5.7 330 17:22 10.03.2020
1557 Rain 7 1016 75 10000 3.1 350 16:40 10.03.2020
1558 Rain 7 1016 75 10000 3.1 350 16:20 10.03.2020
1559 Rain 7 1015 75 10000 1.5 260 15:58 10.03.2020
1560 Rain 7 1015 75 10000 1.5 260 15:58 10.03.2020
1561 Rain 7 1016 75 10000 4.1 350 15:40 10.03.2020
1562 Rain 7 1016 75 10000 4.1 350 15:19 10.03.2020
1563 Clouds 7 1014 70 10000 2.6 20 14:57 10.03.2020
1564 Clouds 7 1016 75 10000 4.1 350 14:39 10.03.2020
1565 Clouds 7 1016 75 10000 4.1 350 14:18 10.03.2020
1566 Clouds 8 1016 70 10000 1 0 13:43 10.03.2020
1567 Clouds 8 1016 70 10000 1 0 13:25 10.03.2020
1568 Clouds 8 1016 75 10000 1.5 0 12:42 10.03.2020
1569 Clouds 8 1016 75 10000 1.5 0 12:21 10.03.2020
1570 Clouds 8 1016 75 10000 1.5 0 12:21 10.03.2020
1571 Rain 8 1017 75 9000 1.5 0 11:59 10.03.2020
1572 Rain 8 1017 75 9000 1.5 0 11:41 10.03.2020
1573 Rain 7 1017 75 9000 1.5 0 11:23 10.03.2020
1574 Rain 8 1018 75 8000 2.6 130 10:54 10.03.2020
1575 Rain 8 1018 75 8000 2.6 130 10:36 10.03.2020
1576 Rain 8 1018 75 8000 2.6 130 10:18 10.03.2020
1577 Rain 8 1019 70 9000 0.5 0 09:44 10.03.2020
1578 Rain 8 1019 70 9000 0.5 0 09:19 10.03.2020
1579 Clouds 7 1019 75 10000 2.1 0 08:53 10.03.2020
1580 Clouds 7 1019 75 10000 2.1 0 08:34 10.03.2020
1581 Clouds 6 1019 80 10000 2.1 80 07:53 10.03.2020
1582 Clouds 6 1019 80 10000 2.1 80 07:35 10.03.2020
1583 Clouds 5 1019 80 9000 0.5 0 06:57 10.03.2020
1584 Clouds 5 1019 80 9000 0.5 0 06:37 10.03.2020
1585 Clouds 5 1019 86 8000 1 0 05:42 10.03.2020
1586 Clouds 4 1018 86 10000 1.5 210 04:59 10.03.2020
1587 Clouds 4 1018 86 8000 2.6 350 04:25 10.03.2020
1588 Rain 4 1018 93 8000 1 0 02:58 10.03.2020
1589 Rain 4 1018 93 8000 1 0 01:32 10.03.2020
1590 Rain 4 1018 86 8000 1.5 290 00:50 10.03.2020
1591 Rain 4 1018 86 8000 1.5 290 00:28 10.03.2020
1592 Rain 4 1019 93 10000 2.1 290 23:42 09.03.2020
1593 Rain 4 1019 93 10000 2.1 290 23:22 09.03.2020
1594 Haze 5 1017 81 9000 3.1 280 22:57 09.03.2020
1595 Rain 5 1019 80 10000 2.6 260 22:37 09.03.2020
1596 Rain 5 1019 80 10000 2.6 260 22:18 09.03.2020
1597 Rain 7 1020 81 10000 2.6 290 21:43 09.03.2020
1598 Rain 7 1020 81 10000 2.6 290 21:22 09.03.2020
1599 Rain 8 1018 49 10000 3.1 350 20:58 09.03.2020
1600 Clouds 8 1020 56 10000 1.5 10 20:40 09.03.2020
1601 Clouds 8 1020 56 10000 1.5 10 20:20 09.03.2020
1602 Rain 8 1020 52 8000 4.1 20 19:46 09.03.2020
1603 Rain 8 1020 52 8000 4.1 20 19:26 09.03.2020
1604 Clouds 8 1019 56 8000 1.5 0 18:59 09.03.2020
1605 Clouds 8 1019 56 8000 1.5 0 18:40 09.03.2020
1606 Clouds 8 1019 56 8000 1.5 0 18:40 09.03.2020
1607 Clouds 8 1019 56 8000 1.5 0 18:21 09.03.2020
1608 Clouds 9 1019 42 10000 1.5 330 17:59 09.03.2020
1609 Clouds 9 1019 42 10000 1.5 330 17:39 09.03.2020
1610 Clouds 9 1019 42 10000 1.5 330 17:20 09.03.2020
1611 Clouds 9 1019 49 10000 3.1 330 16:59 09.03.2020
1612 Clouds 8 1019 49 10000 3.1 330 16:41 09.03.2020
1613 Clouds 9 1019 49 10000 3.1 330 16:22 09.03.2020
1614 Clouds 9 1018 42 10000 1.5 80 15:58 09.03.2020
1615 Clouds 9 1018 42 10000 1.5 80 15:39 09.03.2020
1616 Clouds 9 1018 42 10000 1.5 80 15:21 09.03.2020
1617 Clouds 11 1018 37 10000 1.5 180 14:58 09.03.2020
1618 Clouds 11 1018 37 10000 1.5 180 14:38 09.03.2020
1619 Clouds 11 1018 37 10000 1.5 180 14:19 09.03.2020
1620 Clouds 12 1018 40 10000 1.5 0 13:58 09.03.2020
1621 Clouds 12 1018 40 10000 1.5 0 13:38 09.03.2020
1622 Clouds 12 1018 40 10000 1.5 0 13:18 09.03.2020
1623 Clouds 12 1019 37 10000 2.6 100 12:43 09.03.2020
1624 Clouds 12 1019 37 10000 2.6 100 12:22 09.03.2020
1625 Clouds 11 1019 46 10000 3.1 60 11:58 09.03.2020
1626 Clouds 11 1019 46 10000 3.1 60 11:38 09.03.2020
1627 Clouds 11 1019 46 10000 3.1 60 11:19 09.03.2020
1628 Clouds 10 1021 39 10000 1 0 10:55 09.03.2020
1629 Clouds 10 1021 39 10000 1 0 10:36 09.03.2020
1630 Clouds 10 1021 39 10000 1 0 10:18 09.03.2020
1631 Clouds 10 1022 49 10000 1.5 0 09:40 09.03.2020
1632 Clouds 10 1022 49 10000 1.5 0 09:21 09.03.2020
1633 Clouds 10 1022 49 10000 1.5 80 08:44 09.03.2020
1634 Clouds 10 1022 49 10000 1.5 80 08:26 09.03.2020
1635 Clouds 9 1023 52 10000 1.5 0 07:43 09.03.2020
1636 Clouds 9 1023 52 10000 1.5 0 07:22 09.03.2020
1637 Clouds 7 1023 60 10000 1 0 06:46 09.03.2020
1638 Clouds 7 1023 60 10000 1 0 06:28 09.03.2020
1639 Clouds 6 1023 60 10000 3.1 320 05:58 09.03.2020
1640 Clouds 6 1023 60 10000 3.1 320 05:40 09.03.2020
1641 Clouds 4 1022 78 10000 1 0 04:46 09.03.2020
1642 Clouds 4 1022 78 10000 1 0 04:23 09.03.2020
1643 Clouds 2 1022 86 10000 0.85 43 03:29 09.03.2020
1644 Clouds 3 1022 74 10000 2.6 310 01:58 09.03.2020
1645 Clouds 4 1022 69 10000 3.1 10 00:42 09.03.2020
1646 Clouds 4 1022 69 10000 3.1 10 00:24 09.03.2020
1647 Clouds 5 1022 64 10000 1.5 0 23:55 08.03.2020
1648 Clouds 5 1022 64 10000 1.5 0 23:28 08.03.2020
1649 Clouds 5 1023 60 10000 1.5 0 22:58 08.03.2020
1650 Clouds 5 1023 60 10000 1.5 0 22:39 08.03.2020
1651 Clouds 5 1023 60 10000 1.5 0 22:21 08.03.2020
1652 Clouds 5 1023 60 10000 1.5 0 22:21 08.03.2020
1653 Clouds 5 1023 60 10000 3.1 80 21:57 08.03.2020
1654 Clouds 5 1023 60 10000 3.1 80 21:38 08.03.2020
1655 Clouds 5 1023 60 10000 3.1 80 21:19 08.03.2020
1656 Clouds 6 1023 56 10000 3.1 50 20:56 08.03.2020
1657 Clouds 6 1023 56 10000 3.1 50 20:37 08.03.2020
1658 Clouds 6 1023 56 10000 3.1 50 20:18 08.03.2020
1659 Clouds 6 1023 52 10000 5.1 70 19:37 08.03.2020
1660 Clouds 6 1023 52 10000 5.1 70 19:19 08.03.2020
1661 Clouds 6 1023 52 10000 5.1 80 18:42 08.03.2020
1662 Clouds 6 1023 52 10000 5.1 80 18:24 08.03.2020
1663 Clouds 5 1023 48 10000 5.1 80 17:57 08.03.2020
1664 Clouds 5 1023 48 10000 5.1 80 17:38 08.03.2020
1665 Clouds 6 1023 48 10000 5.1 80 17:19 08.03.2020
1666 Clouds 7 1023 48 10000 3.1 90 16:47 08.03.2020
1667 Clouds 7 1023 48 10000 3.1 90 16:28 08.03.2020
1668 Clouds 7 1022 52 10000 4.1 100 15:58 08.03.2020
1669 Clouds 7 1022 52 10000 4.1 100 15:40 08.03.2020
1670 Clouds 7 1022 52 10000 4.1 100 15:20 08.03.2020
1671 Clouds 7 1021 45 10000 6.7 110 14:42 08.03.2020
1672 Clouds 7 1021 45 10000 6.7 110 14:22 08.03.2020
1673 Clouds 9 1021 42 10000 6.7 110 13:59 08.03.2020
1674 Clouds 9 1021 42 10000 6.7 110 13:39 08.03.2020
1675 Clouds 9 1021 42 10000 6.7 110 13:19 08.03.2020
1676 Clouds 9 1021 42 10000 6.7 110 12:43 08.03.2020
1677 Clouds 10 1020 36 10000 3.1 60 12:24 08.03.2020
1678 Clouds 8 1021 33 10000 3.6 60 11:56 08.03.2020
1679 Clouds 8 1021 33 10000 3.6 60 11:37 08.03.2020
1680 Clouds 8 1021 33 10000 3.6 60 11:37 08.03.2020
1681 Clouds 9 1021 33 10000 3.6 60 11:19 08.03.2020
1682 Clouds 9 1021 36 10000 3.6 20 10:41 08.03.2020
1683 Clouds 9 1021 36 10000 3.6 20 10:23 08.03.2020
1684 Clouds 8 1022 31 10000 3.1 0 09:43 08.03.2020
1685 Clouds 8 1022 31 10000 3.1 0 09:25 08.03.2020
1686 Clouds 7 1022 35 10000 2.6 0 08:54 08.03.2020
1687 Clouds 7 1022 35 10000 2.6 0 08:54 08.03.2020
1688 Clouds 7 1022 35 10000 2.6 0 08:36 08.03.2020
1689 Clouds 7 1022 35 10000 2.6 0 08:18 08.03.2020
1690 Clouds 7 1022 35 10000 2.6 60 07:41 08.03.2020
1691 Clouds 7 1022 35 10000 2.6 60 07:22 08.03.2020
1692 Clouds 6 1022 38 10000 2.1 350 06:42 08.03.2020
1693 Clouds 6 1022 38 10000 2.1 350 06:22 08.03.2020
1694 Clear 3 1020 40 10000 1.5 350 05:28 08.03.2020
1695 Clear 0 1019 100 10000 1.5 300 03:51 08.03.2020
1696 Clear 0 1018 100 10000 1.5 320 02:29 08.03.2020
1697 Clear 1 1018 63 10000 1.5 0 01:23 08.03.2020
1698 Clear 1 1018 63 10000 1.5 0 01:23 08.03.2020
1699 Clear 1 1018 63 10000 1.5 0 01:23 08.03.2020
1700 Clear 1 1018 63 10000 1.5 0 01:23 08.03.2020
1701 Clear 1 1018 63 10000 1.5 0 01:23 08.03.2020
1702 Clouds 1 1018 50 10000 1.5 0 00:44 08.03.2020
1703 Clouds 2 1018 50 10000 1.5 0 00:25 08.03.2020
1704 Clouds 2 1018 50 10000 1 0 23:44 07.03.2020
1705 Clouds 2 1018 50 10000 1 0 23:23 07.03.2020
1706 Clouds 1 1017 36 10000 2.6 320 22:41 07.03.2020
1707 Clouds 1 1017 36 10000 2.6 320 22:22 07.03.2020
1708 Clouds 2 1017 51 10000 2.6 260 21:49 07.03.2020
1709 Clouds 2 1017 51 10000 2.6 260 21:26 07.03.2020
1710 Clouds 3 1017 51 10000 2.1 270 20:57 07.03.2020
1711 Clouds 3 1017 51 10000 2.1 270 20:57 07.03.2020
1712 Clouds 3 1017 51 10000 2.1 270 20:38 07.03.2020
1713 Clouds 3 1017 51 10000 2.1 270 20:19 07.03.2020
1714 Clouds 4 1017 44 10000 4.1 300 19:41 07.03.2020
1715 Clouds 4 1017 44 10000 4.1 300 19:22 07.03.2020
1716 Clouds 5 1017 48 10000 5.1 330 18:46 07.03.2020
1717 Clouds 5 1017 48 10000 5.1 330 18:27 07.03.2020
1718 Clouds 5 1016 64 10000 6.2 330 17:57 07.03.2020
1719 Clouds 5 1016 64 10000 6.2 330 17:39 07.03.2020
1720 Clouds 5 1016 64 10000 6.2 330 17:19 07.03.2020
1721 Clouds 6 1015 65 10000 5.1 360 16:43 07.03.2020
1722 Clouds 6 1015 65 10000 5.1 360 16:43 07.03.2020
1723 Clouds 6 1015 65 10000 5.1 360 16:24 07.03.2020
1724 Rain 5 1015 37 10000 6.2 340 15:59 07.03.2020
1725 Rain 5 1015 37 10000 6.2 340 15:41 07.03.2020
1726 Rain 5 1015 37 10000 6.2 340 15:41 07.03.2020
1727 Rain 5 1015 37 10000 6.2 340 15:21 07.03.2020
1728 Clouds 7 1013 37 10000 5.7 100 14:58 07.03.2020
1729 Clouds 7 1013 37 10000 5.7 100 14:39 07.03.2020
1730 Clouds 7 1013 33 10000 5.7 100 14:21 07.03.2020
1731 Clouds 9 1013 42 10000 6.2 110 13:41 07.03.2020
1732 Clouds 9 1013 42 10000 6.2 110 13:21 07.03.2020
1733 Rain 8 1014 56 10000 7.2 240 12:45 07.03.2020
1734 Rain 8 1014 56 10000 7.2 240 12:45 07.03.2020
1735 Rain 8 1014 56 10000 7.2 240 12:23 07.03.2020
1736 Clouds 9 1014 52 10000 7.2 230 11:59 07.03.2020
1737 Clouds 9 1014 52 10000 7.2 230 11:41 07.03.2020
1738 Rain 10 1013 42 10000 4.6 200 11:23 07.03.2020
1739 Rain 9 1014 39 10000 6.2 170 10:56 07.03.2020
1740 Rain 9 1014 39 10000 6.2 170 10:36 07.03.2020
1741 Rain 9 1014 39 10000 6.2 170 10:18 07.03.2020
1742 Clouds 11 1014 23 10000 4.1 220 09:40 07.03.2020
1743 Clouds 11 1014 23 10000 4.1 220 09:19 07.03.2020
1744 Clouds 9 1015 29 10000 6.2 190 08:56 07.03.2020
1745 Clouds 9 1015 29 10000 6.2 190 08:38 07.03.2020
1746 Clouds 9 1015 29 10000 6.2 190 08:19 07.03.2020
1747 Clouds 9 1015 31 10000 2.6 190 07:44 07.03.2020
1748 Clouds 9 1015 31 10000 2.6 190 07:21 07.03.2020
1749 Mist 7 1015 56 6000 1.5 0 06:39 07.03.2020
1750 Mist 7 1015 56 6000 1.5 0 05:59 07.03.2020
1751 Mist 6 1015 75 4000 1.5 0 05:38 07.03.2020
1752 Clear 1 1019 40 0 0.67 246 03:35 07.03.2020
1753 Clear 2 1013 93 8000 0.67 246 02:42 07.03.2020
1754 Clear 3 1013 93 10000 1 160 01:51 07.03.2020
1755 Clouds 4 1013 86 10000 1 20 00:43 07.03.2020
1756 Clouds 4 1013 86 10000 1 20 00:23 07.03.2020
1757 Clouds 3 1014 93 10000 1 10 23:58 06.03.2020
1758 Clouds 3 1014 93 10000 1 10 23:38 06.03.2020
1759 Clouds 3 1014 93 10000 1 10 23:38 06.03.2020
1760 Clouds 3 1014 93 10000 1 10 23:20 06.03.2020
1761 Clouds 5 1014 93 10000 0.9 322 22:44 06.03.2020
1762 Clouds 5 1014 93 10000 0.9 322 22:19 06.03.2020
1763 Clouds 5 1014 93 10000 0.9 322 22:19 06.03.2020
1764 Clouds 5 1014 93 10000 0.9 322 21:45 06.03.2020
1765 Clouds 5 1014 93 10000 0.9 322 21:19 06.03.2020
1766 Clouds 6 1014 80 8000 1 100 20:42 06.03.2020
1767 Clouds 6 1014 80 8000 1 100 20:21 06.03.2020
1768 Clouds 6 1014 80 8000 1 100 20:21 06.03.2020
1769 Clear 7 1014 75 8000 2.1 130 19:54 06.03.2020
1770 Clear 7 1014 75 8000 2.1 130 19:36 06.03.2020
1771 Clear 7 1014 75 8000 2.1 130 19:18 06.03.2020
1772 Clear 7 1014 75 8000 1 328 18:41 06.03.2020
1773 Clear 7 1014 75 8000 1 328 18:20 06.03.2020
1774 Clear 8 1014 70 10000 1 328 17:56 06.03.2020
1775 Clear 8 1014 70 10000 1 328 17:36 06.03.2020
1776 Clear 8 1014 70 10000 1 328 17:36 06.03.2020
1777 Clouds 8 1014 70 10000 1.38 315 17:18 06.03.2020
1778 Clouds 9 1013 61 10000 1.5 140 16:42 06.03.2020
1779 Clouds 9 1013 61 10000 1.5 140 16:21 06.03.2020
1780 Clouds 10 1013 57 10000 1.5 140 15:58 06.03.2020
1781 Clouds 9 1013 57 10000 1.5 140 15:39 06.03.2020
1782 Clouds 10 1013 57 10000 1.5 140 15:20 06.03.2020
1783 Clouds 11 1013 53 10000 3.6 110 14:39 06.03.2020
1784 Clouds 11 1013 53 10000 3.6 110 14:39 06.03.2020
1785 Clouds 11 1013 53 10000 3.6 110 14:19 06.03.2020
1786 Clouds 10 1013 53 10000 2.6 130 13:43 06.03.2020
1787 Clouds 11 1013 53 10000 2.6 130 13:22 06.03.2020
1788 Clouds 12 1014 50 10000 2.1 90 12:57 06.03.2020
1789 Clouds 12 1014 50 10000 2.1 90 12:38 06.03.2020
1790 Clouds 12 1014 50 10000 2.1 90 12:19 06.03.2020
1791 Clouds 12 1014 50 10000 2.1 90 12:19 06.03.2020
1792 Clouds 11 1014 57 10000 1.5 0 11:57 06.03.2020
1793 Clouds 11 1014 57 10000 1.5 0 11:38 06.03.2020
1794 Clouds 11 1014 57 10000 1.5 0 11:19 06.03.2020
1795 Clouds 11 1015 42 10000 1.5 0 10:39 06.03.2020
1796 Clouds 11 1015 42 10000 1.5 0 10:20 06.03.2020
1797 Clouds 10 1016 57 10000 2.1 80 09:55 06.03.2020
1798 Clouds 10 1016 57 10000 2.1 80 09:37 06.03.2020
1799 Clouds 10 1016 57 10000 2.1 80 09:18 06.03.2020
1800 Clouds 9 1016 61 10000 1.34 103 08:43 06.03.2020
1801 Clouds 9 1016 61 10000 1.34 103 08:25 06.03.2020
1802 Clouds 9 1016 61 10000 1.34 103 08:25 06.03.2020
1803 Clouds 9 1017 70 8000 1 0 07:57 06.03.2020
1804 Clouds 9 1017 70 8000 1 0 07:37 06.03.2020
1805 Mist 7 1016 81 5000 1 0 06:58 06.03.2020
1806 Mist 7 1016 81 5000 1 0 06:39 06.03.2020
1807 Mist 4 1016 86 5000 0.5 0 05:42 06.03.2020
1808 Mist 4 1016 86 5000 0.5 0 05:24 06.03.2020
1809 Mist 3 1015 100 8000 1 130 04:57 06.03.2020
1810 Clouds 3 1014 100 9000 1.5 90 02:36 06.03.2020
1811 Clouds 3 1014 93 10000 0.65 352 01:39 06.03.2020
1812 Clouds 3 1014 93 10000 0.65 352 01:20 06.03.2020
1813 Clouds 3 1014 100 9000 0.5 200 00:32 06.03.2020
1814 Clouds 3 1015 93 9000 0.5 340 23:56 05.03.2020
1815 Clouds 3 1015 93 9000 0.5 340 23:38 05.03.2020
1816 Clouds 3 1015 93 9000 0.5 340 23:19 05.03.2020
1817 Clouds 4 1015 100 7000 0.89 333 22:40 05.03.2020
1818 Clouds 4 1015 100 7000 0.89 333 22:21 05.03.2020
1819 Clouds 4 1015 93 8000 1.5 130 21:57 05.03.2020
1820 Clouds 4 1015 93 8000 1.5 130 21:38 05.03.2020
1821 Clouds 4 1015 93 8000 1.5 130 21:20 05.03.2020
1822 Clouds 5 1015 86 8000 1 160 20:57 05.03.2020
1823 Clouds 5 1015 86 8000 1 160 20:39 05.03.2020
1824 Clouds 5 1015 86 8000 1 160 20:19 05.03.2020
1825 Clouds 6 1016 81 7000 1 220 19:56 05.03.2020
1826 Clouds 6 1016 81 7000 1 220 19:37 05.03.2020
1827 Clouds 6 1016 81 7000 1 220 19:18 05.03.2020
1828 Clouds 6 1017 86 8000 1.5 50 18:40 05.03.2020
1829 Clouds 6 1017 86 8000 1.5 50 18:20 05.03.2020
1830 Clouds 6 1016 86 8000 1 150 17:59 05.03.2020
1831 Clouds 6 1016 86 8000 1 150 17:40 05.03.2020
1832 Clouds 6 1016 86 8000 1 150 17:22 05.03.2020
1833 Clouds 7 1016 75 10000 1.5 20 16:55 05.03.2020
1834 Clouds 7 1016 75 10000 1.5 20 16:36 05.03.2020
1835 Clouds 7 1016 75 10000 1.5 20 16:18 05.03.2020
1836 Clouds 7 1015 81 10000 2.1 320 15:44 05.03.2020
1837 Clouds 7 1015 81 10000 2.1 320 15:22 05.03.2020
1838 Clouds 7 1015 75 10000 4.1 100 14:57 05.03.2020
1839 Clouds 7 1015 75 10000 4.1 100 14:39 05.03.2020
1840 Clouds 7 1015 75 10000 4.1 100 14:20 05.03.2020
1841 Clouds 8 1013 66 10000 2.6 100 13:55 05.03.2020
1842 Clouds 8 1015 70 10000 4.6 10 13:36 05.03.2020
1843 Clouds 8 1015 70 10000 4.6 10 13:18 05.03.2020
1844 Mist 8 1015 75 10000 4.1 340 12:40 05.03.2020
1845 Mist 8 1015 75 10000 4.1 340 12:40 05.03.2020
1846 Mist 8 1015 75 10000 4.1 340 12:20 05.03.2020
1847 Rain 7 1015 81 10000 1.5 0 11:57 05.03.2020
1848 Rain 7 1015 81 10000 1.5 0 11:37 05.03.2020
1849 Rain 7 1015 81 10000 1.5 0 11:19 05.03.2020
1850 Rain 7 1016 81 10000 3.1 350 10:57 05.03.2020
1851 Rain 7 1016 81 10000 3.1 350 10:39 05.03.2020
1852 Rain 7 1016 81 10000 3.1 350 10:20 05.03.2020
1853 Mist 7 1016 81 9000 3.1 350 09:45 05.03.2020
1854 Mist 7 1016 81 9000 3.1 350 09:26 05.03.2020
1855 Mist 6 1017 86 9000 2.6 20 08:47 05.03.2020
1856 Mist 6 1017 86 9000 2.6 20 08:29 05.03.2020
1857 Mist 5 1017 86 9000 2.6 340 07:49 05.03.2020
1858 Mist 5 1017 86 9000 2.6 340 07:23 05.03.2020
1859 Rain 5 1016 81 10000 1.5 80 06:50 05.03.2020
1860 Mist 5 1017 86 9000 2.6 350 06:23 05.03.2020
1861 Mist 4 1016 86 8000 1 0 05:57 05.03.2020
1862 Mist 4 1016 86 8000 1 0 05:32 05.03.2020
1863 Rain 4 1015 93 6000 1 90 04:23 05.03.2020
1864 Rain 4 1015 93 7000 1 110 03:58 05.03.2020
1865 Rain 4 1013 93 9000 2.1 100 02:21 05.03.2020
1866 Rain 4 1014 86 10000 0.5 50 01:24 05.03.2020
1867 Rain 4 1014 93 8000 0.87 348 00:29 05.03.2020
1868 Rain 4 1014 93 8000 1 110 23:43 04.03.2020
1869 Rain 4 1014 93 8000 1 110 23:24 04.03.2020
1870 Rain 5 1015 86 8000 1.5 140 22:59 04.03.2020
1871 Rain 5 1015 86 8000 1.5 140 22:40 04.03.2020
1872 Rain 5 1015 86 8000 1.5 140 22:19 04.03.2020
1873 Rain 4 1015 93 8000 1.5 130 21:59 04.03.2020
1874 Rain 4 1015 93 8000 1.5 130 21:41 04.03.2020
1875 Rain 5 1015 93 8000 1.5 130 21:20 04.03.2020
1876 Rain 5 1016 93 8000 1.5 60 20:57 04.03.2020
1877 Rain 5 1016 93 8000 1.5 60 20:39 04.03.2020
1878 Rain 5 1016 93 8000 1.5 60 20:20 04.03.2020
1879 Rain 5 1016 93 8000 1.76 340 19:42 04.03.2020
1880 Rain 5 1016 93 8000 1.76 340 19:24 04.03.2020
1881 Rain 6 1015 87 9000 1.76 340 18:57 04.03.2020
1882 Rain 5 1016 86 10000 1.5 330 18:38 04.03.2020
1883 Rain 5 1016 86 10000 1.5 330 18:20 04.03.2020
1884 Rain 5 1016 93 10000 2.1 80 17:56 04.03.2020
1885 Rain 5 1016 93 10000 2.1 80 17:38 04.03.2020
1886 Rain 6 1016 93 10000 2.1 80 17:19 04.03.2020
1887 Rain 6 1016 86 10000 2.1 80 16:44 04.03.2020
1888 Rain 6 1016 86 10000 2.1 80 16:25 04.03.2020
1889 Rain 6 1015 81 9000 4.1 350 15:59 04.03.2020
1890 Rain 6 1015 81 9000 4.1 350 15:41 04.03.2020
1891 Rain 6 1015 81 9000 4.1 350 15:22 04.03.2020
1892 Mist 6 1015 81 10000 3.1 330 14:55 04.03.2020
1893 Mist 6 1015 81 10000 3.1 330 14:37 04.03.2020
1894 Mist 6 1015 81 10000 3.1 330 14:18 04.03.2020
1895 Rain 6 1015 81 10000 1.5 0 13:56 04.03.2020
1896 Rain 6 1015 81 10000 1.5 0 13:37 04.03.2020
1897 Rain 7 1015 81 10000 1.5 0 13:19 04.03.2020
1898 Clouds 8 1015 70 10000 6.7 110 12:43 04.03.2020
1899 Clouds 8 1015 70 10000 6.7 110 12:25 04.03.2020
1900 Clouds 8 1015 70 10000 4.1 110 11:56 04.03.2020
1901 Clouds 8 1015 70 10000 4.1 110 11:37 04.03.2020
1902 Clouds 7 1015 70 10000 4.1 110 11:37 04.03.2020
1903 Clouds 8 1015 70 10000 4.1 110 11:19 04.03.2020
1904 Rain 7 1016 70 10000 6.2 90 10:47 04.03.2020
1905 Rain 8 1016 70 10000 6.2 90 10:26 04.03.2020
1906 Clouds 8 1017 75 10000 5.1 110 09:58 04.03.2020
1907 Clouds 8 1017 75 10000 5.1 110 09:40 04.03.2020
1908 Clouds 8 1017 75 10000 5.1 110 09:20 04.03.2020
1909 Clouds 8 1017 75 10000 5.1 120 08:43 04.03.2020
1910 Clouds 8 1017 75 10000 5.1 120 08:24 04.03.2020
1911 Rain 8 1017 87 9000 5.1 110 07:48 04.03.2020
1912 Clouds 9 1017 70 10000 5.1 110 07:30 04.03.2020
1913 Clouds 10 1016 61 10000 5.1 110 06:54 04.03.2020
1914 Clouds 10 1016 61 10000 5.1 110 06:54 04.03.2020
1915 Clouds 10 1016 61 10000 5.1 110 06:27 04.03.2020
1916 Haze 10 1014 66 9000 1.5 90 05:59 04.03.2020
1917 Clouds 10 1016 57 10000 5.1 80 05:33 04.03.2020
1918 Clouds 7 1015 65 10000 1 0 03:58 04.03.2020
1919 Clouds 7 1015 65 10000 1 0 03:37 04.03.2020
1920 Clouds 6 1015 75 10000 2.34 347 02:59 04.03.2020
1921 Clouds 6 1015 75 10000 2.34 347 02:31 04.03.2020
1922 Clouds 6 1015 75 10000 1.5 0 01:57 04.03.2020
1923 Clouds 6 1015 75 10000 1.5 0 01:37 04.03.2020
1924 Clouds 7 1014 70 10000 1 0 00:42 04.03.2020
1925 Clouds 7 1014 70 10000 1 0 00:24 04.03.2020
1926 Clouds 8 1015 61 10000 1.5 170 23:44 03.03.2020
1927 Clouds 8 1015 61 10000 1.5 170 23:24 03.03.2020
1928 Clouds 10 1016 56 10000 4.6 360 22:56 03.03.2020
1929 Clouds 10 1016 56 10000 4.6 360 22:37 03.03.2020
1930 Clouds 10 1016 56 10000 4.6 360 22:19 03.03.2020
1931 Clouds 10 1016 56 10000 3.6 30 21:55 03.03.2020
1932 Clouds 10 1016 56 10000 3.6 30 21:36 03.03.2020
1933 Clouds 10 1016 56 10000 3.6 30 21:18 03.03.2020
1934 Clouds 10 1017 53 10000 5.1 20 20:40 03.03.2020
1935 Clouds 10 1017 53 10000 5.1 20 20:19 03.03.2020
1936 Clouds 10 1017 46 10000 4.1 50 19:57 03.03.2020
1937 Clouds 10 1017 46 10000 4.1 50 19:37 03.03.2020
1938 Clouds 10 1017 46 10000 4.1 50 19:19 03.03.2020
1939 Clouds 11 1017 43 10000 2.6 70 18:57 03.03.2020
1940 Clouds 11 1017 43 10000 2.6 70 18:39 03.03.2020
1941 Clouds 11 1017 45 10000 2.6 70 18:19 03.03.2020
1942 Clouds 11 1017 45 10000 3.1 70 17:55 03.03.2020
1943 Clouds 11 1017 43 10000 3.1 70 17:36 03.03.2020
1944 Clouds 11 1017 44 10000 3.1 70 17:18 03.03.2020
1945 Clouds 12 1016 53 10000 2.6 90 16:55 03.03.2020
1946 Clouds 12 1016 53 10000 2.6 90 16:36 03.03.2020
1947 Clouds 12 1016 53 10000 2.6 90 16:18 03.03.2020
1948 Clouds 12 1016 50 10000 4.6 110 15:43 03.03.2020
1949 Clouds 12 1016 50 10000 4.6 110 15:21 03.03.2020
1950 Clouds 12 1016 50 10000 4.6 110 15:21 03.03.2020
1951 Clouds 14 1015 43 10000 2.6 0 14:55 03.03.2020
1952 Clouds 14 1015 43 10000 2.6 0 14:36 03.03.2020
1953 Clouds 14 1015 43 10000 2.6 0 14:18 03.03.2020
1954 Clouds 15 1015 31 10000 2.6 40 13:42 03.03.2020
1955 Clouds 15 1015 31 10000 2.6 40 13:24 03.03.2020
1956 Clouds 15 1016 31 10000 4.6 10 12:55 03.03.2020
1957 Clouds 15 1016 31 10000 4.6 10 12:37 03.03.2020
1958 Clouds 15 1016 31 10000 4.6 10 12:18 03.03.2020
1959 Clouds 15 1016 41 10000 3.1 10 11:39 03.03.2020
1960 Clouds 15 1016 41 10000 3.1 10 11:20 03.03.2020
1961 Clouds 15 1017 44 9000 3.6 90 10:57 03.03.2020
1962 Clouds 15 1017 44 9000 3.6 90 10:39 03.03.2020
1963 Clouds 15 1017 44 9000 3.6 90 10:19 03.03.2020
1964 Clouds 15 1019 44 9000 1 0 09:45 03.03.2020
1965 Clouds 15 1019 44 9000 1 0 09:23 03.03.2020
1966 Clear 15 1020 31 10000 1.5 260 08:59 03.03.2020
1967 Clear 15 1020 31 10000 1.5 260 08:40 03.03.2020
1968 Clear 15 1020 37 10000 1.5 260 08:22 03.03.2020
1969 Clear 13 1021 41 10000 2.6 300 07:44 03.03.2020
1970 Clear 13 1021 41 10000 2.6 300 07:24 03.03.2020
1971 Clear 11 1021 38 10000 1.5 290 06:58 03.03.2020
1972 Clear 11 1021 38 10000 1.5 290 06:39 03.03.2020
1973 Clear 11 1021 38 10000 1.5 290 06:18 03.03.2020
1974 Haze 9 1020 66 5000 0.83 159 05:39 03.03.2020
1975 Mist 5 1020 80 7000 0.5 80 04:48 03.03.2020
1976 Smoke 4 1020 86 5000 0.98 287 02:37 03.03.2020
1977 Mist 4 1020 80 5000 1 100 01:21 03.03.2020
1978 Mist 5 1020 80 5000 0.5 310 00:40 03.03.2020
1979 Mist 5 1020 80 5000 0.5 310 00:20 03.03.2020
1980 Clear 5 1020 75 9000 1 290 23:43 02.03.2020
1981 Clear 5 1020 75 9000 1 290 23:23 02.03.2020
1982 Clear 5 1020 75 8000 1 290 22:56 02.03.2020
1983 Clear 5 1020 75 8000 1 290 22:56 02.03.2020
1984 Clear 5 1020 75 8000 1 290 22:56 02.03.2020
1985 Clear 5 1020 75 8000 1 290 22:38 02.03.2020
1986 Clear 5 1020 75 8000 1 290 22:19 02.03.2020
1987 Clear 6 1020 70 8000 1.5 0 21:43 02.03.2020
1988 Clear 6 1020 70 8000 1.5 0 21:24 02.03.2020
1989 Clear 7 1021 70 7000 1.5 0 20:59 02.03.2020
1990 Clear 7 1021 70 7000 1.5 0 20:41 02.03.2020
1991 Clear 7 1021 70 7000 1.5 0 20:22 02.03.2020
1992 Clear 7 1021 70 6000 1.5 0 19:58 02.03.2020
1993 Clear 7 1021 70 6000 1.5 0 19:39 02.03.2020
1994 Clear 7 1021 70 6000 1.5 0 19:20 02.03.2020
1995 Clear 10 1020 57 10000 1.5 0 18:56 02.03.2020
1996 Clear 10 1020 57 10000 1.5 0 18:38 02.03.2020
1997 Clear 10 1020 57 10000 1.5 0 18:18 02.03.2020
1998 Clear 11 1020 50 10000 1.5 0 17:56 02.03.2020
1999 Clear 11 1020 50 10000 1.5 0 17:38 02.03.2020
2000 Clear 11 1020 50 10000 1.5 0 17:19 02.03.2020
2001 Clear 12 1020 44 10000 2.1 340 16:42 02.03.2020
2002 Clear 12 1020 44 10000 2.1 340 16:23 02.03.2020
2003 Clear 12 1020 44 10000 2.1 340 16:23 02.03.2020
2004 Clear 13 1019 44 10000 1 0 15:56 02.03.2020
2005 -273 0 0 0 0 0 15:56 02.03.2020
2006 Clear 13 1019 44 10000 1 0 15:38 02.03.2020
2007 Clear 13 1019 44 10000 1 0 15:18 02.03.2020
2008 Clear 14 1018 30 10000 2.6 60 14:37 02.03.2020
2009 Clear 14 1018 30 10000 2.6 60 14:19 02.03.2020
2010 Clear 14 1018 30 10000 2.6 60 14:19 02.03.2020
2011 Clouds 16 1018 28 10000 2.6 50 13:45 02.03.2020
2012 Clouds 16 1018 28 10000 2.6 50 13:20 02.03.2020
2013 Clouds 16 1018 28 10000 4.6 70 12:59 02.03.2020
2014 Clouds 16 1018 28 10000 4.6 70 12:41 02.03.2020
2015 Clouds 17 1016 29 10000 1.13 189 12:19 02.03.2020
2016 Clouds 16 1018 23 10000 2.6 230 11:39 02.03.2020
2017 Clouds 16 1018 23 10000 2.6 230 11:20 02.03.2020
2018 Clear 16 1019 29 10000 2.1 0 10:57 02.03.2020
2019 Clear 16 1019 29 10000 2.1 0 10:37 02.03.2020
2020 Clear 16 1019 29 10000 2.1 0 10:19 02.03.2020
2021 Clear 16 1020 31 10000 1.5 0 09:49 02.03.2020
2022 Clear 16 1020 31 10000 1.5 0 09:31 02.03.2020
2023 Clear 14 1021 31 10000 2.1 0 08:49 02.03.2020
2024 Clear 14 1021 31 10000 2.1 0 08:23 02.03.2020
2025 Clear 12 1021 36 10000 1.5 0 07:52 02.03.2020
2026 Clear 12 1021 36 10000 1.5 0 07:32 02.03.2020
2027 Clear 11 1022 50 10000 1 0 06:51 02.03.2020
2028 Clear 11 1022 50 10000 1 0 06:26 02.03.2020
2029 Clear 8 1022 65 10000 1.5 330 05:25 02.03.2020
2030 Clear 3 1021 80 8000 2.6 330 03:28 02.03.2020
2031 Clear 4 1021 93 6000 1.37 250 02:55 02.03.2020
2032 Clear 4 1021 93 6000 1.37 250 02:30 02.03.2020
2033 Clear 4 1021 93 8000 1.5 0 01:36 02.03.2020
2034 Clear 4 1021 93 8000 1.5 0 01:18 02.03.2020
2035 Mist 4 1021 93 5000 1.5 0 00:22 02.03.2020
2036 Smoke 5 1022 86 3000 1.5 0 23:42 01.03.2020
2037 Smoke 5 1022 86 3000 1.5 0 23:23 01.03.2020
2038 Smoke 6 1022 87 3000 1.5 0 22:45 01.03.2020
2039 Smoke 6 1022 87 3000 1.5 0 22:21 01.03.2020
2040 Smoke 5 1022 93 3000 1.5 0 21:59 01.03.2020
2041 Smoke 5 1022 93 3000 1.5 0 21:59 01.03.2020
2042 Smoke 5 1022 93 3000 1.5 0 21:40 01.03.2020
2043 Smoke 5 1022 93 3000 1.5 0 21:22 01.03.2020
2044 Smoke 7 1022 81 5000 1 120 20:55 01.03.2020
2045 Smoke 7 1022 81 5000 1 120 20:37 01.03.2020
2046 Smoke 7 1022 81 5000 1 120 20:19 01.03.2020
2047 Smoke 7 1023 81 5000 2.29 292 19:41 01.03.2020
2048 Smoke 7 1023 81 5000 2.29 292 19:22 01.03.2020
2049 Smoke 8 1023 75 5000 1.5 0 18:57 01.03.2020
2050 Smoke 8 1023 75 5000 1.5 0 18:39 01.03.2020
2051 Smoke 8 1023 75 5000 1.5 0 18:19 01.03.2020
2052 Clear 10 1022 66 10000 1.5 190 17:55 01.03.2020
2053 Clear 10 1022 66 10000 1.5 190 17:37 01.03.2020
2054 Clear 10 1022 66 10000 1.5 190 17:18 01.03.2020
2055 Clear 11 1022 66 10000 2.6 360 16:40 01.03.2020
2056 Clear 11 1022 66 10000 2.6 360 16:20 01.03.2020
2057 Clouds 12 1021 57 10000 2.6 350 15:59 01.03.2020
2058 Clouds 12 1021 57 10000 2.6 350 15:41 01.03.2020
2059 Clouds 12 1021 57 10000 2.6 350 15:23 01.03.2020
2060 Clouds 13 1021 54 10000 3.6 360 14:59 01.03.2020
2061 Clouds 13 1021 54 10000 3.6 360 14:40 01.03.2020
2062 Clouds 13 1021 54 10000 3.6 360 14:22 01.03.2020
2063 Clouds 14 1021 50 10000 3.1 10 13:59 01.03.2020
2064 Clouds 14 1021 50 10000 3.1 10 13:41 01.03.2020
2065 Clouds 14 1021 50 10000 3.1 10 13:20 01.03.2020
2066 Clouds 14 1021 47 10000 4.1 30 12:57 01.03.2020
2067 Clouds 14 1021 47 10000 4.1 30 12:38 01.03.2020
2068 Clouds 14 1021 47 10000 4.1 30 12:20 01.03.2020
2069 Clouds 14 1022 47 10000 3.1 10 11:40 01.03.2020
2070 Clouds 14 1022 47 10000 3.1 10 11:40 01.03.2020
2071 Clouds 14 1022 47 10000 3.1 10 11:20 01.03.2020
2072 Clouds 13 1022 58 8000 2.6 20 10:56 01.03.2020
2073 Clouds 13 1022 58 8000 2.6 20 10:37 01.03.2020
2074 Clouds 13 1022 58 8000 2.6 20 10:19 01.03.2020
2075 Clouds 13 1023 54 10000 0.26 120 09:46 01.03.2020
2076 Clouds 13 1023 54 10000 1.01 112 09:26 01.03.2020
2077 Clouds 13 1024 54 10000 2.1 160 08:52 01.03.2020
2078 Clouds 13 1024 54 10000 2.1 160 08:29 01.03.2020
2079 Mist 10 1024 66 8000 2.6 180 07:59 01.03.2020
2080 Mist 10 1024 66 8000 2.6 180 07:40 01.03.2020
2081 Mist 10 1024 66 8000 2.6 180 07:22 01.03.2020
2082 Mist 9 1024 70 5000 1 0 06:44 01.03.2020
2083 Mist 9 1024 70 5000 1 0 06:23 01.03.2020
2084 Mist 2 1022 100 4000 1 290 03:40 01.03.2020
2085 Mist 2 1022 100 5000 0.47 259 02:23 01.03.2020
2086 Mist 3 1022 93 5000 1.5 140 01:48 01.03.2020
2087 Mist 3 1022 93 5000 1.5 140 01:20 01.03.2020
2088 Clouds 4 1021 93 8000 0.62 332 00:41 01.03.2020
2089 Clouds 4 1021 93 8000 0.62 332 00:20 01.03.2020
2090 Clouds 4 1022 93 8000 0.62 332 23:45 29.02.2020
2091 Clouds 4 1022 93 8000 0.62 332 23:26 29.02.2020
2092 Clouds 4 1022 100 8000 1 0 22:42 29.02.2020
2093 Clouds 4 1022 100 8000 1 0 22:23 29.02.2020
2094 Clouds 5 1023 86 10000 1 0 21:42 29.02.2020
2095 Clouds 5 1023 86 10000 1 0 21:22 29.02.2020
2096 Clouds 5 1023 86 10000 1.5 0 20:43 29.02.2020
2097 Clouds 5 1023 86 10000 1.5 0 20:43 29.02.2020
2098 Clouds 5 1023 86 10000 1.5 0 20:21 29.02.2020
2099 Clouds 6 1023 87 10000 2.1 320 19:56 29.02.2020
2100 Clouds 6 1023 87 10000 2.1 320 19:38 29.02.2020
2101 Clouds 6 1023 87 10000 2.1 320 19:19 29.02.2020
2102 Clouds 7 1022 81 10000 1.5 110 18:43 29.02.2020
2103 Clouds 7 1022 81 10000 1.5 110 18:24 29.02.2020
2104 Clouds 7 1022 81 10000 1.11 335 17:57 29.02.2020
2105 Clouds 7 1022 81 10000 1.11 335 17:39 29.02.2020
2106 Clouds 7 1022 81 10000 2.31 356 17:20 29.02.2020
2107 Clouds 7 1022 81 10000 2.31 356 17:20 29.02.2020
2108 Clouds 7 1022 81 10000 2.31 356 16:45 29.02.2020
2109 Clouds 7 1022 81 10000 2.31 356 16:22 29.02.2020
2110 Clouds 8 1021 75 10000 2.6 110 15:58 29.02.2020
2111 Clouds 8 1021 75 10000 2.6 110 15:40 29.02.2020
2112 Clouds 8 1021 75 10000 2.6 110 15:21 29.02.2020
2113 Clouds 9 1020 70 10000 3.1 70 14:41 29.02.2020
2114 Clouds 9 1020 70 10000 3.1 70 14:22 29.02.2020
2115 Clouds 10 1019 70 10000 2.6 350 13:47 29.02.2020
2116 Clouds 10 1019 70 10000 2.6 350 13:28 29.02.2020
2117 Clouds 10 1019 70 10000 5.7 350 12:59 29.02.2020
2118 Clouds 10 1019 70 10000 5.7 350 12:40 29.02.2020
2119 Clouds 10 1019 70 10000 5.7 350 12:21 29.02.2020
2120 Clouds 10 1019 71 10000 5.7 20 11:55 29.02.2020
2121 Clouds 10 1019 71 10000 5.7 20 11:37 29.02.2020
2122 Clouds 10 1019 71 10000 5.7 20 11:18 29.02.2020
2123 Clouds 9 1020 70 10000 2.6 350 10:44 29.02.2020
2124 Clouds 9 1020 70 10000 2.6 350 10:26 29.02.2020
2125 Clouds 9 1021 75 10000 4.1 50 09:47 29.02.2020
2126 Clouds 9 1021 75 10000 4.1 50 09:23 29.02.2020
2127 Clouds 8 1021 75 8000 4.1 60 08:42 29.02.2020
2128 Clouds 8 1021 75 8000 4.1 60 08:22 29.02.2020
2129 Clouds 7 1020 75 8000 2.1 80 07:57 29.02.2020
2130 Clouds 7 1020 75 8000 2.1 80 07:39 29.02.2020
2131 Clouds 7 1020 75 8000 2.1 80 07:18 29.02.2020
2132 Rain 5 1021 86 10000 1.5 120 06:42 29.02.2020
2133 Rain 5 1021 86 10000 1.5 120 06:22 29.02.2020
2134 Rain 5 1020 86 10000 2.6 110 05:46 29.02.2020
2135 Rain 5 1020 80 10000 1 360 04:45 29.02.2020
2136 Rain 4 1019 93 10000 2.1 350 03:40 29.02.2020
2137 Rain 4 1019 93 10000 2.1 350 03:21 29.02.2020
2138 Rain 4 1019 93 10000 2.6 340 02:34 29.02.2020
2139 Rain 5 1018 93 9000 2.6 60 00:58 29.02.2020
2140 Drizzle 4 1019 93 10000 4.1 320 00:36 29.02.2020
2141 Drizzle 5 1019 86 10000 3.1 350 23:43 28.02.2020
2142 Drizzle 5 1019 86 10000 3.1 350 23:24 28.02.2020
2143 Drizzle 5 1019 86 10000 3.1 350 23:24 28.02.2020
2144 Rain 5 1019 100 6000 2.1 10 22:54 28.02.2020
2145 Rain 5 1020 86 10000 4.6 340 22:36 28.02.2020
2146 Rain 5 1020 86 10000 4.6 340 22:18 28.02.2020
2147 Clouds 5 1020 86 10000 5.1 350 21:41 28.02.2020
2148 Clouds 5 1020 86 10000 5.1 350 21:20 28.02.2020
2149 Clouds 6 1021 87 10000 4.1 360 20:40 28.02.2020
2150 Clouds 6 1021 87 10000 4.1 360 20:22 28.02.2020
2151 Rain 6 1021 81 10000 1 0 19:57 28.02.2020
2152 Rain 6 1021 81 10000 1 0 19:39 28.02.2020
2153 Rain 6 1021 81 10000 1 0 19:20 28.02.2020
2154 Rain 6 1021 81 10000 1.5 100 18:55 28.02.2020
2155 Rain 6 1021 81 10000 1.5 100 18:55 28.02.2020
2156 Rain 6 1021 81 10000 1.5 100 18:37 28.02.2020
2157 Rain 6 1021 81 10000 1.5 100 18:19 28.02.2020
2158 Rain 6 1020 87 10000 1.5 130 17:40 28.02.2020
2159 Rain 6 1020 87 10000 1.5 130 17:40 28.02.2020
2160 Rain 6 1020 87 10000 1.5 130 17:22 28.02.2020
2161 Clouds 8 1020 81 10000 3.6 70 16:44 28.02.2020
2162 Clouds 8 1020 81 10000 3.6 70 16:20 28.02.2020
2163 Rain 8 1018 76 10000 2.1 30 15:58 28.02.2020
2164 Rain 8 1018 76 10000 2.1 30 15:58 28.02.2020
2165 Clouds 8 1020 87 10000 2.6 90 15:40 28.02.2020
2166 Clouds 8 1020 87 10000 2.6 90 15:19 28.02.2020
2167 Clouds 8 1018 75 10000 5.1 360 14:57 28.02.2020
2168 Clouds 8 1018 75 10000 5.1 360 14:38 28.02.2020
2169 Clouds 8 1018 75 10000 5.1 360 14:38 28.02.2020
2170 Clouds 8 1018 75 10000 5.1 360 14:18 28.02.2020
2171 Rain 9 1018 70 10000 5.1 360 13:41 28.02.2020
2172 Rain 9 1018 70 10000 5.1 360 13:20 28.02.2020
2173 Rain 9 1018 70 10000 5.1 360 13:20 28.02.2020
2174 Clouds 9 1016 81 10000 5.7 10 12:58 28.02.2020
2175 Rain 10 1017 71 10000 6.2 100 12:40 28.02.2020
2176 Rain 10 1017 71 10000 6.2 100 12:22 28.02.2020
2177 Rain 11 1017 62 10000 6.7 110 11:41 28.02.2020
2178 Rain 11 1017 62 10000 6.7 110 11:23 28.02.2020
2179 Clouds 12 1018 58 10000 5.1 150 10:57 28.02.2020
2180 Clouds 12 1018 58 10000 5.1 150 10:37 28.02.2020
2181 Clouds 12 1018 58 10000 5.1 150 10:37 28.02.2020
2182 Clouds 12 1018 58 10000 5.1 150 10:18 28.02.2020
2183 Rain 11 1019 66 8000 4.6 80 09:43 28.02.2020
2184 Rain 11 1019 66 8000 4.6 80 09:20 28.02.2020
2185 Smoke 10 1019 66 8000 1.5 0 08:54 28.02.2020
2186 Smoke 10 1019 66 8000 1.5 0 08:36 28.02.2020
2187 Smoke 10 1019 66 8000 1.5 0 08:18 28.02.2020
2188 Rain 8 1020 75 10000 1.5 0 07:38 28.02.2020
2189 Rain 8 1020 75 10000 1.5 0 07:19 28.02.2020
2190 Mist 7 1020 81 10000 2.6 350 06:41 28.02.2020
2191 Mist 7 1019 81 8000 1.5 0 05:37 28.02.2020
2192 Clouds 6 1019 87 10000 1.5 0 04:32 28.02.2020
2193 Clouds 6 1018 81 10000 3.1 350 03:39 28.02.2020
2194 Clouds 7 1017 93 10000 1.48 347 02:42 28.02.2020
2195 Clouds 6 1018 87 10000 4.1 350 02:18 28.02.2020
2196 Rain 6 1017 87 10000 1.5 290 00:35 28.02.2020
2197 Rain 7 1016 93 8000 2.1 330 23:57 27.02.2020
2198 Rain 6 1017 87 10000 3.6 150 23:38 27.02.2020
2199 Rain 6 1017 87 10000 3.6 150 23:18 27.02.2020
2200 Rain 6 1018 87 10000 4.6 120 22:40 27.02.2020
2201 Rain 6 1018 87 10000 4.6 120 22:22 27.02.2020
2202 Rain 7 1017 87 8000 8.2 200 21:54 27.02.2020
2203 Rain 8 1019 93 6000 6.2 170 21:36 27.02.2020
2204 Rain 8 1019 93 6000 6.2 170 21:18 27.02.2020
2205 Rain 10 1018 76 10000 5.1 80 20:41 27.02.2020
2206 Rain 10 1018 76 10000 5.1 80 20:23 27.02.2020
2207 Rain 10 1018 76 10000 4.1 20 19:57 27.02.2020
2208 Rain 10 1018 76 10000 4.1 20 19:39 27.02.2020
2209 Rain 10 1018 76 10000 4.1 20 19:21 27.02.2020
2210 Rain 11 1018 62 10000 5.1 30 18:57 27.02.2020
2211 Rain 11 1018 62 10000 5.1 30 18:39 27.02.2020
2212 Rain 12 1017 66 10000 5.7 80 18:19 27.02.2020
2213 Clouds 12 1019 62 10000 7.7 80 17:55 27.02.2020
2214 Clouds 12 1019 62 10000 7.7 80 17:36 27.02.2020
2215 Clouds 12 1019 62 10000 7.7 80 17:18 27.02.2020
2216 Clouds 13 1019 54 10000 5.1 80 16:41 27.02.2020
2217 Clouds 13 1019 54 10000 5.1 80 16:41 27.02.2020
2218 Clouds 13 1019 54 10000 5.1 80 16:20 27.02.2020
2219 Rain 14 1016 44 10000 3.6 100 15:59 27.02.2020
2220 Rain 13 1019 58 10000 6.2 70 15:38 27.02.2020
2221 Rain 13 1019 58 10000 6.2 70 15:38 27.02.2020
2222 Rain 13 1019 58 10000 6.2 70 15:19 27.02.2020
2223 Clouds 14 1018 50 10000 5.7 70 14:58 27.02.2020
2224 Clouds 14 1018 50 10000 5.7 70 14:37 27.02.2020
2225 Clouds 14 1018 50 10000 5.7 70 14:19 27.02.2020
2226 Clouds 16 1016 38 10000 2.1 160 13:42 27.02.2020
2227 Clouds 15 1018 41 10000 5.1 130 13:21 27.02.2020
2228 Clouds 16 1018 41 10000 5.1 130 12:56 27.02.2020
2229 Clouds 16 1018 41 10000 5.1 130 12:38 27.02.2020
2230 Clouds 16 1018 41 10000 5.1 130 12:18 27.02.2020
2231 Clouds 16 1019 38 10000 5.1 120 11:41 27.02.2020
2232 Clouds 16 1019 38 10000 5.1 120 11:22 27.02.2020
2233 Clouds 17 1019 38 10000 7.2 120 10:44 27.02.2020
2234 Clouds 17 1020 54 10000 2.6 0 10:24 27.02.2020
2235 Clouds 17 1021 29 10000 2.6 0 09:49 27.02.2020
2236 Clouds 17 1021 29 10000 2.6 0 09:30 27.02.2020
2237 Clouds 16 1022 33 10000 2.6 0 08:58 27.02.2020
2238 Clouds 16 1022 33 10000 2.6 0 08:40 27.02.2020
2239 Clouds 16 1022 33 10000 2.6 0 08:22 27.02.2020
2240 Clouds 16 1022 38 8000 1.5 0 07:44 27.02.2020
2241 Clouds 16 1022 38 8000 1.5 0 07:25 27.02.2020
2242 Haze 14 1020 47 9000 3.1 40 06:46 27.02.2020
2243 Clouds 11 1022 53 8000 1.5 0 05:43 27.02.2020
2244 Clouds 9 1021 65 8000 1.5 0 03:40 27.02.2020
2245 Clouds 9 1020 61 6000 1.5 310 02:22 27.02.2020
2246 Mist 9 1020 61 5000 1 0 00:45 27.02.2020
2247 Mist 9 1020 61 5000 1 0 00:26 27.02.2020
2248 Clouds 9 1020 61 8000 1.5 0 23:40 26.02.2020
2249 Clouds 9 1020 61 8000 1.5 0 23:19 26.02.2020
2250 Clouds 9 1021 61 8000 1 0 22:57 26.02.2020
2251 Clouds 9 1021 61 8000 1 0 22:39 26.02.2020
2252 Clouds 9 1021 61 8000 1 0 22:20 26.02.2020
2253 Clouds 9 1021 68 8000 1.5 0 21:56 26.02.2020
2254 Clouds 9 1021 68 8000 1.5 0 21:36 26.02.2020
2255 Clouds 9 1021 68 8000 1.5 0 21:18 26.02.2020
2256 Clouds 10 1021 68 8000 0.71 329 20:54 26.02.2020
2257 Clouds 10 1021 68 8000 0.71 329 20:36 26.02.2020
2258 Clouds 10 1021 63 8000 0.79 266 20:18 26.02.2020
2259 Clouds 12 1021 63 8000 1.5 0 19:45 26.02.2020
2260 Clouds 12 1021 63 8000 1.5 0 19:20 26.02.2020
2261 Clouds 12 1021 37 10000 1.5 0 18:58 26.02.2020
2262 Clouds 12 1021 37 10000 1.5 0 18:58 26.02.2020
2263 Clouds 12 1021 37 10000 1.5 0 18:40 26.02.2020
2264 Clouds 12 1021 37 10000 1.5 0 18:22 26.02.2020
2265 Clouds 12 1021 37 10000 1.5 0 18:22 26.02.2020
2266 Clouds 13 1021 63 10000 1 0 17:42 26.02.2020
2267 Clouds 13 1021 63 10000 1 0 17:42 26.02.2020
2268 Clouds 14 1021 63 10000 1 0 17:24 26.02.2020
2269 Clouds 14 1020 41 10000 1 0 16:58 26.02.2020
2270 Clouds 14 1020 41 10000 1 0 16:39 26.02.2020
2271 Clouds 14 1020 41 10000 1 0 16:21 26.02.2020
2272 Clouds 14 1020 41 10000 1 0 16:21 26.02.2020
2273 Clouds 15 1020 62 10000 2.6 80 15:47 26.02.2020
2274 Clouds 15 1020 62 10000 2.6 80 15:29 26.02.2020
2275 Clouds 16 1020 62 10000 3.1 60 14:59 26.02.2020
2276 Clouds 16 1020 62 10000 3.1 60 14:40 26.02.2020
2277 Clouds 16 1020 50 10000 3.1 60 14:21 26.02.2020
2278 Clouds 17 1020 29 10000 1.5 310 13:42 26.02.2020
2279 Clouds 17 1020 29 10000 1.5 310 13:42 26.02.2020
2280 Clouds 17 1020 29 10000 1.5 310 13:21 26.02.2020
2281 Clouds 18 1019 50 10000 1.5 290 12:39 26.02.2020
2282 Clouds 18 1019 50 10000 1.5 290 12:20 26.02.2020
2283 Clouds 18 1020 29 10000 1.5 0 11:57 26.02.2020
2284 Clouds 18 1020 29 10000 1.5 0 11:39 26.02.2020
2285 Clouds 18 1020 29 10000 1.5 0 11:21 26.02.2020
2286 Clouds 17 1021 25 10000 2.1 200 10:42 26.02.2020
2287 Clouds 17 1021 25 10000 2.1 200 10:23 26.02.2020
2288 Clouds 17 1022 25 10000 2.6 280 09:57 26.02.2020
2289 Clouds 17 1022 25 10000 2.6 280 09:39 26.02.2020
2290 Clouds 17 1022 25 10000 2.6 280 09:20 26.02.2020
2291 Clouds 15 1023 26 10000 2.1 210 08:39 26.02.2020
2292 Clouds 15 1023 26 10000 2.1 210 08:19 26.02.2020
2293 Clouds 14 1023 30 10000 2.15 179 07:51 26.02.2020
2294 Clouds 14 1023 30 10000 2.15 179 07:30 26.02.2020
2295 Clouds 11 1023 37 10000 0.5 0 06:58 26.02.2020
2296 Clouds 11 1023 37 10000 0.5 0 06:39 26.02.2020
2297 Clouds 11 1023 37 10000 0.5 0 06:18 26.02.2020
2298 Clouds 9 1023 39 10000 2.1 310 05:47 26.02.2020
2299 Clouds 6 1022 52 10000 1.5 0 04:52 26.02.2020
2300 Clouds 5 1022 56 10000 2.6 300 02:55 26.02.2020
2301 Haze 5 1019 65 9000 1.8 242 01:51 26.02.2020
2302 Haze 5 1019 65 9000 1.74 238 01:24 26.02.2020
2303 Clouds 6 1022 42 10000 1 350 00:29 26.02.2020
2304 Clouds 5 1022 52 10000 2.6 330 23:59 25.02.2020
2305 Clouds 5 1022 52 10000 2.6 330 23:41 25.02.2020
2306 Clouds 5 1022 52 10000 2.6 330 23:21 25.02.2020
2307 Clouds 5 1022 52 10000 2.6 330 23:21 25.02.2020
2308 Clouds 7 1022 48 10000 2.1 320 22:43 25.02.2020
2309 Clouds 7 1022 48 10000 2.1 320 22:20 25.02.2020
2310 Clouds 8 1022 42 10000 1 350 21:58 25.02.2020
2311 Clouds 8 1022 42 10000 1 350 21:37 25.02.2020
2312 Clouds 8 1022 42 10000 1 350 21:19 25.02.2020
2313 Clouds 7 1022 52 10000 2.6 330 20:56 25.02.2020
2314 Clouds 7 1022 52 10000 2.6 330 20:37 25.02.2020
2315 Clouds 7 1022 52 10000 2.6 330 20:37 25.02.2020
2316 Clouds 7 1022 52 10000 2.6 330 20:19 25.02.2020
2317 Clouds 9 1022 39 10000 1.5 330 19:43 25.02.2020
2318 Clouds 9 1022 39 10000 1.5 330 19:22 25.02.2020
2319 Clouds 10 1022 37 8000 1.5 340 18:58 25.02.2020
2320 Clouds 10 1022 37 8000 1.5 340 18:39 25.02.2020
2321 Clouds 10 1022 37 8000 1.5 340 18:20 25.02.2020
2322 Clouds 11 1022 32 8000 2.6 240 17:55 25.02.2020
2323 Clouds 11 1022 32 8000 2.6 240 17:36 25.02.2020
2324 Clouds 11 1022 32 8000 2.6 240 17:18 25.02.2020
2325 Clouds 13 1021 30 10000 1.5 240 16:42 25.02.2020
2326 Clouds 13 1021 30 10000 1.5 240 16:22 25.02.2020
2327 Clouds 13 1021 30 10000 1.5 240 16:22 25.02.2020
2328 Clouds 14 1020 24 10000 4.6 230 15:59 25.02.2020
2329 Clouds 14 1020 24 10000 4.6 230 15:41 25.02.2020
2330 Clouds 14 1020 24 10000 4.6 230 15:20 25.02.2020
2331 Clouds 15 1020 22 10000 3.6 200 14:58 25.02.2020
2332 Clouds 15 1020 22 10000 3.6 200 14:38 25.02.2020
2333 Clouds 15 1020 22 10000 3.6 200 14:18 25.02.2020
2334 Clouds 16 1019 23 10000 1 0 13:58 25.02.2020
2335 Clouds 16 1019 23 10000 1 0 13:39 25.02.2020
2336 Clouds 16 1019 23 10000 1 0 13:20 25.02.2020
2337 Clouds 17 1017 22 10000 2.43 204 12:55 25.02.2020
2338 Clouds 17 1019 25 10000 1.5 0 12:37 25.02.2020
2339 Clouds 17 1019 25 10000 1.5 0 12:18 25.02.2020
2340 Clouds 17 1020 26 10000 3.1 0 11:42 25.02.2020
2341 Clouds 17 1020 26 10000 3.1 0 11:20 25.02.2020
2342 Clouds 15 1021 28 10000 3.6 230 10:59 25.02.2020
2343 Clouds 15 1021 28 10000 3.6 230 10:41 25.02.2020
2344 Clouds 15 1021 28 10000 3.6 230 10:22 25.02.2020
2345 Clouds 15 1021 28 10000 1.5 0 09:42 25.02.2020
2346 Clouds 15 1021 28 10000 1.5 0 09:23 25.02.2020
2347 Clouds 15 1022 33 10000 1 0 08:56 25.02.2020
2348 Clouds 15 1022 33 10000 1 0 08:37 25.02.2020
2349 Clouds 15 1022 33 10000 1 0 08:19 25.02.2020
2350 Clouds 13 1022 37 10000 3.6 250 07:41 25.02.2020
2351 Clouds 13 1022 37 10000 3.6 250 07:20 25.02.2020
2352 Clouds 10 1022 43 8000 1.5 210 06:41 25.02.2020
2353 Clouds 8 1022 49 10000 2.6 350 05:37 25.02.2020
2354 Clear 4 1021 60 10000 2.6 330 03:35 25.02.2020
2355 Clouds 4 1020 60 10000 2.6 340 02:00 25.02.2020
2356 Clouds 4 1020 60 10000 1.5 360 00:48 25.02.2020
2357 Clouds 4 1020 60 10000 1.5 360 00:48 25.02.2020
2358 Clouds 4 1020 60 10000 1.5 360 00:29 25.02.2020
2359 Clouds 5 1021 60 10000 1.5 340 23:44 24.02.2020
2360 Clouds 5 1021 60 10000 1.5 340 23:21 24.02.2020
2361 Clouds 6 1021 60 10000 3.1 320 22:43 24.02.2020
2362 Clouds 6 1021 60 10000 3.1 320 22:21 24.02.2020
2363 Clouds 7 1021 52 10000 2.1 330 21:57 24.02.2020
2364 Clouds 7 1021 52 10000 2.1 330 21:57 24.02.2020
2365 Clouds 7 1021 52 10000 2.1 330 21:39 24.02.2020
2366 Clouds 7 1021 52 10000 2.1 330 21:20 24.02.2020
2367 Clouds 8 1022 49 10000 1.5 0 20:58 24.02.2020
2368 Clouds 8 1022 49 10000 1.5 0 20:40 24.02.2020
2369 Clear 8 1022 49 10000 1.5 0 20:19 24.02.2020
2370 Clear 7 1022 52 10000 1.5 0 19:57 24.02.2020
2371 Clear 7 1022 52 10000 1.5 0 19:39 24.02.2020
2372 Clear 7 1022 52 10000 1.5 0 19:20 24.02.2020
2373 Clouds 9 1021 42 10000 1.5 0 18:55 24.02.2020
2374 Clouds 9 1021 42 10000 1.5 0 18:36 24.02.2020
2375 Clouds 9 1021 42 10000 1.5 0 18:18 24.02.2020
2376 Clouds 11 1021 37 10000 1.5 190 17:40 24.02.2020
2377 Clouds 11 1021 37 10000 1.5 190 17:20 24.02.2020
2378 Clouds 11 1021 37 10000 1.5 280 16:58 24.02.2020
2379 -273 0 0 0 0 0 16:39 24.02.2020
2380 Clouds 11 1021 37 10000 1.5 280 16:20 24.02.2020
2381 Clouds 13 1020 32 10000 4.1 290 15:58 24.02.2020
2382 Clouds 13 1020 32 10000 4.1 290 15:39 24.02.2020
2383 Clouds 13 1020 32 10000 4.1 290 15:21 24.02.2020
2384 Clouds 15 1020 28 10000 1 0 14:57 24.02.2020
2385 Clouds 15 1020 28 10000 1 0 14:38 24.02.2020
2386 Clouds 15 1020 28 10000 1 0 14:18 24.02.2020
2387 Clouds 16 1020 28 10000 1 0 13:55 24.02.2020
2388 Clouds 16 1020 28 10000 1 0 13:36 24.02.2020
2389 Clouds 16 1020 28 10000 1 0 13:18 24.02.2020
2390 Clouds 16 1020 28 10000 1 0 12:42 24.02.2020
2391 Clouds 16 1020 28 10000 1 0 12:23 24.02.2020
2392 Clouds 16 1020 28 10000 1 0 12:23 24.02.2020
2393 Clouds 16 1021 28 10000 1 0 11:50 24.02.2020
2394 Clouds 16 1021 28 10000 1 0 11:32 24.02.2020
2395 Clouds 16 1022 26 10000 1 0 10:58 24.02.2020
2396 Clouds 16 1022 26 10000 1 0 10:40 24.02.2020
2397 Clouds 16 1022 26 10000 1 0 10:22 24.02.2020
2398 Clouds 15 1022 30 10000 2.1 220 09:40 24.02.2020
2399 Clouds 15 1022 30 10000 2.1 220 09:19 24.02.2020
2400 Clouds 13 1023 32 10000 1.5 0 08:52 24.02.2020
2401 Clouds 13 1023 32 10000 1.5 0 08:29 24.02.2020
2402 Clouds 11 1024 37 10000 3.1 190 07:55 24.02.2020
2403 Clouds 11 1024 37 10000 3.1 190 07:33 24.02.2020
2404 Clouds 10 1024 40 10000 1 0 06:52 24.02.2020
2405 Clouds 10 1024 40 10000 1 0 06:24 24.02.2020
2406 Clouds 7 1024 52 7000 2.1 310 05:45 24.02.2020
2407 Clouds 7 1024 52 7000 2.1 310 05:25 24.02.2020
2408 Clear 4 1023 60 10000 2.1 330 02:58 24.02.2020
2409 Clouds 4 1023 60 10000 2.1 330 02:18 24.02.2020
2410 Clouds 3 1022 64 10000 2.6 320 01:31 24.02.2020
2411 Clouds 4 1023 60 10000 2.1 320 00:44 24.02.2020
2412 Clouds 4 1023 60 10000 2.1 320 00:20 24.02.2020
2413 Clouds 5 1023 52 10000 2.6 340 23:45 23.02.2020
2414 Clouds 5 1023 52 10000 2.6 340 23:24 23.02.2020
2415 Clouds 4 1024 56 10000 2.1 330 22:59 23.02.2020
2416 Clouds 4 1024 56 10000 2.1 330 22:41 23.02.2020
2417 Clouds 4 1024 56 10000 2.1 330 22:21 23.02.2020
2418 Clouds 6 1024 52 8000 2.1 330 21:54 23.02.2020
2419 Clouds 6 1024 52 8000 2.1 330 21:36 23.02.2020
2420 Clouds 6 1024 52 8000 2.1 330 21:18 23.02.2020
2421 Smoke 6 1024 60 4000 1.5 200 20:55 23.02.2020
2422 Smoke 6 1024 60 4000 1.5 200 20:36 23.02.2020
2423 Smoke 6 1024 60 4000 1.5 200 20:18 23.02.2020
2424 Smoke 6 1024 56 5000 1 0 19:41 23.02.2020
2425 Smoke 6 1024 56 5000 1 0 19:20 23.02.2020
2426 Smoke 8 1024 45 5000 1 0 18:59 23.02.2020
2427 Smoke 8 1024 45 5000 1 0 18:40 23.02.2020
2428 Smoke 8 1024 45 5000 1 0 18:20 23.02.2020
2429 Clouds 9 1024 39 10000 1 0 17:58 23.02.2020
2430 Clouds 9 1024 39 10000 1 0 17:39 23.02.2020
2431 Clouds 9 1024 39 10000 1 0 17:21 23.02.2020
2432 Clouds 10 1024 34 10000 2.1 340 16:56 23.02.2020
2433 Clouds 10 1024 34 10000 2.1 340 16:36 23.02.2020
2434 Clouds 10 1024 34 10000 2.1 340 16:18 23.02.2020
2435 Clouds 12 1024 30 10000 1 0 15:40 23.02.2020
2436 Clouds 12 1024 30 10000 1 0 15:22 23.02.2020
2437 Clouds 14 1024 26 10000 2.6 200 14:59 23.02.2020
2438 Clouds 14 1024 26 10000 2.6 200 14:41 23.02.2020
2439 Clouds 14 1024 26 10000 2.6 200 14:23 23.02.2020
2440 Clouds 15 1024 28 10000 1 0 13:58 23.02.2020
2441 Clouds 15 1024 28 10000 1 0 13:39 23.02.2020
2442 Clouds 15 1024 28 10000 1 0 13:21 23.02.2020
2443 Clouds 15 1024 26 10000 5.1 310 12:44 23.02.2020
2444 Clouds 15 1024 26 10000 5.1 310 12:23 23.02.2020
2445 Clouds 15 1022 23 10000 1.14 234 11:59 23.02.2020
2446 Clouds 15 1025 22 10000 1.5 0 11:37 23.02.2020
2447 Clouds 15 1025 22 10000 1.5 0 11:19 23.02.2020
2448 Clouds 15 1025 26 10000 1.5 0 10:56 23.02.2020
2449 Clouds 15 1025 26 10000 1.5 0 10:56 23.02.2020
2450 Clouds 15 1025 26 10000 1.5 0 10:37 23.02.2020
2451 Haze 15 1023 26 9000 2.6 130 10:19 23.02.2020
2452 Clouds 14 1027 26 10000 5.1 220 09:40 23.02.2020
2453 Clouds 14 1027 26 10000 5.1 220 09:21 23.02.2020
2454 Clear 12 1028 30 10000 2.1 230 08:57 23.02.2020
2455 Clear 12 1028 30 10000 2.1 230 08:39 23.02.2020
2456 Clear 12 1028 30 10000 2.1 230 08:19 23.02.2020
2457 Clear 12 1028 34 10000 1.5 300 07:40 23.02.2020
2458 Clear 12 1028 34 10000 1.5 300 07:40 23.02.2020
2459 Haze 10 1026 53 5000 1.45 175 06:54 23.02.2020
2460 Haze 7 1028 48 8000 3.1 330 05:54 23.02.2020
2461 Clear 4 1027 55 10000 2.1 330 04:44 23.02.2020
2462 Clear 2 1026 64 10000 2.6 320 03:25 23.02.2020
2463 Clear 3 1026 59 10000 1.5 320 02:35 23.02.2020
2464 Clear 3 1026 64 10000 2.6 330 01:25 23.02.2020
2465 Clear 4 1026 60 10000 1.5 340 00:49 23.02.2020
2466 Clear 4 1026 60 10000 1.5 340 00:27 23.02.2020
2467 Clear 4 1026 60 10000 1.5 340 00:27 23.02.2020
2468 Clear 4 1026 64 10000 1 330 23:48 22.02.2020
2469 Clear 4 1026 64 10000 1 330 23:30 22.02.2020
2470 Clear 5 1027 56 10000 1 0 22:59 22.02.2020
2471 Clear 5 1027 56 10000 1 0 22:40 22.02.2020
2472 Clear 5 1027 56 10000 1 0 22:18 22.02.2020
2473 Clear 5 1027 52 10000 3.1 320 21:41 22.02.2020
2474 Clear 5 1027 52 10000 3.1 320 21:23 22.02.2020
2475 Clear 7 1027 52 10000 3.1 350 20:47 22.02.2020
2476 Clear 7 1027 52 10000 3.1 350 20:25 22.02.2020
2477 Clear 7 1027 49 7000 1 360 19:59 22.02.2020
2478 Clear 7 1027 49 7000 1 360 19:41 22.02.2020
2479 Clear 7 1027 49 7000 1 360 19:21 22.02.2020
2480 Clear 8 1027 45 7000 1.5 310 18:40 22.02.2020
2481 Clear 8 1027 45 7000 1.5 310 18:22 22.02.2020
2482 Clear 9 1027 46 7000 2.6 260 17:58 22.02.2020
2483 Clear 9 1027 46 7000 2.6 260 17:39 22.02.2020
2484 Clear 9 1027 46 7000 2.6 260 17:21 22.02.2020
2485 Clear 10 1026 46 10000 1 0 16:57 22.02.2020
2486 Clear 10 1026 46 10000 1 0 16:39 22.02.2020
2487 Clear 10 1026 46 10000 1 0 16:20 22.02.2020
2488 Clear 12 1026 40 10000 1.5 0 15:44 22.02.2020
2489 Clear 12 1026 40 10000 1.5 0 15:44 22.02.2020
2490 Clear 12 1026 40 10000 1.5 0 15:25 22.02.2020
2491 Clear 16 1025 31 10000 1.5 0 14:56 22.02.2020
2492 Clear 16 1025 31 10000 1.5 0 14:37 22.02.2020
2493 Clear 16 1025 31 10000 1.5 0 14:18 22.02.2020
2494 Clouds 16 1025 31 10000 2.1 290 13:41 22.02.2020
2495 Clouds 16 1025 31 10000 2.1 290 13:19 22.02.2020
2496 Clouds 16 1026 31 10000 2.1 240 12:46 22.02.2020
2497 Clouds 16 1026 31 10000 2.1 240 12:24 22.02.2020
2498 Clouds 16 1026 30 10000 3.6 120 11:56 22.02.2020
2499 Clouds 16 1026 30 10000 3.6 120 11:36 22.02.2020
2500 Clouds 16 1026 30 10000 3.6 120 11:18 22.02.2020
2501 Clear 15 1027 35 10000 3.6 170 10:40 22.02.2020
2502 Clear 15 1027 35 10000 3.6 170 10:20 22.02.2020
2503 Clear 15 1028 38 8000 1 0 09:58 22.02.2020
2504 Clear 15 1028 38 8000 1 0 09:39 22.02.2020
2505 Clear 15 1028 38 8000 1 0 09:21 22.02.2020
2506 Haze 13 1029 70 5000 2.1 200 08:48 22.02.2020
2507 Haze 13 1029 70 5000 2.1 200 08:28 22.02.2020
2508 Haze 12 1029 69 4000 1.5 0 07:50 22.02.2020
2509 Haze 12 1029 69 4000 1.5 0 07:20 22.02.2020
2510 Haze 11 1028 53 5000 0.97 166 06:48 22.02.2020
2511 Haze 10 1030 69 3000 0.5 0 06:29 22.02.2020
2512 Clear 5 1028 65 8000 2.1 330 04:33 22.02.2020
2513 Clouds 3 1028 52 6000 1.5 300 03:24 22.02.2020
2514 Clouds 3 1027 52 6000 1.25 271 02:31 22.02.2020
2515 Clouds 4 1027 53 6000 0.5 0 01:46 22.02.2020
2516 Clouds 4 1027 55 6000 0.5 0 01:25 22.02.2020
2517 Clouds 5 1027 65 6000 2.1 330 00:45 22.02.2020
2518 Clouds 5 1027 65 6000 2.1 330 00:26 22.02.2020
2519 Smoke 5 1027 65 5000 1 310 23:47 21.02.2020
2520 Smoke 5 1027 65 5000 1 310 23:22 21.02.2020
2521 Smoke 6 1027 60 5000 1 350 22:55 21.02.2020
2522 Smoke 6 1027 60 5000 1 350 22:37 21.02.2020
2523 Smoke 6 1027 60 5000 1 350 22:18 21.02.2020
2524 Clouds 7 1027 53 6000 1.5 170 21:42 21.02.2020
2525 Clouds 7 1027 53 6000 1.5 170 21:23 21.02.2020
2526 Clouds 7 1027 53 6000 1.5 170 21:23 21.02.2020
2527 Clouds 7 1027 53 6000 1.5 170 21:23 21.02.2020
2528 Clouds 7 1027 52 6000 1 0 20:48 21.02.2020
2529 Clouds 7 1027 52 6000 1 0 20:29 21.02.2020
2530 Clouds 8 1027 52 6000 0.5 0 19:44 21.02.2020
2531 Clouds 8 1027 52 6000 0.5 0 19:25 21.02.2020
2532 Clouds 9 1027 49 7000 2.1 350 18:58 21.02.2020
2533 Clouds 9 1027 49 7000 2.1 350 18:39 21.02.2020
2534 Clouds 9 1027 49 7000 2.1 350 18:21 21.02.2020
2535 Clouds 9 1027 52 6000 2.6 340 17:41 21.02.2020
2536 Clouds 9 1027 52 6000 2.6 340 17:23 21.02.2020
2537 Clouds 10 1026 39 7000 1 270 16:57 21.02.2020
2538 Clouds 10 1026 39 7000 1 270 16:39 21.02.2020
2539 Clouds 11 1024 50 10000 1.66 254 16:20 21.02.2020
2540 Clouds 11 1025 37 10000 1.5 260 15:46 21.02.2020
2541 Clouds 11 1025 37 10000 1.5 260 15:19 21.02.2020
2542 Clouds 11 1025 37 10000 1.5 260 15:19 21.02.2020
2543 Clouds 12 1024 30 10000 2.6 260 14:59 21.02.2020
2544 Clouds 12 1024 30 10000 2.6 260 14:41 21.02.2020
2545 Clouds 12 1024 30 10000 2.6 260 14:19 21.02.2020
2546 Clouds 14 1024 28 10000 2.1 220 13:42 21.02.2020
2547 Clouds 14 1024 28 10000 2.1 220 13:24 21.02.2020
2548 Clouds 14 1024 30 10000 2.1 0 12:54 21.02.2020
2549 Clouds 14 1024 30 10000 2.1 0 12:36 21.02.2020
2550 Clouds 14 1024 30 10000 2.1 0 12:18 21.02.2020
2551 Clouds 14 1024 26 10000 1.5 0 11:40 21.02.2020
2552 Clouds 14 1024 26 10000 1.5 0 11:21 21.02.2020
2553 Clouds 14 1024 30 10000 1.5 0 10:56 21.02.2020
2554 Clouds 14 1024 30 10000 1.5 0 10:56 21.02.2020
2555 Clouds 14 1024 30 10000 1.5 0 10:38 21.02.2020
2556 Clouds 14 1024 30 10000 1.5 0 10:19 21.02.2020
2557 Clouds 14 1024 30 10000 1.5 0 10:19 21.02.2020
2558 Clouds 12 1025 32 10000 2.1 0 09:56 21.02.2020
2559 Clouds 12 1025 32 10000 2.1 0 09:37 21.02.2020
2560 Clouds 12 1025 32 10000 2.1 0 09:18 21.02.2020
2561 Clouds 10 1026 37 10000 4.1 190 08:41 21.02.2020
2562 Clear 10 1026 37 10000 4.1 190 08:22 21.02.2020
2563 Clear 8 1026 45 10000 1.5 0 07:59 21.02.2020
2564 Clear 8 1026 45 10000 1.5 0 07:40 21.02.2020
2565 Clear 8 1026 45 10000 1.5 0 07:18 21.02.2020
2566 Smoke 7 1026 48 10000 2.1 310 06:47 21.02.2020
2567 Smoke 7 1026 48 10000 2.1 310 06:47 21.02.2020
2568 Smoke 7 1026 48 10000 2.1 310 06:28 21.02.2020
2569 Smoke 4 1026 60 9000 2.6 320 05:42 21.02.2020
2570 Clear 2 1025 64 10000 3.1 340 04:33 21.02.2020
2571 Clear 1 1025 74 10000 1.5 300 03:58 21.02.2020
2572 Clear 1 1025 74 10000 1.5 300 03:24 21.02.2020
2573 Clear 1 1024 80 10000 1.5 320 01:51 21.02.2020
2574 Clear 1 1024 80 10000 1.5 320 01:23 21.02.2020
2575 Clear 1 1024 74 10000 1.5 340 00:41 21.02.2020
2576 Clear 1 1024 74 10000 1.5 340 00:22 21.02.2020
2577 Clear 2 1024 69 8000 2.6 340 23:43 20.02.2020
2578 Clear 2 1024 69 8000 2.6 340 23:43 20.02.2020
2579 Clear 2 1024 69 8000 2.6 340 23:23 20.02.2020
2580 Clear 3 1025 69 8000 2.6 330 22:56 20.02.2020
2581 Clear 3 1025 69 8000 2.6 330 22:37 20.02.2020
2582 Clear 3 1025 69 8000 2.6 330 22:18 20.02.2020
2583 Smoke 2 1025 74 3000 2.6 340 21:55 20.02.2020
2584 Smoke 2 1025 74 3000 2.6 340 21:36 20.02.2020
2585 Smoke 2 1025 74 3000 2.6 340 21:18 20.02.2020
2586 Smoke 2 1025 80 3000 1 0 20:54 20.02.2020
2587 Smoke 2 1025 80 3000 1 0 20:54 20.02.2020
2588 Smoke 2 1025 80 3000 1 0 20:36 20.02.2020
2589 Smoke 2 1025 80 3000 1 0 20:18 20.02.2020
2590 Smoke 2 1025 80 3000 1 0 20:18 20.02.2020
2591 Smoke 2 1025 80 3000 1 0 20:18 20.02.2020
2592 Smoke 3 1025 74 3000 1 0 19:42 20.02.2020
2593 Smoke 3 1025 74 3000 1 0 19:24 20.02.2020
2594 Smoke 4 1025 52 3000 0.5 0 18:59 20.02.2020
2595 Smoke 4 1025 52 3000 0.5 0 18:38 20.02.2020
2596 Clear 5 1025 65 6000 1.34 239 18:19 20.02.2020
2597 Clear 5 1025 65 6000 1.34 239 18:19 20.02.2020
2598 Clear 6 1025 60 8000 1 0 17:41 20.02.2020
2599 Clear 7 1025 60 8000 1 0 17:22 20.02.2020
2600 Clear 7 1025 60 8000 1 0 17:22 20.02.2020
2601 Clear 7 1025 60 8000 1 0 16:59 20.02.2020
2602 Clear 7 1025 60 8000 1 0 16:40 20.02.2020
2603 Clear 7 1025 60 8000 1 0 16:21 20.02.2020
2604 Clear 8 1024 56 10000 1.5 130 15:59 20.02.2020
2605 Clear 8 1024 56 10000 1.5 130 15:41 20.02.2020
2606 Clear 8 1024 56 10000 1.5 130 15:20 20.02.2020
2607 Clear 10 1024 49 10000 2.6 100 14:54 20.02.2020
2608 Clear 10 1024 49 10000 2.6 100 14:36 20.02.2020
2609 Clear 10 1024 49 10000 2.6 100 14:18 20.02.2020
2610 Clear 10 1024 49 10000 2.6 100 14:18 20.02.2020
2611 Clouds 11 1024 45 10000 2.6 20 13:44 20.02.2020
2612 Clouds 11 1022 28 10000 2.6 60 13:19 20.02.2020
2613 Clouds 11 1024 45 10000 1.5 0 12:56 20.02.2020
2614 Clouds 11 1024 45 10000 1.5 0 12:37 20.02.2020
2615 Clouds 11 1024 45 10000 1.5 0 12:18 20.02.2020
2616 Clouds 11 1024 46 10000 3.1 40 11:42 20.02.2020
2617 Clouds 11 1024 46 10000 3.1 40 11:22 20.02.2020
2618 Clouds 11 1024 46 10000 3.1 40 11:22 20.02.2020
2619 Clouds 11 1024 46 10000 3.1 360 10:57 20.02.2020
2620 Clouds 11 1024 46 10000 3.1 360 10:39 20.02.2020
2621 Clouds 11 1024 46 10000 3.1 360 10:21 20.02.2020
2622 Clouds 10 1025 49 10000 2.1 0 09:46 20.02.2020
2623 Clouds 10 1025 49 10000 2.1 0 09:25 20.02.2020
2624 Clouds 8 1026 52 10000 1.5 0 08:59 20.02.2020
2625 Clouds 8 1026 52 10000 1.5 0 08:38 20.02.2020
2626 Clouds 8 1026 52 10000 1.5 0 08:20 20.02.2020
2627 Clouds 7 1025 52 10000 1.5 0 07:45 20.02.2020
2628 Clouds 7 1025 52 10000 1.5 0 07:23 20.02.2020
2629 Clouds 5 1025 60 9000 1.5 80 06:53 20.02.2020
2630 Clouds 5 1025 60 9000 1.5 80 06:26 20.02.2020
2631 Haze 3 1024 69 5000 1.5 310 05:46 20.02.2020
2632 Clouds 2 1023 69 8000 0.57 337 04:54 20.02.2020
2633 Clouds 2 1023 69 8000 0.57 337 04:19 20.02.2020
2634 Clouds 1 1021 52 10000 1 0 03:29 20.02.2020
2635 Clouds 1 1021 86 10000 0.5 0 02:25 20.02.2020
2636 Clouds 1 1020 80 10000 1 0 00:59 20.02.2020
2637 Clouds 1 1020 80 10000 1 0 00:32 20.02.2020
2638 Clouds 3 1021 74 10000 0.5 0 23:49 19.02.2020
2639 Clouds 3 1021 74 10000 0.5 0 23:22 19.02.2020
2640 Clouds 2 1021 74 10000 2.1 330 22:54 19.02.2020
2641 Clouds 2 1021 74 10000 2.1 330 22:36 19.02.2020
2642 Clouds 2 1021 74 10000 2.1 330 22:18 19.02.2020
2643 Clouds 4 1022 64 10000 4.1 340 21:41 19.02.2020
2644 Clouds 4 1022 64 10000 4.1 340 21:19 19.02.2020
2645 Clouds 4 1022 69 10000 1.5 50 20:58 19.02.2020
2646 Clouds 4 1022 69 10000 1.5 50 20:39 19.02.2020
2647 Clouds 4 1022 69 10000 1.5 50 20:20 19.02.2020
2648 Clouds 5 1022 69 8000 1 160 19:59 19.02.2020
2649 Clouds 5 1022 69 8000 1 160 19:39 19.02.2020
2650 Clouds 5 1022 69 8000 1 160 19:20 19.02.2020
2651 Clouds 5 1022 64 8000 1 0 18:58 19.02.2020
2652 Clouds 5 1022 64 8000 1 0 18:40 19.02.2020
2653 Clouds 5 1022 64 8000 1 0 18:22 19.02.2020
2654 Clouds 4 1021 64 8000 2.6 120 17:59 19.02.2020
2655 Clouds 4 1021 64 8000 2.6 120 17:41 19.02.2020
2656 Clouds 4 1021 64 8000 2.6 120 17:19 19.02.2020
2657 Clouds 6 1020 60 10000 2.6 140 16:43 19.02.2020
2658 Clouds 6 1020 60 10000 2.6 140 16:19 19.02.2020
2659 Clouds 7 1019 52 10000 3.6 140 15:57 19.02.2020
2660 Clouds 7 1019 52 10000 3.6 140 15:38 19.02.2020
2661 Clouds 7 1019 52 10000 3.6 140 15:19 19.02.2020
2662 Clouds 8 1019 42 10000 5.7 130 14:41 19.02.2020
2663 Clouds 8 1019 42 10000 5.7 130 14:23 19.02.2020
2664 Clouds 10 1018 34 10000 5.7 140 13:55 19.02.2020
2665 Clouds 10 1018 34 10000 5.7 140 13:36 19.02.2020
2666 Clouds 10 1018 34 10000 5.7 140 13:18 19.02.2020
2667 Clouds 11 1018 21 10000 5.1 80 12:38 19.02.2020
2668 Clouds 11 1018 21 10000 5.1 80 12:19 19.02.2020
2669 Clouds 11 1018 21 10000 5.1 80 12:19 19.02.2020
2670 Clouds 11 1018 23 10000 2.6 0 11:54 19.02.2020
2671 Clouds 11 1018 23 10000 2.6 0 11:36 19.02.2020
2672 Clouds 11 1018 23 10000 2.6 0 11:18 19.02.2020
2673 Clouds 11 1018 25 10000 2.6 360 10:54 19.02.2020
2674 Clouds 11 1018 25 10000 2.6 360 10:36 19.02.2020
2675 Clouds 11 1018 25 10000 2.6 360 10:18 19.02.2020
2676 Clouds 11 1018 25 10000 2.6 360 10:18 19.02.2020
2677 Clouds 10 1019 24 10000 3.6 350 09:41 19.02.2020
2678 Clouds 10 1019 24 10000 3.6 350 09:20 19.02.2020
2679 Clouds 10 1020 26 10000 2.6 0 08:48 19.02.2020
2680 Clouds 10 1020 26 10000 2.6 0 08:24 19.02.2020
2681 Clouds 10 1020 26 10000 2.6 0 08:24 19.02.2020
2682 Clouds 10 1020 26 10000 2.6 0 08:24 19.02.2020
2683 Clouds 9 1019 33 9000 2.6 20 07:59 19.02.2020
2684 Clouds 9 1019 33 9000 2.6 20 07:39 19.02.2020
2685 Clouds 9 1019 33 9000 2.6 20 07:20 19.02.2020
2686 Clouds 8 1019 39 7000 1.5 310 06:45 19.02.2020
2687 Clouds 6 1019 41 10000 1.5 0 05:26 19.02.2020
2688 Clouds 4 1017 55 10000 2.1 330 03:52 19.02.2020
2689 Clouds 4 1017 64 10000 2.1 300 02:36 19.02.2020
2690 Clear 4 1017 59 10000 2.6 310 01:44 19.02.2020
2691 Clear 4 1017 59 10000 2.6 310 01:23 19.02.2020
2692 Clear 3 1017 59 10000 1 0 00:41 19.02.2020
2693 Clear 3 1017 59 10000 1 0 00:19 19.02.2020
2694 Clear 3 1018 59 10000 1 0 23:40 18.02.2020
2695 Clear 3 1018 59 10000 1 0 23:20 18.02.2020
2696 Clear 4 1018 55 10000 2.1 310 22:55 18.02.2020
2697 Clear 4 1018 55 10000 2.1 310 22:37 18.02.2020
2698 Clear 4 1018 55 10000 2.1 310 22:19 18.02.2020
2699 Clear 4 1019 55 10000 1.5 0 21:54 18.02.2020
2700 Clear 4 1019 55 10000 1.5 0 21:36 18.02.2020
2701 Clear 4 1019 55 10000 1.5 0 21:36 18.02.2020
2702 Clear 4 1019 55 10000 1.5 0 21:18 18.02.2020
2703 Clear 6 1019 45 10000 1 0 20:40 18.02.2020
2704 Clear 6 1019 45 10000 1 0 20:22 18.02.2020
2705 Clear 8 1020 31 10000 6.2 260 19:59 18.02.2020
2706 Clear 8 1020 31 10000 6.2 260 19:41 18.02.2020
2707 Clear 8 1020 31 10000 6.2 260 19:19 18.02.2020
2708 Clear 8 1020 29 10000 3.1 240 18:55 18.02.2020
2709 Clear 8 1020 29 10000 3.1 240 18:37 18.02.2020
2710 Clear 8 1020 29 10000 3.1 240 18:18 18.02.2020
2711 Clear 8 1019 39 8000 3.1 200 17:40 18.02.2020
2712 Clear 8 1019 39 8000 3.1 200 17:19 18.02.2020
2713 Clear 9 1020 39 6000 3.1 270 16:40 18.02.2020
2714 Clear 9 1020 39 6000 3.1 270 16:21 18.02.2020
2715 Clouds 11 1020 37 10000 3.1 360 15:55 18.02.2020
2716 Clouds 11 1020 37 10000 3.1 360 15:36 18.02.2020
2717 Clouds 11 1020 37 10000 3.1 360 15:36 18.02.2020
2718 Clouds 11 1020 37 10000 3.1 360 15:18 18.02.2020
2719 Clouds 13 1019 28 10000 4.1 240 14:54 18.02.2020
2720 Clouds 13 1019 28 10000 4.1 240 14:36 18.02.2020
2721 Clouds 13 1019 28 10000 4.1 240 14:18 18.02.2020
2722 Clouds 14 1020 26 10000 3.6 210 13:41 18.02.2020
2723 Clouds 14 1020 26 10000 3.6 210 13:21 18.02.2020
2724 Clouds 14 1020 26 10000 4.1 210 12:49 18.02.2020
2725 Clouds 14 1020 26 10000 4.1 210 12:30 18.02.2020
2726 Clouds 14 1021 22 10000 6.2 210 11:59 18.02.2020
2727 Clouds 14 1021 22 10000 6.2 210 11:59 18.02.2020
2728 Clouds 14 1021 22 10000 6.2 210 11:41 18.02.2020
2729 Clouds 14 1021 22 10000 6.2 210 11:22 18.02.2020
2730 Clouds 14 1022 20 10000 3.1 200 10:45 18.02.2020
2731 Clouds 14 1022 20 10000 3.1 200 10:24 18.02.2020
2732 Clouds 12 1024 23 10000 4.6 240 09:57 18.02.2020
2733 Clouds 12 1024 23 10000 4.6 240 09:39 18.02.2020
2734 Clouds 12 1024 23 10000 4.6 240 09:39 18.02.2020
2735 Clouds 12 1024 23 10000 4.6 240 09:39 18.02.2020
2736 Clouds 12 1024 23 10000 4.6 240 09:20 18.02.2020
2737 Clouds 12 1024 23 10000 4.6 240 09:20 18.02.2020
2738 Clear 11 1025 25 10000 2.1 240 08:58 18.02.2020
2739 Clear 11 1025 25 10000 2.1 240 08:39 18.02.2020
2740 Clouds 11 1025 25 10000 2.1 240 08:19 18.02.2020
2741 Clouds 9 1025 29 10000 1.5 0 07:51 18.02.2020
2742 Clouds 9 1025 29 10000 1.5 0 07:26 18.02.2020
2743 Clouds 6 1026 35 10000 4.1 340 06:55 18.02.2020
2744 Clouds 6 1026 35 10000 4.1 340 06:29 18.02.2020
2745 Clouds 4 1025 44 10000 3.1 330 05:49 18.02.2020
2746 Clouds 4 1025 44 10000 3.1 330 05:22 18.02.2020
2747 Clouds 1 1025 55 10000 3.6 330 03:54 18.02.2020
2748 Clouds 2 1025 51 10000 3.1 340 02:58 18.02.2020
2749 Clouds 1 1025 55 10000 3.6 310 01:27 18.02.2020
2750 Clouds 0 1025 55 10000 3.6 320 00:43 18.02.2020
2751 Clouds 0 1025 55 10000 3.6 320 00:18 18.02.2020
2752 Clouds 1 1026 55 10000 4.1 320 23:40 17.02.2020
2753 -273 0 0 0 0 0 23:21 17.02.2020
2754 Clear 2 1027 51 10000 2.6 320 22:58 17.02.2020
2755 Clear 2 1027 51 10000 2.6 320 22:58 17.02.2020
2756 Clear 2 1027 51 10000 2.6 320 22:40 17.02.2020
2757 Clear 2 1027 51 10000 2.6 320 22:18 17.02.2020
2758 Clear 2 1027 51 9000 3.6 330 21:39 17.02.2020
2759 Clear 2 1027 51 9000 3.6 330 21:19 17.02.2020
2760 Clear 3 1028 47 9000 3.6 340 20:57 17.02.2020
2761 Clear 3 1028 47 9000 3.6 340 20:38 17.02.2020
2762 Clear 3 1028 47 9000 3.6 340 20:19 17.02.2020
2763 Clear 3 1028 51 9000 3.6 330 19:43 17.02.2020
2764 Clear 3 1028 51 9000 3.6 330 19:22 17.02.2020
2765 Clear 3 1028 47 9000 2.6 330 18:57 17.02.2020
2766 Clear 3 1028 47 9000 2.6 330 18:36 17.02.2020
2767 Clear 3 1028 47 9000 2.6 330 18:18 17.02.2020
2768 Clear 5 1028 41 9000 3.6 340 17:38 17.02.2020
2769 Clear 5 1028 41 9000 3.6 340 17:20 17.02.2020
2770 Clear 6 1028 38 9000 3.1 320 16:59 17.02.2020
2771 Clear 6 1028 38 9000 3.1 320 16:41 17.02.2020
2772 Clear 6 1028 38 9000 3.1 320 16:22 17.02.2020
2773 Clear 7 1028 41 10000 2.6 300 15:48 17.02.2020
2774 Clear 7 1028 41 10000 2.6 300 15:29 17.02.2020
2775 Clear 9 1028 21 10000 1.5 270 15:00 17.02.2020
2776 Clear 9 1028 21 10000 1.5 270 14:41 17.02.2020
2777 Clouds 13 1028 16 10000 4.1 200 14:22 17.02.2020
2778 Clouds 13 1028 16 10000 4.1 200 13:57 17.02.2020
2779 Clouds 13 1028 16 10000 4.1 200 13:57 17.02.2020
2780 Clouds 13 1028 16 10000 4.1 200 13:38 17.02.2020
2781 Clouds 13 1028 16 10000 4.1 200 13:18 17.02.2020
2782 Clouds 13 1028 20 10000 2.6 180 12:43 17.02.2020
2783 Clouds 13 1028 20 10000 2.6 180 12:24 17.02.2020
2784 Clouds 13 1028 18 10000 3.1 220 11:57 17.02.2020
2785 Clouds 13 1028 18 10000 3.1 220 11:39 17.02.2020
2786 -273 0 0 0 0 0 11:39 17.02.2020
2787 Clear 13 1028 18 10000 3.1 220 11:20 17.02.2020
2788 Clear 13 1029 17 10000 4.1 260 10:41 17.02.2020
2789 Clear 13 1029 17 10000 4.1 260 10:23 17.02.2020
2790 Clear 12 1030 18 10000 3.1 230 09:59 17.02.2020
2791 Clear 12 1030 18 10000 3.1 230 09:41 17.02.2020
2792 Clear 12 1030 18 10000 3.1 230 09:21 17.02.2020
2793 Clear 11 1030 23 10000 1 220 08:56 17.02.2020
2794 Clear 11 1030 23 10000 1 220 08:38 17.02.2020
2795 Clear 11 1030 23 10000 1 220 08:19 17.02.2020
2796 Clear 11 1030 23 10000 1 220 08:19 17.02.2020
2797 Clear 7 1031 28 10000 2.6 190 07:43 17.02.2020
2798 Clear 7 1031 28 10000 2.6 190 07:23 17.02.2020
2799 Clear 5 1031 27 10000 2.6 330 06:51 17.02.2020
2800 Clear 5 1031 27 10000 2.6 330 06:30 17.02.2020
2801 Haze 3 1031 37 9000 3.1 320 05:41 17.02.2020
2802 Clear 1 1030 21 10000 1.5 280 04:59 17.02.2020
2803 Clear -1 1029 46 10000 3.6 320 03:20 17.02.2020
2804 Clear 0 1028 22 10000 3.1 320 01:47 17.02.2020
2805 Clear 0 1028 22 10000 3.1 320 01:47 17.02.2020
2806 Clear 0 1028 22 10000 4.6 330 00:42 17.02.2020
2807 Clear 0 1028 22 10000 4.6 330 00:19 17.02.2020
2808 -273 0 0 0 0 0 23:53 16.02.2020
2809 Clear 0 1028 22 10000 2.6 330 23:29 16.02.2020
2810 Clear 1 1029 43 10000 4.1 320 22:57 16.02.2020
2811 Clear 1 1029 43 10000 4.1 320 22:38 16.02.2020
2812 Clear 1 1029 43 10000 4.1 320 22:20 16.02.2020
2813 Clear 1 1029 47 10000 2.6 340 21:57 16.02.2020
2814 Clear 1 1029 47 10000 2.6 340 21:38 16.02.2020
2815 Clear 1 1029 47 10000 2.6 340 21:38 16.02.2020
2816 Clear 1 1029 47 10000 2.6 340 21:20 16.02.2020
2817 Clear 1 1029 50 8000 3.1 330 20:57 16.02.2020
2818 Clear 1 1029 50 8000 3.1 330 20:38 16.02.2020
2819 Clear 1 1029 50 8000 3.1 330 20:20 16.02.2020
2820 Smoke 2 1029 47 4000 3.1 340 19:57 16.02.2020
2821 Smoke 2 1029 47 4000 3.1 340 19:37 16.02.2020
2822 Smoke 2 1029 47 4000 3.1 340 19:18 16.02.2020
2823 Smoke 3 1029 51 3500 3.1 350 18:42 16.02.2020
2824 Clear 3 1029 51 6000 4.1 310 18:23 16.02.2020
2825 Clear 4 1028 44 6000 3.6 330 17:47 16.02.2020
2826 Clear 4 1028 44 6000 3.6 330 17:21 16.02.2020
2827 Clear 5 1028 32 8000 3.1 340 16:59 16.02.2020
2828 Clear 5 1028 32 8000 3.1 340 16:39 16.02.2020
2829 Clear 5 1028 32 8000 3.1 340 16:21 16.02.2020
2830 Clear 7 1027 20 10000 1.5 260 15:59 16.02.2020
2831 Clear 7 1027 20 10000 1.5 260 15:39 16.02.2020
2832 Clear 7 1027 20 10000 1.5 260 15:21 16.02.2020
2833 Clear 9 1027 19 10000 2.6 240 14:41 16.02.2020
2834 Clear 9 1027 19 10000 2.6 240 14:23 16.02.2020
2835 Clear 11 1027 16 10000 5.7 210 13:48 16.02.2020
2836 Clear 11 1027 16 10000 5.7 210 13:48 16.02.2020
2837 Clear 11 1027 16 10000 5.7 210 13:25 16.02.2020
2838 Clear 11 1027 16 10000 5.7 210 13:25 16.02.2020
2839 Clear 11 1027 19 10000 3.6 220 12:58 16.02.2020
2840 Clear 11 1027 19 10000 3.6 220 12:38 16.02.2020
2841 Clear 11 1027 19 10000 3.6 220 12:19 16.02.2020
2842 Clear 11 1027 16 10000 5.1 230 11:40 16.02.2020
2843 Clear 11 1027 16 10000 5.1 230 11:19 16.02.2020
2844 Clear 10 1027 19 10000 5.7 210 10:58 16.02.2020
2845 Clear 10 1027 19 10000 5.7 210 10:58 16.02.2020
2846 Clear 10 1027 19 10000 5.7 210 10:39 16.02.2020
2847 Clear 10 1027 19 10000 5.7 210 10:39 16.02.2020
2848 Clear 10 1027 19 10000 5.7 210 10:21 16.02.2020
2849 Clear 10 1027 19 10000 5.7 210 10:21 16.02.2020
2850 Clear 10 1028 18 10000 5.1 230 09:58 16.02.2020
2851 Clear 10 1028 18 10000 5.1 230 09:37 16.02.2020
2852 Clear 10 1028 18 10000 5.1 230 09:19 16.02.2020
2853 Clear 8 1029 20 10000 5.1 220 08:49 16.02.2020
2854 Clear 8 1029 20 10000 5.1 220 08:22 16.02.2020
2855 Clear 7 1029 22 10000 3.6 240 07:56 16.02.2020
2856 Clear 7 1029 22 10000 3.6 240 07:38 16.02.2020
2857 Clear 5 1029 27 10000 4.1 270 06:36 16.02.2020
2858 Clear 3 1028 32 10000 3.1 250 05:37 16.02.2020
2859 Clear -1 1027 50 10000 1.5 0 03:58 16.02.2020
2860 Clear -1 1026 21 10000 2.1 240 02:37 16.02.2020
2861 Clear 0 1026 31 10000 2.6 330 01:57 16.02.2020
2862 Clear 0 1026 31 10000 2.6 330 01:37 16.02.2020
2863 Clear 0 1026 29 10000 2.6 330 01:18 16.02.2020
2864 Clear -1 1025 29 10000 3.1 320 00:40 16.02.2020
2865 Clear -1 1025 29 10000 3.1 320 00:19 16.02.2020
2866 Clear -1 1025 58 10000 2.1 290 23:42 15.02.2020
2867 Clear -1 1025 58 10000 2.1 290 23:23 15.02.2020
2868 Clear 1 1025 47 10000 3.1 350 22:56 15.02.2020
2869 Clear 1 1025 47 10000 3.1 350 22:38 15.02.2020
2870 Clear 0 1024 33 10000 2.6 260 22:18 15.02.2020
2871 Clear 0 1025 33 10000 2.1 340 21:43 15.02.2020
2872 Clear 0 1025 33 10000 2.1 340 21:23 15.02.2020
2873 Clear 2 1025 47 10000 2.1 330 20:55 15.02.2020
2874 Clear 2 1025 47 10000 2.1 330 20:36 15.02.2020
2875 Clear 2 1025 47 10000 2.1 330 20:18 15.02.2020
2876 Clear 3 1025 44 10000 1 0 19:40 15.02.2020
2877 Clear 3 1025 44 10000 1 0 19:21 15.02.2020
2878 Clear 5 1025 30 10000 2.1 180 18:40 15.02.2020
2879 Clear 5 1025 30 10000 2.1 180 18:20 15.02.2020
2880 Clear 5 1024 35 10000 1.5 0 17:55 15.02.2020
2881 Clear 5 1024 35 10000 1.5 0 17:37 15.02.2020
2882 Clear 5 1024 35 10000 1.5 0 17:18 15.02.2020
2883 Clear 6 1023 35 8000 3.6 270 16:40 15.02.2020
2884 Clear 7 1023 35 8000 3.6 270 16:20 15.02.2020
2885 Clear 8 1023 26 10000 4.1 240 15:49 15.02.2020
2886 Clear 8 1023 26 10000 4.1 240 15:31 15.02.2020
2887 Clear 10 1022 21 10000 7.7 240 14:57 15.02.2020
2888 Clear 10 1022 21 10000 7.7 240 14:38 15.02.2020
2889 Clear 10 1022 21 10000 7.7 240 14:18 15.02.2020
2890 Clear 11 1021 21 10000 5.7 240 13:41 15.02.2020
2891 Clear 11 1021 21 10000 5.7 240 13:22 15.02.2020
2892 Clear 12 1021 20 10000 3.1 250 12:56 15.02.2020
2893 Clear 12 1021 20 10000 3.1 250 12:38 15.02.2020
2894 Clear 12 1021 20 10000 3.1 250 12:19 15.02.2020
2895 Clear 11 1022 22 10000 2.1 310 11:45 15.02.2020
2896 Clear 11 1022 22 10000 2.1 310 11:25 15.02.2020
2897 Clear 10 1022 25 10000 1 0 10:47 15.02.2020
2898 Clear 10 1022 25 10000 1 0 10:29 15.02.2020
2899 Clear 8 1023 26 10000 3.6 200 09:55 15.02.2020
2900 Clear 8 1023 26 10000 3.6 200 09:36 15.02.2020
2901 Clear 8 1023 26 10000 3.6 200 09:18 15.02.2020
2902 Clear 7 1023 42 10000 2.12 179 08:41 15.02.2020
2903 Clear 7 1023 42 10000 2.55 187 08:22 15.02.2020
2904 Clear 6 1024 24 10000 4.6 250 07:44 15.02.2020
2905 Clear 6 1024 24 10000 4.6 250 07:25 15.02.2020
2906 Clear 3 1024 34 8000 2.6 340 06:40 15.02.2020
2907 Clear 3 1024 34 8000 2.6 340 06:21 15.02.2020
2908 Clear -2 1023 54 10000 4.1 320 04:57 15.02.2020
2909 Clear -2 1023 54 10000 4.1 320 04:31 15.02.2020
2910 Clear -2 1023 54 10000 3.1 340 03:21 15.02.2020
2911 Clear -2 1023 54 10000 4.1 320 02:41 15.02.2020
2912 Clear -2 1023 54 10000 4.1 320 02:19 15.02.2020
2913 Clear -2 1022 54 10000 3.6 330 01:38 15.02.2020
2914 Clear -2 1023 58 10000 4.1 340 00:36 15.02.2020
2915 Clear -2 1023 58 10000 4.1 340 00:18 15.02.2020
2916 Clear -1 1023 54 10000 3.6 320 23:39 14.02.2020
2917 Clear -1 1023 54 10000 3.6 320 23:18 14.02.2020
2918 Clear 0 1024 25 10000 3.6 330 22:43 14.02.2020
2919 Clear 0 1024 25 10000 3.6 330 22:22 14.02.2020
2920 Clear -1 1024 63 9000 3.1 310 21:50 14.02.2020
2921 Clear -1 1024 63 9000 3.1 310 21:31 14.02.2020
2922 Clear 0 1025 25 9000 3.6 330 20:58 14.02.2020
2923 Clear 0 1025 25 9000 3.6 330 20:38 14.02.2020
2924 Clear 0 1025 25 9000 3.6 330 20:38 14.02.2020
2925 Clear 0 1025 21 9000 3.6 330 20:19 14.02.2020
2926 Clear 0 1025 63 8000 4.1 310 19:42 14.02.2020
2927 Clear 0 1025 63 8000 4.1 310 19:42 14.02.2020
2928 Clear 0 1025 63 8000 4.1 310 19:23 14.02.2020
2929 Clear 1 1025 21 8000 3.1 310 18:58 14.02.2020
2930 Clear 1 1025 21 8000 3.1 310 18:40 14.02.2020
2931 Clear 1 1025 21 8000 3.1 310 18:20 14.02.2020
2932 Clear 2 1025 50 8000 3.1 350 17:44 14.02.2020
2933 Clear 2 1025 50 8000 3.1 350 17:23 14.02.2020
2934 Clear 2 1025 50 8000 3.1 350 17:23 14.02.2020
2935 Clear 3 1025 43 8000 2.6 320 16:59 14.02.2020
2936 Clear 3 1025 43 8000 2.6 320 16:41 14.02.2020
2937 Clear 3 1025 43 8000 2.6 320 16:22 14.02.2020
2938 Clear 5 1025 32 10000 2.1 230 15:56 14.02.2020
2939 Clear 5 1025 32 10000 2.1 230 15:56 14.02.2020
2940 Clear 5 1025 32 10000 2.1 230 15:38 14.02.2020
2941 Clear 5 1025 32 10000 2.1 230 15:20 14.02.2020
2942 Clear 6 1025 26 10000 3.1 220 14:59 14.02.2020
2943 Clear 6 1025 26 10000 3.1 220 14:40 14.02.2020
2944 Clear 6 1025 26 10000 3.1 220 14:22 14.02.2020
2945 Clear 6 1025 26 10000 3.1 220 14:22 14.02.2020
2946 Clear 8 1025 26 10000 4.1 250 13:55 14.02.2020
2947 Clear 8 1025 26 10000 4.1 250 13:37 14.02.2020
2948 Clear 8 1025 26 10000 4.1 250 13:18 14.02.2020
2949 Clear 9 1025 24 10000 3.6 240 12:56 14.02.2020
2950 Clear 9 1025 24 10000 3.6 240 12:56 14.02.2020
2951 Clear 9 1025 24 10000 3.6 240 12:37 14.02.2020
2952 Clear 9 1025 24 10000 3.6 240 12:18 14.02.2020
2953 Clear 8 1026 26 10000 3.6 180 11:54 14.02.2020
2954 Clear 8 1026 26 10000 3.6 180 11:36 14.02.2020
2955 Clear 8 1026 26 10000 3.6 180 11:18 14.02.2020
2956 Clear 7 1027 30 10000 4.1 190 10:40 14.02.2020
2957 Clear 7 1027 30 10000 4.1 190 10:21 14.02.2020
2958 Clear 7 1028 26 10000 6.2 190 09:44 14.02.2020
2959 Clear 7 1028 26 10000 6.2 190 09:22 14.02.2020
2960 Clear 6 1028 26 10000 2.1 220 08:57 14.02.2020
2961 Clear 6 1028 26 10000 2.1 220 08:38 14.02.2020
2962 Clear 6 1028 26 10000 2.1 220 08:20 14.02.2020
2963 Clear 5 1028 32 10000 2.6 260 07:49 14.02.2020
2964 Clear 5 1028 32 10000 2.6 260 07:49 14.02.2020
2965 Clear 5 1028 32 10000 2.6 260 07:29 14.02.2020
2966 Clear 2 1028 37 10000 4.6 320 06:38 14.02.2020
2967 Clear 2 1028 37 10000 4.6 320 06:18 14.02.2020
2968 Clear 1 1028 43 10000 4.1 330 05:28 14.02.2020
2969 Clear -2 1027 54 10000 3.1 330 03:46 14.02.2020
2970 Clear -2 1026 58 10000 3.6 320 02:53 14.02.2020
2971 Clear -1 1026 54 10000 3.1 340 01:56 14.02.2020
2972 Clear -1 1026 58 10000 3.1 320 00:45 14.02.2020
2973 Clear -1 1026 58 10000 3.1 320 00:26 14.02.2020
2974 Clear 0 1026 54 10000 3.6 350 23:56 13.02.2020
2975 Clear 0 1026 54 10000 3.6 350 23:37 13.02.2020
2976 Clear 0 1026 54 10000 3.6 350 23:18 13.02.2020
2977 Clear 0 1026 58 10000 3.1 330 22:38 13.02.2020
2978 Clear 0 1026 58 10000 3.1 330 22:19 13.02.2020
2979 Clear 0 1027 58 10000 4.1 310 21:55 13.02.2020
2980 Clear 0 1027 58 10000 4.1 310 21:55 13.02.2020
2981 Clear 0 1027 58 10000 4.1 310 21:37 13.02.2020
2982 Clear 0 1027 58 10000 4.1 310 21:19 13.02.2020
2983 Clear 1 1027 50 10000 4.6 310 20:42 13.02.2020
2984 Clear 1 1027 50 10000 4.6 310 20:22 13.02.2020
2985 Clear 2 1027 47 9000 2.1 340 19:57 13.02.2020
2986 Clear 2 1027 47 9000 2.1 340 19:37 13.02.2020
2987 Clear 2 1027 47 9000 2.1 340 19:19 13.02.2020
2988 Clear 2 1027 55 8000 2.6 340 18:56 13.02.2020
2989 Clear 2 1027 55 8000 2.6 340 18:37 13.02.2020
2990 Clear 2 1027 55 8000 2.6 340 18:19 13.02.2020
2991 Mist 2 1026 64 5000 2.6 330 17:54 13.02.2020
2992 Mist 2 1026 64 5000 2.6 330 17:36 13.02.2020
2993 Mist 2 1026 64 5000 2.6 330 17:18 13.02.2020
2994 Mist 1 1025 61 4000 2.92 281 16:40 13.02.2020
2995 Mist 1 1025 61 4000 2.92 281 16:20 13.02.2020
2996 Clear 3 1024 86 6000 1.5 290 15:57 13.02.2020
2997 Clear 3 1024 86 6000 1.5 290 15:39 13.02.2020
2998 Clear 3 1024 86 6000 1.5 290 15:19 13.02.2020
2999 Clear 5 1023 75 6000 2.6 260 14:58 13.02.2020
3000 Clear 5 1023 75 6000 2.6 260 14:58 13.02.2020
3001 Clear 5 1023 75 6000 2.6 260 14:39 13.02.2020
3002 Clouds 5 1023 75 6000 2.6 260 14:21 13.02.2020
3003 Clouds 5 1023 75 6000 2.6 260 14:21 13.02.2020
3004 Clouds 6 1023 70 7000 2.6 320 13:48 13.02.2020
3005 Clouds 6 1023 70 7000 2.6 320 13:19 13.02.2020
3006 Mist 6 1021 81 9000 1.69 49 12:56 13.02.2020
3007 Mist 6 1021 81 9000 1.69 49 12:56 13.02.2020
3008 Mist 5 1021 86 9000 1.69 49 12:38 13.02.2020
3009 Mist 5 1021 86 9000 1.69 49 12:38 13.02.2020
3010 Mist 5 1021 86 9000 1.69 49 12:38 13.02.2020
3011 Mist 5 1021 86 9000 1.69 49 12:19 13.02.2020
3012 Clouds 5 1022 75 7000 2.6 0 11:45 13.02.2020
3013 Clouds 5 1022 75 7000 2.6 0 11:20 13.02.2020
3014 Clouds 5 1022 75 7000 2.6 0 11:20 13.02.2020
3015 Mist 5 1022 86 6000 4.02 212 10:55 13.02.2020
3016 Rain 5 1021 75 10000 5.7 360 10:37 13.02.2020
3017 Rain 5 1021 75 10000 5.7 360 10:19 13.02.2020
3018 Rain 4 1022 70 8000 1.5 0 09:41 13.02.2020
3019 Rain 4 1022 70 8000 1.5 0 09:22 13.02.2020
3020 Mist 3 1021 75 5000 3.6 150 08:42 13.02.2020
3021 Mist 2 1022 93 2000 4.1 70 08:19 13.02.2020
3022 Mist 2 1022 93 1500 1.5 0 07:40 13.02.2020
3023 Mist 2 1022 93 1500 1.5 0 07:22 13.02.2020
3024 Mist 2 1022 93 1500 1.5 0 07:21 13.02.2020
3025 Snow 0 1021 100 800 3.19 187 06:44 13.02.2020
3026 Rain 1 1022 100 800 1 0 06:21 13.02.2020
3027 Rain 1 1022 100 1000 1.5 230 05:37 13.02.2020
3028 Snow 0 1021 99 800 1 0 04:26 13.02.2020
3029 Fog 0 1021 99 800 2.1 320 03:52 13.02.2020
3030 Snow 0 1021 99 1600 1 0 03:26 13.02.2020
3031 Mist 0 1020 99 4000 1.96 153 02:52 13.02.2020
3032 Snow 1 1021 99 800 0.88 164 02:19 13.02.2020
3033 Rain 0 1021 99 800 1 0 01:35 13.02.2020
3034 Rain 0 1022 99 800 2.1 310 00:40 13.02.2020
3035 -273 0 0 0 0 0 00:21 13.02.2020
3036 Rain 0 1022 99 1000 1.5 0 23:40 12.02.2020
3037 Rain 0 1022 98 1000 1.5 0 23:22 12.02.2020
3038 Rain 0 1023 98 1000 1 0 22:45 12.02.2020
3039 Rain 0 1023 98 1000 1 0 22:27 12.02.2020
3040 Mist 1 1022 100 4000 1.11 181 21:59 12.02.2020
3041 Rain 1 1023 100 1000 0.5 0 21:40 12.02.2020
3042 Rain 1 1023 100 1000 0.5 0 21:20 12.02.2020
3043 Fog 0 1024 98 1200 1.11 181 20:58 12.02.2020
3044 Fog 0 1024 98 1200 1.11 181 20:39 12.02.2020
3045 Fog 0 1024 98 1200 0.6 154 20:20 12.02.2020
3046 Rain 1 1024 98 1000 1 0 19:55 12.02.2020
3047 Rain 1 1024 98 1000 1 0 19:36 12.02.2020
3048 Rain 1 1024 98 1000 1 0 19:36 12.02.2020
3049 Rain 1 1024 98 1000 1 0 19:18 12.02.2020
3050 Rain 1 1025 98 1000 1 0 18:45 12.02.2020
3051 Rain 1 1025 98 1000 1 0 18:19 12.02.2020
3052 Rain 1 1025 100 1000 0.5 0 17:43 12.02.2020
3053 Rain 1 1025 100 1000 0.5 0 17:43 12.02.2020
3054 Rain 1 1025 100 600 1.5 260 17:21 12.02.2020
3055 Rain 1 1025 98 1200 1.06 346 16:59 12.02.2020
3056 Rain 1 1025 98 1200 1.09 312 16:40 12.02.2020
3057 Rain 1 1025 98 1200 1.06 346 16:19 12.02.2020
3058 Mist 1 1024 98 1200 1 0 15:43 12.02.2020
3059 Mist 1 1024 98 1200 1 0 15:43 12.02.2020
3060 Fog 2 1024 98 700 1 0 15:24 12.02.2020
3061 Rain 1 1024 98 700 1 0 14:57 12.02.2020
3062 Rain 1 1024 98 700 1 0 14:39 12.02.2020
3063 Rain 1 1024 99 700 1 0 14:20 12.02.2020
3064 Rain 2 1024 99 300 0.5 0 13:57 12.02.2020
3065 Rain 2 1024 99 300 0.5 0 13:39 12.02.2020
3066 Rain 2 1024 99 300 0.5 0 13:20 12.02.2020
3067 Rain 2 1025 99 700 1.5 120 12:57 12.02.2020
3068 Rain 2 1025 99 700 1.5 120 12:38 12.02.2020
3069 Rain 2 1025 99 700 1.5 120 12:18 12.02.2020
3070 Rain 2 1026 100 1200 0.5 340 11:57 12.02.2020
3071 Rain 2 1026 100 1200 0.5 340 11:38 12.02.2020
3072 Rain 2 1026 100 1200 0.5 340 11:20 12.02.2020
3073 Mist 3 1026 93 4000 1.5 360 10:55 12.02.2020
3074 Mist 3 1026 93 4000 1.5 360 10:36 12.02.2020
3075 Mist 3 1026 93 4000 1.5 360 10:18 12.02.2020
3076 Rain 2 1027 93 4000 1 40 09:41 12.02.2020
3077 Rain 2 1027 93 4000 1 40 09:41 12.02.2020
3078 Rain 2 1027 93 4000 1 40 09:21 12.02.2020
3079 Mist 2 1027 93 3000 3.1 320 08:57 12.02.2020
3080 Mist 2 1027 93 3000 3.1 320 08:37 12.02.2020
3081 Mist 2 1028 93 1600 2.1 330 08:19 12.02.2020
3082 Mist 2 1028 100 1000 1.5 150 07:44 12.02.2020
3083 Mist 2 1028 100 1000 1.5 150 07:23 12.02.2020
3084 Rain 1 1028 100 1000 1 0 06:53 12.02.2020
3085 Rain 1 1028 100 1000 1 0 06:21 12.02.2020
3086 Snow 1 1027 99 1000 1.5 130 05:37 12.02.2020
3087 Rain 1 1026 98 1000 1.5 160 04:58 12.02.2020
3088 Rain 1 1026 98 1000 1.5 160 04:39 12.02.2020
3089 Mist 1 1026 98 4000 1 140 03:33 12.02.2020
3090 Rain 1 1025 100 4000 1.5 200 02:58 12.02.2020
3091 Rain 1 1025 98 3200 0.5 0 02:29 12.02.2020
3092 Rain 1 1025 98 2400 1 0 01:51 12.02.2020
3093 Rain 1 1025 98 1200 1 0 00:45 12.02.2020
3094 Rain 1 1025 98 1200 1 0 00:26 12.02.2020
3095 Rain 1 1026 98 1200 1.29 4 23:56 11.02.2020
3096 Rain 1 1026 98 1200 1.29 4 23:38 11.02.2020
3097 Rain 1 1026 98 1200 1.01 359 23:20 11.02.2020
3098 Rain 1 1026 98 800 1.01 359 22:55 11.02.2020
3099 Rain 1 1026 98 800 1.01 359 22:37 11.02.2020
3100 Rain 1 1026 98 800 1.01 359 22:37 11.02.2020
3101 Rain 1 1026 98 800 1.01 359 22:18 11.02.2020
3102 Rain 2 1026 98 1200 1.5 210 21:55 11.02.2020
3103 Rain 2 1026 98 1200 1.5 210 21:37 11.02.2020
3104 Rain 2 1026 98 1200 1.5 210 21:18 11.02.2020
3105 Rain 1 1026 98 1200 0.5 0 20:40 11.02.2020
3106 Rain 1 1026 98 1200 0.5 0 20:20 11.02.2020
3107 Rain 1 1027 98 600 1 0 19:59 11.02.2020
3108 Rain 1 1027 98 600 1 0 19:41 11.02.2020
3109 Rain 1 1027 98 600 1 0 19:23 11.02.2020
3110 Mist 2 1026 93 4400 1.5 200 18:55 11.02.2020
3111 Rain 1 1027 98 600 1 0 18:37 11.02.2020
3112 Rain 1 1027 98 600 1 0 18:19 11.02.2020
3113 Rain 2 1027 98 1000 0.5 0 17:54 11.02.2020
3114 Rain 2 1027 98 1000 0.5 0 17:36 11.02.2020
3115 Rain 2 1027 100 4000 1.5 320 17:18 11.02.2020
3116 Rain 2 1027 100 4000 1.5 320 17:18 11.02.2020
3117 Rain 2 1027 100 4000 1.5 320 17:18 11.02.2020
3118 Rain 2 1026 100 2000 1.5 0 16:55 11.02.2020
3119 Rain 2 1026 100 2000 1.5 0 16:36 11.02.2020
3120 Rain 2 1026 100 2000 1.5 0 16:36 11.02.2020
3121 Rain 2 1026 100 2000 1.5 0 16:18 11.02.2020
3122 Rain 2 1026 98 2500 2.6 130 15:42 11.02.2020
3123 Rain 2 1025 100 5000 1.02 31 15:23 11.02.2020
3124 Rain 2 1025 100 2500 1 180 14:44 11.02.2020
3125 Rain 2 1025 100 2500 1 180 14:20 11.02.2020
3126 Rain 3 1025 93 3000 1.5 0 13:59 11.02.2020
3127 Rain 3 1025 93 3000 1.5 0 13:40 11.02.2020
3128 Rain 3 1025 93 3000 1.5 0 13:21 11.02.2020
3129 Rain 3 1026 93 3500 2.1 0 12:57 11.02.2020
3130 Rain 3 1026 93 3500 2.1 0 12:39 11.02.2020
3131 Rain 3 1026 93 3500 2.1 0 12:20 11.02.2020
3132 Rain 3 1025 93 3500 2.1 0 11:41 11.02.2020
3133 Rain 3 1025 93 3500 2.1 0 11:20 11.02.2020
3134 Rain 3 1026 93 3000 1 0 10:56 11.02.2020
3135 Rain 3 1026 93 3000 1 0 10:37 11.02.2020
3136 Rain 3 1026 93 3000 1 0 10:19 11.02.2020
3137 Mist 3 1026 93 3000 3.1 340 09:55 11.02.2020
3138 Mist 3 1026 93 3000 3.1 340 09:37 11.02.2020
3139 Mist 3 1026 93 3000 3.1 340 09:19 11.02.2020
3140 Rain 2 1026 100 3000 1 0 08:42 11.02.2020
3141 Rain 2 1026 100 3000 1 0 08:23 11.02.2020
3142 Rain 2 1025 93 6000 2.1 50 07:48 11.02.2020
3143 Rain 2 1025 93 6000 2.1 50 07:26 11.02.2020
3144 Rain 2 1025 100 2500 1 0 06:44 11.02.2020
3145 Rain 2 1025 100 2500 1 0 06:22 11.02.2020
3146 Rain 1 1025 99 2000 1 0 05:54 11.02.2020
3147 Rain 1 1025 99 1200 1 0 05:24 11.02.2020
3148 Rain 1 1024 95 1200 1 0 04:39 11.02.2020
3149 Rain 1 1024 95 1600 1 0 03:20 11.02.2020
3150 Rain 2 1024 95 2200 1.72 19 02:32 11.02.2020
3151 Rain 2 1023 91 2200 1.5 0 01:38 11.02.2020
3152 Rain 2 1024 100 1800 1 0 00:40 11.02.2020
3153 Snow 2 1024 97 2000 0.5 320 23:57 10.02.2020
3154 Snow 2 1024 97 2000 0.5 320 23:38 10.02.2020
3155 Snow 2 1024 93 2000 0.5 320 23:20 10.02.2020
3156 Snow 2 1025 93 2500 1 250 22:40 10.02.2020
3157 Snow 2 1025 93 2500 1 250 22:20 10.02.2020
3158 Snow 2 1025 93 2500 1.83 342 21:46 10.02.2020
3159 Snow 2 1025 93 2500 1.83 342 21:27 10.02.2020
3160 Snow 2 1025 93 2500 1.5 130 20:58 10.02.2020
3161 Snow 2 1025 93 2500 1.5 130 20:39 10.02.2020
3162 Snow 2 1025 94 2500 1.5 130 20:21 10.02.2020
3163 Snow 2 1026 94 3000 1.5 150 19:59 10.02.2020
3164 Snow 2 1026 94 3000 1.5 150 19:39 10.02.2020
3165 Snow 2 1026 94 3000 1.5 150 19:19 10.02.2020
3166 Mist 1 1026 100 5000 2.04 18 18:59 10.02.2020
3167 Mist 1 1026 100 5000 2.04 18 18:40 10.02.2020
3168 Mist 1 1026 100 5000 2.04 18 18:21 10.02.2020
3169 Snow 1 1026 94 3500 1.5 330 17:58 10.02.2020
3170 Snow 1 1026 94 3500 1.5 330 17:38 10.02.2020
3171 Snow 1 1026 93 3500 1.5 330 17:19 10.02.2020
3172 Mist 2 1024 93 3500 2.1 330 16:58 10.02.2020
3173 Mist 3 1024 93 3500 2.1 330 16:40 10.02.2020
3174 Mist 3 1024 93 3500 2.1 330 16:40 10.02.2020
3175 Mist 3 1024 93 3500 2.1 330 16:19 10.02.2020
3176 Rain 4 1024 80 9000 3.1 270 15:56 10.02.2020
3177 Rain 4 1024 80 9000 3.1 270 15:56 10.02.2020
3178 Mist 2 1025 93 6000 5.7 310 15:38 10.02.2020
3179 Mist 2 1025 93 6000 5.7 310 15:20 10.02.2020
3180 Rain 4 1024 69 10000 5.1 310 14:56 10.02.2020
3181 Rain 4 1024 69 10000 5.1 310 14:36 10.02.2020
3182 Rain 5 1024 69 10000 5.1 310 14:18 10.02.2020
3183 Clouds 6 1024 56 10000 2.1 190 13:42 10.02.2020
3184 Clouds 6 1024 56 10000 2.1 190 13:24 10.02.2020
3185 Rain 8 1024 42 10000 3.1 230 12:50 10.02.2020
3186 Rain 8 1024 42 10000 3.1 230 12:26 10.02.2020
3187 Clouds 8 1024 31 7000 2.6 260 11:56 10.02.2020
3188 Clouds 8 1024 31 7000 2.6 260 11:38 10.02.2020
3189 Clouds 8 1024 31 7000 2.6 260 11:20 10.02.2020
3190 Clouds 8 1024 33 7000 2.1 320 10:46 10.02.2020
3191 Clouds 8 1024 33 7000 2.1 320 10:27 10.02.2020
3192 Clouds 8 1025 33 7000 2.1 230 09:48 10.02.2020
3193 Clouds 8 1025 33 7000 2.1 230 09:26 10.02.2020
3194 Clouds 8 1025 31 8000 1 0 08:57 10.02.2020
3195 Clouds 8 1025 31 8000 1 0 08:37 10.02.2020
3196 Clear 7 1025 31 8000 1 0 08:19 10.02.2020
3197 Clouds 4 1026 41 8000 2.6 330 07:50 10.02.2020
3198 Clouds 3 1026 41 8000 2.6 330 07:27 10.02.2020
3199 Clouds 3 1026 44 6000 2.6 320 06:22 10.02.2020
3200 Clouds -2 1025 68 10000 2.6 310 04:42 10.02.2020
3201 Clouds -2 1025 68 8000 3.1 320 03:45 10.02.2020
3202 Clouds -2 1025 68 9000 3.1 320 02:55 10.02.2020
3203 Clouds -2 1024 73 9000 3.1 310 01:57 10.02.2020
3204 Smoke -1 1024 63 5000 2.1 330 00:51 10.02.2020
3205 Smoke -1 1024 63 5000 2.1 330 00:31 10.02.2020
3206 Clouds -1 1025 68 7000 2.6 310 23:57 09.02.2020
3207 Clouds -1 1025 68 7000 2.6 310 23:39 09.02.2020
3208 Clouds -1 1025 68 7000 2.6 310 23:19 09.02.2020
3209 Clouds 0 1026 63 8000 3.1 320 22:41 09.02.2020
3210 Clouds 0 1026 63 8000 3.1 320 22:21 09.02.2020
3211 Smoke 0 1026 63 4000 2.1 330 21:44 09.02.2020
3212 Smoke 0 1026 63 4000 2.1 330 21:25 09.02.2020
3213 Clouds 1 1026 40 6000 3.1 320 20:56 09.02.2020
3214 Clouds 1 1026 40 6000 3.1 320 20:38 09.02.2020
3215 Clouds 1 1026 39 6000 3.1 320 20:18 09.02.2020
3216 Smoke 2 1026 55 5000 3.6 330 19:40 09.02.2020
3217 Smoke 2 1026 55 5000 3.6 330 19:21 09.02.2020
3218 Smoke 2 1026 50 5000 3.6 330 18:57 09.02.2020
3219 Smoke 2 1026 50 5000 3.6 330 18:39 09.02.2020
3220 Smoke 2 1026 50 5000 3.6 330 18:21 09.02.2020
3221 Smoke 2 1026 39 5000 3.6 310 17:42 09.02.2020
3222 Smoke 2 1026 46 5000 3.6 310 17:23 09.02.2020
3223 Smoke 3 1026 55 5000 3.1 330 16:56 09.02.2020
3224 Smoke 3 1026 55 5000 3.1 330 16:38 09.02.2020
3225 Smoke 3 1026 55 5000 3.1 330 16:18 09.02.2020
3226 Clouds 4 1026 44 10000 3.1 330 15:56 09.02.2020
3227 Clouds 4 1026 44 10000 3.1 330 15:38 09.02.2020
3228 Clouds 4 1026 44 10000 3.1 330 15:19 09.02.2020
3229 Clouds 7 1025 38 10000 3.1 310 14:42 09.02.2020
3230 Clouds 7 1025 38 10000 3.1 310 14:23 09.02.2020
3231 Clear 8 1025 31 10000 3.1 300 13:47 09.02.2020
3232 Clear 8 1025 31 10000 3.1 300 13:29 09.02.2020
3233 Clear 10 1025 27 10000 3.1 300 12:58 09.02.2020
3234 Clear 10 1025 27 10000 3.1 300 12:40 09.02.2020
3235 Clear 10 1025 27 10000 3.1 300 12:19 09.02.2020
3236 Clear 9 1025 28 10000 2.6 310 11:55 09.02.2020
3237 Clear 9 1025 28 10000 2.6 310 11:36 09.02.2020
3238 Clear 9 1025 28 10000 2.6 310 11:18 09.02.2020
3239 Clear 8 1026 28 10000 2.1 330 10:42 09.02.2020
3240 Clear 8 1026 28 10000 2.1 330 10:22 09.02.2020
3241 Clear 7 1027 30 10000 2.1 350 09:48 09.02.2020
3242 Clear 7 1027 30 10000 2.1 350 09:28 09.02.2020
3243 Clear 5 1028 38 9000 3.1 340 08:55 09.02.2020
3244 Clear 5 1028 38 9000 3.1 340 08:37 09.02.2020
3245 Clear 5 1028 38 9000 3.1 340 08:19 09.02.2020
3246 Clear 3 1028 37 8000 2.1 350 07:49 09.02.2020
3247 Clear 1 1028 47 6000 3.1 310 06:54 09.02.2020
3248 Clear 1 1028 47 6000 3.1 310 06:36 09.02.2020
3249 Clear -1 1027 50 10000 3.1 310 05:45 09.02.2020
3250 Clear -1 1027 50 10000 3.1 310 05:20 09.02.2020
3251 Mist -3 1025 86 4400 1.59 264 03:53 09.02.2020
3252 Clear -3 1026 62 10000 3.1 330 02:47 09.02.2020
3253 Clear -3 1026 62 10000 3.1 330 02:26 09.02.2020
3254 Clear -3 1026 58 10000 3.6 320 01:35 09.02.2020
3255 Clear -3 1026 63 8000 3.1 320 00:48 09.02.2020
3256 Clear -3 1026 63 8000 3.1 320 00:27 09.02.2020
3257 Clear -2 1026 63 6000 2.6 320 23:44 08.02.2020
3258 Clear -2 1026 63 6000 2.6 320 23:22 08.02.2020
3259 Clear -1 1026 58 8000 3.1 320 22:55 08.02.2020
3260 Clear -1 1026 58 8000 3.1 320 22:36 08.02.2020
3261 Clear -1 1026 58 8000 3.1 320 22:18 08.02.2020
3262 Smoke -1 1027 58 2500 2.6 330 21:41 08.02.2020
3263 Smoke -1 1027 58 2500 2.6 330 21:23 08.02.2020
3264 Smoke -2 1027 63 4000 2.1 310 20:58 08.02.2020
3265 Smoke -2 1027 63 4000 2.1 310 20:39 08.02.2020
3266 Smoke -2 1027 63 4000 2.1 310 20:19 08.02.2020
3267 Smoke -1 1027 58 5000 3.1 320 19:55 08.02.2020
3268 Smoke -1 1027 58 5000 3.1 320 19:37 08.02.2020
3269 Smoke -1 1027 58 2500 3.1 320 19:19 08.02.2020
3270 Smoke -1 1027 58 2500 3.1 320 19:19 08.02.2020
3271 Smoke 0 1027 58 2500 3.1 320 18:43 08.02.2020
3272 Clear 1 1027 43 8000 3.6 330 18:24 08.02.2020
3273 Clear 2 1027 40 7000 4.1 340 17:44 08.02.2020
3274 Clear 2 1027 40 7000 4.1 340 17:22 08.02.2020
3275 Smoke 1 1027 50 5000 4.1 310 16:59 08.02.2020
3276 Smoke 1 1027 50 5000 4.1 310 16:40 08.02.2020
3277 Smoke 1 1027 50 5000 4.1 310 16:21 08.02.2020
3278 Smoke 3 1026 47 6000 3.1 320 15:44 08.02.2020
3279 Smoke 3 1026 47 6000 3.1 320 15:20 08.02.2020
3280 Clear 6 1025 38 8000 2.1 310 14:59 08.02.2020
3281 Clear 6 1025 38 8000 2.1 310 14:41 08.02.2020
3282 Clear 6 1025 38 8000 2.1 310 14:19 08.02.2020
3283 Clear 8 1025 26 8000 3.1 310 13:43 08.02.2020
3284 Clear 8 1025 26 8000 3.1 310 13:23 08.02.2020
3285 Clear 9 1025 24 9000 3.1 300 12:57 08.02.2020
3286 Clear 9 1025 24 9000 3.1 300 12:38 08.02.2020
3287 Clear 9 1025 24 9000 3.1 300 12:19 08.02.2020
3288 Clear 9 1026 24 9000 3.1 310 11:43 08.02.2020
3289 Clear 9 1026 24 9000 3.1 310 11:22 08.02.2020
3290 Clear 9 1026 24 9000 1.5 0 10:57 08.02.2020
3291 Clear 9 1026 24 9000 1.5 0 10:38 08.02.2020
3292 Clear 9 1026 24 9000 1.5 0 10:20 08.02.2020
3293 Clear 7 1027 28 9000 1.5 170 09:49 08.02.2020
3294 Clear 7 1027 28 9000 1.5 170 09:24 08.02.2020
3295 Haze 6 1028 33 7000 1 130 08:46 08.02.2020
3296 Haze 6 1028 33 7000 1 130 08:24 08.02.2020
3297 Haze 4 1028 27 8000 2.1 270 07:53 08.02.2020
3298 Haze 4 1028 27 8000 2.1 270 07:34 08.02.2020
3299 Haze 1 1028 40 6000 2.6 310 06:54 08.02.2020
3300 Haze 1 1028 40 6000 2.6 310 06:21 08.02.2020
3301 Clear -2 1028 50 5000 3.6 310 05:34 08.02.2020
3302 Clear -5 1027 62 10000 3.1 320 04:54 08.02.2020
3303 Clear -5 1027 62 10000 3.1 320 04:24 08.02.2020
3304 Clear -5 1026 57 10000 3.6 320 03:37 08.02.2020
3305 Clear -3 1026 58 10000 3.6 330 02:29 08.02.2020
3306 Clear -4 1026 58 9000 3.1 330 01:33 08.02.2020
3307 Clear -4 1026 62 9000 3.6 310 00:47 08.02.2020
3308 Clear -4 1026 62 9000 3.6 310 00:25 08.02.2020
3309 Clear -2 1026 58 9000 3.6 320 23:58 07.02.2020
3310 Clear -2 1026 58 9000 3.6 320 23:39 07.02.2020
3311 Clear -2 1026 58 9000 3.6 320 23:20 07.02.2020
3312 Clear -3 1027 58 6000 3.1 320 22:42 07.02.2020
3313 Clear -3 1027 58 6000 3.1 320 22:42 07.02.2020
3314 Clear -3 1027 58 6000 3.1 320 22:20 07.02.2020
3315 Clear -2 1026 63 7000 2.6 320 21:58 07.02.2020
3316 Clear -2 1026 63 7000 2.6 320 21:40 07.02.2020
3317 Clear -2 1026 63 7000 2.6 320 21:19 07.02.2020
3318 Clear -2 1027 58 6000 3.1 330 20:39 07.02.2020
3319 Clear -2 1027 58 6000 3.1 330 20:19 07.02.2020
3320 Smoke -1 1027 58 2500 3.1 320 19:55 07.02.2020
3321 Smoke -1 1027 58 2500 3.1 320 19:36 07.02.2020
3322 Smoke -1 1027 54 5000 3.6 330 19:18 07.02.2020
3323 Clear 0 1027 54 6000 3.1 330 18:43 07.02.2020
3324 Clear 0 1027 54 6000 3.1 330 18:25 07.02.2020
3325 Clear 0 1026 54 6000 3.6 320 17:55 07.02.2020
3326 Clear 0 1026 54 6000 3.6 320 17:37 07.02.2020
3327 Clear 0 1026 54 6000 3.6 320 17:18 07.02.2020
3328 Clear 1 1026 43 6000 3.6 330 16:42 07.02.2020
3329 Clear 2 1026 43 6000 3.6 330 16:23 07.02.2020
3330 Clear 2 1025 43 6000 2.6 330 15:53 07.02.2020
3331 Clear 2 1025 43 6000 2.6 330 15:28 07.02.2020
3332 Clear 5 1025 30 9000 2.6 250 14:55 07.02.2020
3333 Clear 5 1025 30 9000 2.6 250 14:37 07.02.2020
3334 Clear 5 1025 30 9000 2.6 250 14:19 07.02.2020
3335 Clear 7 1024 24 10000 1.5 240 13:56 07.02.2020
3336 Clear 7 1024 24 10000 1.5 240 13:38 07.02.2020
3337 Clear 7 1024 24 10000 1.5 240 13:19 07.02.2020
3338 Clear 8 1024 20 10000 1.5 0 12:41 07.02.2020
3339 Clear 8 1024 20 10000 1.5 0 12:23 07.02.2020
3340 Clear 7 1024 24 10000 2.6 330 11:45 07.02.2020
3341 Clear 7 1024 24 10000 2.6 330 11:23 07.02.2020
3342 Clear 6 1025 22 10000 1.5 0 10:58 07.02.2020
3343 Clear 6 1025 22 10000 1.5 0 10:38 07.02.2020
3344 Clear 6 1025 22 10000 1.5 0 10:19 07.02.2020
3345 Clear 5 1025 25 10000 1.5 0 09:41 07.02.2020
3346 Clear 5 1025 25 10000 1.5 0 09:22 07.02.2020
3347 Clear 4 1026 25 10000 1.5 0 08:47 07.02.2020
3348 Clear 4 1026 25 10000 1.5 0 08:23 07.02.2020
3349 Clear 3 1026 32 10000 4.1 290 07:54 07.02.2020
3350 Clear 3 1026 32 10000 4.1 290 07:33 07.02.2020
3351 Haze 1 1026 40 9000 1.5 170 06:59 07.02.2020
3352 Haze 1 1026 40 9000 1.5 170 06:40 07.02.2020
3353 Haze 1 1026 40 9000 1.5 170 06:19 07.02.2020
3354 Haze -2 1026 39 8000 3.6 340 05:37 07.02.2020
3355 Haze -4 1024 68 9000 2.36 228 03:51 07.02.2020
3356 Clear -5 1023 62 10000 2.6 300 02:23 07.02.2020
3357 Clear -3 1023 49 10000 4.1 340 01:21 07.02.2020
3358 Clear -3 1022 53 10000 3.6 340 00:28 07.02.2020
3359 Clear -2 1023 50 10000 2.6 350 23:39 06.02.2020
3360 Clear -2 1023 50 10000 2.6 350 23:39 06.02.2020
3361 Clear -2 1023 50 10000 2.6 350 23:19 06.02.2020
3362 Clear -2 1022 50 10000 3.6 350 22:48 06.02.2020
3363 Clear -2 1022 50 10000 3.6 350 22:27 06.02.2020
3364 Clear -1 1022 50 8000 3.6 340 21:59 06.02.2020
3365 Clear -1 1022 50 8000 3.6 340 21:36 06.02.2020
3366 Clear -1 1022 50 8000 3.6 340 21:18 06.02.2020
3367 Clear -1 1022 54 8000 4.1 330 20:55 06.02.2020
3368 Clear -1 1022 54 8000 4.1 330 20:36 06.02.2020
3369 Clear -1 1022 54 8000 4.1 330 20:18 06.02.2020
3370 Clear -1 1022 54 8000 3.1 350 19:56 06.02.2020
3371 Clear -1 1022 54 8000 3.1 350 19:37 06.02.2020
3372 Clear -1 1022 54 8000 3.1 350 19:19 06.02.2020
3373 Clear 1 1022 39 6000 2.6 340 18:42 06.02.2020
3374 Clear 1 1022 39 6000 2.6 340 18:24 06.02.2020
3375 Clear 2 1022 47 6000 3.1 360 17:58 06.02.2020
3376 Clear 2 1022 47 6000 3.1 360 17:58 06.02.2020
3377 Clear 2 1022 47 6000 3.1 360 17:40 06.02.2020
3378 Haze 2 1020 51 9000 2.6 280 17:20 06.02.2020
3379 Clear 1 1021 47 7000 3.6 320 16:43 06.02.2020
3380 Clear 1 1021 47 7000 3.6 320 16:25 06.02.2020
3381 Clear 2 1021 43 10000 2.1 300 15:44 06.02.2020
3382 Clear 2 1021 43 10000 2.1 300 15:24 06.02.2020
3383 Clear 4 1020 29 10000 4.1 240 14:58 06.02.2020
3384 Clear 4 1020 29 10000 4.1 240 14:40 06.02.2020
3385 Clear 4 1020 29 10000 4.1 240 14:22 06.02.2020
3386 Clear 7 1019 26 10000 2.1 0 13:43 06.02.2020
3387 Clear 7 1019 26 10000 2.1 0 13:25 06.02.2020
3388 Clouds 8 1019 26 10000 3.6 220 12:45 06.02.2020
3389 Clouds 8 1019 26 10000 3.6 220 12:20 06.02.2020
3390 Clouds 8 1019 24 10000 1.5 0 11:58 06.02.2020
3391 Clouds 8 1019 24 10000 1.5 0 11:40 06.02.2020
3392 Clouds 8 1019 24 10000 1.5 0 11:21 06.02.2020
3393 Clouds 8 1020 24 10000 1.5 0 10:57 06.02.2020
3394 Clouds 8 1020 24 10000 1.5 0 10:39 06.02.2020
3395 Clouds 8 1020 24 10000 1.5 0 10:21 06.02.2020
3396 Clouds 7 1020 28 10000 2.6 0 09:57 06.02.2020
3397 Clouds 7 1020 28 10000 2.6 0 09:57 06.02.2020
3398 Clouds 7 1020 28 10000 2.6 0 09:37 06.02.2020
3399 Clouds 7 1020 28 10000 2.6 0 09:19 06.02.2020
3400 Smoke 2 1021 37 7000 2.1 340 08:41 06.02.2020
3401 Smoke 2 1021 37 7000 2.1 340 08:22 06.02.2020
3402 Smoke 0 1021 55 7000 2.6 330 07:51 06.02.2020
3403 Smoke 0 1021 55 7000 2.6 330 07:28 06.02.2020
3404 Smoke -1 1021 50 6000 3.1 300 06:37 06.02.2020
3405 Smoke -1 1021 50 6000 3.1 300 06:37 06.02.2020
3406 Smoke -1 1021 50 6000 3.1 300 06:37 06.02.2020
3407 Smoke -1 1021 50 6000 3.1 300 06:18 06.02.2020
3408 Haze -4 1019 68 5000 2.6 260 04:53 06.02.2020
3409 Clear -6 1020 67 10000 2.1 310 03:21 06.02.2020
3410 Clear -6 1020 67 10000 2.1 310 03:21 06.02.2020
3411 Clear -5 1019 62 10000 3.1 330 02:37 06.02.2020
3412 Clouds -4 1019 62 10000 2.6 330 01:37 06.02.2020
3413 Clouds -4 1020 67 10000 3.6 330 00:58 06.02.2020
3414 Clouds -4 1020 67 10000 3.6 330 00:26 06.02.2020
3415 Clouds -3 1021 62 10000 4.6 310 23:47 05.02.2020
3416 Clouds -3 1021 62 10000 4.6 310 23:29 05.02.2020
3417 Haze -2 1020 79 4400 1.63 223 22:58 05.02.2020
3418 Haze -2 1020 79 4400 1.63 223 22:40 05.02.2020
3419 Haze -2 1020 79 4400 1.63 223 22:21 05.02.2020
3420 Clouds -3 1022 63 8000 3.6 320 21:43 05.02.2020
3421 Clouds -3 1022 63 8000 3.6 320 21:25 05.02.2020
3422 Clouds -3 1022 58 8000 3.6 320 20:59 05.02.2020
3423 Clouds -3 1022 58 8000 3.6 320 20:39 05.02.2020
3424 Clouds -3 1022 58 8000 3.6 320 20:39 05.02.2020
3425 Clouds -3 1022 58 8000 3.6 320 20:39 05.02.2020
3426 Clouds -3 1022 58 8000 3.6 320 20:19 05.02.2020
3427 Clouds -3 1023 58 6000 4.6 320 19:57 05.02.2020
3428 Clouds -3 1023 58 6000 4.6 320 19:38 05.02.2020
3429 Clouds -3 1023 58 6000 4.6 320 19:19 05.02.2020
3430 Clouds -3 1023 58 6000 4.6 320 19:19 05.02.2020
3431 Clouds -2 1023 54 6000 4.1 330 18:45 05.02.2020
3432 Clouds -2 1023 54 6000 4.1 330 18:22 05.02.2020
3433 Clouds -2 1023 54 6000 3.6 350 17:59 05.02.2020
3434 Clouds -2 1023 54 6000 3.6 350 17:37 05.02.2020
3435 Clouds -2 1023 54 6000 3.6 350 17:37 05.02.2020
3436 Clouds -1 1023 54 6000 3.6 350 17:18 05.02.2020
3437 Clouds -1 1023 58 6000 3.6 330 16:56 05.02.2020
3438 Clouds -1 1023 58 6000 3.6 330 16:37 05.02.2020
3439 Clouds -1 1023 58 6000 3.6 330 16:18 05.02.2020
3440 Clouds 0 1023 54 9000 2.6 340 15:42 05.02.2020
3441 Clouds 0 1023 54 9000 2.6 340 15:19 05.02.2020
3442 Clouds 1 1022 43 9000 3.1 270 14:55 05.02.2020
3443 Clouds 1 1022 43 9000 3.1 270 14:37 05.02.2020
3444 Haze 2 1021 69 5000 1.5 100 14:19 05.02.2020
3445 Clouds 2 1022 43 9000 2.6 300 13:41 05.02.2020
3446 Clouds 2 1022 43 9000 2.6 300 13:22 05.02.2020
3447 Clouds 3 1022 40 8000 3.1 260 12:44 05.02.2020
3448 Clouds 3 1022 40 8000 3.1 260 12:25 05.02.2020
3449 Clouds 2 1022 43 8000 3.1 290 11:57 05.02.2020
3450 Clouds 2 1022 43 8000 3.1 290 11:39 05.02.2020
3451 Clouds 2 1022 43 8000 3.1 290 11:20 05.02.2020
3452 Smoke 3 1023 41 8000 2.6 300 10:43 05.02.2020
3453 Smoke 3 1023 41 8000 2.6 300 10:25 05.02.2020
3454 Haze 3 1023 64 4400 1.5 0 09:58 05.02.2020
3455 Smoke 2 1024 40 8000 1.5 0 09:38 05.02.2020
3456 Haze 1 1023 69 4000 2.6 130 09:20 05.02.2020
3457 Clouds 0 1025 76 8000 2.6 310 08:45 05.02.2020
3458 Clouds 0 1025 66 8000 2.6 310 08:24 05.02.2020
3459 Smoke -1 1026 58 7000 3.6 330 07:55 05.02.2020
3460 Smoke -1 1026 58 7000 3.6 330 07:34 05.02.2020
3461 Smoke -3 1026 58 7000 3.1 310 06:50 05.02.2020
3462 Smoke -3 1026 58 7000 3.1 310 06:23 05.02.2020
3463 Smoke -4 1025 62 7000 2.1 320 05:58 05.02.2020
3464 Smoke -4 1025 62 7000 2.1 320 05:19 05.02.2020
3465 Smoke -5 1025 67 8000 2.1 320 04:52 05.02.2020
3466 Mist -5 1024 100 2000 1.37 239 03:52 05.02.2020
3467 Mist -5 1024 92 1400 1.37 239 02:26 05.02.2020
3468 Mist -5 1024 92 1200 1.19 276 01:46 05.02.2020
3469 Mist -5 1024 79 4000 1.5 280 00:43 05.02.2020
3470 Mist -5 1023 100 1000 1.14 267 23:57 04.02.2020
3471 Mist -5 1024 79 2500 0.5 170 23:38 04.02.2020
3472 Mist -5 1024 79 2500 0.5 170 23:18 04.02.2020
3473 Mist -4 1024 79 3000 2.1 260 22:54 04.02.2020
3474 Mist -4 1024 79 3000 2.1 260 22:36 04.02.2020
3475 Mist -4 1024 79 3000 2.1 260 22:18 04.02.2020
3476 Mist -3 1024 86 4000 2.1 260 21:41 04.02.2020
3477 Mist -3 1024 86 4000 2.1 260 21:41 04.02.2020
3478 Mist -3 1024 86 4000 2.1 260 21:19 04.02.2020
3479 Mist -3 1025 100 1200 1.5 150 20:59 04.02.2020
3480 Mist -3 1025 100 1200 1.5 150 20:41 04.02.2020
3481 Mist -3 1025 100 1200 1.5 150 20:20 04.02.2020
3482 Mist -2 1025 100 1200 0.5 360 19:57 04.02.2020
3483 Mist -2 1025 100 1200 0.5 360 19:39 04.02.2020
3484 Mist -3 1024 92 5000 1.71 280 19:21 04.02.2020
3485 Fog -3 1024 92 200 1.5 130 18:55 04.02.2020
3486 Fog -3 1024 92 200 1.5 130 18:36 04.02.2020
3487 Fog -3 1024 92 200 1.5 130 18:36 04.02.2020
3488 Fog -3 1024 92 200 1.5 130 18:18 04.02.2020
3489 Fog -3 1024 100 200 1.5 110 17:42 04.02.2020
3490 Fog -3 1024 100 200 1.5 110 17:21 04.02.2020
3491 Fog -2 1023 100 700 2.1 140 16:55 04.02.2020
3492 Fog -2 1023 100 700 2.1 140 16:36 04.02.2020
3493 Haze -1 1023 77 6000 1.87 281 16:18 04.02.2020
3494 Mist -1 1022 92 3500 3.1 70 15:55 04.02.2020
3495 Mist -1 1022 92 3500 3.1 70 15:37 04.02.2020
3496 Mist -1 1022 92 3500 3.1 70 15:18 04.02.2020
3497 Mist 0 1022 77 5000 1 0 14:41 04.02.2020
3498 Mist 1 1021 86 9000 1.5 170 14:21 04.02.2020
3499 Clouds 1 1021 80 6000 4.1 70 13:56 04.02.2020
3500 Clouds 1 1021 80 6000 4.1 70 13:38 04.02.2020
3501 Clouds 2 1020 80 10000 0.63 48 13:18 04.02.2020
3502 Clouds 2 1020 74 6000 4.1 350 12:43 04.02.2020
3503 Clouds 2 1020 74 6000 4.1 350 12:24 04.02.2020
3504 Clouds 3 1020 64 7000 1 0 11:57 04.02.2020
3505 Clouds 3 1020 64 7000 1 0 11:57 04.02.2020
3506 Clouds 3 1020 64 7000 1 0 11:39 04.02.2020
3507 Clouds 3 1020 64 7000 1 0 11:19 04.02.2020
3508 Clouds 3 1020 51 8000 2.6 190 10:49 04.02.2020
3509 Clouds 2 1019 80 10000 1.77 110 10:27 04.02.2020
3510 Clouds 2 1020 80 10000 1.77 110 09:58 04.02.2020
3511 Clouds 2 1020 55 10000 2.6 180 09:39 04.02.2020
3512 Clouds 2 1020 55 10000 2.6 180 09:21 04.02.2020
3513 Rain 2 1020 59 9000 4.1 190 08:47 04.02.2020
3514 Rain 1 1020 89 2000 1.5 50 08:28 04.02.2020
3515 Clouds 2 1020 69 6000 1.5 120 07:56 04.02.2020
3516 Clouds 2 1020 69 6000 1.5 120 07:37 04.02.2020
3517 Clouds 2 1020 69 6000 1.5 120 07:37 04.02.2020
3518 Mist 2 1020 64 4000 1 0 07:18 04.02.2020
3519 Rain 1 1020 80 3000 1 0 06:41 04.02.2020
3520 Rain -1 1020 100 2800 1 330 05:35 04.02.2020
3521 Rain -1 1019 100 1500 1 0 04:41 04.02.2020
3522 Rain -1 1019 92 2000 1.5 360 03:49 04.02.2020
3523 Rain -1 1018 92 1200 2.1 330 03:30 04.02.2020
3524 Snow -1 1017 93 800 0.89 261 02:48 04.02.2020
3525 Rain -1 1018 92 800 2.6 320 02:27 04.02.2020
3526 Rain -1 1018 100 1500 1.5 330 01:46 04.02.2020
3527 Rain -1 1018 100 1500 1.5 330 01:19 04.02.2020
3528 Rain -1 1018 100 1500 1.5 330 00:23 04.02.2020
3529 Snow -1 1018 92 2000 1.5 0 23:49 03.02.2020
3530 Snow -1 1018 92 2000 1.5 0 23:30 03.02.2020
3531 Snow 0 1017 97 1400 1.5 21 22:58 03.02.2020
3532 Snow 0 1017 97 1400 1.5 21 22:58 03.02.2020
3533 Snow -1 1018 92 2500 0.5 330 22:38 03.02.2020
3534 Snow -1 1018 92 2500 0.5 330 22:19 03.02.2020
3535 Snow -1 1019 92 2800 1.5 21 21:41 03.02.2020
3536 Snow -1 1019 92 2800 1.5 21 21:20 03.02.2020
3537 Mist -1 1019 92 2800 1.5 110 20:55 03.02.2020
3538 Mist -1 1019 92 2800 1.5 110 20:37 03.02.2020
3539 Mist -1 1019 92 2800 1.5 110 20:18 03.02.2020
3540 Snow -1 1020 92 2800 1.5 100 19:41 03.02.2020
3541 Snow -1 1020 92 2500 1.44 23 19:22 03.02.2020
3542 Snow -1 1020 92 2500 1.44 23 18:57 03.02.2020
3543 Snow -1 1020 92 2500 1.44 23 18:38 03.02.2020
3544 Snow -1 1020 92 2500 1.44 23 18:20 03.02.2020
3545 Snow -1 1020 92 2500 1.44 23 18:20 03.02.2020
3546 Snow 0 1020 97 2800 1.44 23 17:56 03.02.2020
3547 Snow 0 1021 92 2800 1.5 330 17:38 03.02.2020
3548 Snow 0 1021 92 2800 1.5 330 17:19 03.02.2020
3549 Snow 0 1021 92 2800 2.6 360 16:40 03.02.2020
3550 Snow 0 1021 92 2800 2.6 360 16:21 03.02.2020
3551 Snow 0 1020 100 1600 1 330 15:56 03.02.2020
3552 Snow 0 1020 100 1600 1 330 15:38 03.02.2020
3553 Snow 0 1020 100 1600 1 330 15:19 03.02.2020
3554 Mist 1 1019 96 4400 2.04 6 14:45 03.02.2020
3555 Mist 1 1019 96 4400 2.04 6 14:45 03.02.2020
3556 Snow 1 1020 96 2400 1 160 14:27 03.02.2020
3557 Snow 1 1020 89 2400 3.03 25 13:59 03.02.2020
3558 Snow 1 1020 89 2400 3.03 25 13:41 03.02.2020
3559 Snow 2 1020 74 5000 1.5 180 13:20 03.02.2020
3560 Haze 2 1019 74 9000 3.6 280 12:56 03.02.2020
3561 Haze 2 1019 74 9000 3.6 280 12:37 03.02.2020
3562 Haze 2 1019 74 9000 3.6 280 12:19 03.02.2020
3563 Haze 3 1020 51 2400 1 130 11:40 03.02.2020
3564 Haze 3 1020 51 2400 1 130 11:20 03.02.2020
3565 Haze 3 1020 51 2400 1 130 11:20 03.02.2020
3566 Haze 3 1020 51 2400 1 130 11:20 03.02.2020
3567 Haze 1 1021 55 2400 1.5 230 10:58 03.02.2020
3568 Haze 1 1021 55 2400 1.5 230 10:39 03.02.2020
3569 Haze 1 1021 55 2400 1.5 230 10:20 03.02.2020
3570 Haze 2 1022 47 4000 3.1 300 09:41 03.02.2020
3571 Haze 2 1022 47 4000 3.1 300 09:20 03.02.2020
3572 Smoke 1 1023 80 4000 1 330 08:41 03.02.2020
3573 Smoke 1 1023 58 4000 1 330 08:23 03.02.2020
3574 Smoke 0 1023 50 4000 2.6 340 07:58 03.02.2020
3575 Smoke 0 1023 50 4000 2.6 340 07:39 03.02.2020
3576 Smoke 0 1023 50 4000 2.6 340 07:20 03.02.2020
3577 Smoke 0 1023 50 4000 2.6 340 07:20 03.02.2020
3578 Smoke 0 1023 50 4000 2.6 340 07:20 03.02.2020
3579 Smoke 0 1023 50 4000 2.6 340 07:20 03.02.2020
3580 Smoke -1 1023 58 3000 3.6 310 06:43 03.02.2020
3581 Smoke -1 1023 58 3000 3.6 310 06:24 03.02.2020
3582 Smoke -2 1023 58 3000 3.1 300 05:36 03.02.2020
3583 Clouds -3 1023 58 10000 2.6 280 04:56 03.02.2020
3584 Clouds -3 1022 68 10000 3.6 310 02:58 03.02.2020
3585 Clouds -3 1022 68 10000 3.6 310 02:33 03.02.2020
3586 Clouds -3 1023 63 10000 3.1 310 01:25 03.02.2020
3587 Mist -3 1022 79 5000 2.1 240 00:45 03.02.2020
3588 Clouds -3 1023 63 10000 3.6 320 00:21 03.02.2020
3589 Clouds -3 1024 63 9000 3.6 320 23:38 02.02.2020
3590 Clouds -3 1024 63 9000 3.6 320 23:20 02.02.2020
3591 Clouds -2 1024 63 9000 3.6 330 22:57 02.02.2020
3592 Clouds -2 1024 63 9000 3.6 330 22:37 02.02.2020
3593 Clouds -2 1024 63 9000 3.6 330 22:19 02.02.2020
3594 Clouds -2 1025 63 9000 4.1 320 21:42 02.02.2020
3595 Clouds -2 1025 63 9000 4.1 320 21:24 02.02.2020
3596 Clouds -2 1025 58 8000 3.6 330 20:58 02.02.2020
3597 Clouds -2 1025 58 8000 3.6 330 20:39 02.02.2020
3598 Clouds -2 1025 58 8000 3.6 330 20:21 02.02.2020
3599 Clouds -1 1025 54 8000 3.1 340 19:59 02.02.2020
3600 Clouds -1 1025 54 8000 3.1 340 19:41 02.02.2020
3601 Clouds -1 1025 54 8000 3.1 340 19:23 02.02.2020
3602 Clouds 0 1025 54 8000 3.1 330 18:58 02.02.2020
3603 Clouds 0 1025 54 8000 3.1 330 18:38 02.02.2020
3604 Clouds 0 1025 54 8000 3.1 330 18:20 02.02.2020
3605 Clouds 0 1025 48 8000 3.1 320 17:58 02.02.2020
3606 Clouds 0 1025 48 8000 3.1 320 17:38 02.02.2020
3607 Clouds 0 1025 56 8000 3.1 320 17:18 02.02.2020
3608 Clouds 0 1024 56 7000 3.6 320 16:58 02.02.2020
3609 Clouds 0 1024 56 7000 3.6 320 16:38 02.02.2020
3610 Clouds 0 1024 56 7000 3.6 320 16:19 02.02.2020
3611 Clouds 1 1024 47 8000 4.1 320 15:57 02.02.2020
3612 Clouds 1 1024 47 8000 4.1 320 15:38 02.02.2020
3613 Clouds 1 1024 47 8000 4.1 320 15:19 02.02.2020
3614 Clouds 1 1024 47 8000 4.1 320 15:19 02.02.2020
3615 Clouds 3 1023 44 9000 3.1 330 14:45 02.02.2020
3616 Clear 3 1023 44 9000 3.1 330 14:20 02.02.2020
3617 Clear 6 1023 33 10000 2.1 280 13:59 02.02.2020
3618 Clear 6 1023 33 10000 2.1 280 13:41 02.02.2020
3619 Clear 6 1023 33 10000 2.1 280 13:22 02.02.2020
3620 Clear 6 1023 33 10000 2.1 260 12:58 02.02.2020
3621 Clear 6 1023 33 10000 2.1 260 12:40 02.02.2020
3622 Clear 6 1023 33 10000 2.1 260 12:22 02.02.2020
3623 Clear 6 1024 32 10000 1.5 0 11:54 02.02.2020
3624 Clear 6 1024 32 10000 1.5 0 11:36 02.02.2020
3625 Clear 6 1024 32 10000 1.5 0 11:18 02.02.2020
3626 Clear 5 1024 35 10000 1.5 0 10:54 02.02.2020
3627 Clear 5 1024 35 10000 1.5 0 10:36 02.02.2020
3628 Clear 5 1024 35 10000 1.5 0 10:18 02.02.2020
3629 Clear 4 1025 35 10000 2.1 330 09:40 02.02.2020
3630 Clear 4 1025 35 10000 2.1 330 09:21 02.02.2020
3631 Clear 4 1025 35 10000 2.1 330 09:21 02.02.2020
3632 Clear 3 1026 40 10000 1.5 0 08:49 02.02.2020
3633 Clear 3 1026 40 10000 1.5 0 08:30 02.02.2020
3634 Clear 1 1027 43 10000 4.1 320 07:49 02.02.2020
3635 Clear 1 1027 43 10000 4.1 320 07:49 02.02.2020
3636 Clear 1 1027 43 10000 4.1 320 07:31 02.02.2020
3637 Haze -1 1026 50 9000 3.1 310 06:57 02.02.2020
3638 Haze -1 1026 50 9000 3.1 310 06:38 02.02.2020
3639 Haze -1 1026 50 9000 3.1 310 06:18 02.02.2020
3640 Haze -3 1026 53 7000 2.6 300 05:20 02.02.2020
3641 Clear -5 1025 62 10000 3.6 330 03:43 02.02.2020
3642 Clear -5 1025 62 10000 3.6 330 03:23 02.02.2020
3643 Clear -4 1025 62 10000 4.1 330 02:20 02.02.2020
3644 Clear -4 1025 62 10000 3.6 330 01:50 02.02.2020
3645 Clear -3 1025 62 9000 4.6 320 00:51 02.02.2020
3646 Clear -3 1025 62 9000 4.6 320 00:25 02.02.2020
3647 Clear -3 1025 68 9000 4.1 320 23:57 01.02.2020
3648 Clear -3 1025 68 9000 4.1 320 23:57 01.02.2020
3649 Clear -3 1025 68 9000 4.1 320 23:38 01.02.2020
3650 Clear -4 1025 68 9000 4.1 320 23:19 01.02.2020
3651 Clear -3 1025 63 9000 3.6 320 22:43 01.02.2020
3652 Clear -3 1025 63 9000 3.6 320 22:18 01.02.2020
3653 Clear -3 1025 68 8000 3.1 330 21:41 01.02.2020
3654 Clear -3 1025 68 8000 3.1 330 21:19 01.02.2020
3655 Clear -3 1025 68 8000 4.1 320 20:55 01.02.2020
3656 Clear -3 1025 68 8000 4.1 320 20:37 01.02.2020
3657 Clear -3 1025 68 8000 4.1 320 20:18 01.02.2020
3658 Clear -2 1026 63 6000 3.1 330 19:55 01.02.2020
3659 Clear -2 1026 63 6000 3.1 330 19:36 01.02.2020
3660 Clear -2 1026 63 6000 3.1 330 19:18 01.02.2020
3661 Clear -1 1026 58 6000 3.1 330 18:55 01.02.2020
3662 Clear -1 1026 58 6000 3.1 330 18:36 01.02.2020
3663 Clear -1 1026 58 6000 3.1 330 18:18 01.02.2020
3664 Smoke 0 1025 42 5000 3.1 340 17:45 01.02.2020
3665 Smoke 0 1025 52 5000 3.1 340 17:21 01.02.2020
3666 Smoke 0 1025 52 5000 3.1 340 17:21 01.02.2020
3667 Clear -1 1025 58 5000 3.6 310 16:59 01.02.2020
3668 Clear -1 1025 58 5000 3.6 310 16:39 01.02.2020
3669 Clear -1 1025 58 5000 3.6 310 16:21 01.02.2020
3670 Clear 1 1024 50 8000 2.6 330 15:46 01.02.2020
3671 Clear 1 1024 50 8000 2.6 330 15:27 01.02.2020
3672 Clear 3 1023 51 10000 2.6 300 14:58 01.02.2020
3673 Clear 3 1023 51 10000 2.6 300 14:39 01.02.2020
3674 Clear 3 1023 51 10000 2.6 300 14:20 01.02.2020
3675 Clear 5 1023 32 10000 1.5 310 13:45 01.02.2020
3676 Clear 5 1023 32 10000 1.5 310 13:21 01.02.2020
3677 Clear 6 1023 33 10000 1.5 310 12:44 01.02.2020
3678 Clear 6 1023 33 10000 1.5 310 12:26 01.02.2020
3679 Clear 6 1023 30 10000 2.1 270 11:57 01.02.2020
3680 Clear 6 1023 30 10000 2.1 270 11:38 01.02.2020
3681 Clear 6 1023 30 10000 2.1 270 11:19 01.02.2020
3682 Clear 5 1023 32 10000 3.1 280 10:55 01.02.2020
3683 Clear 5 1023 32 10000 3.1 280 10:37 01.02.2020
3684 Clear 5 1023 32 10000 3.1 280 10:37 01.02.2020
3685 Clear 5 1023 32 10000 3.1 280 10:19 01.02.2020
3686 Clear 3 1024 34 10000 3.1 200 09:42 01.02.2020
3687 Clear 3 1024 34 10000 3.1 200 09:23 01.02.2020
3688 Clear 4 1024 41 10000 1 250 09:00 01.02.2020
3689 Clear 4 1024 41 10000 1 250 08:38 01.02.2020
3690 Clear 2 1024 43 10000 1.5 230 07:47 01.02.2020
3691 Clear 2 1024 43 10000 1.5 230 07:25 01.02.2020
3692 Clear 2 1024 43 10000 1.5 230 07:25 01.02.2020
3693 Clear 2 1024 43 10000 1.5 230 07:25 01.02.2020
3694 Haze 0 1024 54 9000 2.6 310 06:50 01.02.2020
3695 Haze 0 1024 54 9000 2.6 310 06:19 01.02.2020
3696 Clear -2 1023 63 10000 4.1 320 05:51 01.02.2020
3697 Clear -4 1021 68 10000 4.1 320 03:40 01.02.2020
3698 Clear -4 1021 68 10000 4.1 320 03:20 01.02.2020
3699 Clear -4 1021 79 10000 2.6 320 02:43 01.02.2020
3700 Clear -4 1021 79 10000 2.6 320 02:22 01.02.2020
3701 Clear -4 1020 73 10000 2.6 330 01:48 01.02.2020
3702 Clear -4 1020 73 10000 2.6 330 01:28 01.02.2020
3703 Clear -3 1020 79 9000 3.6 310 00:25 01.02.2020
3704 Clear -3 1020 73 9000 3.6 320 23:42 31.01.2020
3705 Clear -3 1020 73 9000 3.6 320 23:19 31.01.2020
3706 Clear -2 1020 74 9000 3.6 340 22:58 31.01.2020
3707 Clear -2 1020 74 9000 3.6 340 22:58 31.01.2020
3708 Clear -2 1020 74 9000 3.6 340 22:40 31.01.2020
3709 Clear -2 1020 74 9000 3.6 340 22:21 31.01.2020
3710 Clear -2 1020 74 9000 3.6 330 21:55 31.01.2020
3711 Clear -2 1020 74 9000 3.6 330 21:37 31.01.2020
3712 Clear -2 1020 74 9000 3.6 330 21:19 31.01.2020
3713 Clear -1 1020 74 8000 3.1 340 20:55 31.01.2020
3714 Clear -1 1020 74 8000 3.1 340 20:37 31.01.2020
3715 Clouds -1 1020 74 8000 3.1 340 20:18 31.01.2020
3716 Clear -1 1020 74 8000 3.1 330 19:55 31.01.2020
3717 Clear -1 1020 74 8000 3.1 330 19:36 31.01.2020
3718 Clear -1 1020 74 8000 3.1 330 19:18 31.01.2020
3719 Clear -1 1020 68 8000 3.6 340 18:39 31.01.2020
3720 Clear -1 1020 68 8000 3.6 340 18:20 31.01.2020
3721 Clear -1 1020 68 7000 2.6 330 17:46 31.01.2020
3722 Clear -1 1020 68 7000 2.6 330 17:46 31.01.2020
3723 Clear -1 1020 68 7000 2.6 330 17:28 31.01.2020
3724 Clouds 1 1019 62 7000 3.1 350 16:58 31.01.2020
3725 Clouds 1 1019 62 7000 3.1 350 16:39 31.01.2020
3726 Clouds 1 1019 62 7000 3.1 350 16:38 31.01.2020
3727 Clouds 1 1019 62 7000 3.1 350 16:19 31.01.2020
3728 Clouds 2 1018 64 7000 3.1 330 15:58 31.01.2020
3729 Clouds 2 1018 64 7000 3.1 330 15:40 31.01.2020
3730 Clouds 2 1018 64 7000 3.1 330 15:20 31.01.2020
3731 Clouds 3 1018 59 7000 3.1 310 14:44 31.01.2020
3732 Haze 5 1016 60 8000 2.1 130 14:24 31.01.2020
3733 Clouds 6 1017 44 9000 2.1 280 13:56 31.01.2020
3734 Clouds 6 1017 44 9000 2.1 280 13:38 31.01.2020
3735 Clouds 6 1017 44 9000 2.1 280 13:20 31.01.2020
3736 Clouds 6 1017 41 9000 2.1 270 12:45 31.01.2020
3737 Clouds 6 1017 41 9000 2.1 270 12:24 31.01.2020
3738 Clouds 5 1017 48 9000 2.1 250 11:55 31.01.2020
3739 Clouds 5 1017 48 9000 2.1 250 11:37 31.01.2020
3740 Clouds 5 1017 48 9000 2.1 250 11:19 31.01.2020
3741 Clouds 5 1017 48 8000 1.5 290 10:43 31.01.2020
3742 Clouds 5 1017 48 8000 1.5 290 10:23 31.01.2020
3743 Clouds 5 1017 48 8000 1.5 290 10:23 31.01.2020
3744 Haze 4 1018 51 8000 3.1 310 09:58 31.01.2020
3745 Haze 4 1018 51 8000 3.1 310 09:39 31.01.2020
3746 Haze 3 1018 51 8000 3.1 310 09:19 31.01.2020
3747 Haze 2 1019 55 8000 3.1 320 08:53 31.01.2020
3748 Haze 2 1019 55 8000 3.1 320 08:28 31.01.2020
3749 Haze 2 1019 70 8000 2.6 310 07:58 31.01.2020
3750 Haze 2 1019 70 8000 2.6 310 07:39 31.01.2020
3751 Haze 2 1019 70 8000 2.6 310 07:18 31.01.2020
3752 Haze 0 1019 58 4000 2.6 340 06:27 31.01.2020
3753 Haze 0 1019 58 4000 2.6 340 06:27 31.01.2020
3754 Haze -1 1019 63 5000 3.1 320 05:50 31.01.2020
3755 Clouds -2 1019 68 6000 2.6 330 04:57 31.01.2020
3756 Clouds -2 1018 68 7000 2.1 330 03:26 31.01.2020
3757 Clouds -2 1018 63 9000 2.6 310 01:40 31.01.2020
3758 Clouds -1 1019 63 6000 2.1 330 00:46 31.01.2020
3759 Clouds -1 1019 63 6000 2.1 330 00:27 31.01.2020
3760 Clouds -2 1019 68 6000 3.1 300 23:57 30.01.2020
3761 Clouds -2 1019 68 6000 3.1 300 23:26 30.01.2020
3762 Clouds -2 1020 63 7000 3.1 310 22:58 30.01.2020
3763 Clouds -2 1020 63 7000 3.1 310 22:37 30.01.2020
3764 Clouds -2 1020 63 7000 3.1 310 22:37 30.01.2020
3765 Clouds -2 1020 63 7000 3.1 310 22:18 30.01.2020
3766 Clouds -1 1020 58 7000 3.1 300 21:57 30.01.2020
3767 Clouds -1 1020 58 7000 3.1 300 21:38 30.01.2020
3768 Clouds -1 1020 58 7000 3.1 300 21:18 30.01.2020
3769 Clouds -1 1020 58 7000 3.1 300 21:18 30.01.2020
3770 Clouds -1 1020 58 7000 3.1 300 21:18 30.01.2020
3771 Clouds -1 1021 58 7000 3.6 320 20:41 30.01.2020
3772 Clouds -1 1021 58 7000 3.6 320 20:22 30.01.2020
3773 Clouds -1 1021 58 7000 3.6 320 20:22 30.01.2020
3774 Smoke -1 1021 58 4000 3.6 320 19:57 30.01.2020
3775 Smoke -1 1021 58 4000 3.6 320 19:39 30.01.2020
3776 Smoke -1 1021 58 4000 3.6 320 19:19 30.01.2020
3777 Clouds -1 1021 58 6000 2.6 340 18:42 30.01.2020
3778 Clouds -1 1021 58 6000 2.6 340 18:23 30.01.2020
3779 Smoke -1 1021 63 6000 3.6 320 17:58 30.01.2020
3780 Smoke -1 1021 63 6000 3.6 320 17:39 30.01.2020
3781 Smoke -1 1021 63 6000 3.6 320 17:19 30.01.2020
3782 Smoke -1 1021 63 6000 3.6 320 17:19 30.01.2020
3783 Smoke 0 1021 68 3500 2.6 330 16:58 30.01.2020
3784 Smoke 0 1021 68 3500 2.6 330 16:38 30.01.2020
3785 Smoke 0 1021 68 3500 2.6 330 16:20 30.01.2020
3786 Smoke 0 1021 68 5000 2.6 330 15:44 30.01.2020
3787 Smoke 0 1021 68 5000 2.6 330 15:20 30.01.2020
3788 Clouds 2 1021 47 7000 1.5 240 14:50 30.01.2020
3789 Clouds 2 1021 47 7000 1.5 240 14:27 30.01.2020
3790 Clouds 4 1021 41 9000 1.5 290 13:58 30.01.2020
3791 Clouds 4 1021 41 9000 1.5 290 13:58 30.01.2020
3792 Clouds 4 1021 41 9000 1.5 290 13:38 30.01.2020
3793 Clouds 4 1021 41 9000 1.5 290 13:20 30.01.2020
3794 Clouds 5 1021 38 10000 1.5 290 12:43 30.01.2020
3795 Clouds 5 1021 38 10000 1.5 290 12:24 30.01.2020
3796 Clouds 5 1022 38 10000 1.5 150 11:58 30.01.2020
3797 Clouds 5 1022 38 10000 1.5 150 11:40 30.01.2020
3798 Clouds 5 1022 38 10000 1.5 150 11:21 30.01.2020
3799 Clouds 4 1022 41 9000 1.5 0 10:43 30.01.2020
3800 Clouds 4 1022 41 9000 1.5 0 10:24 30.01.2020
3801 Clouds 3 1024 40 9000 3.1 180 09:56 30.01.2020
3802 Clouds 3 1024 40 9000 3.1 180 09:37 30.01.2020
3803 Clouds 3 1024 40 9000 3.1 180 09:19 30.01.2020
3804 Clouds 2 1024 40 10000 3.6 170 08:42 30.01.2020
3805 Clouds 2 1024 40 10000 3.6 170 08:22 30.01.2020
3806 Clouds 1 1024 40 10000 2.1 330 07:52 30.01.2020
3807 Clouds 1 1024 40 10000 2.1 330 07:32 30.01.2020
3808 Haze 0 1024 50 5000 1.5 310 06:47 30.01.2020
3809 Haze 0 1024 50 5000 1.5 310 06:29 30.01.2020
3810 Haze -3 1024 53 8000 4.1 320 05:47 30.01.2020
3811 Haze -3 1024 53 8000 4.1 320 05:25 30.01.2020
3812 Haze -4 1023 73 5000 1.5 250 03:56 30.01.2020
3813 Clouds -4 1023 62 8000 3.6 330 03:37 30.01.2020
3814 Clouds -5 1022 62 10000 3.6 320 02:48 30.01.2020
3815 Clouds -3 1023 53 10000 3.6 340 00:53 30.01.2020
3816 Clouds -3 1023 53 10000 3.6 340 00:21 30.01.2020
3817 Clouds -2 1024 58 10000 3.1 330 23:48 29.01.2020
3818 Clouds -2 1024 58 10000 3.1 330 23:22 29.01.2020
3819 Clouds -2 1024 54 10000 2.6 340 22:58 29.01.2020
3820 Clouds -2 1024 54 10000 2.6 340 22:39 29.01.2020
3821 Clouds -2 1024 54 10000 2.6 340 22:19 29.01.2020
3822 Clouds -2 1024 58 9000 2.6 320 21:58 29.01.2020
3823 Clouds -2 1024 58 9000 2.6 320 21:39 29.01.2020
3824 Clouds -2 1024 58 9000 2.6 320 21:39 29.01.2020
3825 Clouds -2 1024 58 9000 2.6 320 21:39 29.01.2020
3826 Clouds -2 1024 58 9000 2.6 320 21:19 29.01.2020
3827 Smoke -1 1024 58 5000 2.6 320 20:58 29.01.2020
3828 Smoke -1 1024 58 5000 2.6 320 20:39 29.01.2020
3829 Smoke -1 1024 58 5000 2.6 320 20:21 29.01.2020
3830 Smoke 1 1024 56 4000 1.5 310 19:56 29.01.2020
3831 Smoke 1 1024 56 4000 1.5 310 19:37 29.01.2020
3832 Smoke 1 1024 56 4000 1.5 310 19:19 29.01.2020
3833 Smoke 1 1024 56 2800 1.5 260 18:54 29.01.2020
3834 Smoke 1 1024 56 2800 1.5 260 18:36 29.01.2020
3835 Smoke 1 1024 56 2800 1.5 260 18:18 29.01.2020
3836 Smoke 1 1024 59 2500 2.1 270 17:39 29.01.2020
3837 Clouds 0 1024 58 6000 1 300 17:21 29.01.2020
3838 Clouds 1 1024 50 10000 1.5 0 16:41 29.01.2020
3839 Clouds 1 1024 50 10000 1.5 0 16:23 29.01.2020
3840 Clouds 0 1023 58 9000 1 0 15:56 29.01.2020
3841 Clouds 0 1023 58 9000 1 0 15:37 29.01.2020
3842 Clouds 0 1023 58 9000 1 0 15:19 29.01.2020
3843 Smoke 2 1022 50 8000 2.1 0 14:43 29.01.2020
3844 Smoke 2 1022 50 8000 2.1 0 14:21 29.01.2020
3845 Smoke 2 1022 47 9000 2.6 80 13:55 29.01.2020
3846 Smoke 2 1022 47 9000 2.6 80 13:37 29.01.2020
3847 Smoke 2 1022 47 9000 2.6 80 13:19 29.01.2020
3848 Smoke 2 1021 47 8000 2.6 60 12:55 29.01.2020
3849 Smoke 2 1021 47 8000 2.6 60 12:37 29.01.2020
3850 Smoke 2 1021 47 8000 2.6 60 12:18 29.01.2020
3851 Smoke 2 1021 34 8000 2.6 70 11:45 29.01.2020
3852 Haze 3 1020 44 9000 1.56 157 11:21 29.01.2020
3853 Smoke 2 1021 40 8000 2.6 310 10:47 29.01.2020
3854 Smoke 2 1021 40 8000 2.6 310 10:26 29.01.2020
3855 Smoke 2 1021 37 7000 1.5 0 09:58 29.01.2020
3856 Smoke 2 1021 37 7000 1.5 0 09:40 29.01.2020
3857 Smoke 2 1021 37 7000 1.5 0 09:20 29.01.2020
3858 Smoke 1 1021 34 7000 1 0 08:56 29.01.2020
3859 Smoke 1 1021 34 7000 1 0 08:37 29.01.2020
3860 Smoke 1 1021 34 7000 1 0 08:18 29.01.2020
3861 Smoke -1 1021 46 8000 3.6 310 07:43 29.01.2020
3862 Smoke -1 1021 46 8000 3.6 310 07:21 29.01.2020
3863 Smoke -3 1020 53 8000 4.6 310 06:38 29.01.2020
3864 Smoke -3 1020 53 8000 4.6 310 06:19 29.01.2020
3865 Smoke -3 1019 58 8000 3.6 310 05:52 29.01.2020
3866 Smoke -3 1019 58 8000 3.6 310 05:33 29.01.2020
3867 Clouds -4 1018 57 10000 4.1 320 04:39 29.01.2020
3868 Clouds -4 1018 57 10000 4.1 320 04:39 29.01.2020
3869 Clouds -4 1017 57 10000 3.6 320 03:59 29.01.2020
3870 Clouds -6 1016 62 10000 3.6 320 02:34 29.01.2020
3871 Clouds -6 1016 67 8000 3.1 310 01:18 29.01.2020
3872 Clouds -4 1016 62 8000 3.1 300 00:38 29.01.2020
3873 Clouds -4 1016 62 8000 3.1 300 00:20 29.01.2020
3874 Clouds -4 1016 58 7000 3.6 330 23:39 28.01.2020
3875 Clouds -4 1016 58 7000 3.6 330 23:19 28.01.2020
3876 Clouds -4 1016 58 7000 3.6 330 23:19 28.01.2020
3877 Clear -4 1016 58 6000 2.6 310 22:49 28.01.2020
3878 Clear -4 1016 58 6000 2.6 310 22:27 28.01.2020
3879 Clear -4 1015 58 6000 2.6 330 21:57 28.01.2020
3880 Clear -4 1015 58 6000 2.6 330 21:38 28.01.2020
3881 Clear -4 1015 58 6000 2.6 330 21:19 28.01.2020
3882 Clear -3 1015 58 7000 3.1 330 20:46 28.01.2020
3883 Clear -3 1015 58 7000 3.1 330 20:26 28.01.2020
3884 Smoke -4 1015 62 5000 2.6 330 19:55 28.01.2020
3885 Smoke -4 1015 62 5000 2.6 330 19:37 28.01.2020
3886 Smoke -4 1015 62 5000 2.6 330 19:19 28.01.2020
3887 Clear -2 1015 54 6000 2.6 330 18:42 28.01.2020
3888 Clear -2 1015 54 6000 2.6 330 18:23 28.01.2020
3889 Clear -1 1015 54 6000 2.1 340 17:59 28.01.2020
3890 Clear -1 1015 54 6000 2.1 340 17:40 28.01.2020
3891 Clear -1 1015 54 6000 2.1 340 17:21 28.01.2020
3892 Clear 0 1015 50 6000 2.6 340 16:59 28.01.2020
3893 Clear 0 1015 50 6000 2.6 340 16:40 28.01.2020
3894 Clear 0 1015 50 6000 2.6 340 16:22 28.01.2020
3895 Clear 0 1014 50 8000 2.6 320 15:48 28.01.2020
3896 Clear 0 1014 50 8000 2.6 320 15:19 28.01.2020
3897 Clear 3 1014 37 10000 3.1 270 14:59 28.01.2020
3898 Clear 3 1014 37 10000 3.1 270 14:41 28.01.2020
3899 Clear 3 1014 37 10000 3.1 270 14:18 28.01.2020
3900 Clear 4 1014 29 10000 3.1 200 13:42 28.01.2020
3901 Clear 4 1014 29 10000 3.1 200 13:24 28.01.2020
3902 Clear 5 1014 30 10000 3.6 240 12:45 28.01.2020
3903 Clear 5 1014 30 10000 3.6 240 12:25 28.01.2020
3904 Clear 6 1014 30 10000 3.6 260 11:59 28.01.2020
3905 Clear 6 1014 30 10000 3.6 260 11:40 28.01.2020
3906 Clear 6 1014 30 10000 3.6 260 11:21 28.01.2020
3907 Clear 5 1015 32 10000 1 0 10:43 28.01.2020
3908 Clear 5 1015 32 10000 1 0 10:24 28.01.2020
3909 Smoke 4 1016 35 9000 2.1 0 09:58 28.01.2020
3910 Smoke 4 1016 35 9000 2.1 0 09:38 28.01.2020
3911 Smoke 4 1016 35 9000 2.1 0 09:19 28.01.2020
3912 Smoke 2 1017 40 9000 2.6 320 08:44 28.01.2020
3913 Smoke 2 1017 40 9000 2.6 320 08:22 28.01.2020
3914 Smoke 1 1017 57 9000 3.6 330 07:42 28.01.2020
3915 Smoke 1 1017 57 9000 3.6 330 07:23 28.01.2020
3916 Haze 0 1016 51 5000 1.5 210 06:44 28.01.2020
3917 Clear -1 1017 58 8000 4.6 320 06:23 28.01.2020
3918 Clear -4 1017 67 7000 4.6 320 05:35 28.01.2020
3919 Clear -6 1017 79 9000 4.6 310 04:40 28.01.2020
3920 Clear -7 1016 73 10000 4.1 310 03:41 28.01.2020
3921 Clear -6 1016 73 10000 3.6 320 02:43 28.01.2020
3922 Clear -6 1016 73 10000 3.6 320 02:24 28.01.2020
3923 Clouds -5 1017 67 7000 3.6 330 01:50 28.01.2020
3924 Clouds -6 1017 73 8000 4.1 320 00:58 28.01.2020
3925 Clouds -6 1017 73 8000 4.1 320 00:39 28.01.2020
3926 Clouds -6 1017 73 8000 4.1 320 00:19 28.01.2020
3927 Clouds -5 1017 73 6000 3.1 330 23:42 27.01.2020
3928 Clouds -5 1017 73 6000 3.1 330 23:18 27.01.2020
3929 Clouds -5 1018 67 6000 3.1 320 22:44 27.01.2020
3930 Clouds -5 1018 67 6000 3.1 320 22:20 27.01.2020
3931 Clouds -5 1018 67 6000 3.1 320 22:20 27.01.2020
3932 Clouds -5 1018 67 6000 3.1 320 22:20 27.01.2020
3933 Smoke -4 1018 68 2400 2.1 300 21:57 27.01.2020
3934 Smoke -4 1018 68 2400 2.1 300 21:38 27.01.2020
3935 Smoke -4 1018 68 2400 2.1 300 21:38 27.01.2020
3936 Smoke -4 1018 68 2400 2.1 300 21:19 27.01.2020
3937 Smoke -4 1018 68 3000 2.6 320 20:56 27.01.2020
3938 Smoke -4 1018 68 3000 2.6 320 20:37 27.01.2020
3939 Smoke -4 1018 68 3000 2.6 320 20:18 27.01.2020
3940 Clouds -4 1018 68 6000 3.6 320 19:42 27.01.2020
3941 Clouds -4 1018 68 6000 3.6 320 19:23 27.01.2020
3942 Clouds -2 1018 58 6000 3.1 330 18:58 27.01.2020
3943 Clouds -2 1018 58 6000 3.1 330 18:39 27.01.2020
3944 Clouds -2 1018 58 6000 3.1 330 18:20 27.01.2020
3945 Clouds -2 1018 58 6000 3.1 330 18:20 27.01.2020
3946 Clouds -2 1018 58 6000 3.1 330 17:57 27.01.2020
3947 Clouds -2 1018 58 6000 3.1 330 17:37 27.01.2020
3948 Clouds -1 1018 58 6000 3.1 330 17:18 27.01.2020
3949 Clouds -1 1018 58 7000 3.6 330 16:42 27.01.2020
3950 Clouds -1 1018 58 7000 3.6 330 16:24 27.01.2020
3951 Clouds -1 1018 58 7000 3.6 330 16:24 27.01.2020
3952 Haze -1 1017 54 5000 4.1 330 15:56 27.01.2020
3953 Haze -1 1017 54 5000 4.1 330 15:38 27.01.2020
3954 Haze -1 1017 54 5000 4.1 330 15:19 27.01.2020
3955 Haze 0 1017 63 5000 2.6 320 14:55 27.01.2020
3956 Haze 0 1017 63 5000 2.6 320 14:36 27.01.2020
3957 Haze 0 1017 76 5000 2.6 320 14:18 27.01.2020
3958 Clouds 3 1017 47 6000 2.1 290 13:42 27.01.2020
3959 Clouds 3 1017 47 6000 2.1 290 13:21 27.01.2020
3960 Clouds 3 1017 47 6000 2.1 290 13:21 27.01.2020
3961 Clouds 3 1017 43 6000 2.6 310 12:56 27.01.2020
3962 Clouds 3 1017 43 6000 2.6 310 12:37 27.01.2020
3963 Clouds 3 1017 43 6000 2.6 310 12:19 27.01.2020
3964 Haze 3 1017 47 5000 2.1 310 11:41 27.01.2020
3965 Haze 3 1017 47 5000 2.1 310 11:21 27.01.2020
3966 Clouds 3 1018 40 7000 2.6 300 10:43 27.01.2020
3967 Haze 3 1016 44 6000 1.2 123 10:25 27.01.2020
3968 Clouds 2 1019 40 8000 2.1 320 09:57 27.01.2020
3969 Clouds 2 1019 40 8000 2.1 320 09:38 27.01.2020
3970 Clouds 2 1019 40 8000 2.1 320 09:18 27.01.2020
3971 Clouds 2 1019 40 8000 2.1 320 09:18 27.01.2020
3972 Clouds 1 1019 74 6000 2.6 330 08:43 27.01.2020
3973 Clouds 1 1019 72 6000 2.6 330 08:22 27.01.2020
3974 Haze 1 1020 43 5000 1.5 310 07:54 27.01.2020
3975 Haze 1 1020 43 5000 1.5 310 07:35 27.01.2020
3976 Haze -2 1020 54 5000 2.1 320 06:53 27.01.2020
3977 Haze -2 1020 54 5000 2.1 320 06:25 27.01.2020
3978 Haze -4 1019 67 6000 3.6 310 05:24 27.01.2020
3979 Clouds -5 1018 73 10000 3.6 310 03:49 27.01.2020
3980 Clouds -5 1018 67 10000 4.6 320 02:38 27.01.2020
3981 Clouds -5 1017 62 8000 1.5 310 01:29 27.01.2020
3982 Clouds -4 1018 67 8000 3.6 310 00:57 27.01.2020
3983 Clouds -4 1018 67 8000 3.6 310 00:36 27.01.2020
3984 Clouds -4 1018 67 8000 3.6 310 00:18 27.01.2020
3985 Clouds -4 1018 67 8000 3.6 310 00:18 27.01.2020
3986 Clouds -4 1018 67 10000 4.6 320 23:41 26.01.2020
3987 Clouds -4 1018 67 10000 4.6 320 23:19 26.01.2020
3988 Clouds -4 1019 62 8000 3.6 320 22:54 26.01.2020
3989 Clouds -4 1019 62 8000 3.6 320 22:36 26.01.2020
3990 Clouds -4 1019 62 8000 3.6 320 22:18 26.01.2020
3991 Clouds -5 1019 67 5000 1.5 310 21:55 26.01.2020
3992 Clouds -5 1019 67 5000 1.5 310 21:37 26.01.2020
3993 Clouds -4 1019 67 5000 1.5 310 21:18 26.01.2020
3994 Clouds -4 1019 67 5000 1.5 310 21:18 26.01.2020
3995 Clouds -4 1020 68 8000 3.1 310 20:55 26.01.2020
3996 Clouds -4 1020 68 8000 3.1 310 20:36 26.01.2020
3997 Clouds -4 1020 68 8000 3.1 310 20:18 26.01.2020
3998 Clouds -3 1020 68 8000 4.1 310 19:41 26.01.2020
3999 Clouds -3 1020 68 8000 4.1 310 19:21 26.01.2020
4000 Clouds -2 1020 58 6000 3.6 330 18:59 26.01.2020
4001 Clouds -2 1020 58 6000 3.6 330 18:40 26.01.2020
4002 Clouds -2 1020 58 6000 3.6 330 18:22 26.01.2020
4003 Clear -2 1020 58 5000 3.6 330 17:58 26.01.2020
4004 Clear -2 1020 58 5000 3.6 330 17:38 26.01.2020
4005 Clear -2 1020 58 5000 3.6 330 17:18 26.01.2020
4006 Clear -2 1020 58 5000 3.6 330 17:18 26.01.2020
4007 Smoke -2 1020 58 4000 3.1 330 16:57 26.01.2020
4008 Smoke -2 1020 58 4000 3.1 330 16:39 26.01.2020
4009 Smoke -2 1020 58 4000 3.1 330 16:20 26.01.2020
4010 Smoke -2 1020 58 4000 3.1 330 16:20 26.01.2020
4011 Haze 0 1020 55 4000 3.1 340 15:55 26.01.2020
4012 Haze 0 1020 55 4000 3.1 340 15:36 26.01.2020
4013 Haze 0 1020 55 4000 3.1 340 15:18 26.01.2020
4014 Clear 2 1019 40 7000 2.1 270 14:40 26.01.2020
4015 Clear 2 1019 40 7000 2.1 270 14:19 26.01.2020
4016 Clear 2 1019 40 7000 2.1 270 14:19 26.01.2020
4017 Clear 4 1019 29 8000 1 310 13:42 26.01.2020
4018 Clear 4 1019 29 8000 1 310 13:20 26.01.2020
4019 Clear 4 1019 29 8000 1 310 12:57 26.01.2020
4020 Clear 5 1019 32 10000 2.6 270 12:39 26.01.2020
4021 Clear 5 1019 32 10000 2.6 270 12:21 26.01.2020
4022 Clear 4 1020 32 10000 2.6 240 11:57 26.01.2020
4023 Clear 4 1020 32 10000 2.6 240 11:37 26.01.2020
4024 Clear 4 1020 32 10000 2.6 240 11:18 26.01.2020
4025 Clear 4 1020 32 10000 2.6 240 10:57 26.01.2020
4026 Haze 3 1019 51 8000 1.5 180 10:38 26.01.2020
4027 Haze 3 1019 51 8000 1.5 180 10:19 26.01.2020
4028 Clear 3 1022 37 10000 2.6 300 09:56 26.01.2020
4029 Clear 3 1022 37 10000 2.6 300 09:38 26.01.2020
4030 Clear 3 1022 37 10000 2.6 300 09:19 26.01.2020
4031 Haze 2 1022 59 6000 2.1 110 08:42 26.01.2020
4032 Haze 2 1022 59 6000 2.1 110 08:22 26.01.2020
4033 Haze 2 1022 51 6000 1.61 166 07:50 26.01.2020
4034 Clear 1 1023 40 10000 1.5 0 07:27 26.01.2020
4035 Haze -1 1022 54 9000 1 0 06:55 26.01.2020
4036 Haze -1 1022 54 9000 1 0 06:25 26.01.2020
4037 Haze -4 1022 62 9000 3.6 320 05:29 26.01.2020
4038 Haze -6 1020 85 5000 1.68 244 03:57 26.01.2020
4039 Clear -5 1020 67 10000 4.1 320 02:38 26.01.2020
4040 Clear -4 1020 68 10000 3.6 330 01:45 26.01.2020
4041 Clear -4 1020 68 10000 3.6 330 01:23 26.01.2020
4042 Clear -4 1020 73 9000 4.1 320 00:42 26.01.2020
4043 Clear -4 1020 73 9000 4.1 320 00:24 26.01.2020
4044 Clear -4 1021 73 9000 3.6 320 23:40 25.01.2020
4045 Clear -4 1021 73 9000 3.6 320 23:21 25.01.2020
4046 Clear -5 1021 79 8000 4.1 310 22:56 25.01.2020
4047 Clear -5 1021 79 8000 4.1 310 22:37 25.01.2020
4048 Clear -5 1021 79 8000 4.1 310 22:18 25.01.2020
4049 Clear -3 1021 73 9000 4.1 320 21:55 25.01.2020
4050 Clear -3 1021 73 9000 4.1 320 21:55 25.01.2020
4051 Clear -3 1021 73 9000 4.1 320 21:55 25.01.2020
4052 Clear -3 1021 73 9000 4.1 320 21:36 25.01.2020
4053 Clear -3 1021 73 9000 4.1 320 21:18 25.01.2020
4054 Clear -8 1026 48 0 1.37 267 20:43 25.01.2020
4055 Clear -1 1022 74 8000 3.1 340 20:24 25.01.2020
4056 Clear -7 1027 53 0 2.05 257 19:48 25.01.2020
4057 Clear -1 1022 74 8000 3.1 340 19:20 25.01.2020
4058 Clear -1 1022 74 8000 3.1 340 18:59 25.01.2020
4059 Clear -1 1022 74 8000 3.1 340 18:41 25.01.2020
4060 Clear -1 1022 74 8000 3.1 340 18:20 25.01.2020
4061 Clear -1 1022 74 8000 3.1 340 17:54 25.01.2020
4062 Clear 0 1022 53 8000 3.1 340 17:36 25.01.2020
4063 Clear 0 1022 69 8000 3.1 340 17:18 25.01.2020
4064 Clear -1 1022 68 8000 2.6 320 16:42 25.01.2020
4065 Clear -1 1022 68 8000 2.6 320 16:22 25.01.2020
4066 Clear -1 1022 68 8000 2.6 320 15:55 25.01.2020
4067 Clear 0 1021 69 10000 3.6 310 15:37 25.01.2020
4068 Clear 0 1021 69 10000 3.6 310 15:18 25.01.2020
4069 Clear 3 1021 55 10000 2.6 250 14:41 25.01.2020
4070 Clouds 3 1021 55 10000 2.6 250 14:19 25.01.2020
4071 Clouds 5 1021 48 10000 3.1 280 13:43 25.01.2020
4072 Clouds 5 1021 48 10000 3.1 280 13:24 25.01.2020
4073 Clear 6 1021 48 10000 3.1 290 12:46 25.01.2020
4074 Clear 6 1021 48 10000 3.1 290 12:28 25.01.2020
4075 Clear 6 1021 45 10000 2.1 280 11:54 25.01.2020
4076 Clear 6 1021 45 10000 2.1 280 11:36 25.01.2020
4077 Clouds 6 1021 45 10000 2.1 280 11:18 25.01.2020
4078 Clouds 6 1022 48 10000 3.1 310 10:40 25.01.2020
4079 Clouds 6 1022 48 10000 3.1 310 10:21 25.01.2020
4080 Clouds 5 1023 52 10000 1.5 150 09:57 25.01.2020
4081 Clouds 5 1023 52 10000 1.5 150 09:37 25.01.2020
4082 Clouds 4 1023 52 10000 1.5 150 09:18 25.01.2020
4083 Haze 4 1023 51 8000 1 0 08:42 25.01.2020
4084 Mist 4 1024 48 8000 1 160 07:53 25.01.2020
4085 Mist 4 1024 48 8000 1 160 07:53 25.01.2020
4086 Mist 1 1024 64 2400 1 160 06:58 25.01.2020
4087 Mist -1 1023 68 3000 2.1 280 06:31 25.01.2020
4088 Smoke -2 1023 79 6000 3.1 340 05:50 25.01.2020
4089 Smoke -2 1023 79 6000 3.1 340 05:30 25.01.2020
4090 Mist -4 1021 92 3600 2.1 230 03:55 25.01.2020
4091 Clouds -4 1022 85 8000 1.5 310 03:34 25.01.2020
4092 Clouds -3 1022 85 8000 2.6 320 02:24 25.01.2020
4093 Clouds -3 1021 79 8000 3.1 310 01:54 25.01.2020
4094 Clouds -3 1021 79 8000 2.6 330 00:52 25.01.2020
4095 Clouds -3 1021 79 8000 2.6 330 00:27 25.01.2020
4096 Clouds -2 1022 74 9000 2.6 350 23:59 24.01.2020
4097 Clouds -2 1022 74 9000 2.6 350 23:59 24.01.2020
4098 Clouds -2 1022 74 9000 2.6 350 23:41 24.01.2020
4099 Clouds -2 1022 74 9000 2.6 350 23:41 24.01.2020
4100 Clouds -2 1022 74 9000 2.6 350 23:41 24.01.2020
4101 Clouds -2 1022 74 9000 2.6 350 23:23 24.01.2020
4102 Clouds -1 1022 79 8000 3.1 340 22:46 24.01.2020
4103 Clouds -1 1022 79 8000 3.1 340 22:46 24.01.2020
4104 Clouds -1 1022 79 8000 3.1 340 22:25 24.01.2020
4105 Clouds -2 1022 79 8000 2.6 340 21:57 24.01.2020
4106 Clouds -2 1022 79 8000 2.6 340 21:38 24.01.2020
4107 Clouds -2 1022 79 8000 2.6 340 21:18 24.01.2020
4108 Clouds -2 1022 79 8000 2.6 340 21:18 24.01.2020
4109 Clouds -1 1023 74 8000 3.1 340 20:42 24.01.2020
4110 Clouds -1 1023 74 8000 3.1 340 20:21 24.01.2020
4111 Clouds -1 1023 79 6000 3.6 330 19:58 24.01.2020
4112 Clouds -1 1023 79 6000 3.6 330 19:39 24.01.2020
4113 Clouds -1 1023 79 6000 3.6 330 19:21 24.01.2020
4114 Clouds 0 1023 80 8000 3.6 320 18:43 24.01.2020
4115 Clouds 0 1023 80 8000 3.6 320 18:43 24.01.2020
4116 Clouds 0 1023 80 8000 3.6 320 18:24 24.01.2020
4117 Clouds 0 1022 74 8000 3.6 320 17:56 24.01.2020
4118 Clouds 0 1022 74 8000 3.6 320 17:38 24.01.2020
4119 Clouds 0 1022 74 8000 3.6 320 17:18 24.01.2020
4120 Smoke 0 1022 74 5000 3.1 310 16:39 24.01.2020
4121 Smoke 0 1022 74 5000 3.1 310 16:21 24.01.2020
4122 Smoke 0 1022 79 5000 2.1 330 15:55 24.01.2020
4123 Smoke 0 1022 79 5000 2.1 330 15:37 24.01.2020
4124 Smoke 0 1022 79 5000 2.1 330 15:18 24.01.2020
4125 Clouds 1 1021 79 8000 3.6 330 14:41 24.01.2020
4126 Clouds 1 1021 90 8000 3.6 330 14:22 24.01.2020
4127 Clouds 2 1021 55 9000 2.1 320 13:44 24.01.2020
4128 Clouds 2 1021 55 9000 2.1 320 13:24 24.01.2020
4129 Clouds 2 1022 55 7000 3.6 320 12:45 24.01.2020
4130 Clouds 2 1022 55 7000 3.6 320 12:23 24.01.2020
4131 Clouds 2 1022 55 6000 2.6 300 11:59 24.01.2020
4132 Clouds 2 1022 55 6000 2.6 300 11:40 24.01.2020
4133 Clouds 2 1022 55 6000 2.6 300 11:18 24.01.2020
4134 Clouds 2 1022 47 7000 1 320 10:43 24.01.2020
4135 Clouds 2 1022 47 7000 1 320 10:21 24.01.2020
4136 Clouds 1 1023 50 6000 2.1 320 09:55 24.01.2020
4137 Clouds 1 1023 50 6000 2.1 320 09:37 24.01.2020
4138 Clouds 1 1023 50 6000 2.1 320 09:18 24.01.2020
4139 Haze 1 1024 50 6000 3.1 310 08:40 24.01.2020
4140 Haze 1 1024 50 6000 3.1 310 08:19 24.01.2020
4141 Clouds -1 1025 54 6000 3.1 310 07:49 24.01.2020
4142 Clouds -1 1025 54 6000 3.1 310 07:24 24.01.2020
4143 Smoke -3 1025 63 5000 3.6 320 06:46 24.01.2020
4144 Smoke -3 1025 63 5000 3.6 320 06:28 24.01.2020
4145 Smoke -4 1024 62 5000 2.1 320 05:43 24.01.2020
4146 Clouds -6 1024 67 8000 3.1 300 03:55 24.01.2020
4147 Clouds -6 1024 73 8000 2.6 290 02:43 24.01.2020
4148 Clouds -6 1024 73 8000 2.6 290 02:23 24.01.2020
4149 Smoke -6 1025 73 5000 2.1 310 01:39 24.01.2020
4150 Clouds -6 1025 73 6000 3.1 300 00:54 24.01.2020
4151 Clouds -6 1025 73 6000 3.1 300 00:19 24.01.2020
4152 Clouds -5 1025 67 7000 3.6 320 23:45 23.01.2020
4153 Clouds -5 1025 67 7000 3.6 320 23:26 23.01.2020
4154 Clouds -7 1026 73 6000 2.6 310 22:59 23.01.2020
4155 Clouds -7 1026 73 6000 2.6 310 22:37 23.01.2020
4156 Clouds -7 1026 73 6000 2.6 310 22:18 23.01.2020
4157 Smoke -6 1026 67 2000 2.6 290 21:55 23.01.2020
4158 Smoke -5 1026 67 2000 2.6 290 21:37 23.01.2020
4159 Smoke -5 1026 67 2000 2.6 290 21:19 23.01.2020
4160 Smoke -5 1026 73 3000 2.6 330 20:55 23.01.2020
4161 Smoke -5 1026 73 3000 2.6 330 20:37 23.01.2020
4162 Smoke -5 1026 73 3000 2.6 330 20:19 23.01.2020
4163 Smoke -5 1026 73 3000 1.5 310 19:44 23.01.2020
4164 Smoke -5 1026 73 3000 1.5 310 19:24 23.01.2020
4165 Smoke -4 1026 68 2500 1.5 300 18:59 23.01.2020
4166 Smoke -4 1026 68 2500 1.5 300 18:39 23.01.2020
4167 Smoke -4 1026 68 2500 1.5 300 18:20 23.01.2020
4168 Smoke -4 1026 68 3000 2.6 310 17:57 23.01.2020
4169 Smoke -4 1026 68 3000 2.6 310 17:38 23.01.2020
4170 Haze -4 1025 85 5000 2.6 190 17:18 23.01.2020
4171 Smoke -3 1026 68 2500 1.5 280 16:39 23.01.2020
4172 Smoke -3 1026 68 2500 1.5 280 16:20 23.01.2020
4173 Haze -2 1025 73 5000 0.81 285 15:58 23.01.2020
4174 Smoke -1 1024 58 3000 1.5 200 15:40 23.01.2020
4175 Smoke -1 1024 58 3000 1.5 200 15:19 23.01.2020
4176 Clouds 0 1024 58 6000 3.1 80 14:59 23.01.2020
4177 Clouds 0 1024 58 6000 3.1 80 14:41 23.01.2020
4178 Clouds 0 1024 58 6000 3.1 80 14:23 23.01.2020
4179 Clouds 1 1025 47 8000 3.1 80 13:59 23.01.2020
4180 Clouds 1 1025 47 8000 3.1 80 13:37 23.01.2020
4181 Clouds 1 1025 47 8000 3.1 80 13:19 23.01.2020
4182 Clouds 3 1025 37 8000 0.5 0 12:44 23.01.2020
4183 Clouds 3 1025 37 8000 0.5 0 12:25 23.01.2020
4184 Clouds 3 1025 40 10000 3.1 310 11:56 23.01.2020
4185 Clouds 3 1025 40 10000 3.1 310 11:37 23.01.2020
4186 Clouds 3 1025 40 10000 3.1 310 11:37 23.01.2020
4187 Clear 3 1025 40 10000 3.1 310 11:18 23.01.2020
4188 Clear 3 1027 40 10000 4.1 290 10:44 23.01.2020
4189 Clear 3 1027 40 10000 4.1 290 10:22 23.01.2020
4190 Clear 1 1028 43 10000 5.1 330 09:43 23.01.2020
4191 Clear 1 1028 43 10000 5.1 330 09:25 23.01.2020
4192 Clear 0 1028 65 10000 3.1 340 08:59 23.01.2020
4193 Clear 0 1028 65 10000 3.1 340 08:40 23.01.2020
4194 Clear 0 1028 47 10000 3.1 340 08:22 23.01.2020
4195 Smoke -1 1029 47 9000 1.5 340 07:45 23.01.2020
4196 Smoke -1 1029 47 9000 1.5 340 07:26 23.01.2020
4197 Clear -4 1028 53 8000 3.6 310 06:52 23.01.2020
4198 Clear -4 1028 53 8000 3.6 310 06:22 23.01.2020
4199 Clear -6 1028 62 8000 3.1 310 05:57 23.01.2020
4200 Clear -8 1027 57 7000 3.1 320 04:24 23.01.2020
4201 Clear -8 1027 57 7000 3.1 320 04:24 23.01.2020
4202 Clear -8 1026 67 10000 3.6 320 02:34 23.01.2020
4203 Clear -8 1026 67 10000 2.6 330 01:33 23.01.2020
4204 Clear -6 1027 62 10000 2.6 290 00:27 23.01.2020
4205 Clear -5 1027 62 10000 2.6 340 23:48 22.01.2020
4206 Clear -5 1027 62 10000 2.6 340 23:30 22.01.2020
4207 Clear -6 1027 67 8000 3.1 330 22:59 22.01.2020
4208 Clear -5 1027 67 8000 3.1 330 22:40 22.01.2020
4209 Clear -5 1027 73 8000 3.6 340 22:22 22.01.2020
4210 Clear -5 1027 73 8000 3.6 340 21:40 22.01.2020
4211 Clear -5 1027 73 8000 3.6 340 21:22 22.01.2020
4212 Clear -4 1028 68 7000 3.1 350 20:57 22.01.2020
4213 Clear -4 1028 68 7000 3.1 350 20:38 22.01.2020
4214 Clear -4 1028 68 7000 3.1 350 20:38 22.01.2020
4215 Clear -4 1028 68 7000 3.1 350 20:20 22.01.2020
4216 Clear -4 1028 73 7000 3.6 320 19:56 22.01.2020
4217 Clear -4 1028 73 7000 3.6 320 19:38 22.01.2020
4218 Clear -4 1028 73 7000 3.6 320 19:18 22.01.2020
4219 Smoke -4 1028 68 5000 3.6 330 18:56 22.01.2020
4220 Smoke -4 1028 68 5000 3.6 330 18:38 22.01.2020
4221 Smoke -4 1028 68 5000 3.6 330 18:19 22.01.2020
4222 Smoke -4 1028 68 5000 3.6 330 18:19 22.01.2020
4223 Smoke -2 1028 68 5000 3.6 320 17:54 22.01.2020
4224 Smoke -2 1028 68 5000 3.6 320 17:36 22.01.2020
4225 Smoke -2 1028 68 5000 3.6 320 17:18 22.01.2020
4226 Smoke -2 1027 68 5000 3.1 330 16:42 22.01.2020
4227 Smoke -2 1027 68 5000 3.1 330 16:22 22.01.2020
4228 Smoke -1 1027 68 5000 3.1 340 15:58 22.01.2020
4229 Smoke -1 1027 68 5000 3.1 340 15:38 22.01.2020
4230 Smoke -1 1027 68 5000 3.1 340 15:20 22.01.2020
4231 Clear 0 1026 58 8000 3.6 240 14:40 22.01.2020
4232 Clear 0 1026 73 8000 3.6 240 14:21 22.01.2020
4233 Clear 2 1026 47 10000 3.6 240 13:59 22.01.2020
4234 Clear 2 1026 47 10000 3.6 240 13:38 22.01.2020
4235 Clear 2 1026 47 10000 3.6 240 13:20 22.01.2020
4236 Clouds 3 1026 47 10000 2.6 230 12:58 22.01.2020
4237 Clouds 3 1026 47 10000 2.6 230 12:40 22.01.2020
4238 Clouds 3 1026 47 10000 2.6 230 12:20 22.01.2020
4239 Haze 4 1025 64 4000 2.1 200 11:58 22.01.2020
4240 Clouds 4 1026 44 8000 3.1 270 11:40 22.01.2020
4241 Clouds 4 1026 44 8000 3.1 270 11:19 22.01.2020
4242 Clouds 4 1026 44 8000 3.1 270 11:19 22.01.2020
4243 Clouds 3 1027 51 10000 3.6 190 10:59 22.01.2020
4244 Clouds 3 1027 51 10000 3.6 190 10:41 22.01.2020
4245 Clouds 3 1027 51 10000 3.6 190 10:18 22.01.2020
4246 Clouds 3 1027 51 7000 3.1 270 09:42 22.01.2020
4247 Clouds 3 1027 51 7000 3.1 270 09:42 22.01.2020
4248 Clouds 3 1027 51 7000 3.1 270 09:24 22.01.2020
4249 Clouds 1 1028 55 7000 1.5 250 08:57 22.01.2020
4250 Clouds 1 1028 55 7000 1.5 250 08:38 22.01.2020
4251 Clouds 1 1028 55 7000 1.5 250 08:20 22.01.2020
4252 Mist 0 1028 69 5000 4.1 330 07:46 22.01.2020
4253 Mist 0 1028 69 5000 4.1 330 07:27 22.01.2020
4254 Mist -2 1027 73 3000 3.1 310 06:38 22.01.2020
4255 Mist -2 1027 73 3000 3.1 310 06:20 22.01.2020
4256 Mist -5 1027 92 5000 2.6 300 05:19 22.01.2020
4257 Mist -4 1025 92 5000 1 320 03:29 22.01.2020
4258 Snow -4 1024 86 2000 1.5 210 02:50 22.01.2020
4259 Mist -4 1025 92 3500 1.5 330 01:42 22.01.2020
4260 Mist -4 1025 100 2000 1 180 00:43 22.01.2020
4261 Mist -3 1024 92 2000 2.1 220 00:25 22.01.2020
4262 Smoke -3 1025 92 1000 1.79 258 23:38 21.01.2020
4263 Smoke -4 1025 92 100 2.22 248 23:20 21.01.2020
4264 Smoke -6 1025 92 50 0.5 0 22:55 21.01.2020
4265 Smoke -6 1025 92 50 0.5 0 22:36 21.01.2020
4266 Smoke -4 1025 92 50 0.5 0 22:18 21.01.2020
4267 Smoke -5 1025 92 50 1 0 21:55 21.01.2020
4268 Smoke -5 1025 92 50 1 0 21:36 21.01.2020
4269 Smoke -4 1025 92 50 1 0 21:18 21.01.2020
4270 Smoke -3 1025 92 50 0.5 0 20:39 21.01.2020
4271 Smoke -3 1025 92 50 0.5 0 20:20 21.01.2020
4272 Fog -2 1025 92 50 1.5 110 19:59 21.01.2020
4273 Fog -2 1025 92 50 1.5 110 19:40 21.01.2020
4274 Fog -2 1025 92 50 1.5 110 19:21 21.01.2020
4275 Snow -2 1024 92 50 2.17 242 18:57 21.01.2020
4276 Snow -2 1024 92 50 2.17 242 18:57 21.01.2020
4277 Snow -2 1024 92 50 2.17 242 18:39 21.01.2020
4278 Snow -2 1024 92 50 2.17 242 18:21 21.01.2020
4279 Fog -2 1024 100 50 1 140 17:58 21.01.2020
4280 Fog -2 1024 100 50 1 140 17:40 21.01.2020
4281 Fog -2 1024 100 50 1 140 17:18 21.01.2020
4282 Fog -2 1024 100 50 1 140 17:18 21.01.2020
4283 Fog -2 1023 100 50 1.5 130 16:38 21.01.2020
4284 Fog -2 1023 100 50 1.5 130 16:20 21.01.2020
4285 Fog -3 1023 100 200 1.5 130 15:59 21.01.2020
4286 Fog -2 1023 100 200 1.5 130 15:39 21.01.2020
4287 Mist -1 1022 80 6000 1.5 340 15:19 21.01.2020
4288 Mist 0 1021 93 7000 5.1 350 14:40 21.01.2020
4289 Mist 0 1021 95 7000 5.1 350 14:22 21.01.2020
4290 Mist 1 1021 74 8000 3.1 350 13:55 21.01.2020
4291 Mist 1 1021 74 8000 3.1 350 13:37 21.01.2020
4292 Mist 1 1021 74 8000 3.1 350 13:18 21.01.2020
4293 Clouds 5 1020 44 10000 2.1 190 12:42 21.01.2020
4294 Clouds 4 1020 44 10000 2.1 190 12:24 21.01.2020
4295 Clouds 3 1020 55 10000 2.1 190 11:56 21.01.2020
4296 Clouds 2 1020 55 10000 2.1 190 11:38 21.01.2020
4297 Clouds 2 1020 55 10000 2.1 190 11:19 21.01.2020
4298 Clouds 3 1020 55 10000 2.6 150 10:43 21.01.2020
4299 Clouds 3 1020 55 10000 2.6 150 10:23 21.01.2020
4300 Clouds 2 1021 59 10000 2.6 190 09:56 21.01.2020
4301 Clouds 2 1021 59 10000 2.6 190 09:38 21.01.2020
4302 Clouds 2 1021 59 10000 2.6 190 09:19 21.01.2020
4303 Mist 2 1022 59 6000 1 110 08:41 21.01.2020
4304 Mist 2 1022 59 6000 1 110 08:22 21.01.2020
4305 Mist 1 1021 74 3200 2.1 130 07:43 21.01.2020
4306 Snow 1 1021 86 1200 1.53 154 07:43 21.01.2020
4307 Mist 1 1021 74 3200 2.1 130 07:24 21.01.2020
4308 Rain -1 1021 80 3200 0.5 0 06:57 21.01.2020
4309 Rain -1 1021 80 3200 0.5 0 06:38 21.01.2020
4310 Snow -2 1020 92 3200 1.5 200 05:53 21.01.2020
4311 Snow -1 1020 100 1000 1.53 154 05:32 21.01.2020
4312 Rain -2 1020 86 4000 2.1 330 04:37 21.01.2020
4313 Rain -2 1019 92 2800 2.6 320 02:27 21.01.2020
4314 Rain -2 1019 92 2800 2.6 320 01:36 21.01.2020
4315 Rain -1 1018 100 600 0.56 288 00:41 21.01.2020
4316 Rain -1 1018 100 600 0.56 288 00:22 21.01.2020
4317 Snow -7 1024 95 0 0.56 288 23:41 20.01.2020
4318 Rain -1 1018 100 600 0.42 14 23:19 20.01.2020
4319 Rain -1 1018 100 600 0.42 14 22:59 20.01.2020
4320 Snow -1 1019 100 600 0.42 14 22:39 20.01.2020
4321 Snow -1 1019 100 600 0.42 14 22:21 20.01.2020
4322 Snow -2 1020 92 900 1 230 21:58 20.01.2020
4323 Snow -2 1020 92 900 1 230 21:38 20.01.2020
4324 Snow -2 1020 92 900 1 230 21:20 20.01.2020
4325 Snow -2 1019 100 600 0.42 14 20:58 20.01.2020
4326 Rain -2 1020 92 900 0.5 250 20:39 20.01.2020
4327 Rain -2 1020 92 900 0.5 250 20:19 20.01.2020
4328 Rain -2 1020 92 900 0.5 250 20:19 20.01.2020
4329 Rain -1 1020 92 1000 1.12 37 19:57 20.01.2020
4330 Rain -1 1020 92 1000 1.12 37 19:38 20.01.2020
4331 Rain -1 1020 92 1000 1.12 37 19:19 20.01.2020
4332 Rain -1 1021 92 1200 0.5 0 18:45 20.01.2020
4333 Rain -1 1021 92 1200 0.5 0 18:24 20.01.2020
4334 Snow -1 1020 96 1000 1.12 37 17:59 20.01.2020
4335 Snow -1 1021 92 1800 1.12 37 17:37 20.01.2020
4336 Snow -1 1021 92 1800 1.69 13 17:18 20.01.2020
4337 Snow -1 1021 92 2500 1 90 16:44 20.01.2020
4338 Snow -1 1021 92 2500 1 90 16:25 20.01.2020
4339 Snow 0 1021 80 3000 1.5 0 15:58 20.01.2020
4340 Snow 0 1021 80 3000 1.5 0 15:39 20.01.2020
4341 Smoke 0 1020 94 3000 1 0 15:21 20.01.2020
4342 Smoke 0 1020 74 4000 1.5 300 14:44 20.01.2020
4343 Smoke 0 1020 74 4000 1.5 300 14:25 20.01.2020
4344 Smoke 1 1020 89 6000 2.1 300 13:59 20.01.2020
4345 Smoke 1 1020 89 6000 2.1 300 13:40 20.01.2020
4346 Smoke 1 1020 91 6000 2.1 300 13:22 20.01.2020
4347 Smoke 1 1020 55 8000 2.1 280 12:48 20.01.2020
4348 Smoke 1 1020 55 8000 2.1 280 12:29 20.01.2020
4349 Smoke 1 1020 55 8000 2.1 280 12:29 20.01.2020
4350 Smoke 2 1020 59 8000 2.1 310 11:59 20.01.2020
4351 Smoke 1 1020 59 8000 2.1 310 11:40 20.01.2020
4352 Smoke 1 1020 59 8000 2.1 310 11:22 20.01.2020
4353 Smoke 1 1021 55 8000 3.6 320 10:57 20.01.2020
4354 Smoke 1 1021 55 8000 3.6 320 10:39 20.01.2020
4355 Smoke 1 1021 55 8000 3.6 320 10:19 20.01.2020
4356 Smoke 1 1021 55 8000 3.6 320 10:19 20.01.2020
4357 Smoke 2 1021 47 8000 2.1 290 09:40 20.01.2020
4358 Smoke 2 1021 47 8000 2.1 290 09:21 20.01.2020
4359 Smoke 2 1022 47 8000 1 0 08:49 20.01.2020
4360 Smoke 2 1022 47 8000 1 0 08:30 20.01.2020
4361 Smoke 0 1023 86 8000 2.6 320 07:53 20.01.2020
4362 Smoke 0 1023 86 8000 2.6 320 07:30 20.01.2020
4363 Haze -1 1022 86 2400 1.36 133 06:59 20.01.2020
4364 Clouds -2 1023 63 3000 1.5 0 06:28 20.01.2020
4365 Clouds -4 1022 68 7000 3.6 330 05:44 20.01.2020
4366 Clouds -4 1022 68 7000 3.6 330 05:23 20.01.2020
4367 Clouds -4 1022 73 8000 1.5 300 04:49 20.01.2020
4368 Clouds -4 1022 73 10000 3.1 320 02:59 20.01.2020
4369 Clouds -4 1022 73 10000 3.1 320 02:59 20.01.2020
4370 Clouds -4 1022 62 8000 3.1 320 01:57 20.01.2020
4371 Clouds -4 1022 62 8000 3.1 320 01:37 20.01.2020
4372 Smoke -4 1023 67 5000 2.6 310 00:45 20.01.2020
4373 Smoke -4 1023 67 5000 2.6 310 00:25 20.01.2020
4374 Clouds -4 1023 62 7000 2.6 330 23:40 19.01.2020
4375 Clouds -4 1023 62 7000 2.6 330 23:20 19.01.2020
4376 Clouds -4 1024 62 5000 3.1 320 22:57 19.01.2020
4377 Clouds -4 1024 62 5000 3.1 320 22:39 19.01.2020
4378 Clouds -4 1024 62 5000 3.1 320 22:21 19.01.2020
4379 Clouds -4 1024 62 7000 2.6 320 21:57 19.01.2020
4380 Clouds -4 1024 62 7000 2.6 320 21:39 19.01.2020
4381 Clouds -4 1024 62 7000 2.6 320 21:20 19.01.2020
4382 Haze -4 1023 79 3200 1.17 333 20:57 19.01.2020
4383 Haze -4 1023 79 3200 1.17 333 20:57 19.01.2020
4384 Clouds -4 1024 58 6000 3.1 310 20:39 19.01.2020
4385 Clouds -4 1024 58 6000 3.1 310 20:21 19.01.2020
4386 Smoke -3 1024 58 5000 3.6 310 19:57 19.01.2020
4387 Smoke -3 1024 58 5000 3.6 310 19:39 19.01.2020
4388 Smoke -3 1024 58 5000 3.6 310 19:21 19.01.2020
4389 Smoke -3 1025 58 5000 2.6 320 18:59 19.01.2020
4390 Smoke -3 1025 58 5000 2.6 320 18:41 19.01.2020
4391 Smoke -3 1025 58 5000 2.6 320 18:41 19.01.2020
4392 Smoke -3 1025 58 5000 2.6 320 18:21 19.01.2020
4393 Smoke -3 1025 53 4000 3.6 320 17:58 19.01.2020
4394 Smoke -3 1025 53 4000 3.6 320 17:40 19.01.2020
4395 Smoke -3 1025 53 4000 3.6 320 17:40 19.01.2020
4396 Smoke -3 1025 53 4000 3.6 320 17:21 19.01.2020
4397 Smoke -4 1024 58 3000 3.1 320 16:59 19.01.2020
4398 Smoke -4 1024 58 3000 3.1 320 16:40 19.01.2020
4399 Smoke -4 1024 58 3000 3.1 320 16:21 19.01.2020
4400 Smoke -2 1024 53 4000 1.5 340 15:59 19.01.2020
4401 Smoke -2 1024 53 4000 1.5 340 15:39 19.01.2020
4402 Smoke -2 1024 53 4000 1.5 340 15:20 19.01.2020
4403 Smoke -2 1024 50 5000 3.1 320 14:58 19.01.2020
4404 Smoke -2 1024 50 5000 3.1 320 14:39 19.01.2020
4405 Smoke -2 1024 50 5000 3.1 320 14:18 19.01.2020
4406 Smoke 0 1023 71 4000 1.5 240 13:58 19.01.2020
4407 Smoke 0 1023 71 4000 1.5 240 13:38 19.01.2020
4408 Smoke 0 1023 69 4000 1.5 240 13:20 19.01.2020
4409 Smoke 0 1023 69 5000 1.5 200 12:55 19.01.2020
4410 Smoke 0 1023 69 5000 1.5 200 12:37 19.01.2020
4411 Smoke 0 1023 69 5000 1.5 200 12:37 19.01.2020
4412 Smoke 0 1023 69 5000 1.5 200 12:19 19.01.2020
4413 Smoke 0 1023 69 7000 1.5 0 11:42 19.01.2020
4414 Smoke 0 1023 57 7000 1.5 0 11:21 19.01.2020
4415 Smoke -1 1023 42 8000 3.1 330 10:57 19.01.2020
4416 Smoke -1 1023 42 8000 3.1 330 10:39 19.01.2020
4417 Smoke -1 1023 42 8000 3.1 330 10:19 19.01.2020
4418 Smoke -1 1024 39 8000 3.6 300 09:56 19.01.2020
4419 Smoke -1 1024 39 8000 3.6 300 09:56 19.01.2020
4420 Smoke -1 1024 39 8000 3.6 300 09:56 19.01.2020
4421 Smoke -1 1024 39 8000 3.6 300 09:56 19.01.2020
4422 Smoke -1 1024 39 8000 3.6 300 09:56 19.01.2020
4423 Smoke -1 1024 39 8000 3.6 300 09:37 19.01.2020
4424 Smoke -1 1024 39 8000 3.6 300 09:19 19.01.2020
4425 Smoke -1 1025 39 8000 1.5 330 08:52 19.01.2020
4426 Smoke -1 1025 39 8000 1.5 330 08:30 19.01.2020
4427 Smoke -1 1026 45 8000 4.1 300 07:45 19.01.2020
4428 Smoke -1 1026 45 8000 4.1 300 07:26 19.01.2020
4429 Smoke -6 1026 53 8000 4.1 320 06:54 19.01.2020
4430 Smoke -6 1026 53 8000 4.1 320 06:21 19.01.2020
4431 Clouds -11 1024 66 10000 4.1 320 03:28 19.01.2020
4432 Clouds -9 1024 61 10000 3.6 320 02:26 19.01.2020
4433 Clouds -10 1024 61 10000 4.1 310 01:29 19.01.2020
4434 Clouds -9 1024 61 8000 4.6 320 00:54 19.01.2020
4435 Clouds -8 1024 61 8000 4.6 320 00:31 19.01.2020
4436 Clouds -10 1025 72 7000 4.1 310 23:59 18.01.2020
4437 Clouds -10 1025 72 7000 4.1 310 23:41 18.01.2020
4438 Clouds -10 1025 72 7000 4.1 310 23:23 18.01.2020
4439 Clouds -10 1025 72 7000 4.1 310 23:23 18.01.2020
4440 Clear -7 1025 57 7000 3.1 330 22:55 18.01.2020
4441 Clear -7 1025 57 7000 3.1 330 22:37 18.01.2020
4442 Clear -7 1025 57 7000 3.1 330 22:19 18.01.2020
4443 Clear -8 1025 57 7000 3.6 330 21:57 18.01.2020
4444 Clear -8 1025 57 7000 3.6 330 21:38 18.01.2020
4445 Clear -8 1025 57 7000 3.6 330 21:20 18.01.2020
4446 Smoke -8 1025 66 5000 3.6 310 20:43 18.01.2020
4447 Smoke -8 1025 66 5000 3.6 310 20:21 18.01.2020
4448 Smoke -8 1025 62 4000 4.1 320 19:58 18.01.2020
4449 Smoke -8 1025 62 4000 4.1 320 19:40 18.01.2020
4450 Smoke -8 1025 62 4000 4.1 320 19:22 18.01.2020
4451 Smoke -6 1025 53 5000 3.6 320 18:42 18.01.2020
4452 Smoke -6 1025 53 5000 3.6 320 18:22 18.01.2020
4453 Smoke -4 1025 49 5000 4.1 340 17:55 18.01.2020
4454 Smoke -4 1025 49 5000 4.1 340 17:37 18.01.2020
4455 Smoke -5 1025 49 5000 4.1 340 17:19 18.01.2020
4456 Smoke -5 1025 53 5000 4.1 320 16:55 18.01.2020
4457 Smoke -5 1025 53 5000 4.1 320 16:36 18.01.2020
4458 Smoke -5 1025 53 5000 4.1 320 16:18 18.01.2020
4459 Smoke -3 1024 45 5000 3.1 320 15:41 18.01.2020
4460 Smoke -3 1024 45 5000 3.1 320 15:23 18.01.2020
4461 Clear -2 1023 46 8000 3.1 320 14:55 18.01.2020
4462 Clear -2 1023 46 8000 3.1 320 14:37 18.01.2020
4463 Clear -2 1023 46 8000 3.1 320 14:18 18.01.2020
4464 Clear 1 1023 37 9000 2.6 290 13:43 18.01.2020
4465 Clear 1 1023 37 9000 2.6 290 13:24 18.01.2020
4466 Clear 3 1023 34 10000 2.1 300 12:56 18.01.2020
4467 Clear 3 1023 34 10000 2.1 300 12:38 18.01.2020
4468 Clear 3 1023 34 10000 2.1 300 12:19 18.01.2020
4469 Clear 2 1023 29 10000 2.6 290 11:44 18.01.2020
4470 Clear 2 1023 29 10000 2.6 290 11:21 18.01.2020
4471 Clear 2 1024 37 9000 2.1 310 10:56 18.01.2020
4472 Clear 2 1024 37 9000 2.1 310 10:38 18.01.2020
4473 Clear 2 1024 37 9000 2.1 310 10:18 18.01.2020
4474 Clear 2 1024 37 9000 2.1 310 10:18 18.01.2020
4475 Clear 0 1024 60 10000 2.6 330 09:42 18.01.2020
4476 Clear 0 1024 60 10000 2.6 330 09:24 18.01.2020
4477 Haze 0 1025 60 8000 3.1 320 08:55 18.01.2020
4478 Haze 0 1025 60 8000 3.1 320 08:37 18.01.2020
4479 Haze 0 1025 51 8000 3.1 320 08:18 18.01.2020
4480 Haze -3 1026 42 8000 2.6 330 07:43 18.01.2020
4481 Haze -3 1026 42 8000 2.6 330 07:25 18.01.2020
4482 Haze -5 1025 49 7000 3.6 300 06:46 18.01.2020
4483 Haze -9 1024 57 8000 3.6 320 05:55 18.01.2020
4484 Clear -11 1024 61 9000 4.1 310 04:29 18.01.2020
4485 Clear -11 1022 61 8000 3.6 310 02:50 18.01.2020
4486 Clear -8 1022 57 8000 3.6 320 01:51 18.01.2020
4487 Clear -8 1022 57 8000 3.6 320 00:40 18.01.2020
4488 Clear -8 1022 57 8000 3.6 320 00:21 18.01.2020
4489 Clear -7 1022 53 8000 3.1 320 23:59 17.01.2020
4490 Clear -7 1022 53 8000 3.1 320 23:40 17.01.2020
4491 Clear -7 1022 53 8000 3.1 320 23:19 17.01.2020
4492 Clear -8 1022 53 7000 3.1 320 22:43 17.01.2020
4493 Clear -8 1022 53 7000 3.1 320 22:21 17.01.2020
4494 Clear -7 1022 57 7000 2.6 310 21:57 17.01.2020
4495 Clear -7 1022 57 7000 2.6 310 21:39 17.01.2020
4496 Clear -7 1022 57 7000 2.6 310 21:20 17.01.2020
4497 Haze -7 1021 79 4400 1.29 267 20:55 17.01.2020
4498 Haze -7 1021 79 4400 1.29 267 20:36 17.01.2020
4499 Haze -6 1021 79 4400 1.64 253 20:18 17.01.2020
4500 Haze -6 1021 79 4400 1.64 253 20:18 17.01.2020
4501 Clouds -6 1022 49 7000 3.6 310 19:54 17.01.2020
4502 Clouds -6 1022 49 7000 3.6 310 19:54 17.01.2020
4503 Clouds -6 1022 49 7000 3.6 310 19:36 17.01.2020
4504 Clouds -6 1022 49 7000 3.6 310 19:18 17.01.2020
4505 Clouds -4 1022 49 6000 3.1 340 18:44 17.01.2020
4506 Clouds -4 1022 49 6000 3.1 340 18:26 17.01.2020
4507 Clouds -5 1022 53 7000 4.1 340 17:56 17.01.2020
4508 Clouds -5 1022 53 7000 4.1 340 17:38 17.01.2020
4509 Clouds -5 1022 53 7000 4.1 340 17:19 17.01.2020
4510 Clouds -4 1021 45 5000 3.1 340 16:41 17.01.2020
4511 Clouds -4 1021 45 5000 3.1 340 16:20 17.01.2020
4512 Clouds -3 1021 46 6000 3.6 340 15:48 17.01.2020
4513 Clouds -3 1021 46 6000 3.6 340 15:27 17.01.2020
4514 Clouds -1 1021 51 9000 1.5 270 14:56 17.01.2020
4515 Clouds -1 1021 51 9000 1.5 270 14:38 17.01.2020
4516 Clouds -1 1021 64 9000 1.5 270 14:19 17.01.2020
4517 Clouds 2 1020 31 9000 2.6 0 13:39 17.01.2020
4518 Clouds 2 1020 31 9000 2.6 0 13:20 17.01.2020
4519 Clouds 3 1020 32 10000 2.6 280 12:45 17.01.2020
4520 Clouds 3 1020 32 10000 2.6 280 12:22 17.01.2020
4521 Clouds 3 1021 29 10000 2.1 200 11:41 17.01.2020
4522 Clouds 3 1021 29 10000 2.1 200 11:19 17.01.2020
4523 Clouds 2 1021 34 10000 1.5 210 10:45 17.01.2020
4524 Clouds 2 1021 34 10000 1.5 210 10:24 17.01.2020
4525 Haze 2 1022 34 9000 1 0 09:59 17.01.2020
4526 Haze 2 1022 34 9000 1 0 09:41 17.01.2020
4527 Haze 2 1022 34 9000 1 0 09:20 17.01.2020
4528 Haze -1 1023 60 9000 1.5 330 08:55 17.01.2020
4529 Haze -1 1023 60 9000 1.5 330 08:36 17.01.2020
4530 Haze -1 1023 51 9000 1.5 330 08:18 17.01.2020
4531 Haze -3 1024 42 8000 2.6 310 07:42 17.01.2020
4532 Haze -3 1024 42 8000 2.6 310 07:24 17.01.2020
4533 Haze -5 1023 49 6000 4.6 310 06:43 17.01.2020
4534 Haze -5 1023 49 6000 4.6 310 06:20 17.01.2020
4535 Clouds -10 1022 66 10000 2.1 310 04:25 17.01.2020
4536 Clouds -10 1022 61 10000 4.1 300 02:55 17.01.2020
4537 Clouds -9 1021 66 10000 3.6 320 02:30 17.01.2020
4538 Clouds -10 1021 66 8000 3.6 320 01:32 17.01.2020
4539 Clouds -10 1021 66 8000 3.6 320 00:58 17.01.2020
4540 Clouds -11 1022 72 8000 2.1 290 00:29 17.01.2020
4541 Clouds -11 1022 72 8000 2.1 290 23:54 16.01.2020
4542 Clouds -11 1022 72 8000 2.1 290 23:54 16.01.2020
4543 Clouds -9 1022 67 7000 2.6 310 23:36 16.01.2020
4544 Clouds -9 1022 67 7000 2.6 310 23:18 16.01.2020
4545 Clouds -8 1022 66 8000 4.6 320 22:40 16.01.2020
4546 Clouds -8 1022 66 8000 4.6 320 22:21 16.01.2020
4547 Clouds -8 1022 66 8000 4.6 320 21:56 16.01.2020
4548 Clouds -8 1022 66 8000 4.6 320 21:37 16.01.2020
4549 Clouds -7 1022 67 7000 3.6 330 21:18 16.01.2020
4550 Clouds -6 1022 57 7000 4.1 320 20:56 16.01.2020
4551 Clouds -6 1022 57 7000 4.1 320 20:37 16.01.2020
4552 Clouds -6 1022 57 7000 4.1 320 20:18 16.01.2020
4553 Clouds -6 1022 58 6000 3.6 320 19:54 16.01.2020
4554 Clouds -6 1022 58 6000 3.6 320 19:36 16.01.2020
4555 Clouds -6 1022 58 6000 3.6 320 19:18 16.01.2020
4556 Smoke -5 1022 58 5000 3.6 320 18:54 16.01.2020
4557 Smoke -5 1022 58 5000 3.6 320 18:36 16.01.2020
4558 Smoke -5 1022 58 5000 3.6 320 18:18 16.01.2020
4559 Smoke -4 1022 53 6000 4.1 310 17:41 16.01.2020
4560 Smoke -4 1022 53 6000 4.1 310 17:21 16.01.2020
4561 Smoke -4 1022 58 4000 3.6 330 16:56 16.01.2020
4562 Smoke -3 1022 58 4000 3.6 330 16:37 16.01.2020
4563 Smoke -3 1022 58 4000 3.6 330 16:18 16.01.2020
4564 Smoke -3 1022 50 5000 3.6 320 15:44 16.01.2020
4565 Smoke -3 1022 50 5000 3.6 320 15:21 16.01.2020
4566 Clouds -2 1022 46 10000 3.6 310 14:55 16.01.2020
4567 Clouds -2 1022 46 10000 3.6 310 14:37 16.01.2020
4568 Clouds -2 1022 46 10000 3.6 310 14:18 16.01.2020
4569 Clouds 1 1022 37 10000 1 0 13:43 16.01.2020
4570 Clouds 1 1022 37 10000 1 0 13:24 16.01.2020
4571 Clouds 2 1022 40 10000 3.1 340 12:46 16.01.2020
4572 Clouds 2 1022 40 10000 3.1 340 12:28 16.01.2020
4573 Clouds 2 1022 43 10000 4.1 320 11:57 16.01.2020
4574 Clouds 2 1022 43 10000 4.1 320 11:39 16.01.2020
4575 Clear 2 1022 43 10000 4.1 320 11:21 16.01.2020
4576 Clear 2 1023 37 10000 1.5 0 10:39 16.01.2020
4577 Clear 2 1023 37 10000 1.5 0 10:21 16.01.2020
4578 Haze 1 1024 40 8000 1 0 09:58 16.01.2020
4579 Haze 1 1024 40 8000 1 0 09:39 16.01.2020
4580 Haze 0 1024 40 8000 1 0 09:21 16.01.2020
4581 Clear -1 1025 46 10000 3.1 330 08:52 16.01.2020
4582 Clear -1 1025 46 10000 3.1 330 08:34 16.01.2020
4583 Clear -4 1025 49 10000 3.6 320 07:59 16.01.2020
4584 Clear -4 1025 49 10000 3.6 320 07:39 16.01.2020
4585 Clear -4 1025 49 10000 3.6 320 07:20 16.01.2020
4586 Clear -6 1025 57 7000 4.6 310 06:43 16.01.2020
4587 Clear -6 1025 57 7000 4.6 310 06:21 16.01.2020
4588 Smoke -9 1025 57 7000 3.6 290 05:45 16.01.2020
4589 Clear -11 1024 66 10000 4.6 310 04:38 16.01.2020
4590 Clear -10 1024 78 10000 4.1 310 03:28 16.01.2020
4591 Clear -10 1023 78 10000 3.6 300 02:43 16.01.2020
4592 Clear -11 1023 72 8000 4.1 320 00:54 16.01.2020
4593 Clear -9 1023 72 8000 4.1 320 00:24 16.01.2020
4594 Clear -8 1023 73 8000 3.6 330 23:50 15.01.2020
4595 Clear -8 1023 73 8000 3.6 330 23:23 15.01.2020
4596 Clear -8 1023 73 8000 3.6 320 22:59 15.01.2020
4597 Clear -8 1023 73 8000 3.6 320 22:41 15.01.2020
4598 Clear -8 1023 73 8000 3.6 320 22:19 15.01.2020
4599 Clear -8 1023 67 6000 3.6 320 21:58 15.01.2020
4600 Clear -8 1023 67 6000 3.6 320 21:40 15.01.2020
4601 Clear -8 1023 67 6000 3.6 320 21:21 15.01.2020
4602 Smoke -6 1023 73 5000 2.6 330 20:58 15.01.2020
4603 Smoke -6 1023 73 5000 2.6 330 20:58 15.01.2020
4604 Smoke -6 1023 73 5000 2.6 330 20:40 15.01.2020
4605 Smoke -6 1023 73 5000 2.6 330 20:21 15.01.2020
4606 Smoke -5 1023 67 5000 3.1 340 19:55 15.01.2020
4607 Smoke -5 1023 67 5000 3.1 340 19:55 15.01.2020
4608 Smoke -5 1023 67 5000 3.1 340 19:55 15.01.2020
4609 Smoke -5 1023 67 5000 3.1 340 19:37 15.01.2020
4610 Smoke -5 1023 67 5000 3.1 340 19:19 15.01.2020
4611 Smoke -6 1024 67 5000 3.6 330 18:57 15.01.2020
4612 Smoke -6 1024 67 5000 3.6 330 18:38 15.01.2020
4613 Smoke -6 1024 67 5000 3.6 330 18:20 15.01.2020
4614 Smoke -6 1024 67 5000 3.6 330 18:20 15.01.2020
4615 Smoke -5 1024 67 4000 3.6 320 17:58 15.01.2020
4616 Smoke -5 1024 67 4000 3.6 320 17:40 15.01.2020
4617 Smoke -5 1024 67 4000 3.6 320 17:21 15.01.2020
4618 Smoke -5 1023 62 4000 3.1 340 16:43 15.01.2020
4619 Smoke -5 1023 62 4000 3.1 340 16:24 15.01.2020
4620 Haze -5 1022 85 3200 1.5 200 15:59 15.01.2020
4621 Clear -4 1023 68 6000 4.1 320 15:41 15.01.2020
4622 Clear -4 1023 68 6000 4.1 320 15:20 15.01.2020
4623 Clear -2 1022 58 7000 2.6 330 14:45 15.01.2020
4624 Clear -2 1022 58 7000 2.6 330 14:21 15.01.2020
4625 Clear -1 1022 54 8000 2.1 300 13:58 15.01.2020
4626 Clear 0 1022 54 8000 2.1 300 13:40 15.01.2020
4627 Clear 0 1022 54 8000 2.1 300 13:40 15.01.2020
4628 Clear 0 1022 54 8000 2.1 300 13:22 15.01.2020
4629 Clear 2 1022 43 10000 2.6 320 12:55 15.01.2020
4630 Clear 2 1022 43 10000 2.6 320 12:55 15.01.2020
4631 Clear 2 1022 43 10000 2.6 320 12:36 15.01.2020
4632 Clear 2 1022 43 10000 2.6 320 12:18 15.01.2020
4633 Clear 3 1022 35 10000 1.5 0 11:38 15.01.2020
4634 Clear 3 1022 35 10000 1.5 0 11:20 15.01.2020
4635 Clear 2 1022 38 8000 1 0 10:48 15.01.2020
4636 Clear 2 1022 38 8000 1 0 10:29 15.01.2020
4637 Clear 1 1023 43 8000 1 0 09:59 15.01.2020
4638 Clear 1 1023 43 8000 1 0 09:41 15.01.2020
4639 Clear 1 1023 43 8000 1 0 09:21 15.01.2020
4640 Clear -1 1024 65 10000 3.1 330 08:44 15.01.2020
4641 Clear -1 1024 63 10000 3.1 330 08:24 15.01.2020
4642 Clouds -3 1024 58 8000 3.6 330 07:54 15.01.2020
4643 Clouds -3 1024 58 8000 3.6 330 07:33 15.01.2020
4644 Clouds -6 1023 58 6000 3.6 320 06:52 15.01.2020
4645 Clouds -6 1023 58 6000 3.6 320 06:28 15.01.2020
4646 Mist -10 1022 92 2600 1.11 252 04:57 15.01.2020
4647 Clouds -9 1021 78 8000 2.6 320 03:20 15.01.2020
4648 Clouds -10 1021 85 7000 2.1 300 01:48 15.01.2020
4649 Mist -9 1020 92 5000 0.89 248 01:21 15.01.2020
4650 Mist -9 1021 78 5000 3.6 320 00:37 15.01.2020
4651 Mist -9 1021 78 5000 3.6 320 00:19 15.01.2020
4652 Mist -8 1021 78 4000 3.1 320 23:46 14.01.2020
4653 Mist -8 1021 78 4000 3.1 320 23:24 14.01.2020
4654 Mist -8 1021 79 3500 2.6 330 22:57 14.01.2020
4655 Mist -8 1021 79 3500 2.6 330 22:39 14.01.2020
4656 Mist -8 1021 79 3500 2.6 330 22:18 14.01.2020
4657 Mist -7 1021 79 3500 2.1 320 21:56 14.01.2020
4658 Mist -7 1021 79 3500 2.1 320 21:37 14.01.2020
4659 Mist -8 1021 79 3500 2.1 320 21:19 14.01.2020
4660 Mist -6 1021 73 3500 3.1 330 20:42 14.01.2020
4661 Mist -7 1021 73 3500 3.1 330 20:22 14.01.2020
4662 Mist -7 1021 79 3000 2.6 330 19:57 14.01.2020
4663 Mist -7 1021 79 3000 2.6 330 19:57 14.01.2020
4664 Mist -7 1021 79 3000 2.6 330 19:38 14.01.2020
4665 Mist -6 1020 85 5000 2.1 190 19:20 14.01.2020
4666 Mist -4 1021 73 3500 2.6 330 18:59 14.01.2020
4667 Mist -5 1021 73 3500 2.6 330 18:40 14.01.2020
4668 Mist -4 1021 73 3500 2.6 330 18:19 14.01.2020
4669 Mist -4 1021 73 3000 2.6 330 17:39 14.01.2020
4670 Mist -4 1021 73 3000 2.6 330 17:20 14.01.2020
4671 Mist -3 1021 73 3000 1.5 340 16:59 14.01.2020
4672 Mist -3 1021 73 3000 1.5 340 16:41 14.01.2020
4673 Mist -3 1021 73 3000 1.5 340 16:21 14.01.2020
4674 Mist 0 1021 80 3000 1.5 60 15:55 14.01.2020
4675 Mist 0 1021 80 3000 1.5 60 15:37 14.01.2020
4676 Mist 0 1021 80 3000 1.5 60 15:18 14.01.2020
4677 Smoke 0 1020 74 4000 1.5 140 14:43 14.01.2020
4678 Smoke 0 1020 74 4000 1.5 140 14:20 14.01.2020
4679 Smoke 1 1020 81 7000 2.6 10 13:43 14.01.2020
4680 Smoke 1 1020 82 7000 2.6 10 13:20 14.01.2020
4681 Smoke 1 1020 59 7000 2.1 330 12:59 14.01.2020
4682 Smoke 1 1020 59 7000 2.1 330 12:40 14.01.2020
4683 Smoke 1 1020 59 7000 2.1 330 12:20 14.01.2020
4684 Smoke 1 1020 59 7000 2.1 330 12:20 14.01.2020
4685 Smoke 1 1020 59 7000 2.1 330 12:20 14.01.2020
4686 Smoke 1 1020 59 7000 2.1 330 12:20 14.01.2020
4687 Smoke 2 1020 55 7000 2.6 340 11:43 14.01.2020
4688 Smoke 2 1020 55 7000 2.6 340 11:23 14.01.2020
4689 Smoke 1 1020 55 6000 3.1 310 10:59 14.01.2020
4690 Smoke 1 1020 55 6000 3.1 310 10:39 14.01.2020
4691 Smoke 1 1020 55 6000 3.1 310 10:20 14.01.2020
4692 Smoke 2 1021 55 4000 1.5 350 09:57 14.01.2020
4693 Smoke 2 1021 55 4000 1.5 350 09:39 14.01.2020
4694 Smoke 2 1021 55 4000 1.5 350 09:20 14.01.2020
4695 Smoke 1 1021 51 3000 1 0 08:46 14.01.2020
4696 Smoke 2 1021 51 3000 1 0 08:24 14.01.2020
4697 Smoke 0 1021 63 2000 1.5 140 07:53 14.01.2020
4698 Smoke -1 1021 63 2000 1.5 140 07:31 14.01.2020
4699 Smoke -1 1021 63 3000 2.1 90 06:51 14.01.2020
4700 Smoke -1 1021 63 3000 2.1 90 06:27 14.01.2020
4701 Clouds -3 1020 68 8000 1.5 290 05:25 14.01.2020
4702 Clouds -4 1018 73 8000 3.1 300 03:51 14.01.2020
4703 Clouds -2 1017 68 10000 2.1 310 02:42 14.01.2020
4704 Clouds -1 1017 63 10000 3.1 350 01:53 14.01.2020
4705 Clouds -1 1016 63 10000 1.5 320 00:51 14.01.2020
4706 Clouds -1 1016 63 10000 1.5 320 00:32 14.01.2020
4707 Clouds -1 1015 52 10000 3.6 220 23:54 13.01.2020
4708 Clouds -1 1015 52 10000 3.6 220 23:54 13.01.2020
4709 Clouds -1 1015 52 10000 3.6 220 23:36 13.01.2020
4710 Clouds -1 1015 53 10000 3.6 220 23:18 13.01.2020
4711 Clouds -1 1014 53 10000 4.1 210 22:41 13.01.2020
4712 Clouds -1 1014 53 10000 4.1 210 22:21 13.01.2020
4713 Clouds -1 1013 53 10000 2.6 230 21:56 13.01.2020
4714 Clouds 0 1013 53 10000 2.6 230 21:38 13.01.2020
4715 Clouds 0 1013 53 10000 2.6 230 21:19 13.01.2020
4716 Clouds -2 1012 63 10000 0.5 0 20:58 13.01.2020
4717 Clouds -2 1012 63 10000 0.5 0 20:40 13.01.2020
4718 Clouds 0 1012 63 10000 0.5 0 20:22 13.01.2020
4719 Clouds 0 1011 74 8000 2.6 340 19:58 13.01.2020
4720 Clouds 0 1011 74 8000 2.6 340 19:58 13.01.2020
4721 Clouds 0 1011 74 8000 2.6 340 19:39 13.01.2020
4722 Clouds 0 1011 74 8000 2.6 340 19:39 13.01.2020
4723 Clouds 0 1011 74 8000 2.6 340 19:19 13.01.2020
4724 Clouds 0 1010 74 7000 3.1 340 18:56 13.01.2020
4725 Clouds 0 1010 74 7000 3.1 340 18:37 13.01.2020
4726 Clouds 0 1010 74 7000 3.1 340 18:18 13.01.2020
4727 Clouds 1 1009 52 7000 3.1 340 17:42 13.01.2020
4728 Clouds 1 1009 65 7000 3.1 340 17:24 13.01.2020
4729 Clouds 1 1009 65 7000 3.1 340 17:24 13.01.2020
4730 Clouds 1 1008 69 6000 3.1 320 16:57 13.01.2020
4731 Clouds 1 1008 69 6000 3.1 320 16:38 13.01.2020
4732 Clouds 1 1008 69 6000 3.1 320 16:20 13.01.2020
4733 Clouds -7 1018 65 0 2.53 280 15:44 13.01.2020
4734 Clouds -7 1018 65 0 2.53 280 15:23 13.01.2020
4735 Clouds 1 1006 69 10000 2.1 290 14:58 13.01.2020
4736 Clouds 1 1006 69 10000 2.1 290 14:38 13.01.2020
4737 Snow -4 1012 93 0 1.32 201 14:20 13.01.2020
4738 Snow -4 1012 93 0 1.32 201 13:42 13.01.2020
4739 Snow -3 1012 90 0 1.64 221 13:24 13.01.2020
4740 Snow -3 1012 90 0 1.64 221 12:59 13.01.2020
4741 Clouds 3 1006 64 8000 1 320 12:41 13.01.2020
4742 Clouds 3 1006 64 8000 1 320 12:23 13.01.2020
4743 Clouds 3 1006 64 8000 1 320 11:57 13.01.2020
4744 Clouds 3 1006 64 8000 1 320 11:37 13.01.2020
4745 Mist 3 1006 74 3500 1.5 190 11:19 13.01.2020
4746 Mist 1 1007 94 3000 1.5 70 10:56 13.01.2020
4747 Mist 1 1007 94 3000 1.5 70 10:37 13.01.2020
4748 Mist 1 1007 94 3000 1.5 70 10:19 13.01.2020
4749 Mist 2 1008 86 3000 2.6 120 09:43 13.01.2020
4750 Mist 2 1008 86 3000 2.6 120 09:23 13.01.2020
4751 Mist 2 1008 94 4000 1.5 170 08:56 13.01.2020
4752 Mist 2 1010 80 2800 1.5 100 08:36 13.01.2020
4753 Mist 2 1010 80 2800 1.5 100 08:18 13.01.2020
4754 Mist 1 1011 86 2800 1 110 07:42 13.01.2020
4755 Mist 1 1011 86 2800 1 110 07:21 13.01.2020
4756 Rain 0 1011 92 2500 1.5 70 06:37 13.01.2020
4757 Rain 0 1011 92 2500 1.5 70 06:37 13.01.2020
4758 Snow 0 1011 92 2000 1.5 90 05:37 13.01.2020
4759 Snow -1 1011 100 600 1.5 100 04:56 13.01.2020
4760 Rain -1 1012 100 4000 1.5 120 03:38 13.01.2020
4761 Rain -1 1012 100 5000 1 100 02:49 13.01.2020
4762 Rain -1 1012 100 5000 1 100 02:30 13.01.2020
4763 Rain -1 1012 100 5000 1 100 02:30 13.01.2020
4764 Rain -1 1012 100 4000 0.5 230 01:33 13.01.2020
4765 Rain 0 1013 100 3000 2.1 350 00:44 13.01.2020
4766 Rain 0 1013 100 3000 2.1 350 00:26 13.01.2020
4767 Rain 0 1013 92 10000 1.5 100 23:57 12.01.2020
4768 Rain 0 1013 92 10000 1.5 100 23:39 12.01.2020
4769 Rain 0 1013 92 10000 1.5 100 23:21 12.01.2020
4770 Rain 0 1013 96 10000 5.1 330 22:43 12.01.2020
4771 Rain 0 1013 96 10000 5.1 330 22:43 12.01.2020
4772 Rain 0 1013 96 10000 5.1 330 22:25 12.01.2020
4773 Rain 0 1014 80 10000 4.1 40 21:59 12.01.2020
4774 Snow 1 1014 80 10000 4.1 40 21:40 12.01.2020
4775 Rain 0 1014 80 10000 4.1 40 21:20 12.01.2020
4776 Rain 0 1015 80 10000 8.2 80 20:58 12.01.2020
4777 Rain 0 1015 80 10000 8.2 80 20:39 12.01.2020
4778 Rain 0 1015 80 10000 8.2 80 20:21 12.01.2020
4779 Snow 1 1015 97 3200 1.84 13 19:56 12.01.2020
4780 Snow 1 1015 97 3200 1.84 13 19:56 12.01.2020
4781 Rain 0 1016 80 10000 5.7 40 19:38 12.01.2020
4782 Rain 0 1016 80 10000 5.7 40 19:38 12.01.2020
4783 Rain 0 1016 80 10000 5.7 40 19:19 12.01.2020
4784 Rain 0 1016 80 8000 3.6 50 18:58 12.01.2020
4785 Rain 0 1016 80 8000 3.6 50 18:40 12.01.2020
4786 Rain 0 1016 80 8000 3.6 50 18:40 12.01.2020
4787 Rain 0 1016 80 8000 3.6 50 18:21 12.01.2020
4788 Snow 0 1016 97 600 1.84 13 17:58 12.01.2020
4789 Rain 0 1017 97 8000 8.2 70 17:38 12.01.2020
4790 Rain 0 1017 97 8000 8.2 70 17:19 12.01.2020
4791 Rain 0 1017 97 10000 6.2 60 16:56 12.01.2020
4792 Rain 0 1017 97 10000 6.2 60 16:37 12.01.2020
4793 Rain 0 1017 97 10000 6.2 60 16:37 12.01.2020
4794 Rain 0 1017 97 10000 6.2 60 16:19 12.01.2020
4795 Rain 0 1018 97 10000 5.1 60 15:42 12.01.2020
4796 Rain 0 1018 97 10000 5.1 60 15:24 12.01.2020
4797 Rain 0 1018 97 10000 5.1 60 14:57 12.01.2020
4798 Rain 0 1018 97 10000 5.1 60 14:38 12.01.2020
4799 Rain 0 1018 96 10000 5.1 60 14:19 12.01.2020
4800 Rain 0 1017 96 2500 1 0 13:44 12.01.2020
4801 Rain 0 1017 96 2500 1 0 13:44 12.01.2020
4802 Rain 0 1017 96 2500 1 0 13:25 12.01.2020
4803 Rain 0 1018 96 1200 0.5 0 12:59 12.01.2020
4804 Rain 0 1018 96 1200 0.5 0 12:39 12.01.2020
4805 Rain 0 1018 96 1200 0.5 0 12:20 12.01.2020
4806 Rain 0 1019 96 1200 1 0 11:58 12.01.2020
4807 Rain 0 1019 96 1200 1 0 11:39 12.01.2020
4808 Rain 0 1019 97 1200 1 0 11:20 12.01.2020
4809 Rain 0 1019 97 2800 1.5 0 10:41 12.01.2020
4810 Rain 0 1019 97 2800 1.5 0 10:22 12.01.2020
4811 Rain 0 1020 97 2000 1 0 09:57 12.01.2020
4812 Snow 0 1020 97 2000 1 0 09:38 12.01.2020
4813 Snow 0 1020 97 2000 1 0 09:19 12.01.2020
4814 Snow 0 1022 97 3500 1 0 08:45 12.01.2020
4815 Snow 0 1021 96 600 3.16 27 08:20 12.01.2020
4816 Rain -1 1022 96 3200 1 0 07:41 12.01.2020
4817 Rain -1 1022 96 3200 1 0 07:23 12.01.2020
4818 Rain -1 1023 96 4000 3.6 350 06:48 12.01.2020
4819 Rain -1 1023 96 4000 3.6 350 06:29 12.01.2020
4820 Snow -1 1023 92 2800 3.6 340 05:32 12.01.2020
4821 Snow -1 1023 92 2800 3.6 340 05:32 12.01.2020
4822 Rain -2 1023 100 1000 1.5 0 04:27 12.01.2020
4823 Rain -2 1022 100 1600 1.5 0 03:25 12.01.2020
4824 Snow -2 1022 92 2200 3.1 350 02:34 12.01.2020
4825 Rain -2 1023 92 1000 1 0 01:51 12.01.2020
4826 Rain -2 1023 92 1000 1 0 01:29 12.01.2020
4827 Snow -2 1023 92 1200 1.5 140 00:41 12.01.2020
4828 Snow -2 1023 92 1200 1.5 140 00:20 12.01.2020
4829 Snow -2 1023 92 1200 1.5 140 00:20 12.01.2020
4830 Snow -2 1024 92 1000 1 180 23:42 11.01.2020
4831 Snow -2 1024 92 1000 1 180 23:20 11.01.2020
4832 Snow -2 1024 92 2500 1.5 0 22:58 11.01.2020
4833 Snow -2 1024 92 2500 1.5 0 22:58 11.01.2020
4834 Snow -2 1024 92 2500 1.5 0 22:40 11.01.2020
4835 Snow -2 1024 92 2500 1.5 0 22:20 11.01.2020
4836 Snow -1 1024 86 3500 2.6 180 21:58 11.01.2020
4837 Snow -1 1024 86 3500 2.6 180 21:40 11.01.2020
4838 Snow -1 1024 86 3500 2.6 180 21:18 11.01.2020
4839 Snow -1 1024 86 4000 4.1 350 20:41 11.01.2020
4840 Snow -1 1024 86 4000 4.1 350 20:22 11.01.2020
4841 Smoke -1 1024 74 2800 3.6 180 19:58 11.01.2020
4842 Smoke -2 1024 74 2800 3.6 180 19:39 11.01.2020
4843 Smoke -1 1024 74 2800 3.6 180 19:21 11.01.2020
4844 Smoke 0 1024 68 4000 1 0 18:58 11.01.2020
4845 Smoke 0 1024 68 4000 1 0 18:39 11.01.2020
4846 Smoke 0 1024 68 4000 1 0 18:20 11.01.2020
4847 Smoke -1 1024 63 4000 1.5 320 17:57 11.01.2020
4848 Smoke -1 1024 63 4000 1.5 320 17:39 11.01.2020
4849 Smoke -1 1024 63 4000 1.5 320 17:19 11.01.2020
4850 Smoke -1 1024 68 4000 4.1 280 16:45 11.01.2020
4851 Smoke -1 1024 68 4000 4.1 280 16:27 11.01.2020
4852 Smoke 0 1024 63 5000 3.6 320 15:59 11.01.2020
4853 Smoke 0 1024 63 5000 3.6 320 15:40 11.01.2020
4854 Smoke 0 1024 63 5000 3.6 320 15:22 11.01.2020
4855 Smoke 0 1024 54 7000 3.1 340 14:57 11.01.2020
4856 Smoke 0 1024 54 7000 3.1 340 14:38 11.01.2020
4857 Smoke 0 1024 54 7000 3.1 340 14:20 11.01.2020
4858 Smoke 0 1024 63 8000 4.6 330 13:40 11.01.2020
4859 Smoke 0 1024 61 8000 4.6 330 13:20 11.01.2020
4860 Smoke 1 1025 61 6000 2.6 0 12:58 11.01.2020
4861 Smoke 1 1025 61 6000 2.6 0 12:39 11.01.2020
4862 Smoke 1 1025 61 6000 2.6 0 12:21 11.01.2020
4863 Smoke 0 1024 61 7000 2.6 320 11:47 11.01.2020
4864 Smoke 0 1024 61 7000 2.6 320 11:26 11.01.2020
4865 Smoke 0 1025 46 7000 4.1 310 10:51 11.01.2020
4866 Smoke 0 1025 46 7000 4.1 310 10:30 11.01.2020
4867 Smoke 0 1025 46 6000 1.5 330 09:57 11.01.2020
4868 Smoke 0 1025 46 6000 1.5 330 09:37 11.01.2020
4869 Smoke 0 1025 46 6000 1.5 330 09:19 11.01.2020
4870 Smoke -1 1026 46 8000 3.6 320 08:41 11.01.2020
4871 Smoke -1 1026 46 8000 3.6 320 08:21 11.01.2020
4872 Smoke -1 1027 50 2500 2.1 320 07:44 11.01.2020
4873 Smoke -1 1027 50 2500 2.1 320 07:25 11.01.2020
4874 Smoke -2 1027 58 3500 1.5 300 06:48 11.01.2020
4875 Smoke -4 1026 49 4000 1.5 270 05:40 11.01.2020
4876 Smoke -5 1026 62 7000 2.6 310 04:46 11.01.2020
4877 Smoke -5 1026 62 7000 2.6 310 04:27 11.01.2020
4878 Clouds -5 1026 62 8000 1.5 310 02:49 11.01.2020
4879 Clouds -5 1026 62 8000 1.5 310 02:20 11.01.2020
4880 Smoke -6 1025 57 5000 3.6 320 01:42 11.01.2020
4881 Smoke -6 1025 57 5000 3.6 320 01:18 11.01.2020
4882 Clouds -6 1026 62 8000 1.5 300 00:38 11.01.2020
4883 Clouds -5 1026 62 8000 3.1 320 23:59 10.01.2020
4884 Clouds -5 1026 62 8000 3.1 320 23:40 10.01.2020
4885 Clouds -5 1026 62 8000 3.1 320 23:21 10.01.2020
4886 Clouds -5 1026 57 6000 3.6 320 22:57 10.01.2020
4887 Clouds -5 1026 57 6000 3.6 320 22:39 10.01.2020
4888 Clouds -5 1026 57 6000 3.6 320 22:20 10.01.2020
4889 Clouds -6 1026 57 6000 1 290 21:56 10.01.2020
4890 Clouds -6 1026 57 6000 1 290 21:36 10.01.2020
4891 Clouds -6 1026 57 6000 1 290 21:18 10.01.2020
4892 Haze -5 1025 67 4000 1.52 251 20:43 10.01.2020
4893 Haze -5 1025 67 4000 1.52 251 20:43 10.01.2020
4894 Haze -6 1025 67 4000 0.63 292 20:24 10.01.2020
4895 Clouds -6 1027 57 8000 3.6 310 19:56 10.01.2020
4896 Clouds -6 1027 57 8000 3.6 310 19:37 10.01.2020
4897 Clouds -6 1027 57 8000 3.6 310 19:19 10.01.2020
4898 Clouds -6 1027 57 8000 3.6 310 19:19 10.01.2020
4899 Clouds -4 1027 53 6000 3.6 330 18:42 10.01.2020
4900 Clouds -4 1027 53 6000 3.6 330 18:19 10.01.2020
4901 Clouds -4 1027 53 6000 3.6 330 18:19 10.01.2020
4902 Clouds -6 1026 53 7000 4.1 330 17:57 10.01.2020
4903 Clouds -6 1026 53 7000 4.1 330 17:39 10.01.2020
4904 Clear -6 1026 53 7000 4.1 330 17:20 10.01.2020
4905 Clear -5 1026 53 6000 3.6 320 16:55 10.01.2020
4906 Clear -5 1026 53 6000 3.6 320 16:37 10.01.2020
4907 Clear -5 1026 53 6000 3.6 320 16:19 10.01.2020
4908 Smoke -3 1025 45 5000 3.6 340 15:55 10.01.2020
4909 Smoke -3 1025 45 5000 3.6 340 15:36 10.01.2020
4910 Smoke -3 1025 45 5000 3.6 340 15:18 10.01.2020
4911 Clear -3 1025 49 8000 4.1 320 14:54 10.01.2020
4912 Clear -3 1025 49 8000 4.1 320 14:36 10.01.2020
4913 Clear -1 1025 49 8000 4.1 320 14:18 10.01.2020
4914 Clear 0 1024 46 8000 3.1 310 13:41 10.01.2020
4915 Clear 0 1024 46 8000 3.1 310 13:23 10.01.2020
4916 Smoke 1 1024 56 8000 3.1 320 12:58 10.01.2020
4917 Smoke 1 1024 56 8000 3.1 320 12:38 10.01.2020
4918 Smoke 1 1024 56 8000 3.1 320 12:19 10.01.2020
4919 Smoke 1 1025 56 8000 3.1 330 11:55 10.01.2020
4920 Smoke 1 1025 56 8000 3.1 330 11:37 10.01.2020
4921 Smoke 1 1025 56 8000 3.1 330 11:18 10.01.2020
4922 Smoke 1 1026 56 9000 3.6 310 10:42 10.01.2020
4923 Smoke 1 1026 56 9000 3.6 310 10:24 10.01.2020
4924 Smoke 0 1027 36 8000 3.1 320 09:56 10.01.2020
4925 Smoke 0 1027 36 8000 3.1 320 09:38 10.01.2020
4926 Smoke 0 1027 36 8000 3.1 320 09:20 10.01.2020
4927 Smoke -1 1027 42 8000 3.6 330 08:42 10.01.2020
4928 Smoke -1 1027 42 8000 3.6 330 08:23 10.01.2020
4929 Smoke -3 1028 45 8000 3.6 320 07:45 10.01.2020
4930 Smoke -3 1028 45 8000 3.6 320 07:26 10.01.2020
4931 Smoke -5 1028 48 7000 4.1 310 06:46 10.01.2020
4932 Smoke -5 1028 48 7000 4.1 310 06:26 10.01.2020
4933 Smoke -9 1027 56 7000 3.1 310 05:51 10.01.2020
4934 Haze -11 1026 72 3000 1.47 263 03:45 10.01.2020
4935 Clear -10 1026 66 10000 3.6 330 03:22 10.01.2020
4936 Clear -9 1025 61 10000 3.6 320 02:49 10.01.2020
4937 Clear -9 1025 61 10000 4.6 320 01:44 10.01.2020
4938 Clear -9 1025 61 10000 4.6 320 01:26 10.01.2020
4939 Clear -9 1026 61 7000 4.1 320 00:40 10.01.2020
4940 Smoke -9 1026 66 4000 2.6 320 23:58 09.01.2020
4941 Smoke -9 1026 66 4000 2.6 320 23:39 09.01.2020
4942 Smoke -9 1026 66 4000 2.6 320 23:20 09.01.2020
4943 Smoke -8 1026 66 3500 2.6 320 22:57 09.01.2020
4944 Smoke -8 1026 66 3500 2.6 320 22:39 09.01.2020
4945 Smoke -8 1026 66 3500 2.6 320 22:19 09.01.2020
4946 Smoke -8 1026 56 2800 3.1 330 21:57 09.01.2020
4947 Smoke -8 1026 56 2800 3.1 330 21:38 09.01.2020
4948 Smoke -8 1026 56 2800 3.1 330 21:19 09.01.2020
4949 Smoke -7 1026 61 2500 2.1 330 20:57 09.01.2020
4950 Smoke -7 1026 61 2500 2.1 330 20:39 09.01.2020
4951 Smoke -7 1026 61 2500 2.1 330 20:19 09.01.2020
4952 Smoke -8 1026 61 1600 2.6 320 19:57 09.01.2020
4953 Smoke -8 1026 61 1600 2.6 320 19:37 09.01.2020
4954 Smoke -8 1026 61 1600 2.6 320 19:19 09.01.2020
4955 Smoke -7 1025 61 2000 2.6 320 18:55 09.01.2020
4956 Smoke -7 1025 61 2000 2.6 320 18:36 09.01.2020
4957 Smoke -7 1025 61 2000 2.6 320 18:18 09.01.2020
4958 Smoke -6 1025 61 4000 2.1 310 17:41 09.01.2020
4959 Smoke -6 1025 61 4000 2.1 310 17:18 09.01.2020
4960 Smoke -6 1024 48 4000 2.1 320 16:49 09.01.2020
4961 Smoke -6 1024 48 4000 2.1 320 16:24 09.01.2020
4962 Smoke -5 1023 49 5000 2.6 310 15:59 09.01.2020
4963 Smoke -5 1023 49 5000 2.6 310 15:40 09.01.2020
4964 Smoke -5 1023 49 5000 2.6 310 15:19 09.01.2020
4965 Smoke -3 1023 39 5000 3.1 340 14:42 09.01.2020
4966 Smoke -3 1023 39 5000 3.1 340 14:22 09.01.2020
4967 Clear 0 1022 42 6000 2.6 330 13:57 09.01.2020
4968 Clear 0 1022 42 6000 2.6 330 13:39 09.01.2020
4969 Clear 0 1022 42 6000 2.6 330 13:20 09.01.2020
4970 Clear 2 1022 34 6000 3.1 210 12:59 09.01.2020
4971 Clear 2 1022 34 6000 3.1 210 12:40 09.01.2020
4972 Clear 2 1022 34 6000 3.1 210 12:40 09.01.2020
4973 Clear 2 1022 34 6000 3.1 210 12:20 09.01.2020
4974 Clear 2 1022 31 7000 2.6 160 11:57 09.01.2020
4975 Clear 2 1022 31 7000 2.6 160 11:38 09.01.2020
4976 Clear 2 1022 31 7000 2.6 160 11:20 09.01.2020
4977 Clear 2 1022 31 7000 2.6 320 10:43 09.01.2020
4978 Clear 2 1022 31 7000 2.6 320 10:22 09.01.2020
4979 Clear 1 1023 27 7000 2.6 330 09:56 09.01.2020
4980 Clear 2 1023 27 7000 2.6 330 09:38 09.01.2020
4981 Clear 1 1023 27 7000 2.6 330 09:18 09.01.2020
4982 Clear 1 1024 25 7000 2.1 300 08:55 09.01.2020
4983 Clear 1 1024 25 7000 2.1 300 08:37 09.01.2020
4984 Clear 1 1024 25 7000 2.1 300 08:19 09.01.2020
4985 Clear 0 1024 27 10000 1.5 280 07:42 09.01.2020
4986 Clear 0 1024 27 10000 1.5 280 07:23 09.01.2020
4987 Clear -5 1024 35 10000 3.1 290 06:38 09.01.2020
4988 Smoke -5 1024 38 3000 2.1 310 06:19 09.01.2020
4989 Clear -7 1023 52 6000 1 290 05:44 09.01.2020
4990 Clear -10 1023 56 10000 3.6 340 04:42 09.01.2020
4991 Clear -9 1022 52 10000 3.6 330 03:31 09.01.2020
4992 Clear -9 1022 61 10000 1.5 320 02:52 09.01.2020
4993 Clear -9 1022 61 10000 1.5 320 02:24 09.01.2020
4994 Clear -8 1021 52 10000 3.1 340 01:38 09.01.2020
4995 Clear -8 1022 66 10000 2.1 320 00:42 09.01.2020
4996 Clear -8 1022 66 10000 2.1 320 00:42 09.01.2020
4997 Clear -8 1022 66 10000 2.1 320 00:21 09.01.2020
4998 Clear -8 1022 61 10000 1.5 330 23:42 08.01.2020
4999 Clear -8 1022 61 10000 1.5 330 23:42 08.01.2020
5000 Clear -8 1022 61 10000 1.5 330 23:24 08.01.2020
5001 Haze -8 1021 67 8000 1.5 210 22:58 08.01.2020
5002 Haze -8 1021 67 8000 1.5 210 22:38 08.01.2020
5003 Haze -9 1021 67 8000 1.5 210 22:20 08.01.2020
5004 Clear -7 1022 56 6000 2.1 320 21:57 08.01.2020
5005 Clear -9 1022 56 6000 2.1 320 21:38 08.01.2020
5006 Clear -9 1022 56 6000 2.1 320 21:19 08.01.2020
5007 Clear -8 1022 57 4000 3.6 310 20:57 08.01.2020
5008 Clear -8 1022 57 4000 3.6 310 20:38 08.01.2020
5009 Clear -8 1022 57 4000 3.6 310 20:19 08.01.2020
5010 Clear -6 1022 53 6000 3.6 330 19:55 08.01.2020
5011 Clear -6 1022 53 6000 3.6 330 19:55 08.01.2020
5012 Clear -6 1022 53 6000 3.6 330 19:36 08.01.2020
5013 Clear -6 1022 53 6000 3.6 330 19:18 08.01.2020
5014 Clear -6 1022 53 6000 3.6 330 18:54 08.01.2020
5015 Clear -6 1022 53 6000 3.6 330 18:54 08.01.2020
5016 Clear -6 1022 53 6000 3.6 330 18:36 08.01.2020
5017 Clear -6 1022 53 6000 3.6 330 18:18 08.01.2020
5018 Clear -6 1022 53 6000 3.6 330 18:18 08.01.2020
5019 Clear -5 1021 52 6000 3.1 330 17:42 08.01.2020
5020 Clear -5 1021 52 6000 3.1 330 17:23 08.01.2020
5021 Clear -4 1022 52 7000 3.6 320 16:57 08.01.2020
5022 Clear -4 1022 52 7000 3.6 320 16:39 08.01.2020
5023 Clear -4 1022 52 7000 3.6 320 16:19 08.01.2020
5024 Clear -4 1022 52 7000 3.6 320 16:19 08.01.2020
5025 Clear -4 1021 48 10000 2.1 320 15:56 08.01.2020
5026 Clear -4 1021 48 10000 2.1 320 15:38 08.01.2020
5027 Clear -4 1021 48 10000 2.1 320 15:18 08.01.2020
5028 Clear 0 1020 33 10000 2.1 260 14:41 08.01.2020
5029 Clear 0 1020 33 10000 2.1 260 14:21 08.01.2020
5030 Clear 1 1020 29 10000 3.1 270 13:56 08.01.2020
5031 Clear 1 1020 29 10000 3.1 270 13:37 08.01.2020
5032 Clear 1 1020 29 10000 3.1 270 13:18 08.01.2020
5033 Clear 3 1019 23 10000 2.6 270 12:40 08.01.2020
5034 Clear 3 1019 23 10000 2.6 270 12:18 08.01.2020
5035 Clear 3 1019 29 10000 4.1 250 11:55 08.01.2020
5036 Clear 3 1019 29 10000 4.1 250 11:36 08.01.2020
5037 Clear 3 1019 29 10000 4.1 250 11:18 08.01.2020
5038 Clear 3 1019 25 10000 2.6 250 10:41 08.01.2020
5039 Clear 3 1019 25 10000 2.6 250 10:22 08.01.2020
5040 Clear 3 1019 34 10000 2.1 320 09:58 08.01.2020
5041 Clear 3 1019 34 10000 2.1 320 09:38 08.01.2020
5042 Clear 2 1019 34 10000 2.1 320 09:18 08.01.2020
5043 Clear 2 1020 34 10000 1.5 330 08:42 08.01.2020
5044 Clear 2 1020 34 10000 1.5 330 08:24 08.01.2020
5045 Clear 0 1021 46 10000 4.1 320 07:59 08.01.2020
5046 Clear 0 1021 46 10000 4.1 320 07:41 08.01.2020
5047 Clear 0 1021 46 10000 4.1 320 07:23 08.01.2020
5048 Clear -3 1021 49 8000 4.1 320 06:44 08.01.2020
5049 Clear -5 1020 52 8000 6.2 320 05:57 08.01.2020
5050 Clear -5 1020 52 8000 6.2 320 05:27 08.01.2020
5051 Clear -8 1020 61 10000 5.1 300 04:39 08.01.2020
5052 Clear -7 1019 61 10000 5.1 310 03:31 08.01.2020
5053 Clear -7 1018 61 10000 4.1 330 02:36 08.01.2020
5054 Clear -7 1018 61 10000 4.1 330 02:18 08.01.2020
5055 Clear -7 1018 66 10000 3.6 330 01:39 08.01.2020
5056 Clear -6 1018 67 10000 5.1 330 00:52 08.01.2020
5057 Clear -6 1018 67 10000 5.1 330 00:24 08.01.2020
5058 Clear -6 1018 67 8000 3.6 330 23:46 07.01.2020
5059 Clear -6 1018 67 8000 3.6 330 23:21 07.01.2020
5060 Clear -6 1018 67 8000 3.6 330 23:21 07.01.2020
5061 Clear -6 1018 61 8000 4.6 320 22:57 07.01.2020
5062 Clear -6 1018 61 8000 4.6 320 22:38 07.01.2020
5063 Clear -6 1018 61 8000 4.6 320 22:19 07.01.2020
5064 Clear -5 1018 67 8000 4.6 330 21:42 07.01.2020
5065 Clear -5 1018 67 8000 4.6 330 21:22 07.01.2020
5066 Clear -5 1018 67 8000 4.6 340 20:58 07.01.2020
5067 Clear -5 1018 67 8000 4.6 340 20:40 07.01.2020
5068 Clear -5 1018 67 8000 4.6 340 20:22 07.01.2020
5069 Clear -5 1019 67 7000 4.6 330 19:57 07.01.2020
5070 Clear -5 1019 67 7000 4.6 330 19:38 07.01.2020
5071 Clear -5 1019 67 7000 4.6 330 19:19 07.01.2020
5072 Clear -4 1018 67 7000 5.7 330 18:56 07.01.2020
5073 Clear -4 1018 67 7000 5.7 330 18:38 07.01.2020
5074 Clear -4 1018 67 7000 5.7 330 18:18 07.01.2020
5075 Clear -4 1018 67 7000 6.7 320 17:56 07.01.2020
5076 Clear -4 1018 67 7000 6.7 320 17:37 07.01.2020
5077 Clear -4 1018 67 7000 6.7 320 17:18 07.01.2020
5078 Clear -3 1018 67 7000 4.6 330 16:55 07.01.2020
5079 Clear -3 1018 67 7000 4.6 330 16:37 07.01.2020
5080 Clear -3 1018 67 7000 4.6 330 16:18 07.01.2020
5081 Clear -3 1018 62 7000 4.1 320 15:43 07.01.2020
5082 Clear -3 1018 62 7000 4.1 320 15:24 07.01.2020
5083 Clear -3 1018 62 7000 4.1 320 15:24 07.01.2020
5084 Clear -2 1018 58 10000 2.6 280 14:58 07.01.2020
5085 Clear -2 1018 58 10000 2.6 280 14:58 07.01.2020
5086 Clear -2 1018 58 10000 2.6 280 14:40 07.01.2020
5087 Clear -2 1018 58 10000 2.6 280 14:21 07.01.2020
5088 Clear 0 1018 50 10000 4.1 250 13:46 07.01.2020
5089 Clear 0 1018 50 10000 4.1 250 13:21 07.01.2020
5090 Clear 1 1018 72 10000 4.6 240 12:56 07.01.2020
5091 Clear 1 1018 72 10000 4.6 240 12:38 07.01.2020
5092 Clear 1 1018 72 10000 4.6 240 12:19 07.01.2020
5093 Clouds 2 1018 47 10000 3.1 230 11:42 07.01.2020
5094 Clouds 2 1018 47 10000 3.1 230 11:23 07.01.2020
5095 Clear 1 1019 70 10000 5.7 210 10:58 07.01.2020
5096 Clear 1 1019 70 10000 5.7 210 10:39 07.01.2020
5097 Clear 1 1019 70 10000 5.7 210 10:21 07.01.2020
5098 Clear 0 1020 58 10000 4.6 220 09:55 07.01.2020
5099 Clear 0 1020 58 10000 4.6 220 09:37 07.01.2020
5100 Clear 0 1020 58 10000 4.6 220 09:19 07.01.2020
5101 Clear 0 1021 58 10000 3.1 240 08:41 07.01.2020
5102 Clear 0 1021 58 10000 3.1 240 08:18 07.01.2020
5103 Clear -1 1021 63 10000 5.7 210 07:47 07.01.2020
5104 Clear -1 1021 63 10000 5.7 210 07:20 07.01.2020
5105 Clear -3 1022 68 9000 4.6 230 06:49 07.01.2020
5106 Mist -3 1022 73 5000 2.6 320 06:29 07.01.2020
5107 Clear -6 1021 85 6000 4.1 320 05:41 07.01.2020
5108 Mist -9 1020 92 5000 1.82 257 03:47 07.01.2020
5109 Clouds -8 1021 92 10000 3.1 290 03:25 07.01.2020
5110 Clouds -7 1020 92 8000 2.1 320 02:20 07.01.2020
5111 Clouds -6 1020 85 8000 3.1 320 01:40 07.01.2020
5112 Mist -5 1020 92 2800 1.36 274 00:59 07.01.2020
5113 Clouds -4 1021 92 7000 3.1 310 00:21 07.01.2020
5114 Mist -3 1021 85 4000 2.6 320 23:57 06.01.2020
5115 Mist -3 1021 85 4000 2.6 320 23:38 06.01.2020
5116 Mist -3 1021 85 4000 2.6 320 23:20 06.01.2020
5117 Snow -3 1020 92 2400 1.31 275 22:44 06.01.2020
5118 Mist -3 1021 92 4000 2.1 290 22:25 06.01.2020
5119 Mist -2 1021 92 1200 1 240 21:59 06.01.2020
5120 Mist -3 1021 92 1200 1 240 21:40 06.01.2020
5121 Mist -2 1021 92 1200 1 240 21:21 06.01.2020
5122 Mist -3 1021 100 1200 1 170 20:58 06.01.2020
5123 Mist -3 1021 100 1200 1 170 20:40 06.01.2020
5124 Mist -2 1022 92 2000 1 110 20:21 06.01.2020
5125 Mist -2 1022 92 3000 1 170 19:57 06.01.2020
5126 Mist -2 1022 92 3000 1 170 19:39 06.01.2020
5127 Mist -2 1022 92 3000 1 170 19:20 06.01.2020
5128 Mist -3 1021 92 4000 2.1 100 18:48 06.01.2020
5129 Mist -3 1021 92 4000 2.1 100 18:25 06.01.2020
5130 Mist -2 1021 100 4000 1.5 0 18:00 06.01.2020
5131 Mist -2 1021 100 4000 1.5 0 17:39 06.01.2020
5132 Mist -2 1021 100 4000 1.5 0 17:19 06.01.2020
5133 Mist -2 1021 92 3000 1 0 16:55 06.01.2020
5134 Mist -2 1021 92 3000 1 0 16:36 06.01.2020
5135 Mist -2 1021 92 3000 1 0 16:18 06.01.2020
5136 Mist -2 1021 100 2500 1 0 15:42 06.01.2020
5137 Mist -2 1021 100 2500 1 0 15:20 06.01.2020
5138 Mist 0 1019 84 1600 1.2 282 14:59 06.01.2020
5139 Mist 0 1019 84 1600 1.2 282 14:41 06.01.2020
5140 Mist 0 1019 84 1600 1.2 282 14:41 06.01.2020
5141 Mist -1 1019 97 1600 0.39 8 14:21 06.01.2020
5142 Snow 0 1020 92 6000 2.1 340 13:58 06.01.2020
5143 Snow 0 1020 92 6000 2.1 340 13:38 06.01.2020
5144 Snow 0 1020 92 6000 2.1 340 13:19 06.01.2020
5145 Snow 1 1020 97 6000 2.6 330 12:43 06.01.2020
5146 Snow 1 1020 97 6000 2.6 330 12:21 06.01.2020
5147 Mist 0 1019 97 1200 0.49 17 11:58 06.01.2020
5148 Snow 0 1020 97 2800 1.5 320 11:39 06.01.2020
5149 Snow 0 1020 96 2800 1.5 320 11:21 06.01.2020
5150 Fog 0 1019 96 800 1.95 73 10:57 06.01.2020
5151 Rain 0 1021 96 2000 3.1 360 10:39 06.01.2020
5152 Rain 0 1021 96 2000 3.1 360 10:20 06.01.2020
5153 Rain -1 1021 92 1400 1 120 09:38 06.01.2020
5154 Rain -1 1021 92 1400 1 120 09:19 06.01.2020
5155 Snow -1 1022 92 1200 3.1 340 08:43 06.01.2020
5156 Snow -1 1022 92 1200 3.1 340 08:25 06.01.2020
5157 Snow -1 1022 100 800 2.19 37 07:53 06.01.2020
5158 Rain -1 1022 92 1200 2.19 37 07:28 06.01.2020
5159 Snow -1 1022 92 900 1 80 06:45 06.01.2020
5160 Snow -1 1022 92 900 1 80 06:20 06.01.2020
5161 Snow -1 1022 92 1200 1 150 05:45 06.01.2020
5162 Snow -2 1022 100 1200 1.5 160 04:37 06.01.2020
5163 Snow -2 1022 100 1200 1.5 160 04:18 06.01.2020
5164 Rain -2 1021 92 7000 2.6 350 02:46 06.01.2020
5165 Rain -2 1021 92 7000 2.6 350 02:23 06.01.2020
5166 Rain -2 1022 100 4000 1.5 190 01:44 06.01.2020
5167 Rain -2 1022 100 4000 1.5 190 01:24 06.01.2020
5168 Rain -2 1022 92 3200 3.1 30 00:41 06.01.2020
5169 Rain -2 1022 92 3200 3.1 30 00:21 06.01.2020
5170 Rain -2 1022 100 3200 2.1 180 23:41 05.01.2020
5171 Rain -2 1022 100 3200 2.1 180 23:22 05.01.2020
5172 Snow -2 1022 92 3200 4.1 350 22:56 05.01.2020
5173 Snow -2 1022 92 3200 4.1 350 22:37 05.01.2020
5174 Snow -2 1022 92 3200 4.1 350 22:19 05.01.2020
5175 Snow -2 1022 100 800 2.21 15 21:54 05.01.2020
5176 Snow -2 1022 92 3200 1.5 10 21:36 05.01.2020
5177 Rain -1 1022 92 3200 1.5 10 21:18 05.01.2020
5178 Rain -2 1023 100 3200 1.5 200 20:55 05.01.2020
5179 Rain -2 1023 100 3200 1.5 200 20:55 05.01.2020
5180 Rain -2 1023 100 3200 1.5 200 20:36 05.01.2020
5181 Rain -2 1023 100 3200 1.5 200 20:18 05.01.2020
5182 Snow -2 1023 100 800 1.57 39 19:54 05.01.2020
5183 Snow -2 1023 92 3200 2.6 160 19:36 05.01.2020
5184 Snow -2 1023 92 3200 2.6 160 19:18 05.01.2020
5185 Rain -1 1023 92 3200 3.6 110 18:54 05.01.2020
5186 Rain -1 1023 92 3200 3.6 110 18:36 05.01.2020
5187 Rain -1 1023 92 3200 3.6 110 18:18 05.01.2020
5188 Snow -2 1023 92 3200 1 0 17:39 05.01.2020
5189 Snow -2 1023 92 3200 1 0 17:20 05.01.2020
5190 Rain -2 1022 92 3200 1.5 360 16:57 05.01.2020
5191 Rain -2 1022 92 3200 1.5 360 16:39 05.01.2020
5192 Rain -2 1022 92 3200 1.5 360 16:20 05.01.2020
5193 Snow -3 1022 100 2000 1.87 15 15:41 05.01.2020
5194 Snow -2 1022 92 2000 1 0 15:22 05.01.2020
5195 Snow -2 1022 92 2000 1 0 15:22 05.01.2020
5196 Snow -2 1022 92 2000 1 0 15:22 05.01.2020
5197 Rain -2 1022 92 1800 1.5 160 14:57 05.01.2020
5198 Rain -2 1022 92 1800 1.5 160 14:39 05.01.2020
5199 Rain -3 1022 100 1000 2.68 16 14:21 05.01.2020
5200 Snow -2 1021 92 1200 1 0 13:58 05.01.2020
5201 Rain -2 1021 92 1200 1 0 13:38 05.01.2020
5202 Rain -2 1021 92 1200 1 0 13:20 05.01.2020
5203 Snow -2 1021 92 800 3.06 14 12:57 05.01.2020
5204 Snow -2 1021 92 1200 2.1 340 12:38 05.01.2020
5205 Snow -2 1021 92 1200 2.1 340 12:20 05.01.2020
5206 Rain -2 1021 92 1000 2.6 340 11:54 05.01.2020
5207 Rain -2 1021 92 1000 2.6 340 11:36 05.01.2020
5208 Rain -2 1021 92 1000 2.6 340 11:18 05.01.2020
5209 Rain -2 1021 92 1000 2.1 320 10:41 05.01.2020
5210 Rain -2 1021 92 1000 2.1 320 10:20 05.01.2020
5211 Snow -2 1021 92 1200 2.99 40 09:55 05.01.2020
5212 Snow -2 1022 86 1000 2.1 330 09:36 05.01.2020
5213 Snow -2 1022 86 1000 2.1 330 09:18 05.01.2020
5214 Snow -2 1022 92 800 2.99 40 08:44 05.01.2020
5215 Snow -2 1023 86 1200 2.6 330 08:21 05.01.2020
5216 Snow -2 1023 86 2000 2.38 28 07:44 05.01.2020
5217 Snow -2 1023 86 2000 2.38 28 07:44 05.01.2020
5218 Snow -2 1023 92 1000 1 0 07:26 05.01.2020
5219 Snow -2 1023 74 3200 2.38 28 06:54 05.01.2020
5220 Snow -2 1023 68 2500 1.5 100 05:41 05.01.2020
5221 Smoke -3 1021 79 4000 1 0 04:56 05.01.2020
5222 Smoke -3 1021 79 4000 1 0 04:19 05.01.2020
5223 Smoke -3 1021 79 4000 1 0 04:19 05.01.2020
5224 Smoke -4 1021 68 4000 1 330 03:31 05.01.2020
5225 Smoke -4 1020 85 4000 1.5 330 02:33 05.01.2020
5226 Smoke -5 1021 79 5000 0.5 150 01:49 05.01.2020
5227 Smoke -5 1021 79 5000 0.5 150 01:20 05.01.2020
5228 Smoke -5 1021 73 5000 1 330 00:57 05.01.2020
5229 Smoke -5 1021 73 5000 1 330 00:39 05.01.2020
5230 Smoke -5 1021 73 5000 1 330 00:19 05.01.2020
5231 Smoke -5 1021 68 5000 2.1 230 23:41 04.01.2020
5232 Smoke -5 1021 73 2400 2.1 330 23:20 04.01.2020
5233 Smoke -5 1021 79 1600 1.5 150 22:56 04.01.2020
5234 Smoke -5 1021 79 1600 1.5 150 22:38 04.01.2020
5235 Smoke -5 1021 79 1600 1.5 150 22:20 04.01.2020
5236 Smoke -4 1022 79 1600 0.5 0 21:55 04.01.2020
5237 Smoke -3 1022 79 1600 0.5 0 21:36 04.01.2020
5238 Smoke -4 1022 79 1600 0.5 0 21:18 04.01.2020
5239 Smoke -5 1022 73 2000 0.5 0 20:41 04.01.2020
5240 Smoke -5 1022 73 2000 0.5 0 20:22 04.01.2020
5241 Smoke -5 1022 79 2000 1 140 19:57 04.01.2020
5242 Smoke -5 1022 79 2000 1 140 19:39 04.01.2020
5243 Smoke -5 1022 79 2000 1 140 19:21 04.01.2020
5244 Smoke -4 1022 68 3000 1 120 18:57 04.01.2020
5245 Smoke -4 1022 68 3000 1 120 18:38 04.01.2020
5246 Smoke -4 1022 68 3000 1 120 18:19 04.01.2020
5247 Smoke -4 1021 68 4000 1 90 17:42 04.01.2020
5248 Smoke -4 1021 68 4000 1 90 17:42 04.01.2020
5249 Smoke -4 1021 68 4000 1 90 17:24 04.01.2020
5250 Smoke -4 1021 68 4000 1 90 17:24 04.01.2020
5251 Smoke -3 1021 68 5000 1.5 110 16:59 04.01.2020
5252 Smoke -3 1021 68 5000 1.5 110 16:40 04.01.2020
5253 Smoke -3 1021 68 5000 1.5 110 16:22 04.01.2020
5254 Smoke -3 1021 68 5000 1.5 110 16:22 04.01.2020
5255 Clear -1 1021 54 8000 1 310 15:56 04.01.2020
5256 Clear -1 1021 54 8000 1 310 15:38 04.01.2020
5257 Clear -1 1021 54 8000 1 310 15:19 04.01.2020
5258 Clear 0 1020 43 10000 1 0 14:55 04.01.2020
5259 Clear 0 1020 43 10000 1 0 14:36 04.01.2020
5260 Clear 0 1020 43 10000 1 0 14:18 04.01.2020
5261 Clear 2 1020 40 10000 2.1 0 13:39 04.01.2020
5262 Clear 2 1020 40 10000 2.1 0 13:20 04.01.2020
5263 Clear 3 1020 35 10000 1.5 0 12:59 04.01.2020
5264 Clear 3 1020 35 10000 1.5 0 12:41 04.01.2020
5265 Clear 3 1020 35 10000 1.5 0 12:19 04.01.2020
5266 Clear 3 1019 32 10000 2.6 220 11:57 04.01.2020
5267 Clear 3 1019 32 10000 2.6 220 11:38 04.01.2020
5268 Clear 3 1019 32 10000 2.6 220 11:19 04.01.2020
5269 Clear 2 1020 29 10000 3.6 210 10:41 04.01.2020
5270 Clear 2 1020 29 10000 3.6 210 10:22 04.01.2020
5271 Haze 2 1019 26 4000 2.13 136 09:50 04.01.2020
5272 Clear 1 1020 35 10000 2.6 220 09:26 04.01.2020
5273 Clear 0 1021 34 9000 3.6 200 08:58 04.01.2020
5274 Clear 0 1021 34 9000 3.6 200 08:39 04.01.2020
5275 Clear 0 1021 34 9000 3.6 200 08:20 04.01.2020
5276 Haze -1 1022 40 8000 5.1 190 07:42 04.01.2020
5277 Mist -3 1022 100 2400 2.1 220 06:52 04.01.2020
5278 Haze -3 1022 54 8000 2.6 340 06:33 04.01.2020
5279 Clear -4 1022 58 7000 3.1 360 05:18 04.01.2020
5280 Clear -5 1021 73 10000 2.6 330 04:33 04.01.2020
5281 Mist -5 1021 92 1000 2.6 230 03:43 04.01.2020
5282 Clear -4 1021 85 10000 2.1 340 03:18 04.01.2020
5283 Clear -5 1020 100 8000 1.5 310 02:21 04.01.2020
5284 Mist -3 1020 92 5000 2.6 320 01:55 04.01.2020
5285 Mist -3 1020 92 5000 2.6 320 01:31 04.01.2020
5286 Mist -4 1020 92 3200 2.1 330 00:43 04.01.2020
5287 Mist -4 1020 92 3200 2.1 330 00:23 04.01.2020
5288 Mist -4 1021 92 3000 1.5 110 23:44 03.01.2020
5289 Mist -4 1021 92 3000 1.5 110 23:25 03.01.2020
5290 Mist -3 1021 92 3000 2.1 330 22:41 03.01.2020
5291 Mist -3 1021 92 3000 2.1 330 22:20 03.01.2020
5292 Mist -3 1021 92 3000 1 70 21:59 03.01.2020
5293 Mist -5 1021 92 3000 1 70 21:38 03.01.2020
5294 Mist -2 1021 92 3000 1 70 21:19 03.01.2020
5295 Fog -3 1021 92 2000 1 150 20:58 03.01.2020
5296 Fog -3 1021 92 2000 1 150 20:40 03.01.2020
5297 Fog -3 1021 92 2000 1 150 20:18 03.01.2020
5298 Fog -4 1021 100 800 1.5 210 19:56 03.01.2020
5299 Fog -4 1021 92 2000 0.5 130 19:37 03.01.2020
5300 Fog -4 1021 92 2000 0.5 130 19:19 03.01.2020
5301 Mist -3 1021 100 1600 1.5 150 18:43 03.01.2020
5302 Fog -3 1022 92 400 2.1 100 18:24 03.01.2020
5303 Smoke -3 1022 92 800 1.5 110 17:55 03.01.2020
5304 Smoke -3 1022 92 800 1.5 110 17:37 03.01.2020
5305 Smoke -3 1022 92 800 1.5 110 17:37 03.01.2020
5306 Smoke -3 1021 100 50 1 90 17:18 03.01.2020
5307 Smoke -3 1021 100 50 1 90 17:18 03.01.2020
5308 Smoke -2 1021 100 50 1 120 16:42 03.01.2020
5309 Smoke -2 1021 100 50 1 120 16:22 03.01.2020
5310 Fog -1 1021 92 100 1.5 140 15:44 03.01.2020
5311 Fog -1 1021 92 100 1.5 140 15:19 03.01.2020
5312 Fog -1 1021 100 600 2.1 130 14:59 03.01.2020
5313 Fog -1 1021 100 600 2.1 130 14:38 03.01.2020
5314 Mist -1 1021 92 1000 2.1 110 14:19 03.01.2020
5315 Mist -1 1021 100 1000 2.1 100 13:44 03.01.2020
5316 Mist 1 1021 86 4500 2.1 80 13:24 03.01.2020
5317 Mist 1 1021 74 7000 2.1 80 12:58 03.01.2020
5318 Mist 1 1021 74 7000 2.1 80 12:39 03.01.2020
5319 Mist 1 1021 74 7000 2.1 80 12:21 03.01.2020
5320 Mist 3 1021 69 7000 1.5 0 11:44 03.01.2020
5321 Mist 3 1021 69 7000 1.5 0 11:21 03.01.2020
5322 Mist 3 1022 60 7000 4.1 210 10:44 03.01.2020
5323 Mist 3 1022 60 7000 4.1 210 10:26 03.01.2020
5324 Mist 3 1022 93 4000 1.5 130 09:58 03.01.2020
5325 Mist 3 1023 64 6000 4.1 220 09:39 03.01.2020
5326 Mist 3 1023 64 6000 4.1 220 09:21 03.01.2020
5327 Mist 2 1023 100 2000 1.5 50 08:56 03.01.2020
5328 Mist 2 1024 74 3000 1 0 08:38 03.01.2020
5329 Mist 2 1024 74 3000 1 0 08:19 03.01.2020
5330 Snow 1 1025 87 2000 2.1 80 07:40 03.01.2020
5331 Snow 1 1025 87 2000 2.1 80 07:18 03.01.2020
5332 Snow 1 1025 87 2000 2.1 80 07:18 03.01.2020
5333 Mist 0 1025 100 1600 1.46 141 06:47 03.01.2020
5334 Snow 1 1025 87 1200 1.5 100 06:29 03.01.2020
5335 Rain 0 1024 87 1600 1 0 05:39 03.01.2020
5336 Rain 0 1024 100 1600 1 0 04:21 03.01.2020
5337 Snow -1 1023 92 800 1.19 300 02:56 03.01.2020
5338 Snow -1 1023 92 800 1.19 300 02:56 03.01.2020
5339 Snow 0 1023 100 2500 1.19 300 02:33 03.01.2020
5340 Rain 0 1024 100 2000 1 0 01:42 03.01.2020
5341 Rain 0 1024 100 2000 1 0 01:42 03.01.2020
5342 Snow -1 1023 98 200 0.85 30 00:50 03.01.2020
5343 Rain 0 1024 92 1800 1 0 00:30 03.01.2020
5344 Snow -1 1024 98 600 0.85 30 23:55 02.01.2020
5345 Rain 0 1025 100 2500 0.85 30 23:37 02.01.2020
5346 Rain 0 1025 100 2500 1.19 38 23:18 02.01.2020
5347 Rain 0 1025 100 1600 1.19 38 22:45 02.01.2020
5348 Rain 0 1025 100 1600 1.19 38 22:45 02.01.2020
5349 Rain 0 1025 100 1600 1.19 38 22:21 02.01.2020
5350 Snow -1 1024 98 400 1.19 38 21:59 02.01.2020
5351 Snow 0 1025 100 3000 1.5 0 21:41 02.01.2020
5352 Snow 0 1025 100 3000 1.5 0 21:23 02.01.2020
5353 Rain 0 1026 100 1600 1 0 20:58 02.01.2020
5354 Rain 0 1026 100 1600 1 0 20:39 02.01.2020
5355 Rain 0 1026 100 1600 1 0 20:39 02.01.2020
5356 Rain 0 1026 100 1600 1 0 20:20 02.01.2020
5357 Rain 0 1026 100 1600 0.43 13 19:55 02.01.2020
5358 Rain 0 1026 100 1600 0.43 13 19:37 02.01.2020
5359 Rain 0 1026 100 1600 0.43 13 19:37 02.01.2020
5360 Rain 0 1026 100 1600 0.43 13 19:19 02.01.2020
5361 Mist 0 1027 100 2000 0.43 13 18:56 02.01.2020
5362 Mist 0 1027 100 2000 0.43 13 18:38 02.01.2020
5363 Mist 0 1027 100 2000 0.43 13 18:19 02.01.2020
5364 Snow 0 1027 100 2000 1 0 17:55 02.01.2020
5365 Snow 0 1027 100 2000 1 0 17:36 02.01.2020
5366 Snow 0 1027 100 2000 1 0 17:36 02.01.2020
5367 Snow 0 1027 100 2000 1 0 17:18 02.01.2020
5368 Snow 0 1027 100 2000 1 0 17:18 02.01.2020
5369 Snow -1 1026 97 400 1.62 2 16:54 02.01.2020
5370 Rain 0 1027 100 1600 1 0 16:36 02.01.2020
5371 Rain 0 1027 100 1600 1 0 16:18 02.01.2020
5372 Rain 0 1026 100 1600 1.5 0 15:41 02.01.2020
5373 Snow 0 1026 100 1600 1.5 0 15:23 02.01.2020
5374 Snow 0 1026 100 1000 1.5 0 14:57 02.01.2020
5375 Snow 0 1026 100 1000 1.5 0 14:37 02.01.2020
5376 Snow 0 1026 100 1000 1.5 0 14:37 02.01.2020
5377 Rain 0 1026 100 1000 1.5 0 14:18 02.01.2020
5378 Rain 0 1026 98 1000 1.5 0 13:55 02.01.2020
5379 Rain 0 1026 98 1000 1.5 0 13:36 02.01.2020
5380 Rain 0 1025 97 1600 2.1 340 12:58 02.01.2020
5381 Snow 0 1025 97 1600 2.1 340 12:39 02.01.2020
5382 Snow 0 1025 97 1600 2.1 340 12:20 02.01.2020
5383 Rain 1 1025 97 1200 2.1 340 11:41 02.01.2020
5384 Rain 1 1025 95 1200 2.1 340 11:21 02.01.2020
5385 Snow 1 1026 95 2500 2.6 360 10:45 02.01.2020
5386 Snow 1 1026 95 2500 2.6 360 10:27 02.01.2020
5387 Mist 0 1025 100 1600 1.8 28 09:56 02.01.2020
5388 Snow 1 1027 95 2500 3.1 350 09:35 02.01.2020
5389 Rain 0 1028 86 4000 2.1 320 08:53 02.01.2020
5390 Rain 0 1028 86 4000 2.1 320 08:32 02.01.2020
5391 Snow 0 1027 96 1600 1.86 44 07:58 02.01.2020
5392 Snow 0 1029 96 1600 1.5 130 07:31 02.01.2020
5393 Snow 0 1029 96 2000 1.5 0 06:57 02.01.2020
5394 Rain 0 1029 96 2000 1.5 0 06:39 02.01.2020
5395 Rain 0 1028 100 1200 1.5 100 05:38 02.01.2020
5396 Snow 0 1027 100 1000 1.5 0 04:34 02.01.2020
5397 Snow 0 1026 100 3500 3.6 330 03:23 02.01.2020
5398 Rain 0 1026 92 2500 1 90 02:20 02.01.2020
5399 Snow 0 1026 92 2500 1 90 01:48 02.01.2020
5400 Snow 0 1026 92 1200 2.1 90 01:23 02.01.2020
5401 Rain 0 1026 92 1000 1.5 130 00:38 02.01.2020
5402 Rain 0 1026 92 1000 1.5 130 00:38 02.01.2020
5403 Rain 0 1027 92 3000 2.6 350 00:19 02.01.2020
5404 Rain 0 1026 92 4000 1.5 0 23:41 01.01.2020
5405 Rain 0 1026 92 4000 1.5 0 23:21 01.01.2020
5406 Rain 0 1027 92 5000 3.1 360 22:39 01.01.2020
5407 Rain 0 1027 92 5000 3.1 360 22:20 01.01.2020
5408 Clouds -1 1027 92 6000 1.5 0 21:58 01.01.2020
5409 Clouds -1 1027 92 6000 1.5 0 21:39 01.01.2020
5410 Rain 0 1027 92 6000 1.5 0 21:20 01.01.2020
5411 Rain 0 1027 92 6000 2.98 348 20:56 01.01.2020
5412 Rain 0 1027 92 6000 2.98 348 20:38 01.01.2020
5413 Rain 0 1027 92 6000 3.52 344 20:19 01.01.2020
5414 Snow -1 1027 90 1000 3.52 344 19:55 01.01.2020
5415 Snow -1 1027 90 1000 3.52 344 19:55 01.01.2020
5416 Snow -1 1027 90 1000 3.52 344 19:55 01.01.2020
5417 Snow -1 1027 90 1000 3.52 344 19:55 01.01.2020
5418 Rain 0 1027 92 4000 2.6 30 19:37 01.01.2020
5419 Rain 0 1027 92 4000 2.6 30 19:19 01.01.2020
5420 Rain 0 1027 100 2500 3.1 350 18:56 01.01.2020
5421 Rain 0 1027 100 2500 3.1 350 18:36 01.01.2020
5422 Rain 0 1027 100 2500 3.1 350 18:18 01.01.2020
5423 Snow 0 1027 100 2500 2.1 10 17:56 01.01.2020
5424 Snow 0 1027 100 2500 2.1 10 17:56 01.01.2020
5425 Snow 0 1027 100 2500 2.1 10 17:38 01.01.2020
5426 Snow 0 1027 100 2500 2.1 10 17:19 01.01.2020
5427 Rain 0 1027 100 1800 2.1 360 16:42 01.01.2020
5428 Rain 0 1027 100 1800 2.1 360 16:23 01.01.2020
5429 Rain 0 1026 100 2000 2.6 10 15:58 01.01.2020
5430 Rain 0 1026 100 2000 2.6 10 15:40 01.01.2020
5431 Rain 0 1026 87 4000 4.14 340 15:21 01.01.2020
5432 Rain 1 1026 87 2000 4.6 10 14:59 01.01.2020
5433 Rain 1 1026 87 2000 4.6 10 14:40 01.01.2020
5434 Rain 1 1026 75 2000 4.6 10 14:21 01.01.2020
5435 Snow 1 1025 75 3000 6.2 350 13:56 01.01.2020
5436 Snow 1 1025 75 3000 6.2 350 13:37 01.01.2020
5437 Snow 1 1025 75 3000 6.2 350 13:37 01.01.2020
5438 Snow 1 1025 75 3000 6.2 350 13:37 01.01.2020
5439 Snow 1 1025 73 3000 6.2 350 13:18 01.01.2020
5440 Rain 1 1025 100 4000 2.6 270 12:56 01.01.2020
5441 Rain 1 1025 100 4000 2.6 270 12:56 01.01.2020
5442 Snow 1 1025 73 2000 2.6 30 12:38 01.01.2020
5443 Snow 1 1025 73 2000 2.6 30 12:19 01.01.2020
5444 Rain 1 1025 73 2000 5.1 360 11:43 01.01.2020
5445 Snow 1 1025 77 5000 5.1 350 11:23 01.01.2020
5446 Snow 2 1025 80 3000 5.7 10 10:59 01.01.2020
5447 Snow 2 1025 80 3000 5.7 10 10:41 01.01.2020
5448 Snow 2 1025 80 3000 5.7 10 10:21 01.01.2020
5449 Snow 2 1025 80 3000 5.7 10 10:21 01.01.2020
5450 Snow 2 1025 80 4000 2.1 360 09:58 01.01.2020
5451 Snow 2 1025 80 4000 2.1 360 09:37 01.01.2020
5452 Snow 2 1026 86 2000 3.6 320 09:18 01.01.2020
5453 Snow 2 1026 86 2000 3.6 320 09:18 01.01.2020
5454 Snow 2 1026 80 2500 2.6 360 08:55 01.01.2020
5455 Snow 2 1026 80 2500 2.6 360 08:36 01.01.2020
5456 Snow 2 1026 80 5000 4.1 350 08:18 01.01.2020
5457 Mist 1 1026 61 6000 1.5 340 07:54 01.01.2020
5458 Snow 2 1027 86 5000 2.6 340 07:35 01.01.2020
5459 Mist 1 1026 61 7000 1.5 110 06:44 01.01.2020
5460 Mist 1 1026 61 7000 1.5 110 06:21 01.01.2020
5461 Mist 0 1025 92 5000 1.5 130 05:22 01.01.2020
5462 Snow 0 1024 55 5000 2.69 330 03:45 01.01.2020
5463 Snow 0 1024 92 5000 1.5 0 03:23 01.01.2020
5464 Mist 0 1023 55 9000 2.69 330 02:57 01.01.2020
5465 Snow 0 1023 92 4000 1 290 02:35 01.01.2020
5466 Clouds 1 1023 66 10000 2.64 331 01:56 01.01.2020
5467 Rain 1 1023 66 9000 2.64 331 01:38 01.01.2020
5468 Rain 0 1023 66 9000 2.69 327 01:19 01.01.2020
5469 Clouds 0 1023 66 10000 2.69 327 00:44 01.01.2020
5470 Rain 0 1023 92 4000 2.6 320 00:25 01.01.2020
5471 Snow 1 1023 66 7000 5.7 350 23:41 31.12.2019
5472 Snow 1 1023 75 7000 5.7 350 23:21 31.12.2019
5473 Clouds 1 1023 80 10000 2.61 338 22:57 31.12.2019
5474 Clouds 2 1023 59 10000 1.5 0 22:39 31.12.2019
5475 Clouds 2 1023 59 10000 1.5 0 22:20 31.12.2019
5476 Clouds 2 1023 64 10000 5.1 350 21:57 31.12.2019
5477 Clouds 1 1023 64 10000 5.1 350 21:38 31.12.2019
5478 Clouds 2 1023 64 10000 5.1 350 21:20 31.12.2019
5479 Clouds 2 1023 59 10000 5.1 20 20:55 31.12.2019
5480 Clouds 2 1023 59 10000 5.1 20 20:36 31.12.2019
5481 Clouds 2 1023 59 10000 5.1 20 20:18 31.12.2019
5482 Clouds 3 1023 51 10000 5.1 10 19:42 31.12.2019
5483 Clouds 3 1023 51 10000 5.1 10 19:24 31.12.2019
5484 Clouds 4 1023 55 10000 6.2 40 18:59 31.12.2019
5485 Clouds 4 1023 55 10000 6.2 40 18:40 31.12.2019
5486 Clouds 4 1023 55 10000 6.2 40 18:20 31.12.2019
5487 Clouds 5 1023 51 10000 5.1 120 17:57 31.12.2019
5488 Clouds 5 1023 51 10000 5.1 120 17:38 31.12.2019
5489 Clouds 5 1023 51 10000 5.1 120 17:19 31.12.2019
5490 Clouds 5 1022 44 10000 4.6 70 16:57 31.12.2019
5491 Clouds 5 1022 44 10000 4.6 70 16:57 31.12.2019
5492 Clouds 5 1022 44 10000 4.6 70 16:38 31.12.2019
5493 Clouds 5 1022 44 10000 4.6 70 16:19 31.12.2019
5494 Clouds 6 1022 35 10000 3.1 70 15:57 31.12.2019
5495 Clouds 6 1022 35 10000 3.1 70 15:39 31.12.2019
5496 Clouds 6 1022 35 10000 3.1 70 15:21 31.12.2019
5497 Clouds 6 1021 35 10000 3.1 90 14:58 31.12.2019
5498 Clouds 6 1021 35 10000 3.1 90 14:39 31.12.2019
5499 Clouds 6 1021 35 10000 3.1 90 14:19 31.12.2019
5500 Clouds 7 1020 35 10000 5.1 120 13:58 31.12.2019
5501 Clouds 7 1020 35 10000 5.1 120 13:40 31.12.2019
5502 Clouds 7 1020 35 10000 5.1 120 13:21 31.12.2019
5503 Clouds 8 1020 33 10000 5.1 120 12:58 31.12.2019
5504 Clouds 8 1020 33 10000 5.1 120 12:40 31.12.2019
5505 Clouds 8 1020 33 10000 5.1 120 12:20 31.12.2019
5506 Clouds 9 1020 31 10000 5.1 120 11:56 31.12.2019
5507 Clouds 9 1020 31 10000 5.1 120 11:38 31.12.2019
5508 Clouds 9 1020 31 10000 5.1 120 11:38 31.12.2019
5509 Clouds 9 1020 31 10000 5.1 120 11:20 31.12.2019
5510 Clouds 9 1021 28 9000 3.1 110 10:58 31.12.2019
5511 Clouds 9 1021 28 9000 3.1 110 10:38 31.12.2019
5512 Clouds 9 1021 28 9000 3.1 110 10:20 31.12.2019
5513 Clouds 8 1022 30 9000 1 90 09:59 31.12.2019
5514 Clouds 8 1022 30 9000 1 90 09:39 31.12.2019
5515 Clouds 8 1022 30 9000 1 90 09:20 31.12.2019
5516 Clouds 7 1023 30 9000 1 100 08:57 31.12.2019
5517 Clouds 7 1023 30 9000 1 100 08:39 31.12.2019
5518 Haze 6 1021 36 5000 1.52 56 08:19 31.12.2019
5519 Smoke 5 1023 38 6000 1 190 07:43 31.12.2019
5520 Smoke 5 1023 38 6000 1 190 07:21 31.12.2019
5521 Smoke 3 1023 38 3000 1 0 06:50 31.12.2019
5522 Smoke -1 1022 63 2500 1 0 05:57 31.12.2019
5523 Smoke -4 1022 68 2500 1 0 04:29 31.12.2019
5524 Smoke -3 1021 68 3000 1 310 03:28 31.12.2019
5525 Smoke -3 1021 73 3000 1.5 110 02:55 31.12.2019
5526 Smoke -3 1021 73 3000 1.5 110 02:18 31.12.2019
5527 Smoke -3 1020 63 1600 1 0 01:42 31.12.2019
5528 Smoke -3 1020 63 1600 1 0 01:23 31.12.2019
5529 Smoke -2 1021 63 1600 1.5 300 00:46 31.12.2019
5530 Smoke -2 1021 63 1600 1.5 300 00:22 31.12.2019
5531 Smoke -1 1021 58 1200 1.5 290 23:56 30.12.2019
5532 Smoke -1 1021 58 1200 1.5 290 23:38 30.12.2019
5533 Smoke -1 1021 58 1200 1.5 290 23:20 30.12.2019
5534 Smoke 1 1020 58 1000 1.5 0 22:57 30.12.2019
5535 Smoke 1 1020 58 1000 1.5 0 22:38 30.12.2019
5536 Smoke 1 1020 58 1000 1.5 0 22:20 30.12.2019
5537 Smoke 1 1020 63 1000 1.5 320 21:56 30.12.2019
5538 Smoke 1 1020 63 1000 1.5 320 21:38 30.12.2019
5539 Smoke 1 1020 63 1000 1.5 320 21:18 30.12.2019
5540 Smoke 2 1021 58 1200 1.5 310 20:56 30.12.2019
5541 Smoke 2 1021 58 1200 1.5 310 20:38 30.12.2019
5542 Smoke 2 1021 58 1200 1.5 310 20:20 30.12.2019
5543 Smoke 5 1021 47 1200 1.5 0 19:57 30.12.2019
5544 Smoke 5 1021 47 1200 1.5 0 19:37 30.12.2019
5545 Smoke 5 1021 47 1200 1.5 0 19:19 30.12.2019
5546 Smoke 5 1020 47 2500 1.5 0 18:56 30.12.2019
5547 Smoke 5 1020 47 2500 1.5 0 18:37 30.12.2019
5548 Smoke 5 1020 47 2500 1.5 0 18:19 30.12.2019
5549 Smoke 6 1019 40 3000 1 0 17:55 30.12.2019
5550 Smoke 6 1019 40 3000 1 0 17:36 30.12.2019
5551 Smoke 6 1019 40 3000 1 0 17:36 30.12.2019
5552 Smoke 6 1019 40 3000 1 0 17:18 30.12.2019
5553 Smoke 5 1019 40 3000 1.5 0 16:55 30.12.2019
5554 Smoke 5 1019 40 3000 1.5 0 16:36 30.12.2019
5555 Smoke 5 1019 40 3000 1.5 0 16:18 30.12.2019
5556 Smoke 5 1019 40 3000 1.5 0 16:18 30.12.2019
5557 Haze 5 1017 33 6000 1.35 313 15:54 30.12.2019
5558 Smoke 5 1019 38 3000 2.1 130 15:36 30.12.2019
5559 Smoke 5 1019 38 3000 2.1 130 15:18 30.12.2019
5560 Smoke 6 1018 35 3000 2.1 130 14:42 30.12.2019
5561 Haze 7 1018 28 5000 1 0 14:19 30.12.2019
5562 Clear 8 1018 21 8000 3.1 60 13:54 30.12.2019
5563 Clear 8 1018 21 8000 3.1 60 13:36 30.12.2019
5564 Clouds 10 1018 21 8000 3.1 60 13:18 30.12.2019
5565 Clouds 10 1018 18 10000 1 0 12:42 30.12.2019
5566 Clouds 10 1018 18 10000 1 0 12:20 30.12.2019
5567 Clouds 11 1018 17 10000 2.1 160 11:58 30.12.2019
5568 Clouds 11 1018 17 10000 2.1 160 11:39 30.12.2019
5569 Clear 11 1018 17 10000 2.1 160 11:19 30.12.2019
5570 Haze 10 1019 18 7000 1 0 10:43 30.12.2019
5571 Haze 10 1019 18 7000 1 0 10:21 30.12.2019
5572 Haze 9 1017 26 3200 1.64 150 09:57 30.12.2019
5573 Haze 8 1018 36 2800 1.64 150 09:37 30.12.2019
5574 Haze 8 1018 36 2800 1.64 150 09:19 30.12.2019
5575 Smoke 8 1021 24 7000 2.6 350 08:49 30.12.2019
5576 Smoke 5 1021 24 7000 2.6 350 08:23 30.12.2019
5577 Smoke 4 1022 30 3000 2.6 330 07:55 30.12.2019
5578 Smoke 4 1022 30 3000 2.6 330 07:33 30.12.2019
5579 Smoke 2 1022 38 3000 1.5 300 06:52 30.12.2019
5580 Haze -2 1020 73 8000 0.86 270 04:56 30.12.2019
5581 Haze -3 1020 73 3200 0.86 270 03:53 30.12.2019
5582 Smoke -4 1021 58 4000 1.5 300 02:50 30.12.2019
5583 Smoke -3 1021 58 4000 1.5 300 02:32 30.12.2019
5584 Smoke -2 1021 28 4000 2.6 330 01:50 30.12.2019
5585 Smoke -2 1021 27 4000 2.6 330 01:20 30.12.2019
5586 Smoke -3 1021 54 2500 2.1 320 00:44 30.12.2019
5587 Smoke -3 1021 54 2500 2.1 320 00:18 30.12.2019
5588 Smoke -4 1022 68 1000 1.5 0 23:39 29.12.2019
5589 Smoke -4 1022 68 1000 1.5 0 23:21 29.12.2019
5590 Smoke -2 1022 68 1000 1.5 0 22:42 29.12.2019
5591 Smoke -2 1022 68 1000 1.5 0 22:23 29.12.2019
5592 Smoke -2 1022 58 1200 1.5 0 21:59 29.12.2019
5593 Smoke -1 1022 58 1200 1.5 0 21:41 29.12.2019
5594 Smoke -2 1022 58 1200 1.5 0 21:20 29.12.2019
5595 Smoke -2 1022 58 1200 1.5 0 21:20 29.12.2019
5596 Smoke -2 1022 58 1000 1.5 0 20:57 29.12.2019
5597 Smoke -2 1022 58 1000 1.5 0 20:39 29.12.2019
5598 Smoke -2 1022 58 1000 1.5 0 20:20 29.12.2019
5599 Smoke -1 1022 58 1200 1.5 0 19:58 29.12.2019
5600 Smoke -1 1022 58 1200 1.5 0 19:39 29.12.2019
5601 Smoke -1 1022 58 1200 1.5 0 19:20 29.12.2019
5602 Smoke -1 1022 31 1200 1 0 18:57 29.12.2019
5603 Smoke -1 1022 31 1200 1 0 18:38 29.12.2019
5604 Smoke -1 1023 31 1600 1 280 18:19 29.12.2019
5605 Smoke -1 1022 50 2500 1 360 17:57 29.12.2019
5606 Smoke -1 1022 50 2500 1 360 17:39 29.12.2019
5607 Smoke -1 1022 50 2500 1 360 17:20 29.12.2019
5608 Smoke 0 1022 43 2000 1.5 140 16:56 29.12.2019
5609 Smoke 0 1022 43 2000 1.5 140 16:37 29.12.2019
5610 Smoke 0 1022 43 2000 1.5 140 16:19 29.12.2019
5611 Haze 2 1021 35 4400 2.1 200 15:57 29.12.2019
5612 Smoke 3 1022 34 3000 1.5 100 15:38 29.12.2019
5613 Smoke 3 1022 34 3000 1.5 100 15:19 29.12.2019
5614 Smoke 8 1021 28 5000 1.5 140 14:56 29.12.2019
5615 Smoke 8 1021 28 5000 1.5 140 14:38 29.12.2019
5616 Smoke 8 1021 28 5000 1.5 140 14:18 29.12.2019
5617 Clear 9 1021 23 7000 2.6 150 13:57 29.12.2019
5618 Clear 9 1021 23 7000 2.6 150 13:37 29.12.2019
5619 Clear 9 1021 23 7000 2.6 150 13:37 29.12.2019
5620 Clear 9 1021 23 7000 2.6 150 13:19 29.12.2019
5621 Clear 11 1021 23 7000 0.45 270 12:44 29.12.2019
5622 Clear 11 1021 23 7000 0.45 270 12:25 29.12.2019
5623 Clear 12 1022 17 6000 1 250 11:56 29.12.2019
5624 Clear 12 1022 17 6000 1 250 11:38 29.12.2019
5625 Clear 12 1022 17 6000 1 250 11:38 29.12.2019
5626 Clear 12 1022 17 6000 1 250 11:20 29.12.2019
5627 Haze 10 1022 20 4000 1.5 320 10:42 29.12.2019
5628 Haze 10 1022 20 4000 1.5 320 10:23 29.12.2019
5629 Haze 9 1023 25 2500 1.5 200 09:57 29.12.2019
5630 Haze 10 1023 25 2500 1.5 200 09:38 29.12.2019
5631 Haze 10 1023 25 2500 1.5 200 09:20 29.12.2019
5632 Haze 8 1025 28 3000 1.5 0 08:47 29.12.2019
5633 Haze 4 1025 28 3000 1.5 0 08:24 29.12.2019
5634 Haze 5 1025 32 4000 1.5 320 07:55 29.12.2019
5635 Haze 1 1025 32 4000 1.5 320 07:28 29.12.2019
5636 Haze 1 1025 37 4000 3.1 320 06:55 29.12.2019
5637 Haze 1 1025 37 4000 3.1 320 06:25 29.12.2019
5638 Haze -1 1024 16 4000 2.1 320 05:51 29.12.2019
5639 Smoke -2 1024 50 3500 2.6 320 04:36 29.12.2019
5640 Smoke -4 1024 68 3000 3.1 330 03:51 29.12.2019
5641 Smoke -5 1024 68 3000 3.1 330 03:20 29.12.2019
5642 Smoke -5 1023 79 1000 1.5 290 02:20 29.12.2019
5643 Smoke -3 1023 79 1000 1.5 323 01:31 29.12.2019
5644 Smoke -4 1023 79 800 1.46 323 00:57 29.12.2019
5645 Smoke -4 1023 79 800 1.46 323 00:39 29.12.2019
5646 Smoke -4 1023 79 800 1.46 323 00:21 29.12.2019
5647 Smoke -4 1023 68 800 1.46 323 23:42 28.12.2019
5648 Smoke -4 1023 68 800 1.46 323 23:42 28.12.2019
5649 Smoke -4 1023 68 800 1.51 313 23:18 28.12.2019
5650 Smoke -2 1023 68 800 1.51 313 22:39 28.12.2019
5651 Smoke -2 1023 68 800 1.51 313 22:39 28.12.2019
5652 Smoke -2 1023 68 1000 1 0 22:20 28.12.2019
5653 Smoke -3 1023 63 1000 1.51 313 21:58 28.12.2019
5654 Smoke -3 1023 63 1000 1.51 313 21:58 28.12.2019
5655 Smoke -3 1023 63 1000 1.51 313 21:39 28.12.2019
5656 Smoke -3 1023 63 1000 1.51 313 21:21 28.12.2019
5657 Smoke -3 1023 63 1000 1.51 313 21:21 28.12.2019
5658 Smoke -2 1023 63 1200 0.5 120 20:57 28.12.2019
5659 Smoke -2 1023 63 1200 0.5 120 20:37 28.12.2019
5660 Smoke -2 1023 63 1200 0.5 120 20:19 28.12.2019
5661 Smoke -2 1023 54 1500 1.41 327 19:56 28.12.2019
5662 Smoke -2 1023 54 1500 1.41 327 19:38 28.12.2019
5663 Smoke -2 1023 54 1500 1.41 327 19:19 28.12.2019
5664 Smoke -1 1023 27 1500 1.41 327 18:56 28.12.2019
5665 Smoke -1 1023 27 1500 1.41 327 18:38 28.12.2019
5666 Smoke -1 1023 27 1500 1.41 327 18:18 28.12.2019
5667 Smoke 0 1022 50 1200 0.5 0 17:43 28.12.2019
5668 Smoke 0 1022 50 1200 0.5 0 17:21 28.12.2019
5669 Smoke 0 1022 50 1200 1 230 16:59 28.12.2019
5670 Smoke 0 1022 50 1200 1 230 16:41 28.12.2019
5671 Smoke 1 1022 47 3000 1.2 317 16:23 28.12.2019
5672 Smoke 3 1021 35 3000 2.6 110 15:43 28.12.2019
5673 Smoke 3 1021 35 3000 2.6 110 15:23 28.12.2019
5674 Haze 7 1021 30 4500 1 140 14:56 28.12.2019
5675 Haze 7 1021 30 4500 1 140 14:37 28.12.2019
5676 Haze 7 1021 30 4500 1 140 14:19 28.12.2019
5677 Haze 10 1020 24 4500 1 120 13:42 28.12.2019
5678 Haze 10 1020 24 4500 1 120 13:21 28.12.2019
5679 Haze 10 1020 24 4500 1 120 13:21 28.12.2019
5680 Haze 11 1020 21 4000 2.1 70 12:58 28.12.2019
5681 Haze 11 1020 21 4000 2.1 70 12:40 28.12.2019
5682 Haze 11 1020 21 4000 2.1 70 12:21 28.12.2019
5683 Smoke 11 1021 18 4000 0.49 52 11:40 28.12.2019
5684 Smoke 11 1021 18 4000 1.16 136 11:21 28.12.2019
5685 Smoke 11 1021 20 4000 1 0 10:57 28.12.2019
5686 Smoke 11 1021 20 4000 1 0 10:38 28.12.2019
5687 Smoke 11 1021 20 4000 1 0 10:19 28.12.2019
5688 Smoke 9 1022 23 4000 1 0 09:54 28.12.2019
5689 Smoke 10 1022 23 4000 1 0 09:36 28.12.2019
5690 Smoke 10 1022 23 4000 1 0 09:36 28.12.2019
5691 Smoke 7 1022 23 4000 1 0 09:18 28.12.2019
5692 Smoke 7 1023 24 4000 1.5 340 08:42 28.12.2019
5693 Smoke 7 1023 24 4000 1.5 340 08:23 28.12.2019
5694 Haze 5 1024 30 3500 1.5 290 07:47 28.12.2019
5695 Haze 5 1024 30 3500 1.5 290 07:22 28.12.2019
5696 Haze -1 1023 16 4000 1.5 320 05:46 28.12.2019
5697 Haze -4 1021 73 4000 0.83 262 03:48 28.12.2019
5698 Smoke -3 1022 58 2400 1.5 330 02:51 28.12.2019
5699 Smoke -3 1022 58 2400 1.5 330 02:20 28.12.2019
5700 Smoke -3 1022 63 1600 1.5 310 01:55 28.12.2019
5701 Smoke -3 1022 63 1600 1.5 310 01:23 28.12.2019
5702 Smoke -3 1022 22 1000 1.12 299 00:48 28.12.2019
5703 Smoke -3 1022 22 1000 1.12 299 00:30 28.12.2019
5704 Smoke -3 1022 68 1000 0.5 340 23:58 27.12.2019
5705 Smoke -3 1022 68 1000 0.5 340 23:58 27.12.2019
5706 Smoke -3 1022 68 1000 0.5 340 23:38 27.12.2019
5707 Smoke -3 1022 68 1000 0.5 340 23:18 27.12.2019
5708 Smoke -2 1022 63 800 1 150 22:55 27.12.2019
5709 Smoke -2 1022 63 800 1 150 22:37 27.12.2019
5710 Smoke -2 1022 63 800 1 150 22:19 27.12.2019
5711 Smoke -2 1022 63 800 6.2 120 21:43 27.12.2019
5712 Smoke -3 1022 63 1000 0.5 190 21:24 27.12.2019
5713 Smoke -2 1022 22 800 1 250 20:45 27.12.2019
5714 Smoke -2 1022 23 800 1 250 20:26 27.12.2019
5715 Smoke -1 1022 58 1600 1.5 310 19:59 27.12.2019
5716 Smoke -1 1022 58 1600 1.5 310 19:40 27.12.2019
5717 Smoke -1 1022 54 3000 1 10 19:20 27.12.2019
5718 Smoke -1 1022 25 3000 0.5 310 18:56 27.12.2019
5719 Smoke -1 1022 25 3000 0.5 310 18:37 27.12.2019
5720 Smoke -1 1022 25 3000 0.5 310 18:18 27.12.2019
5721 Smoke 1 1022 43 4000 1 250 17:55 27.12.2019
5722 Smoke 1 1022 43 4000 1 250 17:55 27.12.2019
5723 Smoke 1 1022 43 4000 1 250 17:37 27.12.2019
5724 Smoke 1 1022 43 4000 1 250 17:18 27.12.2019
5725 Smoke 1 1021 40 5000 1 0 16:43 27.12.2019
5726 Smoke 1 1021 40 5000 1 0 16:23 27.12.2019
5727 Smoke 5 1020 38 5000 0.5 130 15:58 27.12.2019
5728 Smoke 5 1020 38 5000 0.5 130 15:37 27.12.2019
5729 Smoke 5 1020 38 5000 0.5 130 15:19 27.12.2019
5730 Clear 8 1020 30 7000 1.5 170 14:56 27.12.2019
5731 Clear 8 1020 30 7000 1.5 170 14:38 27.12.2019
5732 Clear 8 1020 30 7000 1.5 170 14:19 27.12.2019
5733 Smoke 10 1019 25 7000 2.1 90 13:47 27.12.2019
5734 Smoke 10 1019 25 7000 2.1 90 13:24 27.12.2019
5735 Smoke 12 1019 16 7000 1.5 100 12:56 27.12.2019
5736 Smoke 12 1019 16 7000 1.5 100 12:37 27.12.2019
5737 Smoke 12 1019 16 7000 1.5 100 12:18 27.12.2019
5738 Smoke 12 1019 17 7000 1.5 0 11:42 27.12.2019
5739 Smoke 12 1019 17 7000 1.5 0 11:20 27.12.2019
5740 Haze 12 1018 17 5000 1.1 135 10:47 27.12.2019
5741 Smoke 11 1020 18 7000 1.5 210 10:24 27.12.2019
5742 Smoke 10 1021 21 8000 1.5 180 09:59 27.12.2019
5743 Smoke 10 1021 21 8000 1.5 180 09:39 27.12.2019
5744 Smoke 10 1021 21 8000 1.5 180 09:21 27.12.2019
5745 Smoke 9 1022 21 8000 1.5 0 08:49 27.12.2019
5746 Smoke 9 1022 21 8000 1.5 0 08:30 27.12.2019
5747 Smoke 6 1023 21 3000 1.5 0 07:48 27.12.2019
5748 Smoke 6 1023 21 3000 1.5 0 07:26 27.12.2019
5749 Smoke 2 1023 38 4000 1.5 0 06:33 27.12.2019
5750 Haze -2 1021 73 2800 0.87 232 04:51 27.12.2019
5751 Smoke -4 1021 53 5000 3.1 330 02:49 27.12.2019
5752 Smoke -3 1021 63 1800 1.5 310 01:56 27.12.2019
5753 Smoke -3 1022 68 1000 2.1 290 01:23 27.12.2019
5754 Smoke -3 1022 63 1000 1 310 00:53 27.12.2019
5755 Smoke -3 1022 63 1000 1 310 00:34 27.12.2019
5756 Smoke -2 1022 63 800 1 0 23:59 26.12.2019
5757 Smoke -2 1022 63 800 1 0 23:40 26.12.2019
5758 Smoke -2 1022 63 800 1 0 23:21 26.12.2019
5759 Smoke -2 1022 63 1000 0.5 0 22:43 26.12.2019
5760 Smoke -2 1022 63 1000 0.5 0 22:21 26.12.2019
5761 Smoke -1 1022 63 1000 1 160 21:56 26.12.2019
5762 Smoke -1 1022 63 1000 1 160 21:37 26.12.2019
5763 Smoke -1 1022 63 1000 1 160 21:19 26.12.2019
5764 Smoke -2 1022 58 800 1.5 320 20:44 26.12.2019
5765 Smoke -2 1022 58 800 1.5 320 20:22 26.12.2019
5766 Smoke 0 1022 22 800 0.63 232 19:58 26.12.2019
5767 Smoke 0 1022 22 800 0.63 232 19:39 26.12.2019
5768 Smoke 0 1022 22 800 0.63 232 19:20 26.12.2019
5769 Smoke 0 1022 58 800 1.5 170 18:57 26.12.2019
5770 Smoke 0 1022 58 800 1.5 170 18:38 26.12.2019
5771 Smoke 0 1022 22 1200 0.5 0 18:19 26.12.2019
5772 Smoke 1 1022 50 1200 0.63 232 17:42 26.12.2019
5773 Smoke 1 1022 50 1200 1.35 239 17:22 26.12.2019
5774 Smoke 2 1022 40 2000 1.5 290 16:58 26.12.2019
5775 Smoke 2 1022 40 2000 1.5 290 16:39 26.12.2019
5776 Smoke 2 1022 40 2000 1.5 290 16:20 26.12.2019
5777 Smoke 4 1021 30 2000 1.5 0 15:41 26.12.2019
5778 Smoke 4 1021 30 2000 1.5 0 15:21 26.12.2019
5779 Smoke 8 1021 28 4000 2.1 210 14:58 26.12.2019
5780 Smoke 8 1021 28 4000 2.1 210 14:38 26.12.2019
5781 Clear 7 1020 26 8000 1.5 270 14:20 26.12.2019
5782 Clear 10 1020 17 8000 1.5 90 13:43 26.12.2019
5783 Clear 10 1020 17 8000 1.5 90 13:20 26.12.2019
5784 Smoke 13 1020 12 8000 1.5 0 12:56 26.12.2019
5785 Smoke 13 1020 12 8000 1.5 0 12:56 26.12.2019
5786 Smoke 13 1020 12 8000 1.5 0 12:37 26.12.2019
5787 Clouds 13 1018 12 10000 1.59 224 12:19 26.12.2019
5788 Smoke 13 1021 12 8000 1.5 0 11:56 26.12.2019
5789 Smoke 13 1021 12 8000 1.5 0 11:37 26.12.2019
5790 Smoke 13 1021 12 8000 1.5 0 11:37 26.12.2019
5791 Smoke 13 1021 12 8000 1.5 0 11:19 26.12.2019
5792 Smoke 12 1021 15 7000 1.5 0 10:41 26.12.2019
5793 Smoke 12 1021 15 7000 1.5 0 10:41 26.12.2019
5794 Smoke 12 1021 15 7000 1.5 0 10:18 26.12.2019
5795 Smoke 11 1023 17 6000 1.5 0 09:43 26.12.2019
5796 Smoke 11 1023 17 6000 1.5 0 09:25 26.12.2019
5797 Smoke 8 1024 22 5000 1.5 0 08:42 26.12.2019
5798 Smoke 8 1024 22 5000 1.5 0 08:23 26.12.2019
5799 Smoke 7 1025 22 6000 1.5 0 07:52 26.12.2019
5800 Smoke 7 1025 22 6000 1.5 0 07:26 26.12.2019
5801 Smoke 2 1025 32 6000 3.1 320 06:48 26.12.2019
5802 Smoke 2 1025 32 6000 3.1 320 06:30 26.12.2019
5803 Smoke -1 1024 17 7000 1.5 330 05:45 26.12.2019
5804 Clear -2 1024 49 10000 1.5 320 04:38 26.12.2019
5805 Haze -4 1022 58 9000 2.1 250 03:47 26.12.2019
5806 Clear -3 1023 49 9000 2.1 330 02:50 26.12.2019
5807 Clear -3 1023 49 9000 2.1 330 02:32 26.12.2019
5808 Clear -3 1023 46 9000 1.62 219 01:46 26.12.2019
5809 Clear -3 1023 46 9000 1.62 219 01:26 26.12.2019
5810 Clear -1 1023 39 10000 3.1 330 00:48 26.12.2019
5811 Clear -1 1023 39 10000 3.1 330 00:24 26.12.2019
5812 Clear -1 1023 39 10000 3.1 330 00:24 26.12.2019
5813 Clear -1 1023 39 10000 3.1 330 00:24 26.12.2019
5814 Clear 0 1024 39 10000 4.1 330 23:58 25.12.2019
5815 Clear 0 1024 39 10000 4.1 330 23:38 25.12.2019
5816 Clear 0 1024 39 10000 4.1 330 23:20 25.12.2019
5817 Smoke 0 1024 42 5000 3.6 330 22:58 25.12.2019
5818 Smoke 0 1024 42 5000 3.6 330 22:38 25.12.2019
5819 Smoke 0 1024 42 5000 3.6 330 22:38 25.12.2019
5820 Smoke 0 1024 42 5000 3.6 330 22:19 25.12.2019
5821 Smoke 0 1024 42 3500 3.1 330 21:57 25.12.2019
5822 Smoke -1 1024 42 3500 3.1 330 21:39 25.12.2019
5823 Smoke -1 1024 50 1800 2.1 330 21:19 25.12.2019
5824 Smoke -1 1024 26 1800 2.1 340 20:41 25.12.2019
5825 -273 0 0 0 0 0 20:22 25.12.2019
5826 Smoke -1 1024 26 1600 1 0 19:59 25.12.2019
5827 Smoke -1 1024 26 1600 1 0 19:41 25.12.2019
5828 Smoke -1 1024 26 1600 1 0 19:22 25.12.2019
5829 Smoke 0 1024 40 1600 1.5 320 18:54 25.12.2019
5830 Smoke 0 1024 40 1600 1.5 320 18:36 25.12.2019
5831 Smoke 0 1024 40 1600 1.5 320 18:18 25.12.2019
5832 Smoke 6 1024 34 1600 3.1 230 17:40 25.12.2019
5833 Smoke 6 1024 34 1600 3.1 230 17:18 25.12.2019
5834 Smoke 6 1024 32 3000 2.1 240 16:55 25.12.2019
5835 Smoke 6 1024 32 3000 2.1 240 16:37 25.12.2019
5836 Clear 8 1024 20 10000 3.1 350 16:18 25.12.2019
5837 Clear 7 1023 22 10000 2.6 360 15:56 25.12.2019
5838 Clear 7 1023 22 10000 2.6 360 15:37 25.12.2019
5839 Clear 7 1023 22 10000 2.6 360 15:18 25.12.2019
5840 Clear 7 1023 22 10000 2.6 360 15:18 25.12.2019
5841 Clear 8 1023 19 10000 3.1 330 14:56 25.12.2019
5842 Clear 7 1023 19 10000 3.1 330 14:37 25.12.2019
5843 Clear 10 1023 19 10000 3.1 330 14:18 25.12.2019
5844 Clear 10 1022 16 10000 4.6 360 13:42 25.12.2019
5845 Clear 10 1022 16 10000 4.6 360 13:21 25.12.2019
5846 Clear 11 1023 16 10000 3.1 10 12:44 25.12.2019
5847 Clear 11 1023 16 10000 3.1 10 12:23 25.12.2019
5848 Clear 12 1023 15 10000 0.5 0 11:58 25.12.2019
5849 Clear 12 1023 15 10000 0.5 0 11:40 25.12.2019
5850 Clear 12 1023 15 10000 0.5 0 11:21 25.12.2019
5851 Clear 10 1023 17 10000 1.5 160 10:41 25.12.2019
5852 Clear 10 1023 17 10000 1.5 160 10:21 25.12.2019
5853 Smoke 10 1024 21 6000 4.1 190 09:59 25.12.2019
5854 Smoke 10 1024 21 6000 4.1 190 09:41 25.12.2019
5855 Smoke 10 1024 21 6000 4.1 190 09:23 25.12.2019
5856 Smoke 8 1025 24 6000 1.5 190 08:44 25.12.2019
5857 Smoke 8 1025 24 6000 1.5 190 08:24 25.12.2019
5858 Smoke 6 1025 26 5000 1 360 07:44 25.12.2019
5859 Smoke 6 1025 26 5000 1 360 07:23 25.12.2019
5860 Smoke 4 1025 32 5000 2.1 310 06:24 25.12.2019
5861 Smoke -1 1025 25 5000 2.1 320 05:51 25.12.2019
5862 Smoke -4 1025 58 5000 1 270 04:46 25.12.2019
5863 Haze -3 1023 73 4000 1.37 248 04:24 25.12.2019
5864 Haze -3 1023 73 4000 1.37 248 03:46 25.12.2019
5865 Clear -4 1024 53 10000 3.1 330 03:18 25.12.2019
5866 Clear -4 1024 58 8000 2.1 290 02:30 25.12.2019
5867 Clear -3 1023 58 8000 1.5 290 01:54 25.12.2019
5868 Clear -3 1023 58 8000 1.5 290 01:24 25.12.2019
5869 Clear -4 1024 54 6000 3.1 340 00:45 25.12.2019
5870 Clear -4 1024 54 6000 3.1 340 00:26 25.12.2019
5871 Smoke -2 1024 54 2000 1.5 320 23:40 24.12.2019
5872 Smoke -2 1024 54 2000 1.5 320 23:20 24.12.2019
5873 Smoke -1 1024 63 1600 2.1 310 22:55 24.12.2019
5874 Smoke -1 1024 63 1600 2.1 310 22:37 24.12.2019
5875 Smoke -1 1024 63 1600 2.1 310 22:19 24.12.2019
5876 Smoke -2 1024 63 1600 1.5 340 21:41 24.12.2019
5877 Smoke -1 1024 63 1600 1.5 340 21:20 24.12.2019
5878 Smoke -1 1024 63 1600 1.5 320 20:43 24.12.2019
5879 Smoke -1 1024 63 1600 1.5 320 20:23 24.12.2019
5880 Smoke 0 1024 54 1600 1.35 287 19:56 24.12.2019
5881 Smoke 0 1024 54 1600 1.35 287 19:37 24.12.2019
5882 Smoke 0 1024 54 1600 1.35 287 19:18 24.12.2019
5883 Smoke 0 1024 55 1600 1 150 18:42 24.12.2019
5884 Smoke 0 1024 55 1600 1 150 18:19 24.12.2019
5885 Smoke 0 1024 47 3000 1 0 17:44 24.12.2019
5886 Smoke 0 1024 47 3000 1 0 17:23 24.12.2019
5887 Smoke 2 1024 37 3000 1 40 16:58 24.12.2019
5888 Smoke 2 1024 37 3000 1 40 16:58 24.12.2019
5889 Smoke 2 1024 37 3000 1 40 16:40 24.12.2019
5890 Smoke 2 1024 37 3000 1 40 16:21 24.12.2019
5891 Smoke 2 1024 37 3000 1 40 16:21 24.12.2019
5892 Smoke 5 1023 35 3500 1.5 120 15:58 24.12.2019
5893 Smoke 5 1023 35 3500 1.5 120 15:58 24.12.2019
5894 Smoke 5 1023 35 3500 1.5 120 15:37 24.12.2019
5895 Smoke 5 1023 35 3500 1.5 120 15:19 24.12.2019
5896 Smoke 6 1023 35 4000 2.1 130 14:58 24.12.2019
5897 Smoke 6 1023 35 4000 2.1 130 14:40 24.12.2019
5898 Clear 7 1023 30 8000 1 0 14:22 24.12.2019
5899 Clear 9 1022 24 8000 1 0 13:56 24.12.2019
5900 Clear 9 1022 24 8000 1 0 13:38 24.12.2019
5901 Clear 9 1022 24 8000 1 0 13:20 24.12.2019
5902 Clear 11 1022 19 8000 1.5 0 12:57 24.12.2019
5903 Clear 11 1022 19 8000 1.5 0 12:38 24.12.2019
5904 Clear 11 1022 19 8000 1.5 0 12:19 24.12.2019
5905 Smoke 10 1022 20 8000 1.5 0 11:57 24.12.2019
5906 Smoke 10 1022 20 8000 1.5 0 11:37 24.12.2019
5907 Smoke 10 1022 20 8000 1.5 0 11:19 24.12.2019
5908 Smoke 10 1023 23 7000 1.5 0 10:56 24.12.2019
5909 Smoke 10 1023 23 7000 1.5 0 10:38 24.12.2019
5910 Smoke 10 1023 23 7000 1.5 0 10:20 24.12.2019
5911 Smoke 9 1023 23 7000 1.5 0 09:56 24.12.2019
5912 Smoke 9 1023 23 7000 1.5 0 09:38 24.12.2019
5913 Smoke 9 1023 23 7000 1.5 0 09:20 24.12.2019
5914 Smoke 7 1024 28 7000 1.5 330 08:47 24.12.2019
5915 Smoke 7 1024 28 7000 1.5 330 08:24 24.12.2019
5916 Smoke 6 1025 30 5000 1.5 340 07:55 24.12.2019
5917 Smoke 7 1025 30 5000 1.5 340 07:37 24.12.2019
5918 Smoke 3 1025 33 2500 1.5 0 07:18 24.12.2019
5919 Smoke 3 1024 41 2000 1.5 0 06:39 24.12.2019
5920 Smoke 3 1024 41 2000 1.5 0 06:19 24.12.2019
5921 Smoke 0 1024 43 4000 1.5 0 05:50 24.12.2019
5922 Mist 0 1024 47 6000 1 280 05:19 24.12.2019
5923 Mist -2 1023 54 7000 2.6 330 04:21 24.12.2019
5924 Mist -2 1022 58 6000 2.6 330 03:45 24.12.2019
5925 Mist -2 1021 68 2400 1 320 02:28 24.12.2019
5926 Smoke -3 1021 68 2400 0.95 309 01:53 24.12.2019
5927 Smoke -3 1021 68 2400 0.88 304 01:23 24.12.2019
5928 Smoke -2 1021 68 2400 1.5 170 00:56 24.12.2019
5929 Smoke -2 1021 68 2400 1.5 170 00:37 24.12.2019
5930 Haze -2 1020 74 6000 0.88 304 00:19 24.12.2019
5931 Haze -2 1020 74 6000 0.88 304 00:19 24.12.2019
5932 Smoke -3 1021 68 1600 0.88 304 23:41 23.12.2019
5933 Smoke -3 1021 68 1600 0.88 304 23:23 23.12.2019
5934 Smoke -2 1021 73 1600 1.24 318 22:56 23.12.2019
5935 Smoke -2 1021 73 1600 1.24 318 22:37 23.12.2019
5936 Smoke -2 1021 73 1600 1.24 318 22:19 23.12.2019
5937 Smoke -2 1021 68 1600 1.24 318 21:55 23.12.2019
5938 Smoke -3 1021 68 1600 1.24 318 21:36 23.12.2019
5939 Smoke -3 1021 68 1600 1.24 318 21:18 23.12.2019
5940 Smoke -2 1021 54 3200 1.5 320 20:57 23.12.2019
5941 Smoke -2 1021 54 3200 1.5 320 20:39 23.12.2019
5942 Smoke -2 1021 54 3200 1.5 320 20:39 23.12.2019
5943 Smoke -2 1021 54 3200 1.5 320 20:39 23.12.2019
5944 Smoke -2 1021 54 3200 1.5 320 20:18 23.12.2019
5945 Smoke -1 1021 38 2500 1 0 19:56 23.12.2019
5946 Smoke -1 1021 38 2500 1 0 19:38 23.12.2019
5947 Smoke -1 1021 38 2500 1 0 19:19 23.12.2019
5948 Smoke 0 1021 47 4000 2.1 120 18:58 23.12.2019
5949 Smoke 0 1021 47 4000 2.1 120 18:58 23.12.2019
5950 Smoke 0 1021 47 4000 2.1 120 18:38 23.12.2019
5951 Smoke 0 1021 47 4000 2.1 120 18:20 23.12.2019
5952 Smoke 1 1020 47 4000 1 0 17:56 23.12.2019
5953 Smoke 1 1020 47 4000 1 0 17:38 23.12.2019
5954 Smoke 1 1020 47 4000 1 0 17:19 23.12.2019
5955 Smoke 1 1020 47 4000 1 0 17:19 23.12.2019
5956 Clouds 1 1020 43 7000 1 0 16:55 23.12.2019
5957 Clouds 1 1020 43 7000 1 0 16:55 23.12.2019
5958 Clouds 1 1020 43 7000 1 0 16:36 23.12.2019
5959 Clouds 1 1020 43 7000 1 0 16:18 23.12.2019
5960 Clouds 1 1020 43 7000 1 0 16:18 23.12.2019
5961 Clouds 4 1019 40 7000 1 140 15:55 23.12.2019
5962 Clouds 4 1019 40 7000 1 140 15:36 23.12.2019
5963 Clouds 4 1019 40 7000 1 140 15:18 23.12.2019
5964 Clouds 6 1019 35 7000 2.1 70 14:45 23.12.2019
5965 Clouds 6 1019 35 7000 2.1 70 14:26 23.12.2019
5966 Clouds 6 1019 35 7000 2.1 70 14:26 23.12.2019
5967 Clouds 9 1019 24 8000 1.5 70 13:59 23.12.2019
5968 Clouds 9 1019 24 8000 1.5 70 13:41 23.12.2019
5969 Clouds 9 1019 24 8000 1.5 70 13:22 23.12.2019
5970 Clouds 9 1019 23 8000 3.1 220 12:58 23.12.2019
5971 Clouds 9 1019 23 8000 3.1 220 12:58 23.12.2019
5972 Clouds 9 1019 23 8000 3.1 220 12:39 23.12.2019
5973 Clouds 9 1019 23 8000 3.1 220 12:21 23.12.2019
5974 Clouds 9 1020 23 10000 1.5 160 11:55 23.12.2019
5975 Clouds 9 1020 23 10000 1.5 160 11:37 23.12.2019
5976 Clouds 9 1020 23 10000 1.5 160 11:18 23.12.2019
5977 Clouds 9 1021 24 10000 3.1 190 10:54 23.12.2019
5978 Clouds 9 1021 24 10000 3.1 190 10:36 23.12.2019
5979 Clouds 9 1021 24 10000 3.1 190 10:18 23.12.2019
5980 Clouds 9 1021 24 10000 3.1 190 10:18 23.12.2019
5981 Clouds 9 1022 24 10000 3.1 180 09:40 23.12.2019
5982 Clouds 9 1022 24 10000 3.1 180 09:22 23.12.2019
5983 Haze 8 1020 27 8000 1.2 144 08:58 23.12.2019
5984 Smoke 8 1023 30 8000 1 50 08:40 23.12.2019
5985 Smoke 8 1023 30 8000 1 50 08:22 23.12.2019
5986 Smoke 7 1023 28 8000 1.5 140 07:48 23.12.2019
5987 Smoke 7 1023 33 1600 1 170 07:21 23.12.2019
5988 Haze 4 1022 45 5000 1.49 176 06:57 23.12.2019
5989 Smoke 4 1024 37 4000 3.1 300 06:27 23.12.2019
5990 Smoke 1 1024 47 4000 2.1 320 05:56 23.12.2019
5991 Clouds 0 1023 50 0 0.5 0 05:29 23.12.2019
5992 Clouds -4 1023 62 10000 3.1 310 04:34 23.12.2019
5993 Clouds -4 1023 53 8000 2.6 330 03:26 23.12.2019
5994 Clouds -2 1022 58 8000 1.5 330 02:42 23.12.2019
5995 Clouds -2 1022 58 8000 1.5 330 02:19 23.12.2019
5996 Clouds -3 1023 68 8000 1 0 01:43 23.12.2019
5997 Clouds -3 1023 68 8000 1 0 01:25 23.12.2019
5998 Clouds -3 1023 58 7000 2.1 320 00:43 23.12.2019
5999 Clouds -3 1023 58 7000 2.1 320 00:23 23.12.2019
6000 Clouds -1 1023 50 7000 3.1 330 23:40 22.12.2019
6001 Clouds -1 1023 50 7000 3.1 330 23:22 22.12.2019
6002 Smoke -3 1024 63 1600 1.5 0 22:58 22.12.2019
6003 Smoke -3 1024 63 1600 1.5 0 22:58 22.12.2019
6004 Smoke -3 1024 63 1600 1.5 0 22:40 22.12.2019
6005 Smoke -3 1024 63 1600 1.5 0 22:21 22.12.2019
6006 Smoke -1 1024 34 1200 1.5 180 21:58 22.12.2019
6007 Smoke -1 1024 34 1200 1.5 180 21:58 22.12.2019
6008 Smoke -1 1024 34 1200 1.5 180 21:40 22.12.2019
6009 Smoke -1 1024 34 1200 1.5 180 21:21 22.12.2019
6010 Smoke 0 1024 54 1200 2.6 320 20:58 22.12.2019
6011 Smoke 0 1024 54 1200 2.6 320 20:39 22.12.2019
6012 Smoke 0 1024 54 1200 2.6 320 20:19 22.12.2019
6013 Smoke -1 1024 54 1600 1.5 0 19:56 22.12.2019
6014 Smoke -1 1024 54 1600 1.5 0 19:37 22.12.2019
6015 Smoke -1 1024 54 1600 1.5 0 19:19 22.12.2019
6016 Smoke 0 1024 43 1600 1.08 280 18:41 22.12.2019
6017 Smoke 0 1024 43 1600 1.08 280 18:23 22.12.2019
6018 Smoke 1 1024 43 1200 1 0 17:56 22.12.2019
6019 Smoke 1 1024 43 1200 1 0 17:37 22.12.2019
6020 Smoke 1 1024 43 1200 1 0 17:18 22.12.2019
6021 Smoke 1 1024 43 1200 1 0 17:18 22.12.2019
6022 Smoke 2 1024 37 1200 1 0 16:57 22.12.2019
6023 Smoke 2 1024 37 1200 1 0 16:38 22.12.2019
6024 Smoke 2 1024 34 3000 1 360 16:19 22.12.2019
6025 Smoke 4 1024 30 3000 1.5 150 15:56 22.12.2019
6026 Smoke 4 1024 30 3000 1.5 150 15:37 22.12.2019
6027 Smoke 4 1024 30 3000 1.5 150 15:37 22.12.2019
6028 Smoke 4 1024 29 7000 1 100 15:19 22.12.2019
6029 Clear 7 1023 20 10000 1 100 14:54 22.12.2019
6030 Clear 7 1023 20 10000 1 100 14:36 22.12.2019
6031 Clear 7 1023 20 10000 1 100 14:18 22.12.2019
6032 Clear 9 1023 19 10000 0.5 0 13:55 22.12.2019
6033 Clear 9 1023 19 10000 0.5 0 13:36 22.12.2019
6034 Clear 9 1023 19 10000 0.5 0 13:18 22.12.2019
6035 Clear 9 1023 19 10000 0.5 0 13:18 22.12.2019
6036 Clouds 12 1021 17 10000 3.1 230 12:55 22.12.2019
6037 Clouds 11 1021 17 10000 3.1 230 12:37 22.12.2019
6038 Clouds 11 1021 17 10000 3.1 230 12:18 22.12.2019
6039 Clear 11 1024 16 10000 2.6 210 11:39 22.12.2019
6040 Clear 11 1024 16 10000 2.6 210 11:21 22.12.2019
6041 Clear 11 1025 18 10000 2.1 190 10:59 22.12.2019
6042 Clear 11 1025 18 10000 2.1 190 10:40 22.12.2019
6043 Clear 11 1025 18 10000 2.1 190 10:21 22.12.2019
6044 Clouds 12 1023 17 10000 2.1 230 09:59 22.12.2019
6045 Clouds 12 1023 17 10000 2.1 230 09:40 22.12.2019
6046 Clouds 10 1023 17 10000 2.1 230 09:21 22.12.2019
6047 Clear 9 1026 19 10000 2.6 180 08:59 22.12.2019
6048 Clear 9 1026 19 10000 2.6 180 08:37 22.12.2019
6049 Clear 9 1026 19 10000 2.6 180 08:18 22.12.2019
6050 Clear 9 1026 19 10000 2.6 180 08:18 22.12.2019
6051 Clear 9 1026 19 10000 2.6 180 08:18 22.12.2019
6052 Smoke 8 1027 21 10000 2.1 290 07:38 22.12.2019
6053 Smoke 8 1027 21 10000 2.1 290 07:19 22.12.2019
6054 Smoke 4 1026 30 6000 3.6 320 06:40 22.12.2019
6055 Smoke 1 1027 40 5000 1 310 05:53 22.12.2019
6056 Smoke 1 1027 40 5000 1 310 05:21 22.12.2019
6057 Clear -2 1026 63 10000 0.5 0 04:29 22.12.2019
6058 Haze -4 1024 68 9000 1.13 238 03:52 22.12.2019
6059 Clear -2 1024 63 10000 1.5 0 02:40 22.12.2019
6060 Clear -2 1024 42 10000 2.1 330 01:42 22.12.2019
6061 Clear -2 1024 42 10000 2.1 330 01:22 22.12.2019
6062 Clear -2 1024 42 10000 2.1 340 00:45 22.12.2019
6063 Clear -2 1024 42 10000 2.1 340 00:22 22.12.2019
6064 Clear -3 1024 46 9000 3.1 330 23:55 21.12.2019
6065 Clear -3 1024 46 9000 3.1 330 23:37 21.12.2019
6066 Clear -3 1024 46 9000 3.1 330 23:18 21.12.2019
6067 Clear -1 1024 53 6000 3.1 330 22:40 21.12.2019
6068 Clear -1 1024 53 6000 3.1 330 22:40 21.12.2019
6069 Smoke 0 1024 50 2500 1.5 330 22:19 21.12.2019
6070 Smoke 0 1024 50 2500 1.5 330 22:19 21.12.2019
6071 Smoke -1 1024 29 2000 1.5 330 21:57 21.12.2019
6072 Smoke -1 1024 29 2000 1.5 330 21:37 21.12.2019
6073 Smoke -1 1024 63 1200 1.5 0 21:19 21.12.2019
6074 Smoke 0 1024 29 1000 1.5 180 20:58 21.12.2019
6075 Smoke 0 1024 29 1000 1.5 180 20:39 21.12.2019
6076 Smoke 0 1024 29 1000 1.5 180 20:39 21.12.2019
6077 Smoke 0 1024 28 1000 1.5 180 20:21 21.12.2019
6078 Smoke -1 1024 43 1200 0.5 0 19:58 21.12.2019
6079 Smoke -1 1024 43 1200 0.5 0 19:40 21.12.2019
6080 Smoke -1 1024 43 1200 0.5 0 19:19 21.12.2019
6081 Smoke -1 1024 43 1200 0.5 0 19:19 21.12.2019
6082 Smoke 0 1024 43 1600 1.5 320 18:45 21.12.2019
6083 Smoke 0 1024 43 1600 1.5 320 18:24 21.12.2019
6084 Smoke 2 1023 37 2000 1.5 0 17:57 21.12.2019
6085 Smoke 2 1023 37 2000 1.5 0 17:39 21.12.2019
6086 Smoke 2 1023 37 2000 1.5 0 17:39 21.12.2019
6087 Smoke 2 1023 37 2000 1.5 0 17:21 21.12.2019
6088 Clear 3 1023 30 3000 1.5 190 16:58 21.12.2019
6089 Clear 3 1023 30 3000 1.5 190 16:40 21.12.2019
6090 Clear 3 1023 30 3000 1.5 190 16:18 21.12.2019
6091 Clear 3 1023 30 3000 1.5 190 16:18 21.12.2019
6092 Clear 5 1022 24 10000 1 60 15:57 21.12.2019
6093 Clear 5 1022 24 10000 1 60 15:57 21.12.2019
6094 Clear 5 1022 24 10000 1 60 15:38 21.12.2019
6095 Clear 5 1021 41 10000 1.57 267 15:19 21.12.2019
6096 Clear 8 1022 24 10000 3.1 60 14:55 21.12.2019
6097 Clear 8 1022 24 10000 3.1 60 14:37 21.12.2019
6098 Clear 8 1022 24 10000 3.1 60 14:18 21.12.2019
6099 Clear 10 1022 16 10000 1 240 13:54 21.12.2019
6100 Clear 10 1022 16 10000 1 240 13:36 21.12.2019
6101 Clear 10 1022 16 10000 1 240 13:18 21.12.2019
6102 Clear 12 1022 17 10000 1.5 140 12:54 21.12.2019
6103 Clear 12 1022 17 10000 1.5 140 12:36 21.12.2019
6104 Clear 12 1022 17 10000 1.5 140 12:36 21.12.2019
6105 Clear 12 1022 17 10000 1.5 140 12:18 21.12.2019
6106 Clear 12 1022 17 10000 3.6 140 11:41 21.12.2019
6107 Clear 12 1022 17 10000 3.6 140 11:41 21.12.2019
6108 Clear 12 1022 17 10000 3.6 140 11:23 21.12.2019
6109 Clear 10 1023 18 10000 2.6 150 10:54 21.12.2019
6110 Clear 10 1023 18 10000 2.6 150 10:36 21.12.2019
6111 Clear 11 1023 18 10000 2.6 150 10:18 21.12.2019
6112 Clear 9 1024 19 10000 4.1 180 09:42 21.12.2019
6113 Clear 10 1024 19 10000 4.1 180 09:20 21.12.2019
6114 Clear 10 1025 21 10000 1 0 08:56 21.12.2019
6115 Clear 10 1025 21 10000 1 0 08:37 21.12.2019
6116 Clear 10 1025 21 10000 1 0 08:18 21.12.2019
6117 Clear 9 1025 24 8000 1 0 07:41 21.12.2019
6118 Clear 9 1025 24 8000 1 0 07:21 21.12.2019
6119 Haze 6 1025 35 7000 1.5 0 06:43 21.12.2019
6120 Haze 6 1025 35 7000 1.5 0 06:25 21.12.2019
6121 Haze 3 1024 40 9000 3.6 310 05:47 21.12.2019
6122 Clear -1 1023 50 10000 2.6 320 04:58 21.12.2019
6123 Haze -2 1022 68 8000 1.06 229 03:57 21.12.2019
6124 Clear -2 1022 50 10000 3.6 330 02:50 21.12.2019
6125 Haze -2 1020 68 9000 0.99 246 01:55 21.12.2019
6126 Haze -2 1020 68 9000 0.98 241 01:27 21.12.2019
6127 Clear -2 1022 46 10000 3.1 330 00:52 21.12.2019
6128 Haze -2 1020 74 9000 3.6 40 00:31 21.12.2019
6129 Clear -2 1022 46 9000 3.6 330 23:56 20.12.2019
6130 Clear -2 1022 46 9000 3.6 330 23:37 20.12.2019
6131 Clear -2 1022 46 9000 3.6 330 23:18 20.12.2019
6132 Clear -1 1022 50 9000 3.1 310 22:40 20.12.2019
6133 Clear -1 1022 50 9000 3.1 310 22:21 20.12.2019
6134 Smoke 0 1022 47 9000 3.1 340 21:57 20.12.2019
6135 Smoke 0 1022 47 9000 3.1 340 21:39 20.12.2019
6136 Smoke 0 1022 47 9000 3.1 340 21:19 20.12.2019
6137 Smoke 1 1022 47 8000 2.6 340 20:39 20.12.2019
6138 Smoke 0 1022 58 1600 2.6 320 20:19 20.12.2019
6139 Smoke 0 1021 31 1600 1.5 230 19:58 20.12.2019
6140 Smoke 0 1021 31 1600 1.5 230 19:40 20.12.2019
6141 Smoke 0 1021 31 1600 1.5 230 19:19 20.12.2019
6142 Smoke 0 1021 55 1600 1 0 18:42 20.12.2019
6143 Smoke 0 1021 55 1600 1 0 18:24 20.12.2019
6144 Haze 1 1019 74 9000 1.5 200 17:59 20.12.2019
6145 Haze 1 1019 74 9000 1.5 200 17:41 20.12.2019
6146 Haze 2 1019 74 9000 1.5 200 17:21 20.12.2019
6147 Haze 2 1019 74 9000 1.5 200 17:21 20.12.2019
6148 Smoke 3 1020 43 3000 1 360 16:59 20.12.2019
6149 Smoke 3 1020 43 3000 1 360 16:39 20.12.2019
6150 Smoke 3 1020 43 3000 1 360 16:20 20.12.2019
6151 Smoke 3 1020 38 4000 1 0 15:56 20.12.2019
6152 Smoke 3 1020 38 4000 1 0 15:38 20.12.2019
6153 Smoke 3 1020 38 4000 1 0 15:19 20.12.2019
6154 Clear 7 1019 28 10000 1.5 0 14:54 20.12.2019
6155 Clear 7 1019 28 10000 1.5 0 14:36 20.12.2019
6156 Clear 7 1019 28 10000 1.5 0 14:18 20.12.2019
6157 Clear 9 1019 20 10000 0.68 188 13:41 20.12.2019
6158 Clear 9 1019 20 10000 0.64 192 13:20 20.12.2019
6159 Clear 10 1019 26 10000 2.1 100 12:57 20.12.2019
6160 Clear 10 1019 26 10000 2.1 100 12:38 20.12.2019
6161 Clear 10 1019 26 10000 2.1 100 12:19 20.12.2019
6162 Clear 10 1020 23 10000 1 0 11:58 20.12.2019
6163 Clear 10 1020 23 10000 1 0 11:39 20.12.2019
6164 Clear 10 1020 23 10000 1 0 11:19 20.12.2019
6165 Clear 10 1020 25 10000 1 0 10:57 20.12.2019
6166 Clear 10 1020 25 10000 1 0 10:57 20.12.2019
6167 Clear 10 1020 25 10000 1 0 10:38 20.12.2019
6168 Clear 10 1020 25 10000 1 0 10:20 20.12.2019
6169 Clear 9 1021 29 10000 1.5 0 09:44 20.12.2019
6170 Clear 9 1021 29 10000 1.5 0 09:22 20.12.2019
6171 Clear 8 1022 28 10000 1 0 08:59 20.12.2019
6172 Clear 8 1022 28 10000 1 0 08:41 20.12.2019
6173 Clear 7 1020 36 10000 1.03 151 08:21 20.12.2019
6174 Clear 6 1022 38 10000 1.5 320 07:57 20.12.2019
6175 Clear 6 1022 38 10000 1.5 320 07:39 20.12.2019
6176 Clear 6 1022 38 10000 1.5 320 07:18 20.12.2019
6177 Haze 4 1021 60 9000 1.03 151 06:48 20.12.2019
6178 Haze 4 1021 60 9000 1.03 151 06:30 20.12.2019
6179 Smoke 1 1022 59 7000 1.5 330 05:49 20.12.2019
6180 Smoke 1 1022 59 7000 1.5 330 05:49 20.12.2019
6181 Smoke 1 1022 59 7000 1.5 330 05:21 20.12.2019
6182 Mist -2 1020 68 5000 1.5 340 03:50 20.12.2019
6183 Mist -2 1020 68 5000 1.5 340 03:21 20.12.2019
6184 Mist -2 1020 92 4000 0.9 260 02:31 20.12.2019
6185 Smoke -1 1020 86 4000 1 250 01:36 20.12.2019
6186 Smoke -2 1020 86 1600 1.5 250 00:58 20.12.2019
6187 Smoke -2 1020 86 1600 1.5 250 00:39 20.12.2019
6188 Smoke -2 1020 92 1600 1.5 200 23:58 19.12.2019
6189 Smoke -2 1020 92 1600 1.5 200 23:40 19.12.2019
6190 Smoke -2 1020 92 1600 1.5 200 23:21 19.12.2019
6191 Smoke -1 1020 46 1600 1.22 314 22:40 19.12.2019
6192 Smoke -1 1020 46 1600 1.22 314 22:22 19.12.2019
6193 Smoke 0 1020 46 2000 1 350 21:59 19.12.2019
6194 Smoke 0 1020 46 2000 1 350 21:41 19.12.2019
6195 Smoke 0 1020 46 2000 1 350 21:20 19.12.2019
6196 Smoke 0 1021 46 2000 1 140 20:58 19.12.2019
6197 Smoke 0 1021 46 2000 1 140 20:38 19.12.2019
6198 Smoke 0 1021 47 2000 1 140 20:20 19.12.2019
6199 Smoke 1 1021 74 3000 1.5 120 19:58 19.12.2019
6200 Smoke 1 1021 74 3000 1.5 120 19:40 19.12.2019
6201 Clouds 1 1021 69 6000 2.1 190 19:19 19.12.2019
6202 Clouds 1 1021 69 6000 2.1 190 19:19 19.12.2019
6203 Clouds 1 1021 69 6000 2.1 190 19:19 19.12.2019
6204 Clouds 1 1021 69 6000 2.1 190 19:19 19.12.2019
6205 Clouds 3 1021 64 8000 1 330 18:58 19.12.2019
6206 Clouds 3 1021 64 8000 1 330 18:40 19.12.2019
6207 Clouds 3 1021 64 8000 1 330 18:20 19.12.2019
6208 Mist 6 1021 60 4000 1.73 307 17:56 19.12.2019
6209 Mist 6 1021 60 4000 1.73 307 17:38 19.12.2019
6210 Mist 6 1021 60 4000 2.21 293 17:18 19.12.2019
6211 Clouds 6 1021 60 4000 1.5 300 16:56 19.12.2019
6212 Clouds 6 1021 60 4000 1.5 300 16:37 19.12.2019
6213 Clear 6 1019 39 10000 2.1 320 16:19 19.12.2019
6214 Clouds 7 1020 56 10000 3.1 280 15:57 19.12.2019
6215 Clouds 7 1020 56 10000 3.1 280 15:57 19.12.2019
6216 Clouds 7 1020 56 10000 3.1 280 15:37 19.12.2019
6217 Clouds 7 1020 56 10000 3.1 280 15:19 19.12.2019
6218 Clouds 7 1020 56 10000 3.1 280 15:19 19.12.2019
6219 Clouds 7 1020 56 10000 3.1 280 15:19 19.12.2019
6220 Clouds 8 1020 51 10000 45.8 360 14:44 19.12.2019
6221 Clouds 8 1020 61 10000 45.8 360 14:20 19.12.2019
6222 Clouds 9 1020 61 9000 4.1 360 13:59 19.12.2019
6223 Clouds 9 1020 61 9000 4.1 360 13:38 19.12.2019
6224 Clouds 9 1020 61 9000 4.1 360 13:19 19.12.2019
6225 Clouds 9 1018 39 10000 7.2 40 12:57 19.12.2019
6226 Clouds 10 1020 61 9000 4.1 340 12:39 19.12.2019
6227 Clouds 10 1018 37 10000 8.7 360 12:19 19.12.2019
6228 Clouds 11 1020 61 9000 3.6 350 11:58 19.12.2019
6229 Clouds 11 1020 61 9000 3.6 350 11:40 19.12.2019
6230 Clouds 11 1020 53 9000 3.6 350 11:18 19.12.2019
6231 Clouds 10 1021 57 8000 3.6 360 10:58 19.12.2019
6232 Clouds 10 1021 57 8000 3.6 360 10:38 19.12.2019
6233 Clouds 10 1021 57 8000 3.6 360 10:20 19.12.2019
6234 Clouds 10 1022 57 6000 2.1 0 09:54 19.12.2019
6235 Clouds 9 1022 57 6000 2.1 0 09:36 19.12.2019
6236 Clouds 9 1022 57 6000 2.1 0 09:18 19.12.2019
6237 Smoke 9 1023 53 6000 1 0 08:41 19.12.2019
6238 Smoke 9 1023 45 6000 1 0 08:20 19.12.2019
6239 Smoke 9 1023 45 6000 1 0 08:20 19.12.2019
6240 Smoke 7 1024 45 5000 1.5 80 07:59 19.12.2019
6241 Smoke 7 1024 45 5000 1.5 80 07:38 19.12.2019
6242 Smoke 7 1024 45 5000 1.5 80 07:38 19.12.2019
6243 Smoke 7 1024 45 5000 1.5 80 07:20 19.12.2019
6244 Mist 6 1022 75 5000 1.02 144 06:52 19.12.2019
6245 Smoke 6 1024 65 2000 1 100 06:32 19.12.2019
6246 Smoke 3 1023 60 2500 1 50 05:57 19.12.2019
6247 Smoke 3 1023 60 2500 1 50 05:39 19.12.2019
6248 Smoke 2 1023 64 1600 1.5 200 04:56 19.12.2019
6249 Mist 3 1022 59 2500 1 150 03:45 19.12.2019
6250 Mist 3 1022 69 1600 1.5 150 02:24 19.12.2019
6251 Smoke 3 1021 59 2000 0.77 256 01:23 19.12.2019
6252 Smoke 3 1022 64 2000 1.5 240 00:44 19.12.2019
6253 Smoke 3 1022 64 2000 1.5 240 00:25 19.12.2019
6254 Clouds 2 1020 64 10000 2.1 190 23:58 18.12.2019
6255 Smoke 2 1022 69 2000 2.1 80 23:38 18.12.2019
6256 Smoke 2 1022 69 2000 2.1 80 23:19 18.12.2019
6257 Smoke 2 1022 69 1600 1.5 320 22:56 18.12.2019
6258 Smoke 2 1022 69 1600 1.5 320 22:37 18.12.2019
6259 Smoke 2 1022 69 1600 1.5 320 22:19 18.12.2019
6260 Haze 3 1020 74 6000 2.1 40 21:57 18.12.2019
6261 Haze 3 1020 74 6000 2.1 40 21:39 18.12.2019
6262 Haze 2 1020 74 6000 2.1 40 21:19 18.12.2019
6263 Smoke 3 1022 64 2500 1.5 0 20:55 18.12.2019
6264 Smoke 3 1022 64 2500 1.5 0 20:37 18.12.2019
6265 Smoke 3 1022 64 2500 1.5 0 20:19 18.12.2019
6266 Smoke 3 1023 59 2500 2.6 260 19:55 18.12.2019
6267 Smoke 3 1023 59 2500 2.6 260 19:37 18.12.2019
6268 Smoke 3 1023 59 2500 2.6 260 19:37 18.12.2019
6269 Smoke 3 1023 59 2500 2.6 260 19:18 18.12.2019
6270 Smoke 3 1023 55 2500 1 280 18:44 18.12.2019
6271 Smoke 3 1023 55 2500 1 280 18:25 18.12.2019
6272 Smoke 3 1023 51 2500 1 120 17:57 18.12.2019
6273 Smoke 3 1023 51 2500 1 120 17:39 18.12.2019
6274 Smoke 3 1023 51 2500 1 120 17:20 18.12.2019
6275 Smoke 4 1023 48 3000 1.5 200 16:57 18.12.2019
6276 Smoke 4 1023 48 3000 1.5 200 16:57 18.12.2019
6277 Smoke 4 1023 48 3000 1.5 200 16:38 18.12.2019
6278 Smoke 4 1023 48 3000 1.5 200 16:20 18.12.2019
6279 Smoke 5 1022 45 4000 2.1 200 15:55 18.12.2019
6280 Smoke 5 1022 45 4000 2.1 200 15:37 18.12.2019
6281 Smoke 5 1022 45 4000 2.1 200 15:37 18.12.2019
6282 Smoke 5 1022 45 4000 2.1 200 15:19 18.12.2019
6283 Smoke 7 1022 39 5000 1.5 200 14:42 18.12.2019
6284 Smoke 7 1022 39 5000 1.5 200 14:22 18.12.2019
6285 Smoke 9 1022 36 6000 2.1 80 13:57 18.12.2019
6286 Smoke 9 1022 36 6000 2.1 80 13:39 18.12.2019
6287 Smoke 9 1022 36 6000 2.1 80 13:20 18.12.2019
6288 Smoke 10 1022 34 5000 2.1 110 12:58 18.12.2019
6289 Smoke 10 1022 34 5000 2.1 110 12:38 18.12.2019
6290 Smoke 10 1022 34 5000 2.1 110 12:38 18.12.2019
6291 Smoke 10 1022 34 5000 2.1 110 12:20 18.12.2019
6292 Haze 11 1020 27 6000 0.62 176 11:56 18.12.2019
6293 Haze 11 1020 27 6000 0.62 176 11:38 18.12.2019
6294 Haze 10 1020 27 6000 1.15 163 11:19 18.12.2019
6295 Haze 10 1020 29 6000 1.15 163 10:55 18.12.2019
6296 Smoke 10 1022 31 5000 1.5 0 10:37 18.12.2019
6297 Smoke 10 1022 31 5000 1.5 0 10:37 18.12.2019
6298 Smoke 10 1022 31 5000 1.5 0 10:19 18.12.2019
6299 Haze 8 1021 36 3200 1.5 50 09:50 18.12.2019
6300 Haze 8 1021 36 3200 1.5 50 09:50 18.12.2019
6301 Smoke 9 1024 33 5000 2.6 10 09:18 18.12.2019
6302 Smoke 6 1025 33 3000 1.5 0 08:41 18.12.2019
6303 Smoke 6 1025 33 3000 1.5 0 08:22 18.12.2019
6304 Smoke 6 1026 31 4000 1.5 280 07:43 18.12.2019
6305 Smoke 6 1026 31 4000 1.5 280 07:23 18.12.2019
6306 Smoke 3 1026 55 5000 1.5 100 06:56 18.12.2019
6307 Smoke 3 1026 55 5000 1.5 100 06:27 18.12.2019
6308 Clouds 2 1025 51 5000 1 0 05:57 18.12.2019
6309 Smoke 1 1025 55 5000 1.5 170 04:59 18.12.2019
6310 Smoke 0 1024 64 8000 1 330 02:55 18.12.2019
6311 Smoke 0 1024 64 8000 1 330 02:37 18.12.2019
6312 Smoke 0 1024 64 8000 1 330 02:18 18.12.2019
6313 Smoke 0 1024 59 3600 1 290 01:41 18.12.2019
6314 Smoke 0 1024 59 3600 1 290 01:22 18.12.2019
6315 Smoke 0 1024 59 3600 1 290 01:22 18.12.2019
6316 Smoke -1 1024 34 2000 2.1 340 00:41 18.12.2019
6317 Smoke -1 1024 34 2000 2.1 340 00:23 18.12.2019
6318 Smoke -1 1025 68 2000 1.5 310 23:57 17.12.2019
6319 Smoke -1 1025 68 2000 1.5 310 23:38 17.12.2019
6320 Smoke -1 1025 68 2000 1.5 310 23:19 17.12.2019
6321 Smoke 0 1025 36 2000 1 200 22:56 17.12.2019
6322 Smoke 0 1025 36 2000 1 200 22:37 17.12.2019
6323 Smoke 0 1025 36 2000 1 200 22:18 17.12.2019
6324 Smoke 1 1025 55 3600 1.5 220 21:55 17.12.2019
6325 Smoke 1 1025 55 3600 1.5 220 21:37 17.12.2019
6326 Smoke 1 1025 55 3600 1.5 220 21:18 17.12.2019
6327 Smoke 0 1026 36 3600 0.5 0 20:56 17.12.2019
6328 Smoke 0 1026 36 3600 0.5 0 20:37 17.12.2019
6329 Smoke 0 1026 37 3600 0.5 0 20:18 17.12.2019
6330 Smoke 0 1026 37 3600 0.5 0 19:54 17.12.2019
6331 Smoke 0 1026 37 3600 0.5 0 19:36 17.12.2019
6332 Smoke 0 1026 37 3600 0.5 0 19:18 17.12.2019
6333 Smoke 1 1026 50 3600 0.5 0 18:42 17.12.2019
6334 Smoke 0 1026 50 3600 0.5 0 18:22 17.12.2019
6335 Smoke 0 1026 47 3600 2.1 100 17:59 17.12.2019
6336 Smoke 1 1026 47 3600 2.1 100 17:41 17.12.2019
6337 Smoke 1 1026 47 3600 2.1 100 17:19 17.12.2019
6338 Smoke 3 1026 40 3200 1.5 340 16:56 17.12.2019
6339 Smoke 3 1026 40 3200 1.5 340 16:56 17.12.2019
6340 Smoke 3 1026 40 3200 1.5 340 16:37 17.12.2019
6341 Smoke 3 1026 40 3200 1.5 340 16:37 17.12.2019
6342 Smoke 3 1026 40 3200 1.5 340 16:19 17.12.2019
6343 Smoke 3 1025 35 3500 1.5 120 15:56 17.12.2019
6344 Smoke 4 1025 35 3500 1.5 120 15:37 17.12.2019
6345 Smoke 4 1025 35 3500 1.5 120 15:37 17.12.2019
6346 Smoke 4 1025 35 3500 1.5 120 15:19 17.12.2019
6347 Smoke 4 1025 35 3500 1.5 120 15:19 17.12.2019
6348 Smoke 5 1024 30 6000 1.5 170 14:55 17.12.2019
6349 Smoke 7 1024 30 6000 1.5 170 14:36 17.12.2019
6350 Smoke 7 1024 30 6000 1.5 170 14:18 17.12.2019
6351 Clouds 8 1025 24 10000 1.5 180 13:55 17.12.2019
6352 Clouds 8 1025 24 10000 1.5 180 13:55 17.12.2019
6353 Clouds 8 1025 24 10000 1.5 180 13:37 17.12.2019
6354 Clear 9 1025 24 10000 1.5 180 13:18 17.12.2019
6355 Clear 9 1025 21 10000 2.6 210 12:41 17.12.2019
6356 Clear 9 1025 21 10000 2.6 210 12:19 17.12.2019
6357 Clear 9 1025 21 10000 2.6 210 12:19 17.12.2019
6358 Clear 9 1025 21 10000 2.6 210 12:19 17.12.2019
6359 Clear 9 1025 23 10000 2.6 200 11:59 17.12.2019
6360 Clear 9 1025 23 10000 2.6 200 11:37 17.12.2019
6361 Clear 8 1025 23 10000 2.6 200 11:19 17.12.2019
6362 Clear 8 1025 23 10000 2.6 200 11:19 17.12.2019
6363 Clear 8 1026 23 10000 3.6 200 10:59 17.12.2019
6364 Clear 8 1026 23 10000 3.6 200 10:41 17.12.2019
6365 Clear 8 1026 23 10000 3.6 200 10:41 17.12.2019
6366 Clear 8 1026 23 10000 3.6 200 10:22 17.12.2019
6367 Clear 7 1027 26 10000 2.1 220 09:59 17.12.2019
6368 Clear 8 1027 26 10000 2.1 220 09:41 17.12.2019
6369 Clear 7 1027 26 10000 2.1 220 09:20 17.12.2019
6370 Clear 6 1028 28 10000 2.6 260 08:56 17.12.2019
6371 Clear 6 1028 28 10000 2.6 260 08:38 17.12.2019
6372 Clouds 6 1028 28 10000 2.6 260 08:19 17.12.2019
6373 Smoke 4 1029 35 8000 1 0 07:46 17.12.2019
6374 Smoke 4 1029 35 4000 1.5 0 07:26 17.12.2019
6375 Haze 2 1028 59 3200 2 177 06:56 17.12.2019
6376 Haze 1 1028 64 2800 2 177 06:35 17.12.2019
6377 Haze -1 1028 22 5000 2.1 310 05:53 17.12.2019
6378 Haze -1 1028 22 5000 2.1 310 05:34 17.12.2019
6379 Clouds -4 1028 63 10000 1 280 04:30 17.12.2019
6380 Clouds -4 1027 63 6000 3.1 330 02:34 17.12.2019
6381 Smoke -4 1027 79 3000 2.1 350 01:54 17.12.2019
6382 Haze -3 1026 79 8000 0.85 263 00:58 17.12.2019
6383 Haze -3 1026 79 8000 0.85 263 00:37 17.12.2019
6384 Smoke -2 1027 73 2000 2.1 320 00:18 17.12.2019
6385 Smoke -2 1027 73 2000 2.1 320 23:41 16.12.2019
6386 Smoke -2 1027 73 2000 2.1 320 23:19 16.12.2019
6387 Smoke -2 1027 73 2000 2.1 320 23:19 16.12.2019
6388 Smoke -3 1028 68 2000 1 0 22:56 16.12.2019
6389 Smoke -3 1028 68 2000 1 0 22:37 16.12.2019
6390 Smoke -3 1028 68 2000 1 0 22:19 16.12.2019
6391 Smoke -2 1028 63 2000 1 300 21:55 16.12.2019
6392 Smoke -1 1028 63 2000 1 300 21:37 16.12.2019
6393 Smoke -1 1028 63 2000 1 300 21:37 16.12.2019
6394 Smoke -2 1028 63 2000 1 300 21:18 16.12.2019
6395 Smoke -2 1028 68 2000 1.5 320 20:56 16.12.2019
6396 Smoke -2 1028 68 2000 1.5 320 20:56 16.12.2019
6397 Smoke -2 1028 68 2000 1.5 320 20:37 16.12.2019
6398 Smoke -2 1028 68 2000 1.5 320 20:19 16.12.2019
6399 Smoke -1 1028 68 2000 1.5 130 19:55 16.12.2019
6400 Smoke -1 1028 68 2000 1.5 130 19:36 16.12.2019
6401 Smoke -1 1028 68 2000 1.5 130 19:18 16.12.2019
6402 Smoke -1 1027 26 2000 1 180 18:55 16.12.2019
6403 Smoke -1 1027 26 2000 1 180 18:37 16.12.2019
6404 Smoke -1 1027 26 2000 1 180 18:18 16.12.2019
6405 Smoke -1 1027 55 2500 0.77 279 17:56 16.12.2019
6406 Smoke -1 1027 55 2500 0.77 279 17:37 16.12.2019
6407 Smoke 1 1027 55 2500 0.96 292 17:19 16.12.2019
6408 Smoke 1 1026 51 4000 1.5 240 16:54 16.12.2019
6409 Smoke 1 1026 51 4000 1.5 240 16:36 16.12.2019
6410 Smoke 1 1026 51 4000 1.5 240 16:18 16.12.2019
6411 Smoke 2 1026 51 4000 1 0 15:55 16.12.2019
6412 Smoke 2 1026 51 4000 1 0 15:55 16.12.2019
6413 Smoke 2 1026 51 4000 1 0 15:37 16.12.2019
6414 Smoke 2 1026 51 4000 1 0 15:37 16.12.2019
6415 Smoke 2 1026 43 7000 1 0 15:19 16.12.2019
6416 Smoke 5 1025 35 8000 2.1 70 14:54 16.12.2019
6417 Smoke 5 1025 35 8000 2.1 70 14:36 16.12.2019
6418 Smoke 6 1025 35 8000 2.1 70 14:18 16.12.2019
6419 Smoke 6 1025 35 8000 2.1 70 14:18 16.12.2019
6420 Smoke 6 1025 32 8000 2.1 70 13:38 16.12.2019
6421 Smoke 6 1025 32 8000 2.1 70 13:20 16.12.2019
6422 Smoke 8 1025 30 8000 1.5 0 12:59 16.12.2019
6423 Smoke 8 1025 30 8000 1.5 0 12:59 16.12.2019
6424 Smoke 8 1025 30 8000 1.5 0 12:41 16.12.2019
6425 Smoke 8 1025 30 8000 1.5 0 12:20 16.12.2019
6426 Smoke 8 1025 26 7000 1.5 0 11:59 16.12.2019
6427 Smoke 8 1025 26 7000 1.5 0 11:59 16.12.2019
6428 Smoke 8 1025 26 7000 1.5 0 11:41 16.12.2019
6429 Smoke 8 1025 26 7000 1.5 0 11:22 16.12.2019
6430 Smoke 8 1025 31 6000 1.5 0 10:59 16.12.2019
6431 Smoke 8 1025 31 6000 1.5 0 10:40 16.12.2019
6432 Smoke 8 1025 31 6000 1.5 0 10:21 16.12.2019
6433 Smoke 7 1026 33 5000 1.5 0 09:46 16.12.2019
6434 Smoke 7 1026 33 5000 1.5 0 09:28 16.12.2019
6435 Smoke 6 1027 35 3500 1.5 0 08:58 16.12.2019
6436 Smoke 6 1027 35 3500 1.5 0 08:38 16.12.2019
6437 Smoke 6 1027 35 3500 1.5 0 08:19 16.12.2019
6438 Smoke 3 1027 41 4000 1.5 0 07:49 16.12.2019
6439 Smoke 3 1027 41 4000 1.5 0 07:30 16.12.2019
6440 Smoke 2 1027 47 3500 2.6 320 06:46 16.12.2019
6441 Smoke 2 1027 47 3500 2.6 320 06:26 16.12.2019
6442 Mist -2 1026 63 3000 3.1 320 05:56 16.12.2019
6443 Mist -2 1026 63 3000 3.1 320 05:35 16.12.2019
6444 Mist -4 1025 85 4000 0.96 261 04:33 16.12.2019
6445 Mist -4 1025 85 2000 0.96 261 02:50 16.12.2019
6446 Haze -3 1024 79 8000 0.99 311 01:45 16.12.2019
6447 Mist -3 1025 73 1800 1 140 00:55 16.12.2019
6448 Mist -3 1025 73 1800 1 140 00:36 16.12.2019
6449 Mist -3 1025 73 1800 1 140 00:18 16.12.2019
6450 Smoke -3 1025 74 2000 1.5 270 23:40 15.12.2019
6451 Smoke -3 1025 74 2000 1.5 270 23:21 15.12.2019
6452 Smoke -3 1025 74 2500 1 350 22:56 15.12.2019
6453 Smoke -3 1025 74 2500 1 350 22:38 15.12.2019
6454 Smoke -3 1025 74 2500 1 350 22:18 15.12.2019
6455 Smoke -3 1025 68 2500 1.52 314 21:57 15.12.2019
6456 Smoke -2 1025 68 2500 1.52 314 21:38 15.12.2019
6457 Smoke -1 1025 68 2500 1.52 314 21:19 15.12.2019
6458 Smoke -1 1026 68 2500 1.5 140 20:56 15.12.2019
6459 Smoke -1 1026 68 2500 1.5 140 20:37 15.12.2019
6460 Smoke -1 1026 68 2500 1.5 140 20:19 15.12.2019
6461 Smoke -1 1026 63 2500 1 120 19:57 15.12.2019
6462 Smoke -1 1026 63 2500 1 120 19:39 15.12.2019
6463 Smoke -1 1026 63 2500 1 120 19:18 15.12.2019
6464 Smoke -1 1025 28 3000 1 310 18:56 15.12.2019
6465 Smoke -1 1025 28 3000 1 310 18:56 15.12.2019
6466 Smoke -1 1025 28 3000 1 310 18:38 15.12.2019
6467 Smoke -1 1025 28 3000 1 310 18:18 15.12.2019
6468 Smoke 0 1025 55 3000 1 180 17:56 15.12.2019
6469 Smoke 0 1025 55 3000 1 180 17:37 15.12.2019
6470 Smoke 2 1025 55 3000 1 180 17:18 15.12.2019
6471 Smoke 2 1025 55 3000 1.5 170 16:55 15.12.2019
6472 Smoke 2 1025 55 3000 1.5 170 16:55 15.12.2019
6473 Smoke 2 1025 55 3000 1.5 170 16:37 15.12.2019
6474 Smoke 2 1024 51 3500 1.5 190 16:19 15.12.2019
6475 Clear 3 1024 43 6000 1.34 310 15:54 15.12.2019
6476 Clear 3 1024 43 6000 1.34 310 15:36 15.12.2019
6477 Clear 3 1024 43 6000 1.34 310 15:18 15.12.2019
6478 Clear 5 1023 35 10000 1 0 14:54 15.12.2019
6479 Clear 5 1023 35 10000 1 0 14:36 15.12.2019
6480 Clear 6 1023 35 10000 1 0 14:18 15.12.2019
6481 Clear 6 1023 35 10000 1 0 14:18 15.12.2019
6482 Clear 7 1023 28 10000 1 0 13:54 15.12.2019
6483 Clear 7 1023 28 10000 1 0 13:36 15.12.2019
6484 Clear 7 1023 28 10000 1 0 13:18 15.12.2019
6485 Clear 8 1023 24 10000 1 0 12:55 15.12.2019
6486 Clear 8 1023 24 10000 1 0 12:36 15.12.2019
6487 Clear 8 1023 24 10000 1 0 12:18 15.12.2019
6488 Clear 8 1023 22 10000 1 0 11:38 15.12.2019
6489 Clear 7 1023 22 10000 1 0 11:19 15.12.2019
6490 Clear 7 1023 22 10000 1 0 11:19 15.12.2019
6491 Clear 7 1023 26 10000 2.1 10 10:56 15.12.2019
6492 Clear 7 1023 26 10000 2.1 10 10:38 15.12.2019
6493 Clear 7 1023 26 10000 2.1 10 10:38 15.12.2019
6494 Clear 7 1023 26 10000 2.1 10 10:19 15.12.2019
6495 Clear 7 1024 26 10000 3.1 150 09:57 15.12.2019
6496 Clear 6 1024 26 10000 3.1 150 09:37 15.12.2019
6497 Clear 5 1024 26 10000 3.1 150 09:19 15.12.2019
6498 Clear 5 1025 27 10000 3.1 200 08:42 15.12.2019
6499 Clear 5 1025 27 10000 3.1 200 08:42 15.12.2019
6500 Clear 5 1025 27 10000 3.1 200 08:23 15.12.2019
6501 Clear 4 1025 30 10000 1 0 07:59 15.12.2019
6502 Clear 4 1025 30 10000 1 0 07:38 15.12.2019
6503 Clear 4 1025 30 10000 1 0 07:19 15.12.2019
6504 Clear 2 1025 44 9000 1.5 310 06:24 15.12.2019
6505 Smoke 0 1025 55 8000 2.1 330 05:42 15.12.2019
6506 Smoke -2 1025 55 8000 2.1 330 05:20 15.12.2019
6507 Clear -3 1024 63 10000 2.1 320 04:19 15.12.2019
6508 Clear -3 1024 63 7000 2.6 330 02:49 15.12.2019
6509 Clear -3 1024 63 7000 2.6 330 02:30 15.12.2019
6510 Clear -1 1024 63 7000 2.6 340 01:40 15.12.2019
6511 Mist -2 1024 80 4000 2.1 350 01:18 15.12.2019
6512 Mist -2 1022 86 8000 2.1 200 00:47 15.12.2019
6513 Mist -2 1022 86 8000 2.1 200 00:47 15.12.2019
6514 Mist -2 1022 86 8000 2.1 200 00:29 15.12.2019
6515 Mist -2 1024 86 2500 0.5 120 23:41 14.12.2019
6516 Mist -1 1024 86 2500 0.5 120 23:22 14.12.2019
6517 Mist -1 1024 86 4000 0.5 10 22:59 14.12.2019
6518 Mist -1 1024 86 4000 0.5 10 22:41 14.12.2019
6519 Mist -1 1024 86 4000 0.5 10 22:22 14.12.2019
6520 Mist 1 1024 69 4000 0.5 40 21:56 14.12.2019
6521 Mist 1 1024 69 4000 0.5 40 21:38 14.12.2019
6522 Mist 0 1024 69 4000 0.5 40 21:19 14.12.2019
6523 Mist 0 1024 80 4000 1.5 130 20:57 14.12.2019
6524 Mist 0 1024 80 4000 1.5 130 20:39 14.12.2019
6525 Mist 0 1024 80 4000 1.5 130 20:19 14.12.2019
6526 Mist 0 1024 80 3000 1 350 19:57 14.12.2019
6527 Mist 0 1024 80 3000 1 350 19:37 14.12.2019
6528 Mist 0 1024 80 3000 1 350 19:19 14.12.2019
6529 Mist 1 1024 41 2500 1.5 320 18:56 14.12.2019
6530 Mist 1 1024 41 2500 1.5 320 18:37 14.12.2019
6531 Mist 1 1024 41 2500 1.5 320 18:19 14.12.2019
6532 Smoke 0 1024 74 2500 1 160 17:43 14.12.2019
6533 Smoke 0 1024 74 2500 1 160 17:24 14.12.2019
6534 Smoke 3 1023 64 2500 1.5 150 16:58 14.12.2019
6535 Smoke 3 1023 64 2500 1.5 150 16:39 14.12.2019
6536 Smoke 3 1023 64 2500 1.5 150 16:39 14.12.2019
6537 Smoke 3 1023 64 2500 1.5 150 16:39 14.12.2019
6538 Smoke 3 1023 64 2500 1.5 150 16:18 14.12.2019
6539 Smoke 4 1023 55 3000 1.5 180 15:43 14.12.2019
6540 Smoke 4 1023 55 3000 1.5 180 15:22 14.12.2019
6541 Clouds 6 1022 48 9000 4.6 350 14:59 14.12.2019
6542 Clouds 6 1022 48 9000 4.6 350 14:38 14.12.2019
6543 Clouds 6 1022 48 9000 4.6 350 14:19 14.12.2019
6544 Clouds 7 1022 38 10000 1.5 40 13:55 14.12.2019
6545 Clouds 7 1022 38 10000 1.5 40 13:37 14.12.2019
6546 Clouds 7 1022 38 10000 1.5 40 13:18 14.12.2019
6547 Clouds 8 1022 36 10000 4.6 330 12:41 14.12.2019
6548 Clouds 8 1022 36 10000 4.6 330 12:21 14.12.2019
6549 Clouds 8 1022 36 10000 4.6 330 12:21 14.12.2019
6550 Clouds 9 1022 33 10000 1 0 11:59 14.12.2019
6551 Clouds 9 1022 33 10000 1 0 11:40 14.12.2019
6552 Clouds 9 1022 33 10000 1 0 11:20 14.12.2019
6553 Clouds 9 1023 29 10000 2.1 250 10:59 14.12.2019
6554 Clouds 9 1023 29 10000 2.1 250 10:59 14.12.2019
6555 Clouds 9 1023 29 10000 2.1 250 10:40 14.12.2019
6556 Clouds 9 1023 29 10000 2.1 250 10:22 14.12.2019
6557 Clouds 8 1023 31 10000 1.5 0 09:59 14.12.2019
6558 Clouds 8 1023 31 10000 1.5 0 09:40 14.12.2019
6559 Clouds 8 1023 31 10000 1.5 0 09:20 14.12.2019
6560 Clouds 6 1024 30 10000 3.1 200 08:43 14.12.2019
6561 Clouds 5 1024 30 10000 3.1 200 08:20 14.12.2019
6562 Clouds 5 1024 35 10000 2.6 250 07:44 14.12.2019
6563 Clouds 5 1024 35 10000 2.6 250 07:24 14.12.2019
6564 Haze 5 1023 65 5000 0.73 120 06:58 14.12.2019
6565 Clouds 4 1024 38 10000 2.6 190 06:38 14.12.2019
6566 Clouds 2 1024 38 10000 2.6 190 06:18 14.12.2019
6567 Clouds -1 1021 45 10000 2.1 330 04:48 14.12.2019
6568 Clouds 0 1020 59 10000 1.5 340 02:44 14.12.2019
6569 Clouds 0 1020 59 10000 1.5 340 02:22 14.12.2019
6570 Clouds -1 1019 64 10000 2.6 350 01:37 14.12.2019
6571 Clouds 0 1019 64 10000 2.1 330 00:50 14.12.2019
6572 Clouds 0 1019 64 10000 2.1 330 00:29 14.12.2019
6573 Clouds 0 1019 64 10000 2.1 330 00:29 14.12.2019
6574 Clouds 1 1019 64 10000 2.1 360 23:57 13.12.2019
6575 Clouds 1 1019 64 10000 2.1 360 23:38 13.12.2019
6576 Clouds 1 1019 64 10000 2.1 360 23:19 13.12.2019
6577 Clouds 1 1018 64 10000 2.6 360 22:42 13.12.2019
6578 Clouds 1 1018 64 10000 2.6 360 22:19 13.12.2019
6579 Clouds 1 1018 64 10000 2.6 360 22:19 13.12.2019
6580 Clouds 1 1018 64 10000 2.6 360 22:19 13.12.2019
6581 Clouds 1 1018 64 10000 2.1 350 21:56 13.12.2019
6582 Clouds 1 1018 64 10000 2.1 350 21:38 13.12.2019
6583 Mist 1 1016 49 9000 1.34 272 21:20 13.12.2019
6584 Clear 2 1018 64 10000 2.6 350 20:54 13.12.2019
6585 Clear 2 1018 64 10000 2.6 350 20:36 13.12.2019
6586 Clear 2 1018 64 10000 2.6 350 20:36 13.12.2019
6587 Clear 3 1018 64 10000 2.6 350 20:18 13.12.2019
6588 Clouds 3 1017 59 10000 1.5 300 19:42 13.12.2019
6589 Clouds 3 1017 59 10000 1.5 300 19:23 13.12.2019
6590 Clouds 3 1017 55 10000 2.1 230 18:59 13.12.2019
6591 Clouds 3 1017 55 10000 2.1 230 18:41 13.12.2019
6592 Clouds 3 1017 55 10000 2.1 230 18:19 13.12.2019
6593 Mist 4 1015 46 9000 2.1 200 17:57 13.12.2019
6594 Clouds 4 1017 56 10000 3.1 190 17:39 13.12.2019
6595 Clouds 4 1017 56 10000 3.1 190 17:18 13.12.2019
6596 Smoke 3 1016 60 5000 2.1 120 16:54 13.12.2019
6597 Smoke 3 1016 60 5000 2.1 120 16:36 13.12.2019
6598 Smoke 3 1016 60 5000 2.1 120 16:18 13.12.2019
6599 Haze 4 1014 53 8000 1.5 290 15:40 13.12.2019
6600 Haze 4 1014 53 8000 1.5 290 15:20 13.12.2019
6601 Clouds 7 1015 45 9000 2.1 70 14:55 13.12.2019
6602 Clouds 7 1015 45 9000 2.1 70 14:36 13.12.2019
6603 Clouds 8 1015 45 9000 2.1 70 14:18 13.12.2019
6604 Clouds 8 1014 45 10000 2.1 70 13:41 13.12.2019
6605 Clouds 8 1014 45 10000 2.1 70 13:21 13.12.2019
6606 Clouds 10 1014 42 10000 2.1 90 12:44 13.12.2019
6607 Clouds 10 1014 42 10000 2.1 90 12:23 13.12.2019
6608 Clouds 10 1014 42 10000 2.1 0 11:59 13.12.2019
6609 Clouds 10 1014 42 10000 2.1 0 11:41 13.12.2019
6610 Clouds 10 1014 42 10000 2.1 0 11:23 13.12.2019
6611 Clouds 10 1014 42 10000 2.1 0 10:56 13.12.2019
6612 Clouds 10 1014 42 10000 2.1 0 10:38 13.12.2019
6613 Clouds 10 1014 42 10000 2.1 0 10:19 13.12.2019
6614 Clouds 9 1015 49 10000 2.1 0 09:41 13.12.2019
6615 Clouds 9 1015 49 10000 2.1 0 09:20 13.12.2019
6616 Clouds 7 1015 52 7000 3.1 220 08:44 13.12.2019
6617 Clouds 7 1015 52 7000 3.1 220 08:25 13.12.2019
6618 Haze 5 1016 52 6000 4.1 190 07:48 13.12.2019
6619 Mist 5 1016 53 2500 1.5 0 07:24 13.12.2019
6620 Mist 4 1014 80 5000 1.44 160 06:55 13.12.2019
6621 Mist 2 1016 80 1500 1.5 110 06:29 13.12.2019
6622 Mist 1 1015 53 2000 1.5 10 05:51 13.12.2019
6623 Mist 0 1015 100 1200 1.5 350 05:30 13.12.2019
6624 Mist -2 1015 92 3000 1 0 04:48 13.12.2019
6625 Fog -2 1015 100 1000 1.5 100 03:49 13.12.2019
6626 Fog -1 1014 100 2500 1 110 02:35 13.12.2019
6627 Mist 0 1014 92 5000 1 0 01:50 13.12.2019
6628 Mist 0 1014 92 5000 1 0 01:21 13.12.2019
6629 Mist 0 1014 92 5000 1 90 00:46 13.12.2019
6630 Mist 0 1014 92 5000 1 90 00:24 13.12.2019
6631 Clouds 1 1014 67 6000 1.5 310 23:41 12.12.2019
6632 Clouds 1 1014 70 6000 1.5 310 23:22 12.12.2019
6633 Mist 1 1014 70 5000 1 140 22:56 12.12.2019
6634 Mist 1 1014 70 5000 1 140 22:38 12.12.2019
6635 Mist 1 1014 70 5000 1 140 22:19 12.12.2019
6636 Mist 1 1014 70 5000 1 140 22:19 12.12.2019
6637 Clouds 1 1015 86 6000 2.1 110 21:55 12.12.2019
6638 Clouds 1 1015 86 6000 2.1 110 21:37 12.12.2019
6639 Clouds 1 1015 86 6000 2.1 110 21:19 12.12.2019
6640 Clouds 2 1015 70 8000 1 130 20:57 12.12.2019
6641 Clouds 2 1015 70 8000 1 130 20:38 12.12.2019
6642 Clouds 2 1015 75 8000 1 130 20:20 12.12.2019
6643 Clouds 3 1016 64 10000 1.56 341 19:55 12.12.2019
6644 Clouds 3 1016 64 10000 1.56 341 19:37 12.12.2019
6645 Clouds 3 1016 64 10000 1.56 341 19:18 12.12.2019
6646 Clouds 3 1016 64 10000 1.5 150 18:55 12.12.2019
6647 Clouds 3 1016 64 10000 1.5 150 18:36 12.12.2019
6648 Clouds 3 1016 64 10000 1.5 150 18:18 12.12.2019
6649 Clouds 3 1015 80 10000 1.56 341 17:55 12.12.2019
6650 Clouds 3 1015 80 10000 1.56 341 17:55 12.12.2019
6651 Clouds 4 1016 64 10000 2.1 100 17:37 12.12.2019
6652 Clouds 4 1016 66 10000 2.1 100 17:18 12.12.2019
6653 Clouds 4 1016 66 10000 3.6 340 16:42 12.12.2019
6654 Clouds 4 1016 66 10000 3.6 340 16:21 12.12.2019
6655 Clouds 4 1016 66 10000 4.6 350 15:59 12.12.2019
6656 Clouds 4 1016 66 10000 4.6 350 15:41 12.12.2019
6657 Clouds 4 1016 66 10000 4.6 350 15:19 12.12.2019
6658 Clouds 5 1016 66 10000 3.6 330 14:57 12.12.2019
6659 Clouds 5 1016 66 10000 3.6 330 14:36 12.12.2019
6660 Clouds 5 1016 63 10000 3.6 330 14:18 12.12.2019
6661 Clouds 5 1014 75 10000 2.78 336 13:54 12.12.2019
6662 Clouds 5 1015 63 10000 5.1 90 13:36 12.12.2019
6663 Clouds 7 1015 64 10000 5.1 90 13:18 12.12.2019
6664 Clouds 7 1015 64 10000 7.2 120 12:41 12.12.2019
6665 Thunderstorm 7 1015 64 10000 7.2 140 12:22 12.12.2019
6666 Thunderstorm 8 1015 64 10000 9.8 140 11:59 12.12.2019
6667 Thunderstorm 8 1015 64 10000 9.8 140 11:40 12.12.2019
6668 Rain 7 1014 70 10000 3.6 40 11:21 12.12.2019
6669 Clouds 7 1014 75 10000 3.6 10 10:58 12.12.2019
6670 Rain 8 1016 73 10000 2.6 100 10:40 12.12.2019
6671 Rain 8 1016 73 10000 2.6 100 10:21 12.12.2019
6672 Rain 8 1017 57 10000 1.5 0 09:56 12.12.2019
6673 Rain 9 1017 57 10000 1.5 0 09:38 12.12.2019
6674 Rain 9 1017 57 10000 1.5 0 09:19 12.12.2019
6675 Clouds 8 1018 65 10000 3.1 350 08:47 12.12.2019
6676 Clouds 8 1018 65 10000 3.1 350 08:28 12.12.2019
6677 Rain 7 1017 61 9000 1.49 36 07:54 12.12.2019
6678 Clouds 8 1019 70 8000 1.5 20 07:36 12.12.2019
6679 Clouds 8 1019 70 8000 1.5 20 07:18 12.12.2019
6680 Mist 6 1019 75 4000 2.1 320 06:41 12.12.2019
6681 Mist 5 1019 90 3200 1 330 06:21 12.12.2019
6682 Rain 3 1019 90 3200 1.5 30 05:26 12.12.2019
6683 Mist 2 1019 79 2000 1.5 140 04:31 12.12.2019
6684 Mist 1 1018 79 4000 1.5 120 02:41 12.12.2019
6685 Mist 1 1018 79 4000 1.5 120 02:23 12.12.2019
6686 Clouds 1 1018 80 6000 1.5 130 01:54 12.12.2019
6687 Clouds 1 1018 80 6000 1.5 130 01:35 12.12.2019
6688 Clouds 3 1018 82 7000 1 0 00:48 12.12.2019
6689 Clouds 3 1018 82 7000 1 0 00:21 12.12.2019
6690 Clouds 3 1018 82 7000 1 280 23:58 11.12.2019
6691 Clouds 3 1018 82 7000 1 280 23:36 11.12.2019
6692 Clouds 3 1018 70 7000 1 280 23:18 11.12.2019
6693 Clouds 2 1018 70 7000 1.5 320 22:55 11.12.2019
6694 Clouds 2 1018 70 7000 1.5 320 22:36 11.12.2019
6695 Clouds 4 1018 70 7000 1.5 320 22:18 11.12.2019
6696 Clouds 2 1019 70 6000 1 270 21:39 11.12.2019
6697 Clouds 5 1019 70 6000 1 270 21:20 11.12.2019
6698 Clouds 4 1019 70 6000 1 0 20:58 11.12.2019
6699 Clouds 4 1019 70 6000 1 0 20:40 11.12.2019
6700 Clouds 4 1019 62 6000 1 0 20:20 11.12.2019
6701 Clouds 5 1017 75 10000 3.6 80 19:59 11.12.2019
6702 Clouds 5 1017 75 10000 3.6 80 19:40 11.12.2019
6703 Clouds 5 1017 75 10000 3.6 80 19:21 11.12.2019
6704 Clouds 3 1019 62 7000 1.5 320 18:58 11.12.2019
6705 Clouds 3 1019 62 7000 1.5 320 18:39 11.12.2019
6706 Clouds 3 1019 62 7000 1.5 320 18:18 11.12.2019
6707 Clouds 4 1019 62 9000 1 0 17:55 11.12.2019
6708 Clouds 4 1019 62 9000 1 0 17:37 11.12.2019
6709 Clouds 5 1019 57 9000 1 0 17:18 11.12.2019
6710 Clouds 5 1018 69 9000 2.6 130 16:55 11.12.2019
6711 Clouds 5 1018 69 9000 2.6 130 16:36 11.12.2019
6712 Clouds 5 1018 69 9000 2.6 130 16:18 11.12.2019
6713 Clouds 5 1018 57 9000 4.1 130 15:54 11.12.2019
6714 Clouds 5 1018 57 9000 4.1 130 15:36 11.12.2019
6715 Clouds 5 1018 57 9000 4.1 130 15:18 11.12.2019
6716 Clouds 5 1018 57 10000 4.6 130 14:54 11.12.2019
6717 Clouds 5 1018 57 10000 4.6 130 14:36 11.12.2019
6718 Clouds 5 1018 57 10000 4.6 130 14:36 11.12.2019
6719 Clouds 5 1018 58 10000 4.6 130 14:18 11.12.2019
6720 Clouds 6 1017 58 10000 4.6 130 13:41 11.12.2019
6721 Clouds 6 1017 59 10000 4.6 130 13:21 11.12.2019
6722 Clouds 9 1017 49 10000 4.6 120 12:57 11.12.2019
6723 Clouds 9 1017 49 10000 4.6 120 12:38 11.12.2019
6724 Clouds 9 1017 49 10000 4.6 120 12:38 11.12.2019
6725 Mist 9 1017 61 9000 1.23 350 12:20 11.12.2019
6726 Clouds 10 1017 39 10000 1.5 190 11:57 11.12.2019
6727 Clouds 10 1017 39 10000 1.5 190 11:38 11.12.2019
6728 Clouds 10 1017 39 10000 1.5 190 11:38 11.12.2019
6729 Clouds 10 1017 39 10000 1.5 190 11:18 11.12.2019
6730 Clouds 10 1017 39 10000 1.5 190 11:18 11.12.2019
6731 Clouds 10 1017 39 10000 1.5 190 11:18 11.12.2019
6732 Clouds 9 1017 37 10000 1.5 0 10:55 11.12.2019
6733 Clouds 9 1017 37 10000 1.5 0 10:37 11.12.2019
6734 Clouds 9 1017 37 10000 1.5 0 10:19 11.12.2019
6735 Clouds 8 1018 42 10000 2.6 210 09:41 11.12.2019
6736 Clouds 8 1018 42 10000 2.6 210 09:21 11.12.2019
6737 Clouds 8 1019 49 10000 2.6 210 08:58 11.12.2019
6738 Clouds 8 1019 49 10000 2.6 210 08:38 11.12.2019
6739 Clouds 8 1019 49 10000 2.6 210 08:19 11.12.2019
6740 Clear 6 1020 55 10000 1 0 07:56 11.12.2019
6741 Clear 6 1020 55 10000 1 0 07:38 11.12.2019
6742 Clear 6 1020 55 10000 1 0 07:19 11.12.2019
6743 Clear 5 1020 75 8000 2.1 350 06:44 11.12.2019
6744 Clear 5 1020 75 8000 2.1 350 06:22 11.12.2019
6745 Clouds 4 1019 55 8000 2.1 10 05:41 11.12.2019
6746 Clouds 4 1019</